<?xml version="1.0" encoding="UTF-8" standalone="no" ?>
<gpx xmlns="http://www.topografix.com/GPX/1/1" xmlns:xsi="http://www.w3.org/2001/XMLSchema-instance" xsi:schemaLocation="http://www.topografix.com/GPX/1/1 http://www.topografix.com/GPX/1/1/gpx.xsd" version="1.1" creator="VisuGPX - https://www.visugpx.com">
  <metadata>
    <name>Boucle VTT des 4 villages</name>
    <desc><![CDATA[Un bea parcours avec quelques nouveaux monotraces mémorables. Un bien bel enchainement et quelques clotures à sauter. 35km 640m D  sur le GPS
]]></desc>
  </metadata>
  <trk>
    <name><![CDATA[2011-02-06-01]]></name>
    <trkseg>
      <trkpt lat="43.58085" lon="3.74669">
        <ele>97.800003</ele>
        <time>2011-02-06T07:47:57Z</time>
      </trkpt>
      <trkpt lat="43.58089" lon="3.7468">
        <ele>87.15586</ele>
        <time>2011-02-06T07:48:08Z</time>
      </trkpt>
      <trkpt lat="43.58089" lon="3.7468">
        <ele>86.766899</ele>
        <time>2011-02-06T07:48:09Z</time>
      </trkpt>
      <trkpt lat="43.58092" lon="3.74678">
        <ele>80.3</ele>
        <time>2011-02-06T07:49:17Z</time>
      </trkpt>
      <trkpt lat="43.58092" lon="3.7468">
        <ele>80.3</ele>
        <time>2011-02-06T07:49:18Z</time>
      </trkpt>
      <trkpt lat="43.5809" lon="3.7468">
        <ele>79.3</ele>
        <time>2011-02-06T07:49:34Z</time>
      </trkpt>
      <trkpt lat="43.58095" lon="3.74689">
        <ele>78.7</ele>
        <time>2011-02-06T07:49:40Z</time>
      </trkpt>
      <trkpt lat="43.58091" lon="3.74679">
        <ele>78.3</ele>
        <time>2011-02-06T07:49:48Z</time>
      </trkpt>
      <trkpt lat="43.58093" lon="3.74691">
        <ele>82.1</ele>
        <time>2011-02-06T07:51:26Z</time>
      </trkpt>
      <trkpt lat="43.58094" lon="3.74693">
        <ele>81.9</ele>
        <time>2011-02-06T07:51:27Z</time>
      </trkpt>
      <trkpt lat="43.58105" lon="3.74707">
        <ele>81.4</ele>
        <time>2011-02-06T07:51:34Z</time>
      </trkpt>
      <trkpt lat="43.5811" lon="3.74714">
        <ele>81.1</ele>
        <time>2011-02-06T07:51:37Z</time>
      </trkpt>
      <trkpt lat="43.58115" lon="3.74721">
        <ele>80.5</ele>
        <time>2011-02-06T07:51:40Z</time>
      </trkpt>
      <trkpt lat="43.58122" lon="3.74729">
        <ele>80</ele>
        <time>2011-02-06T07:51:43Z</time>
      </trkpt>
      <trkpt lat="43.58129" lon="3.74735">
        <ele>79.5</ele>
        <time>2011-02-06T07:51:46Z</time>
      </trkpt>
      <trkpt lat="43.58136" lon="3.74742">
        <ele>79.4</ele>
        <time>2011-02-06T07:51:49Z</time>
      </trkpt>
      <trkpt lat="43.58144" lon="3.74748">
        <ele>79.7</ele>
        <time>2011-02-06T07:51:52Z</time>
      </trkpt>
      <trkpt lat="43.58152" lon="3.74752">
        <ele>80.3</ele>
        <time>2011-02-06T07:51:55Z</time>
      </trkpt>
      <trkpt lat="43.58158" lon="3.74758">
        <ele>80.6</ele>
        <time>2011-02-06T07:51:58Z</time>
      </trkpt>
      <trkpt lat="43.58159" lon="3.74769">
        <ele>80</ele>
        <time>2011-02-06T07:52:01Z</time>
      </trkpt>
      <trkpt lat="43.58156" lon="3.74781">
        <ele>79.4</ele>
        <time>2011-02-06T07:52:03Z</time>
      </trkpt>
      <trkpt lat="43.58136" lon="3.74853">
        <ele>77.4</ele>
        <time>2011-02-06T07:52:12Z</time>
      </trkpt>
      <trkpt lat="43.58133" lon="3.74862">
        <ele>75.6</ele>
        <time>2011-02-06T07:52:13Z</time>
      </trkpt>
      <trkpt lat="43.5813" lon="3.7487">
        <ele>73.8</ele>
        <time>2011-02-06T07:52:14Z</time>
      </trkpt>
      <trkpt lat="43.58124" lon="3.74877">
        <ele>72.1</ele>
        <time>2011-02-06T07:52:15Z</time>
      </trkpt>
      <trkpt lat="43.58088" lon="3.74892">
        <ele>69.7</ele>
        <time>2011-02-06T07:52:20Z</time>
      </trkpt>
      <trkpt lat="43.5808" lon="3.74896">
        <ele>66.4</ele>
        <time>2011-02-06T07:52:22Z</time>
      </trkpt>
      <trkpt lat="43.58077" lon="3.74904">
        <ele>64.5</ele>
        <time>2011-02-06T07:52:24Z</time>
      </trkpt>
      <trkpt lat="43.5808" lon="3.74914">
        <ele>63.6</ele>
        <time>2011-02-06T07:52:26Z</time>
      </trkpt>
      <trkpt lat="43.58085" lon="3.74924">
        <ele>63</ele>
        <time>2011-02-06T07:52:28Z</time>
      </trkpt>
      <trkpt lat="43.58088" lon="3.7493">
        <ele>62.8</ele>
        <time>2011-02-06T07:52:29Z</time>
      </trkpt>
      <trkpt lat="43.5809" lon="3.74935">
        <ele>62.6</ele>
        <time>2011-02-06T07:52:30Z</time>
      </trkpt>
      <trkpt lat="43.58093" lon="3.74941">
        <ele>62.5</ele>
        <time>2011-02-06T07:52:31Z</time>
      </trkpt>
      <trkpt lat="43.58096" lon="3.74947">
        <ele>62.3</ele>
        <time>2011-02-06T07:52:32Z</time>
      </trkpt>
      <trkpt lat="43.58098" lon="3.74952">
        <ele>62.2</ele>
        <time>2011-02-06T07:52:33Z</time>
      </trkpt>
      <trkpt lat="43.58101" lon="3.74958">
        <ele>62.1</ele>
        <time>2011-02-06T07:52:34Z</time>
      </trkpt>
      <trkpt lat="43.58104" lon="3.74964">
        <ele>62</ele>
        <time>2011-02-06T07:52:35Z</time>
      </trkpt>
      <trkpt lat="43.58106" lon="3.7497">
        <ele>61.9</ele>
        <time>2011-02-06T07:52:36Z</time>
      </trkpt>
      <trkpt lat="43.58109" lon="3.74975">
        <ele>61.9</ele>
        <time>2011-02-06T07:52:37Z</time>
      </trkpt>
      <trkpt lat="43.58111" lon="3.74981">
        <ele>61.8</ele>
        <time>2011-02-06T07:52:38Z</time>
      </trkpt>
      <trkpt lat="43.58114" lon="3.74987">
        <ele>61.7</ele>
        <time>2011-02-06T07:52:39Z</time>
      </trkpt>
      <trkpt lat="43.58116" lon="3.74992">
        <ele>61.6</ele>
        <time>2011-02-06T07:52:40Z</time>
      </trkpt>
      <trkpt lat="43.58119" lon="3.74998">
        <ele>61.5</ele>
        <time>2011-02-06T07:52:41Z</time>
      </trkpt>
      <trkpt lat="43.58122" lon="3.75003">
        <ele>61.4</ele>
        <time>2011-02-06T07:52:42Z</time>
      </trkpt>
      <trkpt lat="43.58124" lon="3.75008">
        <ele>61.3</ele>
        <time>2011-02-06T07:52:43Z</time>
      </trkpt>
      <trkpt lat="43.58127" lon="3.75013">
        <ele>61.3</ele>
        <time>2011-02-06T07:52:44Z</time>
      </trkpt>
      <trkpt lat="43.58129" lon="3.75019">
        <ele>61.2</ele>
        <time>2011-02-06T07:52:45Z</time>
      </trkpt>
      <trkpt lat="43.58131" lon="3.75024">
        <ele>61.2</ele>
        <time>2011-02-06T07:52:46Z</time>
      </trkpt>
      <trkpt lat="43.58134" lon="3.75029">
        <ele>61.2</ele>
        <time>2011-02-06T07:52:47Z</time>
      </trkpt>
      <trkpt lat="43.58138" lon="3.7504">
        <ele>61.1</ele>
        <time>2011-02-06T07:52:49Z</time>
      </trkpt>
      <trkpt lat="43.58141" lon="3.75046">
        <ele>61</ele>
        <time>2011-02-06T07:52:50Z</time>
      </trkpt>
      <trkpt lat="43.58143" lon="3.75052">
        <ele>60.8</ele>
        <time>2011-02-06T07:52:51Z</time>
      </trkpt>
      <trkpt lat="43.58146" lon="3.75058">
        <ele>60.6</ele>
        <time>2011-02-06T07:52:52Z</time>
      </trkpt>
      <trkpt lat="43.58149" lon="3.75063">
        <ele>60.4</ele>
        <time>2011-02-06T07:52:53Z</time>
      </trkpt>
      <trkpt lat="43.58153" lon="3.75068">
        <ele>60.2</ele>
        <time>2011-02-06T07:52:54Z</time>
      </trkpt>
      <trkpt lat="43.58156" lon="3.75074">
        <ele>60</ele>
        <time>2011-02-06T07:52:55Z</time>
      </trkpt>
      <trkpt lat="43.5816" lon="3.75079">
        <ele>59.9</ele>
        <time>2011-02-06T07:52:56Z</time>
      </trkpt>
      <trkpt lat="43.58163" lon="3.75086">
        <ele>59.7</ele>
        <time>2011-02-06T07:52:57Z</time>
      </trkpt>
      <trkpt lat="43.58166" lon="3.75092">
        <ele>59.5</ele>
        <time>2011-02-06T07:52:58Z</time>
      </trkpt>
      <trkpt lat="43.58169" lon="3.75099">
        <ele>59.4</ele>
        <time>2011-02-06T07:52:59Z</time>
      </trkpt>
      <trkpt lat="43.58172" lon="3.75106">
        <ele>59.2</ele>
        <time>2011-02-06T07:53:00Z</time>
      </trkpt>
      <trkpt lat="43.58175" lon="3.75112">
        <ele>59</ele>
        <time>2011-02-06T07:53:01Z</time>
      </trkpt>
      <trkpt lat="43.58178" lon="3.75119">
        <ele>58.9</ele>
        <time>2011-02-06T07:53:02Z</time>
      </trkpt>
      <trkpt lat="43.58181" lon="3.75126">
        <ele>58.7</ele>
        <time>2011-02-06T07:53:03Z</time>
      </trkpt>
      <trkpt lat="43.58184" lon="3.75133">
        <ele>58.5</ele>
        <time>2011-02-06T07:53:04Z</time>
      </trkpt>
      <trkpt lat="43.58187" lon="3.7514">
        <ele>58.4</ele>
        <time>2011-02-06T07:53:05Z</time>
      </trkpt>
      <trkpt lat="43.5819" lon="3.75147">
        <ele>58.2</ele>
        <time>2011-02-06T07:53:06Z</time>
      </trkpt>
      <trkpt lat="43.58193" lon="3.75153">
        <ele>58.1</ele>
        <time>2011-02-06T07:53:07Z</time>
      </trkpt>
      <trkpt lat="43.58195" lon="3.7516">
        <ele>58.1</ele>
        <time>2011-02-06T07:53:08Z</time>
      </trkpt>
      <trkpt lat="43.58198" lon="3.75166">
        <ele>58</ele>
        <time>2011-02-06T07:53:09Z</time>
      </trkpt>
      <trkpt lat="43.58201" lon="3.75173">
        <ele>58</ele>
        <time>2011-02-06T07:53:10Z</time>
      </trkpt>
      <trkpt lat="43.58203" lon="3.75179">
        <ele>57.9</ele>
        <time>2011-02-06T07:53:11Z</time>
      </trkpt>
      <trkpt lat="43.58206" lon="3.75185">
        <ele>57.9</ele>
        <time>2011-02-06T07:53:12Z</time>
      </trkpt>
      <trkpt lat="43.58209" lon="3.75191">
        <ele>57.8</ele>
        <time>2011-02-06T07:53:13Z</time>
      </trkpt>
      <trkpt lat="43.58211" lon="3.75196">
        <ele>57.7</ele>
        <time>2011-02-06T07:53:14Z</time>
      </trkpt>
      <trkpt lat="43.58214" lon="3.75202">
        <ele>57.6</ele>
        <time>2011-02-06T07:53:15Z</time>
      </trkpt>
      <trkpt lat="43.58217" lon="3.75208">
        <ele>57.5</ele>
        <time>2011-02-06T07:53:16Z</time>
      </trkpt>
      <trkpt lat="43.58219" lon="3.75214">
        <ele>57.3</ele>
        <time>2011-02-06T07:53:17Z</time>
      </trkpt>
      <trkpt lat="43.58222" lon="3.75221">
        <ele>57.2</ele>
        <time>2011-02-06T07:53:18Z</time>
      </trkpt>
      <trkpt lat="43.58225" lon="3.75227">
        <ele>57.1</ele>
        <time>2011-02-06T07:53:19Z</time>
      </trkpt>
      <trkpt lat="43.58228" lon="3.75233">
        <ele>57.1</ele>
        <time>2011-02-06T07:53:20Z</time>
      </trkpt>
      <trkpt lat="43.5823" lon="3.75239">
        <ele>57</ele>
        <time>2011-02-06T07:53:21Z</time>
      </trkpt>
      <trkpt lat="43.58233" lon="3.75245">
        <ele>56.8</ele>
        <time>2011-02-06T07:53:22Z</time>
      </trkpt>
      <trkpt lat="43.58236" lon="3.75251">
        <ele>56.7</ele>
        <time>2011-02-06T07:53:23Z</time>
      </trkpt>
      <trkpt lat="43.58238" lon="3.75257">
        <ele>56.5</ele>
        <time>2011-02-06T07:53:24Z</time>
      </trkpt>
      <trkpt lat="43.58241" lon="3.75264">
        <ele>56.3</ele>
        <time>2011-02-06T07:53:25Z</time>
      </trkpt>
      <trkpt lat="43.58244" lon="3.7527">
        <ele>56.2</ele>
        <time>2011-02-06T07:53:26Z</time>
      </trkpt>
      <trkpt lat="43.58247" lon="3.75276">
        <ele>56</ele>
        <time>2011-02-06T07:53:27Z</time>
      </trkpt>
      <trkpt lat="43.5825" lon="3.75283">
        <ele>55.9</ele>
        <time>2011-02-06T07:53:28Z</time>
      </trkpt>
      <trkpt lat="43.58253" lon="3.75289">
        <ele>55.8</ele>
        <time>2011-02-06T07:53:29Z</time>
      </trkpt>
      <trkpt lat="43.58255" lon="3.75295">
        <ele>55.7</ele>
        <time>2011-02-06T07:53:30Z</time>
      </trkpt>
      <trkpt lat="43.58258" lon="3.75301">
        <ele>55.6</ele>
        <time>2011-02-06T07:53:31Z</time>
      </trkpt>
      <trkpt lat="43.58261" lon="3.75307">
        <ele>55.5</ele>
        <time>2011-02-06T07:53:32Z</time>
      </trkpt>
      <trkpt lat="43.58264" lon="3.75313">
        <ele>55.4</ele>
        <time>2011-02-06T07:53:33Z</time>
      </trkpt>
      <trkpt lat="43.58266" lon="3.7532">
        <ele>55.4</ele>
        <time>2011-02-06T07:53:34Z</time>
      </trkpt>
      <trkpt lat="43.58269" lon="3.75326">
        <ele>55.3</ele>
        <time>2011-02-06T07:53:35Z</time>
      </trkpt>
      <trkpt lat="43.58272" lon="3.75332">
        <ele>55.2</ele>
        <time>2011-02-06T07:53:36Z</time>
      </trkpt>
      <trkpt lat="43.58275" lon="3.75338">
        <ele>55.2</ele>
        <time>2011-02-06T07:53:37Z</time>
      </trkpt>
      <trkpt lat="43.58277" lon="3.75345">
        <ele>55.1</ele>
        <time>2011-02-06T07:53:38Z</time>
      </trkpt>
      <trkpt lat="43.5828" lon="3.75351">
        <ele>55</ele>
        <time>2011-02-06T07:53:39Z</time>
      </trkpt>
      <trkpt lat="43.58283" lon="3.75357">
        <ele>54.9</ele>
        <time>2011-02-06T07:53:40Z</time>
      </trkpt>
      <trkpt lat="43.58285" lon="3.75364">
        <ele>54.8</ele>
        <time>2011-02-06T07:53:41Z</time>
      </trkpt>
      <trkpt lat="43.58288" lon="3.7537">
        <ele>54.7</ele>
        <time>2011-02-06T07:53:42Z</time>
      </trkpt>
      <trkpt lat="43.58291" lon="3.75376">
        <ele>54.6</ele>
        <time>2011-02-06T07:53:43Z</time>
      </trkpt>
      <trkpt lat="43.58294" lon="3.75382">
        <ele>54.6</ele>
        <time>2011-02-06T07:53:44Z</time>
      </trkpt>
      <trkpt lat="43.58296" lon="3.75389">
        <ele>54.5</ele>
        <time>2011-02-06T07:53:45Z</time>
      </trkpt>
      <trkpt lat="43.58299" lon="3.75395">
        <ele>54.4</ele>
        <time>2011-02-06T07:53:46Z</time>
      </trkpt>
      <trkpt lat="43.58302" lon="3.75401">
        <ele>54.2</ele>
        <time>2011-02-06T07:53:47Z</time>
      </trkpt>
      <trkpt lat="43.58304" lon="3.75407">
        <ele>54.1</ele>
        <time>2011-02-06T07:53:48Z</time>
      </trkpt>
      <trkpt lat="43.58307" lon="3.75414">
        <ele>54</ele>
        <time>2011-02-06T07:53:49Z</time>
      </trkpt>
      <trkpt lat="43.5831" lon="3.7542">
        <ele>53.8</ele>
        <time>2011-02-06T07:53:50Z</time>
      </trkpt>
      <trkpt lat="43.58312" lon="3.75426">
        <ele>53.7</ele>
        <time>2011-02-06T07:53:51Z</time>
      </trkpt>
      <trkpt lat="43.58315" lon="3.75432">
        <ele>53.5</ele>
        <time>2011-02-06T07:53:52Z</time>
      </trkpt>
      <trkpt lat="43.58317" lon="3.75438">
        <ele>53.4</ele>
        <time>2011-02-06T07:53:53Z</time>
      </trkpt>
      <trkpt lat="43.5832" lon="3.75445">
        <ele>53.3</ele>
        <time>2011-02-06T07:53:54Z</time>
      </trkpt>
      <trkpt lat="43.58323" lon="3.75451">
        <ele>53.2</ele>
        <time>2011-02-06T07:53:55Z</time>
      </trkpt>
      <trkpt lat="43.58325" lon="3.75457">
        <ele>53.1</ele>
        <time>2011-02-06T07:53:56Z</time>
      </trkpt>
      <trkpt lat="43.58328" lon="3.75463">
        <ele>53</ele>
        <time>2011-02-06T07:53:57Z</time>
      </trkpt>
      <trkpt lat="43.58331" lon="3.75469">
        <ele>52.9</ele>
        <time>2011-02-06T07:53:58Z</time>
      </trkpt>
      <trkpt lat="43.58333" lon="3.75475">
        <ele>52.8</ele>
        <time>2011-02-06T07:53:59Z</time>
      </trkpt>
      <trkpt lat="43.58336" lon="3.75481">
        <ele>52.8</ele>
        <time>2011-02-06T07:54:00Z</time>
      </trkpt>
      <trkpt lat="43.58339" lon="3.75487">
        <ele>52.8</ele>
        <time>2011-02-06T07:54:01Z</time>
      </trkpt>
      <trkpt lat="43.58341" lon="3.75493">
        <ele>52.8</ele>
        <time>2011-02-06T07:54:02Z</time>
      </trkpt>
      <trkpt lat="43.58344" lon="3.75499">
        <ele>52.8</ele>
        <time>2011-02-06T07:54:03Z</time>
      </trkpt>
      <trkpt lat="43.58347" lon="3.75505">
        <ele>52.8</ele>
        <time>2011-02-06T07:54:04Z</time>
      </trkpt>
      <trkpt lat="43.5835" lon="3.75511">
        <ele>52.7</ele>
        <time>2011-02-06T07:54:05Z</time>
      </trkpt>
      <trkpt lat="43.58353" lon="3.75517">
        <ele>52.7</ele>
        <time>2011-02-06T07:54:06Z</time>
      </trkpt>
      <trkpt lat="43.58356" lon="3.75523">
        <ele>52.7</ele>
        <time>2011-02-06T07:54:07Z</time>
      </trkpt>
      <trkpt lat="43.58359" lon="3.75528">
        <ele>52.8</ele>
        <time>2011-02-06T07:54:08Z</time>
      </trkpt>
      <trkpt lat="43.58362" lon="3.75534">
        <ele>52.8</ele>
        <time>2011-02-06T07:54:09Z</time>
      </trkpt>
      <trkpt lat="43.58365" lon="3.7554">
        <ele>52.7</ele>
        <time>2011-02-06T07:54:10Z</time>
      </trkpt>
      <trkpt lat="43.58368" lon="3.75546">
        <ele>52.6</ele>
        <time>2011-02-06T07:54:11Z</time>
      </trkpt>
      <trkpt lat="43.5837" lon="3.75553">
        <ele>52.6</ele>
        <time>2011-02-06T07:54:12Z</time>
      </trkpt>
      <trkpt lat="43.58373" lon="3.75559">
        <ele>52.6</ele>
        <time>2011-02-06T07:54:13Z</time>
      </trkpt>
      <trkpt lat="43.58376" lon="3.75565">
        <ele>52.5</ele>
        <time>2011-02-06T07:54:14Z</time>
      </trkpt>
      <trkpt lat="43.58379" lon="3.75572">
        <ele>52.5</ele>
        <time>2011-02-06T07:54:15Z</time>
      </trkpt>
      <trkpt lat="43.58382" lon="3.75578">
        <ele>52.5</ele>
        <time>2011-02-06T07:54:16Z</time>
      </trkpt>
      <trkpt lat="43.58384" lon="3.75584">
        <ele>52.5</ele>
        <time>2011-02-06T07:54:17Z</time>
      </trkpt>
      <trkpt lat="43.58387" lon="3.75591">
        <ele>52.5</ele>
        <time>2011-02-06T07:54:18Z</time>
      </trkpt>
      <trkpt lat="43.5839" lon="3.75597">
        <ele>52.4</ele>
        <time>2011-02-06T07:54:19Z</time>
      </trkpt>
      <trkpt lat="43.58392" lon="3.75604">
        <ele>52.4</ele>
        <time>2011-02-06T07:54:20Z</time>
      </trkpt>
      <trkpt lat="43.58394" lon="3.7561">
        <ele>52.4</ele>
        <time>2011-02-06T07:54:21Z</time>
      </trkpt>
      <trkpt lat="43.58397" lon="3.75617">
        <ele>52.4</ele>
        <time>2011-02-06T07:54:22Z</time>
      </trkpt>
      <trkpt lat="43.584" lon="3.75623">
        <ele>52.4</ele>
        <time>2011-02-06T07:54:23Z</time>
      </trkpt>
      <trkpt lat="43.58402" lon="3.75629">
        <ele>52.5</ele>
        <time>2011-02-06T07:54:24Z</time>
      </trkpt>
      <trkpt lat="43.58405" lon="3.75635">
        <ele>52.5</ele>
        <time>2011-02-06T07:54:25Z</time>
      </trkpt>
      <trkpt lat="43.58408" lon="3.75642">
        <ele>52.5</ele>
        <time>2011-02-06T07:54:26Z</time>
      </trkpt>
      <trkpt lat="43.58411" lon="3.75648">
        <ele>52.5</ele>
        <time>2011-02-06T07:54:27Z</time>
      </trkpt>
      <trkpt lat="43.58413" lon="3.75654">
        <ele>52.5</ele>
        <time>2011-02-06T07:54:28Z</time>
      </trkpt>
      <trkpt lat="43.58416" lon="3.75661">
        <ele>52.5</ele>
        <time>2011-02-06T07:54:29Z</time>
      </trkpt>
      <trkpt lat="43.58419" lon="3.75667">
        <ele>52.5</ele>
        <time>2011-02-06T07:54:30Z</time>
      </trkpt>
      <trkpt lat="43.58422" lon="3.75674">
        <ele>52.5</ele>
        <time>2011-02-06T07:54:31Z</time>
      </trkpt>
      <trkpt lat="43.58425" lon="3.7568">
        <ele>52.5</ele>
        <time>2011-02-06T07:54:32Z</time>
      </trkpt>
      <trkpt lat="43.58427" lon="3.75687">
        <ele>52.5</ele>
        <time>2011-02-06T07:54:33Z</time>
      </trkpt>
      <trkpt lat="43.5843" lon="3.75693">
        <ele>52.5</ele>
        <time>2011-02-06T07:54:34Z</time>
      </trkpt>
      <trkpt lat="43.58433" lon="3.757">
        <ele>52.4</ele>
        <time>2011-02-06T07:54:35Z</time>
      </trkpt>
      <trkpt lat="43.58436" lon="3.75706">
        <ele>52.4</ele>
        <time>2011-02-06T07:54:36Z</time>
      </trkpt>
      <trkpt lat="43.5844" lon="3.75712">
        <ele>52.3</ele>
        <time>2011-02-06T07:54:37Z</time>
      </trkpt>
      <trkpt lat="43.58444" lon="3.75717">
        <ele>52.2</ele>
        <time>2011-02-06T07:54:38Z</time>
      </trkpt>
      <trkpt lat="43.58447" lon="3.75723">
        <ele>52.1</ele>
        <time>2011-02-06T07:54:39Z</time>
      </trkpt>
      <trkpt lat="43.58449" lon="3.7573">
        <ele>52.1</ele>
        <time>2011-02-06T07:54:40Z</time>
      </trkpt>
      <trkpt lat="43.58452" lon="3.75736">
        <ele>52.1</ele>
        <time>2011-02-06T07:54:41Z</time>
      </trkpt>
      <trkpt lat="43.58455" lon="3.75741">
        <ele>52.1</ele>
        <time>2011-02-06T07:54:42Z</time>
      </trkpt>
      <trkpt lat="43.58458" lon="3.75747">
        <ele>52.1</ele>
        <time>2011-02-06T07:54:43Z</time>
      </trkpt>
      <trkpt lat="43.58461" lon="3.75752">
        <ele>52.1</ele>
        <time>2011-02-06T07:54:44Z</time>
      </trkpt>
      <trkpt lat="43.5847" lon="3.75754">
        <ele>52.1</ele>
        <time>2011-02-06T07:54:46Z</time>
      </trkpt>
      <trkpt lat="43.58476" lon="3.75749">
        <ele>52.1</ele>
        <time>2011-02-06T07:54:48Z</time>
      </trkpt>
      <trkpt lat="43.58478" lon="3.75738">
        <ele>52.3</ele>
        <time>2011-02-06T07:54:51Z</time>
      </trkpt>
      <trkpt lat="43.58469" lon="3.75734">
        <ele>61.6</ele>
        <time>2011-02-06T08:00:12Z</time>
      </trkpt>
      <trkpt lat="43.58469" lon="3.75734">
        <ele>61.6</ele>
        <time>2011-02-06T08:00:13Z</time>
      </trkpt>
      <trkpt lat="43.58475" lon="3.75743">
        <ele>61.7</ele>
        <time>2011-02-06T08:06:25Z</time>
      </trkpt>
      <trkpt lat="43.58468" lon="3.75761">
        <ele>60.9</ele>
        <time>2011-02-06T08:07:17Z</time>
      </trkpt>
      <trkpt lat="43.58465" lon="3.7577">
        <ele>60.5</ele>
        <time>2011-02-06T08:07:19Z</time>
      </trkpt>
      <trkpt lat="43.58471" lon="3.75778">
        <ele>60</ele>
        <time>2011-02-06T08:07:22Z</time>
      </trkpt>
      <trkpt lat="43.58478" lon="3.75772">
        <ele>60.1</ele>
        <time>2011-02-06T08:07:25Z</time>
      </trkpt>
      <trkpt lat="43.5848" lon="3.75769">
        <ele>60</ele>
        <time>2011-02-06T08:07:26Z</time>
      </trkpt>
      <trkpt lat="43.5849" lon="3.75761">
        <ele>60.5</ele>
        <time>2011-02-06T08:07:31Z</time>
      </trkpt>
      <trkpt lat="43.58496" lon="3.75755">
        <ele>61.3</ele>
        <time>2011-02-06T08:07:34Z</time>
      </trkpt>
      <trkpt lat="43.58502" lon="3.75749">
        <ele>61.6</ele>
        <time>2011-02-06T08:07:37Z</time>
      </trkpt>
      <trkpt lat="43.58508" lon="3.75741">
        <ele>61.9</ele>
        <time>2011-02-06T08:07:41Z</time>
      </trkpt>
      <trkpt lat="43.58513" lon="3.75734">
        <ele>62.8</ele>
        <time>2011-02-06T08:07:44Z</time>
      </trkpt>
      <trkpt lat="43.58518" lon="3.75727">
        <ele>63.2</ele>
        <time>2011-02-06T08:07:47Z</time>
      </trkpt>
      <trkpt lat="43.58522" lon="3.7572">
        <ele>63.4</ele>
        <time>2011-02-06T08:07:50Z</time>
      </trkpt>
      <trkpt lat="43.58527" lon="3.75713">
        <ele>64.4</ele>
        <time>2011-02-06T08:07:53Z</time>
      </trkpt>
      <trkpt lat="43.58532" lon="3.75706">
        <ele>65.7</ele>
        <time>2011-02-06T08:07:56Z</time>
      </trkpt>
      <trkpt lat="43.58536" lon="3.75699">
        <ele>66.7</ele>
        <time>2011-02-06T08:07:59Z</time>
      </trkpt>
      <trkpt lat="43.58542" lon="3.7569">
        <ele>66.6</ele>
        <time>2011-02-06T08:08:03Z</time>
      </trkpt>
      <trkpt lat="43.58547" lon="3.75682">
        <ele>67</ele>
        <time>2011-02-06T08:08:07Z</time>
      </trkpt>
      <trkpt lat="43.58552" lon="3.75674">
        <ele>68.4</ele>
        <time>2011-02-06T08:08:11Z</time>
      </trkpt>
      <trkpt lat="43.58558" lon="3.75667">
        <ele>70.1</ele>
        <time>2011-02-06T08:08:15Z</time>
      </trkpt>
      <trkpt lat="43.58565" lon="3.75661">
        <ele>70.9</ele>
        <time>2011-02-06T08:08:19Z</time>
      </trkpt>
      <trkpt lat="43.58569" lon="3.75651">
        <ele>71.1</ele>
        <time>2011-02-06T08:08:23Z</time>
      </trkpt>
      <trkpt lat="43.58574" lon="3.75644">
        <ele>71.6</ele>
        <time>2011-02-06T08:08:26Z</time>
      </trkpt>
      <trkpt lat="43.58575" lon="3.75641">
        <ele>72.2</ele>
        <time>2011-02-06T08:08:27Z</time>
      </trkpt>
      <trkpt lat="43.58583" lon="3.7563">
        <ele>73.9</ele>
        <time>2011-02-06T08:08:32Z</time>
      </trkpt>
      <trkpt lat="43.58588" lon="3.75623">
        <ele>74.5</ele>
        <time>2011-02-06T08:08:35Z</time>
      </trkpt>
      <trkpt lat="43.58595" lon="3.75615">
        <ele>74.2</ele>
        <time>2011-02-06T08:08:39Z</time>
      </trkpt>
      <trkpt lat="43.58601" lon="3.75606">
        <ele>76.1</ele>
        <time>2011-02-06T08:08:43Z</time>
      </trkpt>
      <trkpt lat="43.58609" lon="3.756">
        <ele>76.8</ele>
        <time>2011-02-06T08:08:47Z</time>
      </trkpt>
      <trkpt lat="43.58617" lon="3.75597">
        <ele>77.5</ele>
        <time>2011-02-06T08:08:51Z</time>
      </trkpt>
      <trkpt lat="43.58626" lon="3.75593">
        <ele>78.5</ele>
        <time>2011-02-06T08:08:55Z</time>
      </trkpt>
      <trkpt lat="43.58634" lon="3.75591">
        <ele>79.6</ele>
        <time>2011-02-06T08:08:59Z</time>
      </trkpt>
      <trkpt lat="43.58641" lon="3.7559">
        <ele>80.4</ele>
        <time>2011-02-06T08:09:03Z</time>
      </trkpt>
      <trkpt lat="43.58649" lon="3.7559">
        <ele>80.7</ele>
        <time>2011-02-06T08:09:07Z</time>
      </trkpt>
      <trkpt lat="43.58656" lon="3.7559">
        <ele>81.3</ele>
        <time>2011-02-06T08:09:11Z</time>
      </trkpt>
      <trkpt lat="43.58664" lon="3.75588">
        <ele>82.6</ele>
        <time>2011-02-06T08:09:15Z</time>
      </trkpt>
      <trkpt lat="43.58671" lon="3.75588">
        <ele>83.2</ele>
        <time>2011-02-06T08:09:19Z</time>
      </trkpt>
      <trkpt lat="43.58678" lon="3.75587">
        <ele>84.2</ele>
        <time>2011-02-06T08:09:23Z</time>
      </trkpt>
      <trkpt lat="43.58686" lon="3.75585">
        <ele>85.3</ele>
        <time>2011-02-06T08:09:27Z</time>
      </trkpt>
      <trkpt lat="43.58688" lon="3.75585">
        <ele>85.5</ele>
        <time>2011-02-06T08:09:28Z</time>
      </trkpt>
      <trkpt lat="43.587" lon="3.7558">
        <ele>87.5</ele>
        <time>2011-02-06T08:09:35Z</time>
      </trkpt>
      <trkpt lat="43.58708" lon="3.75578">
        <ele>87.5</ele>
        <time>2011-02-06T08:09:39Z</time>
      </trkpt>
      <trkpt lat="43.58715" lon="3.75575">
        <ele>88.2</ele>
        <time>2011-02-06T08:09:43Z</time>
      </trkpt>
      <trkpt lat="43.58722" lon="3.75573">
        <ele>88.3</ele>
        <time>2011-02-06T08:09:47Z</time>
      </trkpt>
      <trkpt lat="43.5873" lon="3.75572">
        <ele>89.2</ele>
        <time>2011-02-06T08:09:51Z</time>
      </trkpt>
      <trkpt lat="43.58738" lon="3.7557">
        <ele>90.9</ele>
        <time>2011-02-06T08:09:55Z</time>
      </trkpt>
      <trkpt lat="43.58746" lon="3.75568">
        <ele>93</ele>
        <time>2011-02-06T08:09:59Z</time>
      </trkpt>
      <trkpt lat="43.58754" lon="3.75566">
        <ele>92.5</ele>
        <time>2011-02-06T08:10:03Z</time>
      </trkpt>
      <trkpt lat="43.58762" lon="3.75565">
        <ele>92.7</ele>
        <time>2011-02-06T08:10:07Z</time>
      </trkpt>
      <trkpt lat="43.58771" lon="3.75562">
        <ele>93.3</ele>
        <time>2011-02-06T08:10:11Z</time>
      </trkpt>
      <trkpt lat="43.58779" lon="3.75559">
        <ele>94.3</ele>
        <time>2011-02-06T08:10:15Z</time>
      </trkpt>
      <trkpt lat="43.58786" lon="3.75557">
        <ele>95.2</ele>
        <time>2011-02-06T08:10:18Z</time>
      </trkpt>
      <trkpt lat="43.58793" lon="3.75553">
        <ele>95.1</ele>
        <time>2011-02-06T08:10:21Z</time>
      </trkpt>
      <trkpt lat="43.588" lon="3.75547">
        <ele>95.1</ele>
        <time>2011-02-06T08:10:24Z</time>
      </trkpt>
      <trkpt lat="43.58807" lon="3.75541">
        <ele>95.1</ele>
        <time>2011-02-06T08:10:27Z</time>
      </trkpt>
      <trkpt lat="43.58813" lon="3.75534">
        <ele>95.1</ele>
        <time>2011-02-06T08:10:30Z</time>
      </trkpt>
      <trkpt lat="43.58815" lon="3.75531">
        <ele>95.3</ele>
        <time>2011-02-06T08:10:31Z</time>
      </trkpt>
      <trkpt lat="43.58825" lon="3.75519">
        <ele>95.9</ele>
        <time>2011-02-06T08:10:36Z</time>
      </trkpt>
      <trkpt lat="43.5883" lon="3.75513">
        <ele>96</ele>
        <time>2011-02-06T08:10:38Z</time>
      </trkpt>
      <trkpt lat="43.58834" lon="3.75507">
        <ele>96</ele>
        <time>2011-02-06T08:10:40Z</time>
      </trkpt>
      <trkpt lat="43.58839" lon="3.755">
        <ele>95.9</ele>
        <time>2011-02-06T08:10:42Z</time>
      </trkpt>
      <trkpt lat="43.58844" lon="3.75494">
        <ele>95.8</ele>
        <time>2011-02-06T08:10:44Z</time>
      </trkpt>
      <trkpt lat="43.5885" lon="3.75486">
        <ele>95.7</ele>
        <time>2011-02-06T08:10:46Z</time>
      </trkpt>
      <trkpt lat="43.58855" lon="3.7548">
        <ele>95.2</ele>
        <time>2011-02-06T08:10:48Z</time>
      </trkpt>
      <trkpt lat="43.5886" lon="3.75473">
        <ele>94.9</ele>
        <time>2011-02-06T08:10:50Z</time>
      </trkpt>
      <trkpt lat="43.58866" lon="3.75466">
        <ele>94.8</ele>
        <time>2011-02-06T08:10:52Z</time>
      </trkpt>
      <trkpt lat="43.58872" lon="3.75459">
        <ele>94.7</ele>
        <time>2011-02-06T08:10:54Z</time>
      </trkpt>
      <trkpt lat="43.58877" lon="3.75453">
        <ele>94.7</ele>
        <time>2011-02-06T08:10:56Z</time>
      </trkpt>
      <trkpt lat="43.58883" lon="3.75447">
        <ele>94.9</ele>
        <time>2011-02-06T08:10:58Z</time>
      </trkpt>
      <trkpt lat="43.58889" lon="3.75441">
        <ele>95.1</ele>
        <time>2011-02-06T08:11:00Z</time>
      </trkpt>
      <trkpt lat="43.58894" lon="3.75434">
        <ele>95.4</ele>
        <time>2011-02-06T08:11:02Z</time>
      </trkpt>
      <trkpt lat="43.589" lon="3.75427">
        <ele>95.6</ele>
        <time>2011-02-06T08:11:04Z</time>
      </trkpt>
      <trkpt lat="43.58904" lon="3.75419">
        <ele>95.5</ele>
        <time>2011-02-06T08:11:06Z</time>
      </trkpt>
      <trkpt lat="43.58909" lon="3.75412">
        <ele>95.3</ele>
        <time>2011-02-06T08:11:08Z</time>
      </trkpt>
      <trkpt lat="43.58914" lon="3.75406">
        <ele>95.7</ele>
        <time>2011-02-06T08:11:10Z</time>
      </trkpt>
      <trkpt lat="43.58918" lon="3.754">
        <ele>96.3</ele>
        <time>2011-02-06T08:11:12Z</time>
      </trkpt>
      <trkpt lat="43.58923" lon="3.75394">
        <ele>96.9</ele>
        <time>2011-02-06T08:11:14Z</time>
      </trkpt>
      <trkpt lat="43.5893" lon="3.75386">
        <ele>97.2</ele>
        <time>2011-02-06T08:11:17Z</time>
      </trkpt>
      <trkpt lat="43.58938" lon="3.75384">
        <ele>97.4</ele>
        <time>2011-02-06T08:11:20Z</time>
      </trkpt>
      <trkpt lat="43.58946" lon="3.75389">
        <ele>97.6</ele>
        <time>2011-02-06T08:11:23Z</time>
      </trkpt>
      <trkpt lat="43.58951" lon="3.75392">
        <ele>97.7</ele>
        <time>2011-02-06T08:11:25Z</time>
      </trkpt>
      <trkpt lat="43.58957" lon="3.75396">
        <ele>97.5</ele>
        <time>2011-02-06T08:11:27Z</time>
      </trkpt>
      <trkpt lat="43.58963" lon="3.754">
        <ele>97.5</ele>
        <time>2011-02-06T08:11:29Z</time>
      </trkpt>
      <trkpt lat="43.58969" lon="3.75404">
        <ele>97.5</ele>
        <time>2011-02-06T08:11:31Z</time>
      </trkpt>
      <trkpt lat="43.58972" lon="3.75406">
        <ele>97.4</ele>
        <time>2011-02-06T08:11:32Z</time>
      </trkpt>
      <trkpt lat="43.58981" lon="3.75412">
        <ele>97.7</ele>
        <time>2011-02-06T08:11:35Z</time>
      </trkpt>
      <trkpt lat="43.58987" lon="3.75417">
        <ele>98.2</ele>
        <time>2011-02-06T08:11:37Z</time>
      </trkpt>
      <trkpt lat="43.58993" lon="3.75421">
        <ele>98.2</ele>
        <time>2011-02-06T08:11:39Z</time>
      </trkpt>
      <trkpt lat="43.58998" lon="3.75426">
        <ele>98.2</ele>
        <time>2011-02-06T08:11:41Z</time>
      </trkpt>
      <trkpt lat="43.59003" lon="3.75431">
        <ele>98.8</ele>
        <time>2011-02-06T08:11:43Z</time>
      </trkpt>
      <trkpt lat="43.59007" lon="3.75436">
        <ele>99.3</ele>
        <time>2011-02-06T08:11:45Z</time>
      </trkpt>
      <trkpt lat="43.59013" lon="3.75442">
        <ele>99.7</ele>
        <time>2011-02-06T08:11:47Z</time>
      </trkpt>
      <trkpt lat="43.59018" lon="3.75445">
        <ele>99.4</ele>
        <time>2011-02-06T08:11:49Z</time>
      </trkpt>
      <trkpt lat="43.59024" lon="3.75449">
        <ele>99.8</ele>
        <time>2011-02-06T08:11:51Z</time>
      </trkpt>
      <trkpt lat="43.5903" lon="3.75452">
        <ele>100.3</ele>
        <time>2011-02-06T08:11:53Z</time>
      </trkpt>
      <trkpt lat="43.59038" lon="3.75458">
        <ele>101.4</ele>
        <time>2011-02-06T08:11:56Z</time>
      </trkpt>
      <trkpt lat="43.59046" lon="3.75463">
        <ele>102</ele>
        <time>2011-02-06T08:11:59Z</time>
      </trkpt>
      <trkpt lat="43.59054" lon="3.75469">
        <ele>102.6</ele>
        <time>2011-02-06T08:12:02Z</time>
      </trkpt>
      <trkpt lat="43.59061" lon="3.75474">
        <ele>102.9</ele>
        <time>2011-02-06T08:12:05Z</time>
      </trkpt>
      <trkpt lat="43.59069" lon="3.7548">
        <ele>103.5</ele>
        <time>2011-02-06T08:12:08Z</time>
      </trkpt>
      <trkpt lat="43.59077" lon="3.75485">
        <ele>104</ele>
        <time>2011-02-06T08:12:11Z</time>
      </trkpt>
      <trkpt lat="43.59085" lon="3.7549">
        <ele>104.4</ele>
        <time>2011-02-06T08:12:14Z</time>
      </trkpt>
      <trkpt lat="43.59093" lon="3.75496">
        <ele>104.6</ele>
        <time>2011-02-06T08:12:17Z</time>
      </trkpt>
      <trkpt lat="43.59101" lon="3.75501">
        <ele>105.1</ele>
        <time>2011-02-06T08:12:20Z</time>
      </trkpt>
      <trkpt lat="43.59109" lon="3.75506">
        <ele>105.9</ele>
        <time>2011-02-06T08:12:23Z</time>
      </trkpt>
      <trkpt lat="43.59117" lon="3.7551">
        <ele>106.3</ele>
        <time>2011-02-06T08:12:26Z</time>
      </trkpt>
      <trkpt lat="43.59125" lon="3.75515">
        <ele>106.5</ele>
        <time>2011-02-06T08:12:29Z</time>
      </trkpt>
      <trkpt lat="43.59133" lon="3.7552">
        <ele>106.9</ele>
        <time>2011-02-06T08:12:32Z</time>
      </trkpt>
      <trkpt lat="43.59135" lon="3.75521">
        <ele>107.1</ele>
        <time>2011-02-06T08:12:33Z</time>
      </trkpt>
      <trkpt lat="43.59146" lon="3.75529">
        <ele>108</ele>
        <time>2011-02-06T08:12:37Z</time>
      </trkpt>
      <trkpt lat="43.59153" lon="3.75534">
        <ele>108.1</ele>
        <time>2011-02-06T08:12:39Z</time>
      </trkpt>
      <trkpt lat="43.5916" lon="3.75537">
        <ele>108</ele>
        <time>2011-02-06T08:12:41Z</time>
      </trkpt>
      <trkpt lat="43.59168" lon="3.75539">
        <ele>107.2</ele>
        <time>2011-02-06T08:12:43Z</time>
      </trkpt>
      <trkpt lat="43.59176" lon="3.7554">
        <ele>107</ele>
        <time>2011-02-06T08:12:45Z</time>
      </trkpt>
      <trkpt lat="43.59185" lon="3.7554">
        <ele>107</ele>
        <time>2011-02-06T08:12:47Z</time>
      </trkpt>
      <trkpt lat="43.59194" lon="3.75541">
        <ele>107</ele>
        <time>2011-02-06T08:12:49Z</time>
      </trkpt>
      <trkpt lat="43.59202" lon="3.75542">
        <ele>107.1</ele>
        <time>2011-02-06T08:12:51Z</time>
      </trkpt>
      <trkpt lat="43.59207" lon="3.75542">
        <ele>106.8</ele>
        <time>2011-02-06T08:12:52Z</time>
      </trkpt>
      <trkpt lat="43.59211" lon="3.75543">
        <ele>106.5</ele>
        <time>2011-02-06T08:12:53Z</time>
      </trkpt>
      <trkpt lat="43.59216" lon="3.75544">
        <ele>106.2</ele>
        <time>2011-02-06T08:12:54Z</time>
      </trkpt>
      <trkpt lat="43.59221" lon="3.75546">
        <ele>106.4</ele>
        <time>2011-02-06T08:12:55Z</time>
      </trkpt>
      <trkpt lat="43.59226" lon="3.75546">
        <ele>106.5</ele>
        <time>2011-02-06T08:12:56Z</time>
      </trkpt>
      <trkpt lat="43.59231" lon="3.75547">
        <ele>106.5</ele>
        <time>2011-02-06T08:12:57Z</time>
      </trkpt>
      <trkpt lat="43.59236" lon="3.75547">
        <ele>106.2</ele>
        <time>2011-02-06T08:12:58Z</time>
      </trkpt>
      <trkpt lat="43.59242" lon="3.75547">
        <ele>105.9</ele>
        <time>2011-02-06T08:12:59Z</time>
      </trkpt>
      <trkpt lat="43.59247" lon="3.75546">
        <ele>105.7</ele>
        <time>2011-02-06T08:13:00Z</time>
      </trkpt>
      <trkpt lat="43.59253" lon="3.75547">
        <ele>105.2</ele>
        <time>2011-02-06T08:13:01Z</time>
      </trkpt>
      <trkpt lat="43.59258" lon="3.75548">
        <ele>104.8</ele>
        <time>2011-02-06T08:13:02Z</time>
      </trkpt>
      <trkpt lat="43.59264" lon="3.75548">
        <ele>104.6</ele>
        <time>2011-02-06T08:13:03Z</time>
      </trkpt>
      <trkpt lat="43.5927" lon="3.75548">
        <ele>104.3</ele>
        <time>2011-02-06T08:13:04Z</time>
      </trkpt>
      <trkpt lat="43.59276" lon="3.75549">
        <ele>104</ele>
        <time>2011-02-06T08:13:05Z</time>
      </trkpt>
      <trkpt lat="43.59283" lon="3.75549">
        <ele>103.8</ele>
        <time>2011-02-06T08:13:06Z</time>
      </trkpt>
      <trkpt lat="43.5929" lon="3.75548">
        <ele>103.6</ele>
        <time>2011-02-06T08:13:07Z</time>
      </trkpt>
      <trkpt lat="43.59297" lon="3.75547">
        <ele>103</ele>
        <time>2011-02-06T08:13:08Z</time>
      </trkpt>
      <trkpt lat="43.59303" lon="3.75545">
        <ele>102.6</ele>
        <time>2011-02-06T08:13:09Z</time>
      </trkpt>
      <trkpt lat="43.5931" lon="3.75543">
        <ele>102.3</ele>
        <time>2011-02-06T08:13:10Z</time>
      </trkpt>
      <trkpt lat="43.59317" lon="3.7554">
        <ele>101.9</ele>
        <time>2011-02-06T08:13:11Z</time>
      </trkpt>
      <trkpt lat="43.59323" lon="3.75537">
        <ele>101.6</ele>
        <time>2011-02-06T08:13:12Z</time>
      </trkpt>
      <trkpt lat="43.5933" lon="3.75534">
        <ele>101.4</ele>
        <time>2011-02-06T08:13:13Z</time>
      </trkpt>
      <trkpt lat="43.59336" lon="3.75531">
        <ele>101</ele>
        <time>2011-02-06T08:13:14Z</time>
      </trkpt>
      <trkpt lat="43.59343" lon="3.75529">
        <ele>100.7</ele>
        <time>2011-02-06T08:13:15Z</time>
      </trkpt>
      <trkpt lat="43.5935" lon="3.75527">
        <ele>100.4</ele>
        <time>2011-02-06T08:13:16Z</time>
      </trkpt>
      <trkpt lat="43.59357" lon="3.75525">
        <ele>99.6</ele>
        <time>2011-02-06T08:13:17Z</time>
      </trkpt>
      <trkpt lat="43.59364" lon="3.75523">
        <ele>99</ele>
        <time>2011-02-06T08:13:18Z</time>
      </trkpt>
      <trkpt lat="43.59372" lon="3.75521">
        <ele>98.5</ele>
        <time>2011-02-06T08:13:19Z</time>
      </trkpt>
      <trkpt lat="43.59379" lon="3.75517">
        <ele>98.2</ele>
        <time>2011-02-06T08:13:20Z</time>
      </trkpt>
      <trkpt lat="43.59384" lon="3.75514">
        <ele>97.5</ele>
        <time>2011-02-06T08:13:21Z</time>
      </trkpt>
      <trkpt lat="43.5939" lon="3.7551">
        <ele>97</ele>
        <time>2011-02-06T08:13:22Z</time>
      </trkpt>
      <trkpt lat="43.59397" lon="3.75507">
        <ele>96.7</ele>
        <time>2011-02-06T08:13:23Z</time>
      </trkpt>
      <trkpt lat="43.59403" lon="3.75505">
        <ele>96</ele>
        <time>2011-02-06T08:13:24Z</time>
      </trkpt>
      <trkpt lat="43.5941" lon="3.75506">
        <ele>95.4</ele>
        <time>2011-02-06T08:13:25Z</time>
      </trkpt>
      <trkpt lat="43.59416" lon="3.75508">
        <ele>95</ele>
        <time>2011-02-06T08:13:26Z</time>
      </trkpt>
      <trkpt lat="43.59421" lon="3.7551">
        <ele>94.6</ele>
        <time>2011-02-06T08:13:27Z</time>
      </trkpt>
      <trkpt lat="43.59427" lon="3.75513">
        <ele>94.2</ele>
        <time>2011-02-06T08:13:28Z</time>
      </trkpt>
      <trkpt lat="43.59431" lon="3.75516">
        <ele>93.9</ele>
        <time>2011-02-06T08:13:29Z</time>
      </trkpt>
      <trkpt lat="43.59436" lon="3.75518">
        <ele>94.3</ele>
        <time>2011-02-06T08:13:30Z</time>
      </trkpt>
      <trkpt lat="43.5944" lon="3.75521">
        <ele>94.6</ele>
        <time>2011-02-06T08:13:31Z</time>
      </trkpt>
      <trkpt lat="43.59445" lon="3.75524">
        <ele>94.8</ele>
        <time>2011-02-06T08:13:32Z</time>
      </trkpt>
      <trkpt lat="43.5945" lon="3.75526">
        <ele>94.3</ele>
        <time>2011-02-06T08:13:33Z</time>
      </trkpt>
      <trkpt lat="43.59456" lon="3.75528">
        <ele>93.9</ele>
        <time>2011-02-06T08:13:34Z</time>
      </trkpt>
      <trkpt lat="43.59462" lon="3.75529">
        <ele>93.6</ele>
        <time>2011-02-06T08:13:35Z</time>
      </trkpt>
      <trkpt lat="43.59467" lon="3.7553">
        <ele>93.3</ele>
        <time>2011-02-06T08:13:36Z</time>
      </trkpt>
      <trkpt lat="43.59473" lon="3.75531">
        <ele>92.8</ele>
        <time>2011-02-06T08:13:37Z</time>
      </trkpt>
      <trkpt lat="43.59479" lon="3.75532">
        <ele>92.4</ele>
        <time>2011-02-06T08:13:38Z</time>
      </trkpt>
      <trkpt lat="43.59485" lon="3.75532">
        <ele>92.1</ele>
        <time>2011-02-06T08:13:39Z</time>
      </trkpt>
      <trkpt lat="43.59491" lon="3.75533">
        <ele>91.8</ele>
        <time>2011-02-06T08:13:40Z</time>
      </trkpt>
      <trkpt lat="43.59496" lon="3.75534">
        <ele>91.6</ele>
        <time>2011-02-06T08:13:41Z</time>
      </trkpt>
      <trkpt lat="43.59502" lon="3.75534">
        <ele>91.4</ele>
        <time>2011-02-06T08:13:42Z</time>
      </trkpt>
      <trkpt lat="43.59508" lon="3.75533">
        <ele>91.6</ele>
        <time>2011-02-06T08:13:43Z</time>
      </trkpt>
      <trkpt lat="43.59513" lon="3.75533">
        <ele>91.8</ele>
        <time>2011-02-06T08:13:44Z</time>
      </trkpt>
      <trkpt lat="43.59518" lon="3.75532">
        <ele>91.9</ele>
        <time>2011-02-06T08:13:45Z</time>
      </trkpt>
      <trkpt lat="43.59523" lon="3.75531">
        <ele>91.6</ele>
        <time>2011-02-06T08:13:46Z</time>
      </trkpt>
      <trkpt lat="43.59531" lon="3.75529">
        <ele>91.1</ele>
        <time>2011-02-06T08:13:48Z</time>
      </trkpt>
      <trkpt lat="43.5954" lon="3.75529">
        <ele>91.6</ele>
        <time>2011-02-06T08:13:50Z</time>
      </trkpt>
      <trkpt lat="43.59546" lon="3.75527">
        <ele>91.8</ele>
        <time>2011-02-06T08:13:52Z</time>
      </trkpt>
      <trkpt lat="43.59554" lon="3.75526">
        <ele>91.9</ele>
        <time>2011-02-06T08:13:55Z</time>
      </trkpt>
      <trkpt lat="43.59562" lon="3.75526">
        <ele>91.6</ele>
        <time>2011-02-06T08:13:58Z</time>
      </trkpt>
      <trkpt lat="43.59569" lon="3.75525">
        <ele>93.1</ele>
        <time>2011-02-06T08:14:01Z</time>
      </trkpt>
      <trkpt lat="43.59576" lon="3.75524">
        <ele>93.5</ele>
        <time>2011-02-06T08:14:04Z</time>
      </trkpt>
      <trkpt lat="43.59585" lon="3.75524">
        <ele>92.7</ele>
        <time>2011-02-06T08:14:07Z</time>
      </trkpt>
      <trkpt lat="43.59591" lon="3.75522">
        <ele>92</ele>
        <time>2011-02-06T08:14:09Z</time>
      </trkpt>
      <trkpt lat="43.59597" lon="3.7552">
        <ele>91.7</ele>
        <time>2011-02-06T08:14:11Z</time>
      </trkpt>
      <trkpt lat="43.59603" lon="3.75516">
        <ele>91.2</ele>
        <time>2011-02-06T08:14:13Z</time>
      </trkpt>
      <trkpt lat="43.5961" lon="3.75511">
        <ele>91.1</ele>
        <time>2011-02-06T08:14:15Z</time>
      </trkpt>
      <trkpt lat="43.59616" lon="3.75505">
        <ele>91.1</ele>
        <time>2011-02-06T08:14:17Z</time>
      </trkpt>
      <trkpt lat="43.59624" lon="3.75499">
        <ele>90.8</ele>
        <time>2011-02-06T08:14:19Z</time>
      </trkpt>
      <trkpt lat="43.59631" lon="3.75491">
        <ele>90</ele>
        <time>2011-02-06T08:14:21Z</time>
      </trkpt>
      <trkpt lat="43.59636" lon="3.75485">
        <ele>89.1</ele>
        <time>2011-02-06T08:14:23Z</time>
      </trkpt>
      <trkpt lat="43.59641" lon="3.75478">
        <ele>88.7</ele>
        <time>2011-02-06T08:14:25Z</time>
      </trkpt>
      <trkpt lat="43.59646" lon="3.7547">
        <ele>88.5</ele>
        <time>2011-02-06T08:14:27Z</time>
      </trkpt>
      <trkpt lat="43.59651" lon="3.75461">
        <ele>88.1</ele>
        <time>2011-02-06T08:14:29Z</time>
      </trkpt>
      <trkpt lat="43.59657" lon="3.75452">
        <ele>87.6</ele>
        <time>2011-02-06T08:14:31Z</time>
      </trkpt>
      <trkpt lat="43.59664" lon="3.75445">
        <ele>87.1</ele>
        <time>2011-02-06T08:14:33Z</time>
      </trkpt>
      <trkpt lat="43.59668" lon="3.75437">
        <ele>84.8</ele>
        <time>2011-02-06T08:14:35Z</time>
      </trkpt>
      <trkpt lat="43.5967" lon="3.75433">
        <ele>84.1</ele>
        <time>2011-02-06T08:14:36Z</time>
      </trkpt>
      <trkpt lat="43.59677" lon="3.75424">
        <ele>81.8</ele>
        <time>2011-02-06T08:14:39Z</time>
      </trkpt>
      <trkpt lat="43.59681" lon="3.75418">
        <ele>81.2</ele>
        <time>2011-02-06T08:14:41Z</time>
      </trkpt>
      <trkpt lat="43.59688" lon="3.75413">
        <ele>80.9</ele>
        <time>2011-02-06T08:14:43Z</time>
      </trkpt>
      <trkpt lat="43.59691" lon="3.75406">
        <ele>80.7</ele>
        <time>2011-02-06T08:14:45Z</time>
      </trkpt>
      <trkpt lat="43.59694" lon="3.75399">
        <ele>81.2</ele>
        <time>2011-02-06T08:14:47Z</time>
      </trkpt>
      <trkpt lat="43.59697" lon="3.7539">
        <ele>81.8</ele>
        <time>2011-02-06T08:14:49Z</time>
      </trkpt>
      <trkpt lat="43.59703" lon="3.75383">
        <ele>81.6</ele>
        <time>2011-02-06T08:14:52Z</time>
      </trkpt>
      <trkpt lat="43.5971" lon="3.75376">
        <ele>81</ele>
        <time>2011-02-06T08:14:55Z</time>
      </trkpt>
      <trkpt lat="43.59718" lon="3.75373">
        <ele>81</ele>
        <time>2011-02-06T08:14:59Z</time>
      </trkpt>
      <trkpt lat="43.59723" lon="3.75367">
        <ele>82.1</ele>
        <time>2011-02-06T08:15:02Z</time>
      </trkpt>
      <trkpt lat="43.59728" lon="3.7536">
        <ele>82.3</ele>
        <time>2011-02-06T08:15:05Z</time>
      </trkpt>
      <trkpt lat="43.59734" lon="3.75354">
        <ele>81.8</ele>
        <time>2011-02-06T08:15:08Z</time>
      </trkpt>
      <trkpt lat="43.59739" lon="3.75347">
        <ele>81.8</ele>
        <time>2011-02-06T08:15:11Z</time>
      </trkpt>
      <trkpt lat="43.59745" lon="3.75341">
        <ele>81.9</ele>
        <time>2011-02-06T08:15:14Z</time>
      </trkpt>
      <trkpt lat="43.59751" lon="3.75335">
        <ele>82.2</ele>
        <time>2011-02-06T08:15:17Z</time>
      </trkpt>
      <trkpt lat="43.59758" lon="3.75329">
        <ele>82.4</ele>
        <time>2011-02-06T08:15:20Z</time>
      </trkpt>
      <trkpt lat="43.59764" lon="3.75323">
        <ele>83.2</ele>
        <time>2011-02-06T08:15:23Z</time>
      </trkpt>
      <trkpt lat="43.59771" lon="3.75318">
        <ele>83.5</ele>
        <time>2011-02-06T08:15:26Z</time>
      </trkpt>
      <trkpt lat="43.59779" lon="3.75313">
        <ele>83.2</ele>
        <time>2011-02-06T08:15:29Z</time>
      </trkpt>
      <trkpt lat="43.59786" lon="3.75309">
        <ele>83</ele>
        <time>2011-02-06T08:15:32Z</time>
      </trkpt>
      <trkpt lat="43.59792" lon="3.75304">
        <ele>83.2</ele>
        <time>2011-02-06T08:15:35Z</time>
      </trkpt>
      <trkpt lat="43.59799" lon="3.75299">
        <ele>83.6</ele>
        <time>2011-02-06T08:15:38Z</time>
      </trkpt>
      <trkpt lat="43.59802" lon="3.75298">
        <ele>83.5</ele>
        <time>2011-02-06T08:15:39Z</time>
      </trkpt>
      <trkpt lat="43.59814" lon="3.75292">
        <ele>83.3</ele>
        <time>2011-02-06T08:15:44Z</time>
      </trkpt>
      <trkpt lat="43.59821" lon="3.75289">
        <ele>83.4</ele>
        <time>2011-02-06T08:15:47Z</time>
      </trkpt>
      <trkpt lat="43.59828" lon="3.75286">
        <ele>83.5</ele>
        <time>2011-02-06T08:15:50Z</time>
      </trkpt>
      <trkpt lat="43.59836" lon="3.75283">
        <ele>83.2</ele>
        <time>2011-02-06T08:15:53Z</time>
      </trkpt>
      <trkpt lat="43.59843" lon="3.75284">
        <ele>84</ele>
        <time>2011-02-06T08:15:56Z</time>
      </trkpt>
      <trkpt lat="43.5985" lon="3.75282">
        <ele>84.6</ele>
        <time>2011-02-06T08:15:59Z</time>
      </trkpt>
      <trkpt lat="43.59858" lon="3.75279">
        <ele>84.3</ele>
        <time>2011-02-06T08:16:02Z</time>
      </trkpt>
      <trkpt lat="43.59865" lon="3.75279">
        <ele>84.9</ele>
        <time>2011-02-06T08:16:05Z</time>
      </trkpt>
      <trkpt lat="43.5987" lon="3.75269">
        <ele>85.5</ele>
        <time>2011-02-06T08:16:14Z</time>
      </trkpt>
      <trkpt lat="43.59878" lon="3.75268">
        <ele>85.6</ele>
        <time>2011-02-06T08:16:35Z</time>
      </trkpt>
      <trkpt lat="43.59887" lon="3.75268">
        <ele>85.5</ele>
        <time>2011-02-06T08:16:42Z</time>
      </trkpt>
      <trkpt lat="43.59888" lon="3.75267">
        <ele>85.6</ele>
        <time>2011-02-06T08:16:43Z</time>
      </trkpt>
      <trkpt lat="43.59904" lon="3.75268">
        <ele>85.8</ele>
        <time>2011-02-06T08:16:53Z</time>
      </trkpt>
      <trkpt lat="43.59912" lon="3.75268">
        <ele>86.1</ele>
        <time>2011-02-06T08:16:58Z</time>
      </trkpt>
      <trkpt lat="43.5992" lon="3.75268">
        <ele>86.3</ele>
        <time>2011-02-06T08:17:03Z</time>
      </trkpt>
      <trkpt lat="43.59929" lon="3.75269">
        <ele>86.8</ele>
        <time>2011-02-06T08:17:08Z</time>
      </trkpt>
      <trkpt lat="43.59936" lon="3.75268">
        <ele>87</ele>
        <time>2011-02-06T08:17:12Z</time>
      </trkpt>
      <trkpt lat="43.59944" lon="3.75267">
        <ele>87.5</ele>
        <time>2011-02-06T08:17:16Z</time>
      </trkpt>
      <trkpt lat="43.59952" lon="3.75264">
        <ele>87.9</ele>
        <time>2011-02-06T08:17:20Z</time>
      </trkpt>
      <trkpt lat="43.59959" lon="3.7526">
        <ele>88.1</ele>
        <time>2011-02-06T08:17:24Z</time>
      </trkpt>
      <trkpt lat="43.59968" lon="3.75256">
        <ele>88.4</ele>
        <time>2011-02-06T08:17:28Z</time>
      </trkpt>
      <trkpt lat="43.59974" lon="3.75252">
        <ele>88.3</ele>
        <time>2011-02-06T08:17:31Z</time>
      </trkpt>
      <trkpt lat="43.59983" lon="3.75249">
        <ele>88.9</ele>
        <time>2011-02-06T08:17:35Z</time>
      </trkpt>
      <trkpt lat="43.59991" lon="3.75245">
        <ele>89</ele>
        <time>2011-02-06T08:17:39Z</time>
      </trkpt>
      <trkpt lat="43.59999" lon="3.75242">
        <ele>89.5</ele>
        <time>2011-02-06T08:17:43Z</time>
      </trkpt>
      <trkpt lat="43.60001" lon="3.7524">
        <ele>89.5</ele>
        <time>2011-02-06T08:17:44Z</time>
      </trkpt>
      <trkpt lat="43.60014" lon="3.75234">
        <ele>90</ele>
        <time>2011-02-06T08:17:52Z</time>
      </trkpt>
      <trkpt lat="43.60022" lon="3.75231">
        <ele>90.3</ele>
        <time>2011-02-06T08:17:58Z</time>
      </trkpt>
      <trkpt lat="43.60029" lon="3.75224">
        <ele>90.9</ele>
        <time>2011-02-06T08:18:05Z</time>
      </trkpt>
      <trkpt lat="43.60036" lon="3.75218">
        <ele>91</ele>
        <time>2011-02-06T08:18:11Z</time>
      </trkpt>
      <trkpt lat="43.60042" lon="3.75211">
        <ele>90.6</ele>
        <time>2011-02-06T08:18:16Z</time>
      </trkpt>
      <trkpt lat="43.60049" lon="3.75204">
        <ele>90.2</ele>
        <time>2011-02-06T08:18:20Z</time>
      </trkpt>
      <trkpt lat="43.60055" lon="3.75198">
        <ele>90.5</ele>
        <time>2011-02-06T08:18:24Z</time>
      </trkpt>
      <trkpt lat="43.60061" lon="3.75192">
        <ele>90.1</ele>
        <time>2011-02-06T08:18:28Z</time>
      </trkpt>
      <trkpt lat="43.60068" lon="3.75185">
        <ele>90</ele>
        <time>2011-02-06T08:18:32Z</time>
      </trkpt>
      <trkpt lat="43.60074" lon="3.75179">
        <ele>90.1</ele>
        <time>2011-02-06T08:18:36Z</time>
      </trkpt>
      <trkpt lat="43.60081" lon="3.75175">
        <ele>90.3</ele>
        <time>2011-02-06T08:18:40Z</time>
      </trkpt>
      <trkpt lat="43.60087" lon="3.7517">
        <ele>90.5</ele>
        <time>2011-02-06T08:18:44Z</time>
      </trkpt>
      <trkpt lat="43.60089" lon="3.75169">
        <ele>90.5</ele>
        <time>2011-02-06T08:18:45Z</time>
      </trkpt>
      <trkpt lat="43.60103" lon="3.75163">
        <ele>91.9</ele>
        <time>2011-02-06T08:18:53Z</time>
      </trkpt>
      <trkpt lat="43.60111" lon="3.75161">
        <ele>91.8</ele>
        <time>2011-02-06T08:18:57Z</time>
      </trkpt>
      <trkpt lat="43.6012" lon="3.7516">
        <ele>92.1</ele>
        <time>2011-02-06T08:19:01Z</time>
      </trkpt>
      <trkpt lat="43.60127" lon="3.75159">
        <ele>91.6</ele>
        <time>2011-02-06T08:19:05Z</time>
      </trkpt>
      <trkpt lat="43.60135" lon="3.75158">
        <ele>92.4</ele>
        <time>2011-02-06T08:19:09Z</time>
      </trkpt>
      <trkpt lat="43.60143" lon="3.75155">
        <ele>92.6</ele>
        <time>2011-02-06T08:19:13Z</time>
      </trkpt>
      <trkpt lat="43.60151" lon="3.75151">
        <ele>93.4</ele>
        <time>2011-02-06T08:19:17Z</time>
      </trkpt>
      <trkpt lat="43.60158" lon="3.75148">
        <ele>93.2</ele>
        <time>2011-02-06T08:19:20Z</time>
      </trkpt>
      <trkpt lat="43.60166" lon="3.75145">
        <ele>93.6</ele>
        <time>2011-02-06T08:19:24Z</time>
      </trkpt>
      <trkpt lat="43.60173" lon="3.75144">
        <ele>92.9</ele>
        <time>2011-02-06T08:19:27Z</time>
      </trkpt>
      <trkpt lat="43.6018" lon="3.75143">
        <ele>93.4</ele>
        <time>2011-02-06T08:19:30Z</time>
      </trkpt>
      <trkpt lat="43.60187" lon="3.75136">
        <ele>93.6</ele>
        <time>2011-02-06T08:19:34Z</time>
      </trkpt>
      <trkpt lat="43.60189" lon="3.75128">
        <ele>94.1</ele>
        <time>2011-02-06T08:19:36Z</time>
      </trkpt>
      <trkpt lat="43.60192" lon="3.75117">
        <ele>93.4</ele>
        <time>2011-02-06T08:19:38Z</time>
      </trkpt>
      <trkpt lat="43.60196" lon="3.75109">
        <ele>93.2</ele>
        <time>2011-02-06T08:19:40Z</time>
      </trkpt>
      <trkpt lat="43.60201" lon="3.75102">
        <ele>93.1</ele>
        <time>2011-02-06T08:19:42Z</time>
      </trkpt>
      <trkpt lat="43.60205" lon="3.75095">
        <ele>93.1</ele>
        <time>2011-02-06T08:19:44Z</time>
      </trkpt>
      <trkpt lat="43.60211" lon="3.75086">
        <ele>93.2</ele>
        <time>2011-02-06T08:19:47Z</time>
      </trkpt>
      <trkpt lat="43.60213" lon="3.75083">
        <ele>93.2</ele>
        <time>2011-02-06T08:19:48Z</time>
      </trkpt>
      <trkpt lat="43.60222" lon="3.75073">
        <ele>93.3</ele>
        <time>2011-02-06T08:19:52Z</time>
      </trkpt>
      <trkpt lat="43.60229" lon="3.75066">
        <ele>93.4</ele>
        <time>2011-02-06T08:19:55Z</time>
      </trkpt>
      <trkpt lat="43.60236" lon="3.75059">
        <ele>94.2</ele>
        <time>2011-02-06T08:19:58Z</time>
      </trkpt>
      <trkpt lat="43.60243" lon="3.75052">
        <ele>94</ele>
        <time>2011-02-06T08:20:01Z</time>
      </trkpt>
      <trkpt lat="43.6025" lon="3.75045">
        <ele>94.2</ele>
        <time>2011-02-06T08:20:04Z</time>
      </trkpt>
      <trkpt lat="43.60258" lon="3.75039">
        <ele>94.8</ele>
        <time>2011-02-06T08:20:07Z</time>
      </trkpt>
      <trkpt lat="43.60266" lon="3.75039">
        <ele>95.5</ele>
        <time>2011-02-06T08:20:10Z</time>
      </trkpt>
      <trkpt lat="43.60274" lon="3.75041">
        <ele>96</ele>
        <time>2011-02-06T08:20:13Z</time>
      </trkpt>
      <trkpt lat="43.60282" lon="3.75042">
        <ele>95.9</ele>
        <time>2011-02-06T08:20:16Z</time>
      </trkpt>
      <trkpt lat="43.6029" lon="3.75042">
        <ele>95.7</ele>
        <time>2011-02-06T08:20:19Z</time>
      </trkpt>
      <trkpt lat="43.60297" lon="3.75039">
        <ele>95.8</ele>
        <time>2011-02-06T08:20:22Z</time>
      </trkpt>
      <trkpt lat="43.60304" lon="3.75035">
        <ele>96.1</ele>
        <time>2011-02-06T08:20:25Z</time>
      </trkpt>
      <trkpt lat="43.60311" lon="3.75032">
        <ele>97.2</ele>
        <time>2011-02-06T08:20:28Z</time>
      </trkpt>
      <trkpt lat="43.60318" lon="3.7503">
        <ele>98.5</ele>
        <time>2011-02-06T08:20:31Z</time>
      </trkpt>
      <trkpt lat="43.60325" lon="3.75027">
        <ele>99.7</ele>
        <time>2011-02-06T08:20:34Z</time>
      </trkpt>
      <trkpt lat="43.60333" lon="3.75025">
        <ele>99.7</ele>
        <time>2011-02-06T08:20:37Z</time>
      </trkpt>
      <trkpt lat="43.60342" lon="3.75025">
        <ele>100.4</ele>
        <time>2011-02-06T08:20:41Z</time>
      </trkpt>
      <trkpt lat="43.60349" lon="3.75024">
        <ele>101.4</ele>
        <time>2011-02-06T08:20:44Z</time>
      </trkpt>
      <trkpt lat="43.60358" lon="3.75025">
        <ele>102</ele>
        <time>2011-02-06T08:20:48Z</time>
      </trkpt>
      <trkpt lat="43.6036" lon="3.75024">
        <ele>102</ele>
        <time>2011-02-06T08:20:49Z</time>
      </trkpt>
      <trkpt lat="43.60372" lon="3.75023">
        <ele>102.4</ele>
        <time>2011-02-06T08:20:54Z</time>
      </trkpt>
      <trkpt lat="43.6038" lon="3.75021">
        <ele>103.1</ele>
        <time>2011-02-06T08:20:57Z</time>
      </trkpt>
      <trkpt lat="43.60387" lon="3.75019">
        <ele>103.6</ele>
        <time>2011-02-06T08:21:00Z</time>
      </trkpt>
      <trkpt lat="43.60394" lon="3.75016">
        <ele>103.9</ele>
        <time>2011-02-06T08:21:03Z</time>
      </trkpt>
      <trkpt lat="43.60401" lon="3.75012">
        <ele>104</ele>
        <time>2011-02-06T08:21:06Z</time>
      </trkpt>
      <trkpt lat="43.60409" lon="3.75009">
        <ele>105.4</ele>
        <time>2011-02-06T08:21:09Z</time>
      </trkpt>
      <trkpt lat="43.60416" lon="3.75005">
        <ele>105.4</ele>
        <time>2011-02-06T08:21:12Z</time>
      </trkpt>
      <trkpt lat="43.60424" lon="3.74999">
        <ele>105.8</ele>
        <time>2011-02-06T08:21:15Z</time>
      </trkpt>
      <trkpt lat="43.60431" lon="3.74995">
        <ele>105.8</ele>
        <time>2011-02-06T08:21:18Z</time>
      </trkpt>
      <trkpt lat="43.60438" lon="3.74999">
        <ele>105.8</ele>
        <time>2011-02-06T08:21:21Z</time>
      </trkpt>
      <trkpt lat="43.60444" lon="3.75007">
        <ele>106</ele>
        <time>2011-02-06T08:21:24Z</time>
      </trkpt>
      <trkpt lat="43.6045" lon="3.75015">
        <ele>105.9</ele>
        <time>2011-02-06T08:21:27Z</time>
      </trkpt>
      <trkpt lat="43.60457" lon="3.75022">
        <ele>107.1</ele>
        <time>2011-02-06T08:21:31Z</time>
      </trkpt>
      <trkpt lat="43.60462" lon="3.75029">
        <ele>107.1</ele>
        <time>2011-02-06T08:21:34Z</time>
      </trkpt>
      <trkpt lat="43.6047" lon="3.75032">
        <ele>107.3</ele>
        <time>2011-02-06T08:21:37Z</time>
      </trkpt>
      <trkpt lat="43.60477" lon="3.75026">
        <ele>107.9</ele>
        <time>2011-02-06T08:21:40Z</time>
      </trkpt>
      <trkpt lat="43.60484" lon="3.75019">
        <ele>108.8</ele>
        <time>2011-02-06T08:21:44Z</time>
      </trkpt>
      <trkpt lat="43.60491" lon="3.75013">
        <ele>108.6</ele>
        <time>2011-02-06T08:21:48Z</time>
      </trkpt>
      <trkpt lat="43.60498" lon="3.75007">
        <ele>108.3</ele>
        <time>2011-02-06T08:21:52Z</time>
      </trkpt>
      <trkpt lat="43.605" lon="3.75005">
        <ele>108.3</ele>
        <time>2011-02-06T08:21:53Z</time>
      </trkpt>
      <trkpt lat="43.60511" lon="3.74996">
        <ele>109.2</ele>
        <time>2011-02-06T08:21:58Z</time>
      </trkpt>
      <trkpt lat="43.60518" lon="3.7499">
        <ele>109.5</ele>
        <time>2011-02-06T08:22:01Z</time>
      </trkpt>
      <trkpt lat="43.60525" lon="3.74983">
        <ele>109.8</ele>
        <time>2011-02-06T08:22:04Z</time>
      </trkpt>
      <trkpt lat="43.60532" lon="3.74977">
        <ele>110</ele>
        <time>2011-02-06T08:22:07Z</time>
      </trkpt>
      <trkpt lat="43.60539" lon="3.74969">
        <ele>109.9</ele>
        <time>2011-02-06T08:22:10Z</time>
      </trkpt>
      <trkpt lat="43.60544" lon="3.7496">
        <ele>109.7</ele>
        <time>2011-02-06T08:22:13Z</time>
      </trkpt>
      <trkpt lat="43.60548" lon="3.7495">
        <ele>110.3</ele>
        <time>2011-02-06T08:22:16Z</time>
      </trkpt>
      <trkpt lat="43.6055" lon="3.7494">
        <ele>110.8</ele>
        <time>2011-02-06T08:22:19Z</time>
      </trkpt>
      <trkpt lat="43.60553" lon="3.74931">
        <ele>111.5</ele>
        <time>2011-02-06T08:22:22Z</time>
      </trkpt>
      <trkpt lat="43.60556" lon="3.74922">
        <ele>111.4</ele>
        <time>2011-02-06T08:22:25Z</time>
      </trkpt>
      <trkpt lat="43.60558" lon="3.74913">
        <ele>112.1</ele>
        <time>2011-02-06T08:22:28Z</time>
      </trkpt>
      <trkpt lat="43.60561" lon="3.74903">
        <ele>113.1</ele>
        <time>2011-02-06T08:22:31Z</time>
      </trkpt>
      <trkpt lat="43.60563" lon="3.74894">
        <ele>113.6</ele>
        <time>2011-02-06T08:22:34Z</time>
      </trkpt>
      <trkpt lat="43.60566" lon="3.74886">
        <ele>114.6</ele>
        <time>2011-02-06T08:22:37Z</time>
      </trkpt>
      <trkpt lat="43.60568" lon="3.74876">
        <ele>115.5</ele>
        <time>2011-02-06T08:22:40Z</time>
      </trkpt>
      <trkpt lat="43.6057" lon="3.74866">
        <ele>115.8</ele>
        <time>2011-02-06T08:22:43Z</time>
      </trkpt>
      <trkpt lat="43.60573" lon="3.74857">
        <ele>116.2</ele>
        <time>2011-02-06T08:22:46Z</time>
      </trkpt>
      <trkpt lat="43.60576" lon="3.74848">
        <ele>116.9</ele>
        <time>2011-02-06T08:22:49Z</time>
      </trkpt>
      <trkpt lat="43.60579" lon="3.74839">
        <ele>117.7</ele>
        <time>2011-02-06T08:22:52Z</time>
      </trkpt>
      <trkpt lat="43.60582" lon="3.74829">
        <ele>118.1</ele>
        <time>2011-02-06T08:22:55Z</time>
      </trkpt>
      <trkpt lat="43.60583" lon="3.74826">
        <ele>118.1</ele>
        <time>2011-02-06T08:22:56Z</time>
      </trkpt>
      <trkpt lat="43.60588" lon="3.74809">
        <ele>118.9</ele>
        <time>2011-02-06T08:23:01Z</time>
      </trkpt>
      <trkpt lat="43.60589" lon="3.74799">
        <ele>118.1</ele>
        <time>2011-02-06T08:23:04Z</time>
      </trkpt>
      <trkpt lat="43.60591" lon="3.74789">
        <ele>118.5</ele>
        <time>2011-02-06T08:23:07Z</time>
      </trkpt>
      <trkpt lat="43.60593" lon="3.74778">
        <ele>118.8</ele>
        <time>2011-02-06T08:23:10Z</time>
      </trkpt>
      <trkpt lat="43.60594" lon="3.74768">
        <ele>119.8</ele>
        <time>2011-02-06T08:23:13Z</time>
      </trkpt>
      <trkpt lat="43.60594" lon="3.74757">
        <ele>119.9</ele>
        <time>2011-02-06T08:23:16Z</time>
      </trkpt>
      <trkpt lat="43.60594" lon="3.74746">
        <ele>120.6</ele>
        <time>2011-02-06T08:23:19Z</time>
      </trkpt>
      <trkpt lat="43.60592" lon="3.74735">
        <ele>120.6</ele>
        <time>2011-02-06T08:23:22Z</time>
      </trkpt>
      <trkpt lat="43.60591" lon="3.74725">
        <ele>120.8</ele>
        <time>2011-02-06T08:23:25Z</time>
      </trkpt>
      <trkpt lat="43.60591" lon="3.74714">
        <ele>121</ele>
        <time>2011-02-06T08:23:28Z</time>
      </trkpt>
      <trkpt lat="43.60592" lon="3.74702">
        <ele>121</ele>
        <time>2011-02-06T08:23:31Z</time>
      </trkpt>
      <trkpt lat="43.60593" lon="3.74691">
        <ele>121.3</ele>
        <time>2011-02-06T08:23:34Z</time>
      </trkpt>
      <trkpt lat="43.60594" lon="3.7468">
        <ele>121.8</ele>
        <time>2011-02-06T08:23:37Z</time>
      </trkpt>
      <trkpt lat="43.60597" lon="3.74669">
        <ele>122.2</ele>
        <time>2011-02-06T08:23:40Z</time>
      </trkpt>
      <trkpt lat="43.60599" lon="3.74661">
        <ele>122.2</ele>
        <time>2011-02-06T08:23:42Z</time>
      </trkpt>
      <trkpt lat="43.60602" lon="3.74653">
        <ele>122.4</ele>
        <time>2011-02-06T08:23:44Z</time>
      </trkpt>
      <trkpt lat="43.60604" lon="3.74645">
        <ele>122.2</ele>
        <time>2011-02-06T08:23:46Z</time>
      </trkpt>
      <trkpt lat="43.60607" lon="3.74637">
        <ele>121.9</ele>
        <time>2011-02-06T08:23:48Z</time>
      </trkpt>
      <trkpt lat="43.6061" lon="3.74628">
        <ele>122.3</ele>
        <time>2011-02-06T08:23:50Z</time>
      </trkpt>
      <trkpt lat="43.60613" lon="3.74619">
        <ele>122.5</ele>
        <time>2011-02-06T08:23:52Z</time>
      </trkpt>
      <trkpt lat="43.60616" lon="3.74611">
        <ele>122.4</ele>
        <time>2011-02-06T08:23:54Z</time>
      </trkpt>
      <trkpt lat="43.60619" lon="3.74602">
        <ele>122.3</ele>
        <time>2011-02-06T08:23:56Z</time>
      </trkpt>
      <trkpt lat="43.6062" lon="3.74597">
        <ele>122.2</ele>
        <time>2011-02-06T08:23:57Z</time>
      </trkpt>
      <trkpt lat="43.60629" lon="3.74591">
        <ele>122.1</ele>
        <time>2011-02-06T08:24:00Z</time>
      </trkpt>
      <trkpt lat="43.60636" lon="3.74596">
        <ele>121.8</ele>
        <time>2011-02-06T08:24:02Z</time>
      </trkpt>
      <trkpt lat="43.6064" lon="3.74599">
        <ele>121.6</ele>
        <time>2011-02-06T08:24:03Z</time>
      </trkpt>
      <trkpt lat="43.60645" lon="3.74601">
        <ele>121.4</ele>
        <time>2011-02-06T08:24:04Z</time>
      </trkpt>
      <trkpt lat="43.60649" lon="3.74603">
        <ele>121</ele>
        <time>2011-02-06T08:24:05Z</time>
      </trkpt>
      <trkpt lat="43.60655" lon="3.74606">
        <ele>120.6</ele>
        <time>2011-02-06T08:24:06Z</time>
      </trkpt>
      <trkpt lat="43.6066" lon="3.74608">
        <ele>120.4</ele>
        <time>2011-02-06T08:24:07Z</time>
      </trkpt>
      <trkpt lat="43.60666" lon="3.7461">
        <ele>120.2</ele>
        <time>2011-02-06T08:24:08Z</time>
      </trkpt>
      <trkpt lat="43.60671" lon="3.74613">
        <ele>119.9</ele>
        <time>2011-02-06T08:24:09Z</time>
      </trkpt>
      <trkpt lat="43.60677" lon="3.74616">
        <ele>119.6</ele>
        <time>2011-02-06T08:24:10Z</time>
      </trkpt>
      <trkpt lat="43.60682" lon="3.74619">
        <ele>119.4</ele>
        <time>2011-02-06T08:24:11Z</time>
      </trkpt>
      <trkpt lat="43.60688" lon="3.74622">
        <ele>118.6</ele>
        <time>2011-02-06T08:24:12Z</time>
      </trkpt>
      <trkpt lat="43.60694" lon="3.74625">
        <ele>118</ele>
        <time>2011-02-06T08:24:13Z</time>
      </trkpt>
      <trkpt lat="43.60699" lon="3.74628">
        <ele>117.5</ele>
        <time>2011-02-06T08:24:14Z</time>
      </trkpt>
      <trkpt lat="43.60705" lon="3.74631">
        <ele>116.9</ele>
        <time>2011-02-06T08:24:15Z</time>
      </trkpt>
      <trkpt lat="43.60711" lon="3.74633">
        <ele>116.4</ele>
        <time>2011-02-06T08:24:16Z</time>
      </trkpt>
      <trkpt lat="43.60717" lon="3.74635">
        <ele>116.1</ele>
        <time>2011-02-06T08:24:17Z</time>
      </trkpt>
      <trkpt lat="43.60722" lon="3.74637">
        <ele>115.5</ele>
        <time>2011-02-06T08:24:18Z</time>
      </trkpt>
      <trkpt lat="43.60728" lon="3.74641">
        <ele>115.1</ele>
        <time>2011-02-06T08:24:19Z</time>
      </trkpt>
      <trkpt lat="43.60733" lon="3.74646">
        <ele>114.8</ele>
        <time>2011-02-06T08:24:20Z</time>
      </trkpt>
      <trkpt lat="43.60738" lon="3.7465">
        <ele>114.2</ele>
        <time>2011-02-06T08:24:21Z</time>
      </trkpt>
      <trkpt lat="43.60743" lon="3.74653">
        <ele>113.7</ele>
        <time>2011-02-06T08:24:22Z</time>
      </trkpt>
      <trkpt lat="43.60747" lon="3.74657">
        <ele>113.3</ele>
        <time>2011-02-06T08:24:23Z</time>
      </trkpt>
      <trkpt lat="43.60752" lon="3.74661">
        <ele>113</ele>
        <time>2011-02-06T08:24:24Z</time>
      </trkpt>
      <trkpt lat="43.60755" lon="3.74666">
        <ele>113.2</ele>
        <time>2011-02-06T08:24:25Z</time>
      </trkpt>
      <trkpt lat="43.6076" lon="3.74674">
        <ele>113.5</ele>
        <time>2011-02-06T08:24:27Z</time>
      </trkpt>
      <trkpt lat="43.60762" lon="3.74683">
        <ele>114.2</ele>
        <time>2011-02-06T08:24:29Z</time>
      </trkpt>
      <trkpt lat="43.60765" lon="3.74694">
        <ele>115.3</ele>
        <time>2011-02-06T08:24:32Z</time>
      </trkpt>
      <trkpt lat="43.60773" lon="3.74694">
        <ele>117.8</ele>
        <time>2011-02-06T08:24:38Z</time>
      </trkpt>
      <trkpt lat="43.60781" lon="3.74696">
        <ele>120.2</ele>
        <time>2011-02-06T08:24:45Z</time>
      </trkpt>
      <trkpt lat="43.6079" lon="3.74696">
        <ele>121.7</ele>
        <time>2011-02-06T08:24:49Z</time>
      </trkpt>
      <trkpt lat="43.60798" lon="3.74694">
        <ele>122.2</ele>
        <time>2011-02-06T08:24:53Z</time>
      </trkpt>
      <trkpt lat="43.60807" lon="3.74693">
        <ele>122.8</ele>
        <time>2011-02-06T08:24:57Z</time>
      </trkpt>
      <trkpt lat="43.60809" lon="3.74692">
        <ele>122.9</ele>
        <time>2011-02-06T08:24:58Z</time>
      </trkpt>
      <trkpt lat="43.60821" lon="3.74691">
        <ele>123.1</ele>
        <time>2011-02-06T08:25:03Z</time>
      </trkpt>
      <trkpt lat="43.60828" lon="3.7469">
        <ele>123.1</ele>
        <time>2011-02-06T08:25:06Z</time>
      </trkpt>
      <trkpt lat="43.60834" lon="3.74692">
        <ele>123.2</ele>
        <time>2011-02-06T08:25:09Z</time>
      </trkpt>
      <trkpt lat="43.60843" lon="3.74693">
        <ele>123.9</ele>
        <time>2011-02-06T08:25:13Z</time>
      </trkpt>
      <trkpt lat="43.60851" lon="3.74692">
        <ele>124.5</ele>
        <time>2011-02-06T08:25:17Z</time>
      </trkpt>
      <trkpt lat="43.6086" lon="3.74691">
        <ele>125.7</ele>
        <time>2011-02-06T08:25:21Z</time>
      </trkpt>
      <trkpt lat="43.60869" lon="3.7469">
        <ele>125.7</ele>
        <time>2011-02-06T08:25:25Z</time>
      </trkpt>
      <trkpt lat="43.60877" lon="3.74691">
        <ele>126.1</ele>
        <time>2011-02-06T08:25:29Z</time>
      </trkpt>
      <trkpt lat="43.60884" lon="3.74691">
        <ele>126</ele>
        <time>2011-02-06T08:25:32Z</time>
      </trkpt>
      <trkpt lat="43.60891" lon="3.7469">
        <ele>125.8</ele>
        <time>2011-02-06T08:25:35Z</time>
      </trkpt>
      <trkpt lat="43.60897" lon="3.74688">
        <ele>125.7</ele>
        <time>2011-02-06T08:25:38Z</time>
      </trkpt>
      <trkpt lat="43.60904" lon="3.74685">
        <ele>125.6</ele>
        <time>2011-02-06T08:25:41Z</time>
      </trkpt>
      <trkpt lat="43.60912" lon="3.74682">
        <ele>125.7</ele>
        <time>2011-02-06T08:25:44Z</time>
      </trkpt>
      <trkpt lat="43.60919" lon="3.74678">
        <ele>125.7</ele>
        <time>2011-02-06T08:25:47Z</time>
      </trkpt>
      <trkpt lat="43.60927" lon="3.74675">
        <ele>125.6</ele>
        <time>2011-02-06T08:25:50Z</time>
      </trkpt>
      <trkpt lat="43.60934" lon="3.7467">
        <ele>126</ele>
        <time>2011-02-06T08:25:53Z</time>
      </trkpt>
      <trkpt lat="43.6094" lon="3.74666">
        <ele>125.9</ele>
        <time>2011-02-06T08:25:56Z</time>
      </trkpt>
      <trkpt lat="43.60947" lon="3.74661">
        <ele>125.3</ele>
        <time>2011-02-06T08:25:59Z</time>
      </trkpt>
      <trkpt lat="43.60949" lon="3.74659">
        <ele>125.2</ele>
        <time>2011-02-06T08:26:00Z</time>
      </trkpt>
      <trkpt lat="43.60962" lon="3.74649">
        <ele>124.3</ele>
        <time>2011-02-06T08:26:05Z</time>
      </trkpt>
      <trkpt lat="43.60969" lon="3.74643">
        <ele>124.3</ele>
        <time>2011-02-06T08:26:08Z</time>
      </trkpt>
      <trkpt lat="43.60976" lon="3.74636">
        <ele>124.2</ele>
        <time>2011-02-06T08:26:11Z</time>
      </trkpt>
      <trkpt lat="43.60982" lon="3.74629">
        <ele>123.9</ele>
        <time>2011-02-06T08:26:14Z</time>
      </trkpt>
      <trkpt lat="43.60987" lon="3.74622">
        <ele>124</ele>
        <time>2011-02-06T08:26:17Z</time>
      </trkpt>
      <trkpt lat="43.60993" lon="3.74615">
        <ele>124.6</ele>
        <time>2011-02-06T08:26:20Z</time>
      </trkpt>
      <trkpt lat="43.60998" lon="3.74609">
        <ele>124.7</ele>
        <time>2011-02-06T08:26:23Z</time>
      </trkpt>
      <trkpt lat="43.61004" lon="3.74604">
        <ele>124.6</ele>
        <time>2011-02-06T08:26:26Z</time>
      </trkpt>
      <trkpt lat="43.61011" lon="3.74598">
        <ele>124.3</ele>
        <time>2011-02-06T08:26:29Z</time>
      </trkpt>
      <trkpt lat="43.61017" lon="3.74594">
        <ele>123.9</ele>
        <time>2011-02-06T08:26:31Z</time>
      </trkpt>
      <trkpt lat="43.61022" lon="3.74589">
        <ele>123.8</ele>
        <time>2011-02-06T08:26:33Z</time>
      </trkpt>
      <trkpt lat="43.61028" lon="3.74583">
        <ele>123.7</ele>
        <time>2011-02-06T08:26:35Z</time>
      </trkpt>
      <trkpt lat="43.61034" lon="3.74577">
        <ele>123.5</ele>
        <time>2011-02-06T08:26:37Z</time>
      </trkpt>
      <trkpt lat="43.61039" lon="3.7457">
        <ele>123.4</ele>
        <time>2011-02-06T08:26:39Z</time>
      </trkpt>
      <trkpt lat="43.61044" lon="3.74563">
        <ele>123.4</ele>
        <time>2011-02-06T08:26:41Z</time>
      </trkpt>
      <trkpt lat="43.61048" lon="3.74557">
        <ele>123.2</ele>
        <time>2011-02-06T08:26:43Z</time>
      </trkpt>
      <trkpt lat="43.61054" lon="3.74547">
        <ele>123.5</ele>
        <time>2011-02-06T08:26:46Z</time>
      </trkpt>
      <trkpt lat="43.61059" lon="3.74538">
        <ele>123.6</ele>
        <time>2011-02-06T08:26:49Z</time>
      </trkpt>
      <trkpt lat="43.61066" lon="3.7453">
        <ele>123.6</ele>
        <time>2011-02-06T08:26:52Z</time>
      </trkpt>
      <trkpt lat="43.61073" lon="3.74525">
        <ele>123.8</ele>
        <time>2011-02-06T08:26:55Z</time>
      </trkpt>
      <trkpt lat="43.61081" lon="3.74523">
        <ele>124.2</ele>
        <time>2011-02-06T08:26:58Z</time>
      </trkpt>
      <trkpt lat="43.61089" lon="3.74524">
        <ele>124.8</ele>
        <time>2011-02-06T08:27:01Z</time>
      </trkpt>
      <trkpt lat="43.61091" lon="3.74525">
        <ele>125.1</ele>
        <time>2011-02-06T08:27:02Z</time>
      </trkpt>
      <trkpt lat="43.61105" lon="3.74524">
        <ele>125.4</ele>
        <time>2011-02-06T08:27:08Z</time>
      </trkpt>
      <trkpt lat="43.61114" lon="3.74522">
        <ele>125.9</ele>
        <time>2011-02-06T08:27:12Z</time>
      </trkpt>
      <trkpt lat="43.61122" lon="3.74518">
        <ele>127.1</ele>
        <time>2011-02-06T08:27:16Z</time>
      </trkpt>
      <trkpt lat="43.61128" lon="3.74514">
        <ele>127.9</ele>
        <time>2011-02-06T08:27:19Z</time>
      </trkpt>
      <trkpt lat="43.61134" lon="3.7451">
        <ele>128.2</ele>
        <time>2011-02-06T08:27:22Z</time>
      </trkpt>
      <trkpt lat="43.61142" lon="3.74505">
        <ele>129.2</ele>
        <time>2011-02-06T08:27:26Z</time>
      </trkpt>
      <trkpt lat="43.61151" lon="3.745">
        <ele>129.8</ele>
        <time>2011-02-06T08:27:30Z</time>
      </trkpt>
      <trkpt lat="43.61157" lon="3.74496">
        <ele>129.9</ele>
        <time>2011-02-06T08:27:33Z</time>
      </trkpt>
      <trkpt lat="43.61165" lon="3.74492">
        <ele>130.6</ele>
        <time>2011-02-06T08:27:36Z</time>
      </trkpt>
      <trkpt lat="43.61171" lon="3.74488">
        <ele>131.7</ele>
        <time>2011-02-06T08:27:39Z</time>
      </trkpt>
      <trkpt lat="43.61179" lon="3.74491">
        <ele>132</ele>
        <time>2011-02-06T08:27:42Z</time>
      </trkpt>
      <trkpt lat="43.61181" lon="3.74499">
        <ele>131.9</ele>
        <time>2011-02-06T08:27:44Z</time>
      </trkpt>
      <trkpt lat="43.61183" lon="3.74508">
        <ele>131.9</ele>
        <time>2011-02-06T08:27:46Z</time>
      </trkpt>
      <trkpt lat="43.61184" lon="3.74516">
        <ele>131.9</ele>
        <time>2011-02-06T08:27:48Z</time>
      </trkpt>
      <trkpt lat="43.61186" lon="3.74527">
        <ele>132.1</ele>
        <time>2011-02-06T08:27:51Z</time>
      </trkpt>
      <trkpt lat="43.61188" lon="3.74539">
        <ele>131.8</ele>
        <time>2011-02-06T08:27:55Z</time>
      </trkpt>
      <trkpt lat="43.61189" lon="3.7455">
        <ele>131.7</ele>
        <time>2011-02-06T08:28:00Z</time>
      </trkpt>
      <trkpt lat="43.61191" lon="3.74561">
        <ele>132.3</ele>
        <time>2011-02-06T08:28:04Z</time>
      </trkpt>
      <trkpt lat="43.61192" lon="3.74564">
        <ele>131.9</ele>
        <time>2011-02-06T08:28:05Z</time>
      </trkpt>
      <trkpt lat="43.61194" lon="3.74583">
        <ele>131.2</ele>
        <time>2011-02-06T08:28:12Z</time>
      </trkpt>
      <trkpt lat="43.61195" lon="3.74594">
        <ele>131.2</ele>
        <time>2011-02-06T08:28:16Z</time>
      </trkpt>
      <trkpt lat="43.61196" lon="3.74604">
        <ele>131.2</ele>
        <time>2011-02-06T08:28:19Z</time>
      </trkpt>
      <trkpt lat="43.61196" lon="3.74614">
        <ele>131.3</ele>
        <time>2011-02-06T08:28:22Z</time>
      </trkpt>
      <trkpt lat="43.61197" lon="3.74625">
        <ele>131.4</ele>
        <time>2011-02-06T08:28:25Z</time>
      </trkpt>
      <trkpt lat="43.61197" lon="3.74637">
        <ele>131.6</ele>
        <time>2011-02-06T08:28:28Z</time>
      </trkpt>
      <trkpt lat="43.61198" lon="3.74649">
        <ele>131.5</ele>
        <time>2011-02-06T08:28:31Z</time>
      </trkpt>
      <trkpt lat="43.61199" lon="3.74658">
        <ele>131.5</ele>
        <time>2011-02-06T08:28:33Z</time>
      </trkpt>
      <trkpt lat="43.612" lon="3.7467">
        <ele>131.3</ele>
        <time>2011-02-06T08:28:36Z</time>
      </trkpt>
      <trkpt lat="43.612" lon="3.74682">
        <ele>130.9</ele>
        <time>2011-02-06T08:28:39Z</time>
      </trkpt>
      <trkpt lat="43.612" lon="3.74691">
        <ele>131.3</ele>
        <time>2011-02-06T08:28:41Z</time>
      </trkpt>
      <trkpt lat="43.61199" lon="3.747">
        <ele>131.6</ele>
        <time>2011-02-06T08:28:43Z</time>
      </trkpt>
      <trkpt lat="43.61198" lon="3.7471">
        <ele>131.8</ele>
        <time>2011-02-06T08:28:45Z</time>
      </trkpt>
      <trkpt lat="43.61198" lon="3.7472">
        <ele>131.1</ele>
        <time>2011-02-06T08:28:47Z</time>
      </trkpt>
      <trkpt lat="43.61197" lon="3.74731">
        <ele>130.9</ele>
        <time>2011-02-06T08:28:49Z</time>
      </trkpt>
      <trkpt lat="43.61197" lon="3.74742">
        <ele>130.8</ele>
        <time>2011-02-06T08:28:51Z</time>
      </trkpt>
      <trkpt lat="43.61198" lon="3.74754">
        <ele>130.4</ele>
        <time>2011-02-06T08:28:53Z</time>
      </trkpt>
      <trkpt lat="43.61199" lon="3.74761">
        <ele>130</ele>
        <time>2011-02-06T08:28:54Z</time>
      </trkpt>
      <trkpt lat="43.61199" lon="3.74767">
        <ele>129.8</ele>
        <time>2011-02-06T08:28:55Z</time>
      </trkpt>
      <trkpt lat="43.612" lon="3.74773">
        <ele>129.6</ele>
        <time>2011-02-06T08:28:56Z</time>
      </trkpt>
      <trkpt lat="43.61201" lon="3.74779">
        <ele>129.5</ele>
        <time>2011-02-06T08:28:57Z</time>
      </trkpt>
      <trkpt lat="43.61202" lon="3.74786">
        <ele>129.5</ele>
        <time>2011-02-06T08:28:58Z</time>
      </trkpt>
      <trkpt lat="43.61204" lon="3.74792">
        <ele>129.6</ele>
        <time>2011-02-06T08:28:59Z</time>
      </trkpt>
      <trkpt lat="43.61205" lon="3.74799">
        <ele>129.6</ele>
        <time>2011-02-06T08:29:00Z</time>
      </trkpt>
      <trkpt lat="43.61206" lon="3.74806">
        <ele>129.7</ele>
        <time>2011-02-06T08:29:01Z</time>
      </trkpt>
      <trkpt lat="43.61207" lon="3.74813">
        <ele>129.1</ele>
        <time>2011-02-06T08:29:02Z</time>
      </trkpt>
      <trkpt lat="43.61208" lon="3.7482">
        <ele>128.6</ele>
        <time>2011-02-06T08:29:03Z</time>
      </trkpt>
      <trkpt lat="43.61209" lon="3.74827">
        <ele>128.2</ele>
        <time>2011-02-06T08:29:04Z</time>
      </trkpt>
      <trkpt lat="43.6121" lon="3.74834">
        <ele>127.8</ele>
        <time>2011-02-06T08:29:05Z</time>
      </trkpt>
      <trkpt lat="43.6121" lon="3.74841">
        <ele>127.5</ele>
        <time>2011-02-06T08:29:06Z</time>
      </trkpt>
      <trkpt lat="43.61211" lon="3.74848">
        <ele>127.3</ele>
        <time>2011-02-06T08:29:07Z</time>
      </trkpt>
      <trkpt lat="43.61212" lon="3.74855">
        <ele>127.2</ele>
        <time>2011-02-06T08:29:08Z</time>
      </trkpt>
      <trkpt lat="43.61214" lon="3.74862">
        <ele>126.9</ele>
        <time>2011-02-06T08:29:09Z</time>
      </trkpt>
      <trkpt lat="43.61215" lon="3.7487">
        <ele>126.8</ele>
        <time>2011-02-06T08:29:10Z</time>
      </trkpt>
      <trkpt lat="43.61217" lon="3.74877">
        <ele>126.6</ele>
        <time>2011-02-06T08:29:11Z</time>
      </trkpt>
      <trkpt lat="43.61218" lon="3.74883">
        <ele>126.7</ele>
        <time>2011-02-06T08:29:12Z</time>
      </trkpt>
      <trkpt lat="43.6122" lon="3.7489">
        <ele>126.7</ele>
        <time>2011-02-06T08:29:13Z</time>
      </trkpt>
      <trkpt lat="43.61222" lon="3.74897">
        <ele>126.8</ele>
        <time>2011-02-06T08:29:14Z</time>
      </trkpt>
      <trkpt lat="43.61223" lon="3.74904">
        <ele>126.6</ele>
        <time>2011-02-06T08:29:15Z</time>
      </trkpt>
      <trkpt lat="43.61225" lon="3.74911">
        <ele>126.5</ele>
        <time>2011-02-06T08:29:16Z</time>
      </trkpt>
      <trkpt lat="43.61226" lon="3.74918">
        <ele>126.4</ele>
        <time>2011-02-06T08:29:17Z</time>
      </trkpt>
      <trkpt lat="43.61227" lon="3.74925">
        <ele>126.1</ele>
        <time>2011-02-06T08:29:18Z</time>
      </trkpt>
      <trkpt lat="43.61228" lon="3.74931">
        <ele>126</ele>
        <time>2011-02-06T08:29:19Z</time>
      </trkpt>
      <trkpt lat="43.61228" lon="3.74938">
        <ele>125.8</ele>
        <time>2011-02-06T08:29:20Z</time>
      </trkpt>
      <trkpt lat="43.61227" lon="3.74946">
        <ele>125.7</ele>
        <time>2011-02-06T08:29:21Z</time>
      </trkpt>
      <trkpt lat="43.61227" lon="3.74952">
        <ele>125.6</ele>
        <time>2011-02-06T08:29:22Z</time>
      </trkpt>
      <trkpt lat="43.61226" lon="3.74959">
        <ele>125.5</ele>
        <time>2011-02-06T08:29:23Z</time>
      </trkpt>
      <trkpt lat="43.61226" lon="3.74966">
        <ele>125.5</ele>
        <time>2011-02-06T08:29:24Z</time>
      </trkpt>
      <trkpt lat="43.61226" lon="3.74973">
        <ele>125.3</ele>
        <time>2011-02-06T08:29:25Z</time>
      </trkpt>
      <trkpt lat="43.61226" lon="3.74979">
        <ele>125.2</ele>
        <time>2011-02-06T08:29:26Z</time>
      </trkpt>
      <trkpt lat="43.61226" lon="3.74992">
        <ele>125.2</ele>
        <time>2011-02-06T08:29:28Z</time>
      </trkpt>
      <trkpt lat="43.61226" lon="3.75003">
        <ele>125.2</ele>
        <time>2011-02-06T08:29:30Z</time>
      </trkpt>
      <trkpt lat="43.61226" lon="3.75015">
        <ele>125.1</ele>
        <time>2011-02-06T08:29:32Z</time>
      </trkpt>
      <trkpt lat="43.61227" lon="3.75028">
        <ele>125.4</ele>
        <time>2011-02-06T08:29:34Z</time>
      </trkpt>
      <trkpt lat="43.61228" lon="3.7504">
        <ele>125.7</ele>
        <time>2011-02-06T08:29:36Z</time>
      </trkpt>
      <trkpt lat="43.61229" lon="3.75047">
        <ele>125.6</ele>
        <time>2011-02-06T08:29:37Z</time>
      </trkpt>
      <trkpt lat="43.61231" lon="3.75058">
        <ele>125.5</ele>
        <time>2011-02-06T08:29:39Z</time>
      </trkpt>
      <trkpt lat="43.61233" lon="3.75068">
        <ele>125.3</ele>
        <time>2011-02-06T08:29:41Z</time>
      </trkpt>
      <trkpt lat="43.61235" lon="3.75079">
        <ele>125</ele>
        <time>2011-02-06T08:29:43Z</time>
      </trkpt>
      <trkpt lat="43.61237" lon="3.7509">
        <ele>125.7</ele>
        <time>2011-02-06T08:29:45Z</time>
      </trkpt>
      <trkpt lat="43.61239" lon="3.75101">
        <ele>126</ele>
        <time>2011-02-06T08:29:47Z</time>
      </trkpt>
      <trkpt lat="43.61242" lon="3.75113">
        <ele>126.1</ele>
        <time>2011-02-06T08:29:49Z</time>
      </trkpt>
      <trkpt lat="43.61247" lon="3.75122">
        <ele>125.9</ele>
        <time>2011-02-06T08:29:51Z</time>
      </trkpt>
      <trkpt lat="43.61255" lon="3.75125">
        <ele>125.4</ele>
        <time>2011-02-06T08:29:53Z</time>
      </trkpt>
      <trkpt lat="43.61263" lon="3.75123">
        <ele>124.7</ele>
        <time>2011-02-06T08:29:56Z</time>
      </trkpt>
      <trkpt lat="43.61271" lon="3.75121">
        <ele>125.3</ele>
        <time>2011-02-06T08:29:59Z</time>
      </trkpt>
      <trkpt lat="43.61278" lon="3.75118">
        <ele>125.7</ele>
        <time>2011-02-06T08:30:02Z</time>
      </trkpt>
      <trkpt lat="43.61286" lon="3.75115">
        <ele>126.3</ele>
        <time>2011-02-06T08:30:06Z</time>
      </trkpt>
      <trkpt lat="43.61288" lon="3.75114">
        <ele>126.4</ele>
        <time>2011-02-06T08:30:07Z</time>
      </trkpt>
      <trkpt lat="43.61301" lon="3.75107">
        <ele>128.2</ele>
        <time>2011-02-06T08:30:13Z</time>
      </trkpt>
      <trkpt lat="43.61307" lon="3.75102">
        <ele>128.8</ele>
        <time>2011-02-06T08:30:16Z</time>
      </trkpt>
      <trkpt lat="43.61313" lon="3.75098">
        <ele>129.2</ele>
        <time>2011-02-06T08:30:19Z</time>
      </trkpt>
      <trkpt lat="43.61319" lon="3.75093">
        <ele>129.6</ele>
        <time>2011-02-06T08:30:22Z</time>
      </trkpt>
      <trkpt lat="43.61325" lon="3.75087">
        <ele>130.7</ele>
        <time>2011-02-06T08:30:25Z</time>
      </trkpt>
      <trkpt lat="43.61331" lon="3.75082">
        <ele>131.3</ele>
        <time>2011-02-06T08:30:28Z</time>
      </trkpt>
      <trkpt lat="43.61337" lon="3.75076">
        <ele>131.2</ele>
        <time>2011-02-06T08:30:31Z</time>
      </trkpt>
      <trkpt lat="43.61345" lon="3.75071">
        <ele>132.2</ele>
        <time>2011-02-06T08:30:35Z</time>
      </trkpt>
      <trkpt lat="43.61353" lon="3.7507">
        <ele>133.7</ele>
        <time>2011-02-06T08:30:39Z</time>
      </trkpt>
      <trkpt lat="43.61361" lon="3.75074">
        <ele>134.7</ele>
        <time>2011-02-06T08:30:43Z</time>
      </trkpt>
      <trkpt lat="43.61366" lon="3.75082">
        <ele>136.2</ele>
        <time>2011-02-06T08:30:47Z</time>
      </trkpt>
      <trkpt lat="43.6137" lon="3.75091">
        <ele>136.8</ele>
        <time>2011-02-06T08:30:51Z</time>
      </trkpt>
      <trkpt lat="43.61374" lon="3.751">
        <ele>138.1</ele>
        <time>2011-02-06T08:30:55Z</time>
      </trkpt>
      <trkpt lat="43.61379" lon="3.75109">
        <ele>138.6</ele>
        <time>2011-02-06T08:30:59Z</time>
      </trkpt>
      <trkpt lat="43.61383" lon="3.75119">
        <ele>139.7</ele>
        <time>2011-02-06T08:31:03Z</time>
      </trkpt>
      <trkpt lat="43.61386" lon="3.75129">
        <ele>141.2</ele>
        <time>2011-02-06T08:31:07Z</time>
      </trkpt>
      <trkpt lat="43.61387" lon="3.75131">
        <ele>141.3</ele>
        <time>2011-02-06T08:31:08Z</time>
      </trkpt>
      <trkpt lat="43.61391" lon="3.75149">
        <ele>142.3</ele>
        <time>2011-02-06T08:31:15Z</time>
      </trkpt>
      <trkpt lat="43.61392" lon="3.7516">
        <ele>143.8</ele>
        <time>2011-02-06T08:31:19Z</time>
      </trkpt>
      <trkpt lat="43.61395" lon="3.7517">
        <ele>144.6</ele>
        <time>2011-02-06T08:31:23Z</time>
      </trkpt>
      <trkpt lat="43.61397" lon="3.75181">
        <ele>145.5</ele>
        <time>2011-02-06T08:31:27Z</time>
      </trkpt>
      <trkpt lat="43.61404" lon="3.75188">
        <ele>145.8</ele>
        <time>2011-02-06T08:31:32Z</time>
      </trkpt>
      <trkpt lat="43.61407" lon="3.75178">
        <ele>146.2</ele>
        <time>2011-02-06T08:31:37Z</time>
      </trkpt>
      <trkpt lat="43.61409" lon="3.75168">
        <ele>147.1</ele>
        <time>2011-02-06T08:31:41Z</time>
      </trkpt>
      <trkpt lat="43.61412" lon="3.75157">
        <ele>148.1</ele>
        <time>2011-02-06T08:31:45Z</time>
      </trkpt>
      <trkpt lat="43.61415" lon="3.75147">
        <ele>149.2</ele>
        <time>2011-02-06T08:31:49Z</time>
      </trkpt>
      <trkpt lat="43.61419" lon="3.75136">
        <ele>150.4</ele>
        <time>2011-02-06T08:31:53Z</time>
      </trkpt>
      <trkpt lat="43.61423" lon="3.75127">
        <ele>150</ele>
        <time>2011-02-06T08:31:57Z</time>
      </trkpt>
      <trkpt lat="43.61429" lon="3.75117">
        <ele>151.3</ele>
        <time>2011-02-06T08:32:01Z</time>
      </trkpt>
      <trkpt lat="43.61433" lon="3.75109">
        <ele>151.4</ele>
        <time>2011-02-06T08:32:04Z</time>
      </trkpt>
      <trkpt lat="43.61437" lon="3.75101">
        <ele>151.1</ele>
        <time>2011-02-06T08:32:07Z</time>
      </trkpt>
      <trkpt lat="43.61442" lon="3.75093">
        <ele>150.7</ele>
        <time>2011-02-06T08:32:10Z</time>
      </trkpt>
      <trkpt lat="43.61444" lon="3.7509">
        <ele>150.4</ele>
        <time>2011-02-06T08:32:11Z</time>
      </trkpt>
      <trkpt lat="43.61452" lon="3.75075">
        <ele>150.2</ele>
        <time>2011-02-06T08:32:16Z</time>
      </trkpt>
      <trkpt lat="43.61458" lon="3.75067">
        <ele>148.7</ele>
        <time>2011-02-06T08:33:05Z</time>
      </trkpt>
      <trkpt lat="43.61462" lon="3.75058">
        <ele>149.5</ele>
        <time>2011-02-06T08:34:44Z</time>
      </trkpt>
      <trkpt lat="43.61464" lon="3.75056">
        <ele>149.5</ele>
        <time>2011-02-06T08:34:45Z</time>
      </trkpt>
      <trkpt lat="43.61476" lon="3.75055">
        <ele>147.5</ele>
        <time>2011-02-06T08:34:49Z</time>
      </trkpt>
      <trkpt lat="43.61484" lon="3.75054">
        <ele>146.2</ele>
        <time>2011-02-06T08:34:53Z</time>
      </trkpt>
      <trkpt lat="43.61493" lon="3.75057">
        <ele>143.6</ele>
        <time>2011-02-06T08:34:59Z</time>
      </trkpt>
      <trkpt lat="43.61502" lon="3.75058">
        <ele>139.6</ele>
        <time>2011-02-06T08:35:03Z</time>
      </trkpt>
      <trkpt lat="43.6151" lon="3.75055">
        <ele>136.6</ele>
        <time>2011-02-06T08:35:06Z</time>
      </trkpt>
      <trkpt lat="43.61518" lon="3.75051">
        <ele>133.6</ele>
        <time>2011-02-06T08:35:09Z</time>
      </trkpt>
      <trkpt lat="43.61525" lon="3.75049">
        <ele>132</ele>
        <time>2011-02-06T08:35:11Z</time>
      </trkpt>
      <trkpt lat="43.61532" lon="3.75046">
        <ele>130.7</ele>
        <time>2011-02-06T08:35:13Z</time>
      </trkpt>
      <trkpt lat="43.61539" lon="3.75042">
        <ele>129.9</ele>
        <time>2011-02-06T08:35:15Z</time>
      </trkpt>
      <trkpt lat="43.61547" lon="3.75036">
        <ele>127.9</ele>
        <time>2011-02-06T08:35:17Z</time>
      </trkpt>
      <trkpt lat="43.61552" lon="3.75032">
        <ele>127.2</ele>
        <time>2011-02-06T08:35:18Z</time>
      </trkpt>
      <trkpt lat="43.61557" lon="3.75028">
        <ele>126.5</ele>
        <time>2011-02-06T08:35:19Z</time>
      </trkpt>
      <trkpt lat="43.61562" lon="3.75025">
        <ele>125.9</ele>
        <time>2011-02-06T08:35:20Z</time>
      </trkpt>
      <trkpt lat="43.61571" lon="3.75025">
        <ele>124.3</ele>
        <time>2011-02-06T08:35:22Z</time>
      </trkpt>
      <trkpt lat="43.61576" lon="3.75025">
        <ele>123.4</ele>
        <time>2011-02-06T08:35:23Z</time>
      </trkpt>
      <trkpt lat="43.61583" lon="3.75026">
        <ele>122.7</ele>
        <time>2011-02-06T08:35:24Z</time>
      </trkpt>
      <trkpt lat="43.61589" lon="3.75027">
        <ele>121.5</ele>
        <time>2011-02-06T08:35:25Z</time>
      </trkpt>
      <trkpt lat="43.61594" lon="3.75029">
        <ele>120.6</ele>
        <time>2011-02-06T08:35:26Z</time>
      </trkpt>
      <trkpt lat="43.61599" lon="3.75032">
        <ele>119.9</ele>
        <time>2011-02-06T08:35:27Z</time>
      </trkpt>
      <trkpt lat="43.61604" lon="3.75035">
        <ele>119.4</ele>
        <time>2011-02-06T08:35:28Z</time>
      </trkpt>
      <trkpt lat="43.6161" lon="3.75039">
        <ele>118.7</ele>
        <time>2011-02-06T08:35:29Z</time>
      </trkpt>
      <trkpt lat="43.61619" lon="3.75041">
        <ele>116.9</ele>
        <time>2011-02-06T08:35:32Z</time>
      </trkpt>
      <trkpt lat="43.61626" lon="3.75043">
        <ele>115.9</ele>
        <time>2011-02-06T08:35:34Z</time>
      </trkpt>
      <trkpt lat="43.61631" lon="3.75045">
        <ele>115.2</ele>
        <time>2011-02-06T08:35:35Z</time>
      </trkpt>
      <trkpt lat="43.61635" lon="3.75047">
        <ele>114.7</ele>
        <time>2011-02-06T08:35:36Z</time>
      </trkpt>
      <trkpt lat="43.6164" lon="3.7505">
        <ele>114.3</ele>
        <time>2011-02-06T08:35:37Z</time>
      </trkpt>
      <trkpt lat="43.61645" lon="3.75053">
        <ele>113.2</ele>
        <time>2011-02-06T08:35:38Z</time>
      </trkpt>
      <trkpt lat="43.61649" lon="3.75057">
        <ele>112.4</ele>
        <time>2011-02-06T08:35:39Z</time>
      </trkpt>
      <trkpt lat="43.61653" lon="3.75061">
        <ele>111.7</ele>
        <time>2011-02-06T08:35:40Z</time>
      </trkpt>
      <trkpt lat="43.61658" lon="3.75065">
        <ele>110.9</ele>
        <time>2011-02-06T08:35:41Z</time>
      </trkpt>
      <trkpt lat="43.61662" lon="3.75069">
        <ele>110.3</ele>
        <time>2011-02-06T08:35:42Z</time>
      </trkpt>
      <trkpt lat="43.61666" lon="3.75075">
        <ele>109.9</ele>
        <time>2011-02-06T08:35:43Z</time>
      </trkpt>
      <trkpt lat="43.61669" lon="3.7508">
        <ele>109.5</ele>
        <time>2011-02-06T08:35:44Z</time>
      </trkpt>
      <trkpt lat="43.61673" lon="3.75086">
        <ele>108.9</ele>
        <time>2011-02-06T08:35:45Z</time>
      </trkpt>
      <trkpt lat="43.61676" lon="3.75092">
        <ele>108.4</ele>
        <time>2011-02-06T08:35:46Z</time>
      </trkpt>
      <trkpt lat="43.6168" lon="3.75099">
        <ele>108</ele>
        <time>2011-02-06T08:35:47Z</time>
      </trkpt>
      <trkpt lat="43.61682" lon="3.75105">
        <ele>107.4</ele>
        <time>2011-02-06T08:35:48Z</time>
      </trkpt>
      <trkpt lat="43.61689" lon="3.75111">
        <ele>106.5</ele>
        <time>2011-02-06T08:35:50Z</time>
      </trkpt>
      <trkpt lat="43.61695" lon="3.75113">
        <ele>106.4</ele>
        <time>2011-02-06T08:35:52Z</time>
      </trkpt>
      <trkpt lat="43.61701" lon="3.75111">
        <ele>105.8</ele>
        <time>2011-02-06T08:35:54Z</time>
      </trkpt>
      <trkpt lat="43.6171" lon="3.75111">
        <ele>105.1</ele>
        <time>2011-02-06T08:35:58Z</time>
      </trkpt>
      <trkpt lat="43.61719" lon="3.75109">
        <ele>104.8</ele>
        <time>2011-02-06T08:36:04Z</time>
      </trkpt>
      <trkpt lat="43.61726" lon="3.75105">
        <ele>105</ele>
        <time>2011-02-06T08:36:08Z</time>
      </trkpt>
      <trkpt lat="43.61734" lon="3.75101">
        <ele>104</ele>
        <time>2011-02-06T08:36:13Z</time>
      </trkpt>
      <trkpt lat="43.61742" lon="3.75096">
        <ele>103.4</ele>
        <time>2011-02-06T08:36:18Z</time>
      </trkpt>
      <trkpt lat="43.61748" lon="3.75091">
        <ele>104.3</ele>
        <time>2011-02-06T08:36:22Z</time>
      </trkpt>
      <trkpt lat="43.61755" lon="3.75087">
        <ele>104.2</ele>
        <time>2011-02-06T08:36:26Z</time>
      </trkpt>
      <trkpt lat="43.61762" lon="3.75084">
        <ele>104.6</ele>
        <time>2011-02-06T08:36:30Z</time>
      </trkpt>
      <trkpt lat="43.61769" lon="3.75079">
        <ele>105.1</ele>
        <time>2011-02-06T08:36:35Z</time>
      </trkpt>
      <trkpt lat="43.61777" lon="3.75075">
        <ele>105.2</ele>
        <time>2011-02-06T08:36:43Z</time>
      </trkpt>
      <trkpt lat="43.61785" lon="3.75069">
        <ele>105.2</ele>
        <time>2011-02-06T08:37:12Z</time>
      </trkpt>
      <trkpt lat="43.61786" lon="3.75069">
        <ele>105.3</ele>
        <time>2011-02-06T08:37:13Z</time>
      </trkpt>
      <trkpt lat="43.61798" lon="3.75054">
        <ele>105.5</ele>
        <time>2011-02-06T08:37:36Z</time>
      </trkpt>
      <trkpt lat="43.61805" lon="3.75046">
        <ele>104.7</ele>
        <time>2011-02-06T08:37:49Z</time>
      </trkpt>
      <trkpt lat="43.61807" lon="3.75055">
        <ele>105.6</ele>
        <time>2011-02-06T08:38:05Z</time>
      </trkpt>
      <trkpt lat="43.61803" lon="3.75066">
        <ele>105.2</ele>
        <time>2011-02-06T08:38:08Z</time>
      </trkpt>
      <trkpt lat="43.618" lon="3.75075">
        <ele>104.3</ele>
        <time>2011-02-06T08:38:10Z</time>
      </trkpt>
      <trkpt lat="43.61798" lon="3.75087">
        <ele>103.3</ele>
        <time>2011-02-06T08:38:13Z</time>
      </trkpt>
      <trkpt lat="43.61798" lon="3.7509">
        <ele>103.1</ele>
        <time>2011-02-06T08:38:14Z</time>
      </trkpt>
      <trkpt lat="43.61798" lon="3.75108">
        <ele>102.8</ele>
        <time>2011-02-06T08:38:19Z</time>
      </trkpt>
      <trkpt lat="43.61803" lon="3.75117">
        <ele>102.7</ele>
        <time>2011-02-06T08:38:24Z</time>
      </trkpt>
      <trkpt lat="43.61809" lon="3.75114">
        <ele>102.6</ele>
        <time>2011-02-06T08:38:29Z</time>
      </trkpt>
      <trkpt lat="43.61816" lon="3.75108">
        <ele>102.6</ele>
        <time>2011-02-06T08:38:33Z</time>
      </trkpt>
      <trkpt lat="43.61823" lon="3.75102">
        <ele>103.1</ele>
        <time>2011-02-06T08:38:37Z</time>
      </trkpt>
      <trkpt lat="43.61831" lon="3.75097">
        <ele>102.6</ele>
        <time>2011-02-06T08:38:41Z</time>
      </trkpt>
      <trkpt lat="43.61839" lon="3.75093">
        <ele>103.2</ele>
        <time>2011-02-06T08:38:45Z</time>
      </trkpt>
      <trkpt lat="43.61845" lon="3.75089">
        <ele>103.7</ele>
        <time>2011-02-06T08:38:48Z</time>
      </trkpt>
      <trkpt lat="43.61854" lon="3.75086">
        <ele>103.4</ele>
        <time>2011-02-06T08:38:52Z</time>
      </trkpt>
      <trkpt lat="43.61862" lon="3.75084">
        <ele>103.7</ele>
        <time>2011-02-06T08:38:55Z</time>
      </trkpt>
      <trkpt lat="43.61869" lon="3.75083">
        <ele>103.8</ele>
        <time>2011-02-06T08:38:58Z</time>
      </trkpt>
      <trkpt lat="43.61878" lon="3.75082">
        <ele>103.9</ele>
        <time>2011-02-06T08:39:01Z</time>
      </trkpt>
      <trkpt lat="43.61886" lon="3.75081">
        <ele>104.6</ele>
        <time>2011-02-06T08:39:04Z</time>
      </trkpt>
      <trkpt lat="43.61894" lon="3.75079">
        <ele>104</ele>
        <time>2011-02-06T08:39:07Z</time>
      </trkpt>
      <trkpt lat="43.61902" lon="3.75077">
        <ele>104.3</ele>
        <time>2011-02-06T08:39:10Z</time>
      </trkpt>
      <trkpt lat="43.61909" lon="3.75074">
        <ele>104.6</ele>
        <time>2011-02-06T08:39:13Z</time>
      </trkpt>
      <trkpt lat="43.61917" lon="3.75071">
        <ele>104.4</ele>
        <time>2011-02-06T08:39:16Z</time>
      </trkpt>
      <trkpt lat="43.6192" lon="3.75069">
        <ele>104.3</ele>
        <time>2011-02-06T08:39:17Z</time>
      </trkpt>
      <trkpt lat="43.61932" lon="3.75062">
        <ele>104.5</ele>
        <time>2011-02-06T08:39:22Z</time>
      </trkpt>
      <trkpt lat="43.6194" lon="3.75057">
        <ele>104.3</ele>
        <time>2011-02-06T08:39:25Z</time>
      </trkpt>
      <trkpt lat="43.61946" lon="3.75054">
        <ele>103.9</ele>
        <time>2011-02-06T08:39:27Z</time>
      </trkpt>
      <trkpt lat="43.61951" lon="3.75049">
        <ele>104.1</ele>
        <time>2011-02-06T08:39:29Z</time>
      </trkpt>
      <trkpt lat="43.61959" lon="3.75043">
        <ele>104.5</ele>
        <time>2011-02-06T08:39:32Z</time>
      </trkpt>
      <trkpt lat="43.61967" lon="3.7504">
        <ele>104.7</ele>
        <time>2011-02-06T08:39:35Z</time>
      </trkpt>
      <trkpt lat="43.61975" lon="3.75037">
        <ele>105.2</ele>
        <time>2011-02-06T08:39:38Z</time>
      </trkpt>
      <trkpt lat="43.61982" lon="3.75032">
        <ele>105.3</ele>
        <time>2011-02-06T08:39:41Z</time>
      </trkpt>
      <trkpt lat="43.6199" lon="3.75029">
        <ele>105.3</ele>
        <time>2011-02-06T08:39:44Z</time>
      </trkpt>
      <trkpt lat="43.61996" lon="3.75024">
        <ele>105.6</ele>
        <time>2011-02-06T08:39:47Z</time>
      </trkpt>
      <trkpt lat="43.62003" lon="3.75019">
        <ele>105.6</ele>
        <time>2011-02-06T08:39:50Z</time>
      </trkpt>
      <trkpt lat="43.6201" lon="3.75012">
        <ele>105.8</ele>
        <time>2011-02-06T08:39:53Z</time>
      </trkpt>
      <trkpt lat="43.62015" lon="3.75004">
        <ele>106.4</ele>
        <time>2011-02-06T08:39:56Z</time>
      </trkpt>
      <trkpt lat="43.62018" lon="3.74994">
        <ele>106.7</ele>
        <time>2011-02-06T08:39:59Z</time>
      </trkpt>
      <trkpt lat="43.62022" lon="3.74985">
        <ele>106.6</ele>
        <time>2011-02-06T08:40:02Z</time>
      </trkpt>
      <trkpt lat="43.62029" lon="3.74977">
        <ele>105.8</ele>
        <time>2011-02-06T08:40:05Z</time>
      </trkpt>
      <trkpt lat="43.62032" lon="3.74967">
        <ele>106.7</ele>
        <time>2011-02-06T08:40:08Z</time>
      </trkpt>
      <trkpt lat="43.62035" lon="3.74957">
        <ele>107.2</ele>
        <time>2011-02-06T08:40:11Z</time>
      </trkpt>
      <trkpt lat="43.62038" lon="3.74947">
        <ele>106.8</ele>
        <time>2011-02-06T08:40:14Z</time>
      </trkpt>
      <trkpt lat="43.62042" lon="3.74937">
        <ele>106.4</ele>
        <time>2011-02-06T08:40:17Z</time>
      </trkpt>
      <trkpt lat="43.62044" lon="3.74934">
        <ele>106.3</ele>
        <time>2011-02-06T08:40:18Z</time>
      </trkpt>
      <trkpt lat="43.62053" lon="3.74929">
        <ele>106.1</ele>
        <time>2011-02-06T08:40:21Z</time>
      </trkpt>
      <trkpt lat="43.62057" lon="3.74918">
        <ele>106.5</ele>
        <time>2011-02-06T08:40:24Z</time>
      </trkpt>
      <trkpt lat="43.62059" lon="3.74907">
        <ele>106.7</ele>
        <time>2011-02-06T08:40:27Z</time>
      </trkpt>
      <trkpt lat="43.62059" lon="3.74896">
        <ele>106.8</ele>
        <time>2011-02-06T08:40:30Z</time>
      </trkpt>
      <trkpt lat="43.62059" lon="3.74885">
        <ele>107.1</ele>
        <time>2011-02-06T08:40:33Z</time>
      </trkpt>
      <trkpt lat="43.62059" lon="3.74874">
        <ele>107.5</ele>
        <time>2011-02-06T08:40:36Z</time>
      </trkpt>
      <trkpt lat="43.62064" lon="3.74867">
        <ele>107.4</ele>
        <time>2011-02-06T08:40:39Z</time>
      </trkpt>
      <trkpt lat="43.62068" lon="3.74858">
        <ele>107.9</ele>
        <time>2011-02-06T08:40:42Z</time>
      </trkpt>
      <trkpt lat="43.62072" lon="3.7485">
        <ele>107.8</ele>
        <time>2011-02-06T08:40:45Z</time>
      </trkpt>
      <trkpt lat="43.62079" lon="3.74842">
        <ele>108.4</ele>
        <time>2011-02-06T08:40:49Z</time>
      </trkpt>
      <trkpt lat="43.62086" lon="3.74836">
        <ele>109.1</ele>
        <time>2011-02-06T08:40:53Z</time>
      </trkpt>
      <trkpt lat="43.62092" lon="3.74829">
        <ele>110.1</ele>
        <time>2011-02-06T08:40:57Z</time>
      </trkpt>
      <trkpt lat="43.62101" lon="3.74832">
        <ele>109.9</ele>
        <time>2011-02-06T08:41:02Z</time>
      </trkpt>
      <trkpt lat="43.62109" lon="3.74836">
        <ele>110.7</ele>
        <time>2011-02-06T08:41:07Z</time>
      </trkpt>
      <trkpt lat="43.62114" lon="3.74845">
        <ele>111.5</ele>
        <time>2011-02-06T08:41:11Z</time>
      </trkpt>
      <trkpt lat="43.62114" lon="3.74856">
        <ele>112.3</ele>
        <time>2011-02-06T08:41:15Z</time>
      </trkpt>
      <trkpt lat="43.62119" lon="3.74866">
        <ele>113.4</ele>
        <time>2011-02-06T08:41:20Z</time>
      </trkpt>
      <trkpt lat="43.62121" lon="3.74866">
        <ele>113.6</ele>
        <time>2011-02-06T08:41:21Z</time>
      </trkpt>
      <trkpt lat="43.62135" lon="3.74867">
        <ele>116</ele>
        <time>2011-02-06T08:41:29Z</time>
      </trkpt>
      <trkpt lat="43.62141" lon="3.7486">
        <ele>117.1</ele>
        <time>2011-02-06T08:41:33Z</time>
      </trkpt>
      <trkpt lat="43.62148" lon="3.74854">
        <ele>117.3</ele>
        <time>2011-02-06T08:41:37Z</time>
      </trkpt>
      <trkpt lat="43.62155" lon="3.74851">
        <ele>118.1</ele>
        <time>2011-02-06T08:41:41Z</time>
      </trkpt>
      <trkpt lat="43.62162" lon="3.74847">
        <ele>118.5</ele>
        <time>2011-02-06T08:41:45Z</time>
      </trkpt>
      <trkpt lat="43.62169" lon="3.74842">
        <ele>119.6</ele>
        <time>2011-02-06T08:41:49Z</time>
      </trkpt>
      <trkpt lat="43.62176" lon="3.74837">
        <ele>120.5</ele>
        <time>2011-02-06T08:41:53Z</time>
      </trkpt>
      <trkpt lat="43.62184" lon="3.74835">
        <ele>120.7</ele>
        <time>2011-02-06T08:41:57Z</time>
      </trkpt>
      <trkpt lat="43.62192" lon="3.74836">
        <ele>121.8</ele>
        <time>2011-02-06T08:42:01Z</time>
      </trkpt>
      <trkpt lat="43.62199" lon="3.74833">
        <ele>122.6</ele>
        <time>2011-02-06T08:42:05Z</time>
      </trkpt>
      <trkpt lat="43.62206" lon="3.7483">
        <ele>123.5</ele>
        <time>2011-02-06T08:42:09Z</time>
      </trkpt>
      <trkpt lat="43.62214" lon="3.74831">
        <ele>124.2</ele>
        <time>2011-02-06T08:42:13Z</time>
      </trkpt>
      <trkpt lat="43.62221" lon="3.74836">
        <ele>125.3</ele>
        <time>2011-02-06T08:42:17Z</time>
      </trkpt>
      <trkpt lat="43.62229" lon="3.74838">
        <ele>127.5</ele>
        <time>2011-02-06T08:42:22Z</time>
      </trkpt>
      <trkpt lat="43.6223" lon="3.74837">
        <ele>127.4</ele>
        <time>2011-02-06T08:42:23Z</time>
      </trkpt>
      <trkpt lat="43.62245" lon="3.74829">
        <ele>129</ele>
        <time>2011-02-06T08:42:32Z</time>
      </trkpt>
      <trkpt lat="43.62254" lon="3.74828">
        <ele>130.5</ele>
        <time>2011-02-06T08:42:37Z</time>
      </trkpt>
      <trkpt lat="43.62261" lon="3.7483">
        <ele>131.9</ele>
        <time>2011-02-06T08:42:42Z</time>
      </trkpt>
      <trkpt lat="43.62268" lon="3.74838">
        <ele>133.1</ele>
        <time>2011-02-06T08:42:47Z</time>
      </trkpt>
      <trkpt lat="43.62272" lon="3.74846">
        <ele>134.6</ele>
        <time>2011-02-06T08:42:52Z</time>
      </trkpt>
      <trkpt lat="43.6228" lon="3.74853">
        <ele>136.2</ele>
        <time>2011-02-06T08:42:59Z</time>
      </trkpt>
      <trkpt lat="43.62274" lon="3.74845">
        <ele>137.4</ele>
        <time>2011-02-06T08:43:27Z</time>
      </trkpt>
      <trkpt lat="43.62273" lon="3.74843">
        <ele>137.1</ele>
        <time>2011-02-06T08:43:28Z</time>
      </trkpt>
      <trkpt lat="43.62282" lon="3.74826">
        <ele>135.1</ele>
        <time>2011-02-06T08:43:38Z</time>
      </trkpt>
      <trkpt lat="43.62288" lon="3.74819">
        <ele>135.5</ele>
        <time>2011-02-06T08:43:42Z</time>
      </trkpt>
      <trkpt lat="43.62297" lon="3.74818">
        <ele>135.3</ele>
        <time>2011-02-06T08:43:46Z</time>
      </trkpt>
      <trkpt lat="43.62305" lon="3.74817">
        <ele>135.5</ele>
        <time>2011-02-06T08:43:50Z</time>
      </trkpt>
      <trkpt lat="43.62313" lon="3.74814">
        <ele>136.1</ele>
        <time>2011-02-06T08:43:54Z</time>
      </trkpt>
      <trkpt lat="43.6232" lon="3.74816">
        <ele>136.7</ele>
        <time>2011-02-06T08:43:57Z</time>
      </trkpt>
      <trkpt lat="43.62328" lon="3.7482">
        <ele>136.8</ele>
        <time>2011-02-06T08:44:01Z</time>
      </trkpt>
      <trkpt lat="43.62336" lon="3.74823">
        <ele>138.1</ele>
        <time>2011-02-06T08:44:06Z</time>
      </trkpt>
      <trkpt lat="43.62342" lon="3.74832">
        <ele>139.4</ele>
        <time>2011-02-06T08:44:13Z</time>
      </trkpt>
      <trkpt lat="43.62349" lon="3.7484">
        <ele>141.1</ele>
        <time>2011-02-06T08:44:19Z</time>
      </trkpt>
      <trkpt lat="43.62357" lon="3.74844">
        <ele>142.5</ele>
        <time>2011-02-06T08:44:24Z</time>
      </trkpt>
      <trkpt lat="43.62364" lon="3.7485">
        <ele>143.8</ele>
        <time>2011-02-06T08:44:29Z</time>
      </trkpt>
      <trkpt lat="43.62366" lon="3.74851">
        <ele>143.9</ele>
        <time>2011-02-06T08:44:30Z</time>
      </trkpt>
      <trkpt lat="43.6238" lon="3.74859">
        <ele>145.6</ele>
        <time>2011-02-06T08:44:39Z</time>
      </trkpt>
      <trkpt lat="43.62389" lon="3.7486">
        <ele>146</ele>
        <time>2011-02-06T08:44:44Z</time>
      </trkpt>
      <trkpt lat="43.62395" lon="3.74865">
        <ele>146.2</ele>
        <time>2011-02-06T08:44:48Z</time>
      </trkpt>
      <trkpt lat="43.62402" lon="3.74867">
        <ele>147.3</ele>
        <time>2011-02-06T08:44:52Z</time>
      </trkpt>
      <trkpt lat="43.6241" lon="3.74867">
        <ele>148</ele>
        <time>2011-02-06T08:44:58Z</time>
      </trkpt>
      <trkpt lat="43.62419" lon="3.74866">
        <ele>147.9</ele>
        <time>2011-02-06T08:45:02Z</time>
      </trkpt>
      <trkpt lat="43.62427" lon="3.74868">
        <ele>148.4</ele>
        <time>2011-02-06T08:45:09Z</time>
      </trkpt>
      <trkpt lat="43.62435" lon="3.74868">
        <ele>149.3</ele>
        <time>2011-02-06T08:45:15Z</time>
      </trkpt>
      <trkpt lat="43.62444" lon="3.7487">
        <ele>150.1</ele>
        <time>2011-02-06T08:45:20Z</time>
      </trkpt>
      <trkpt lat="43.62452" lon="3.74871">
        <ele>151</ele>
        <time>2011-02-06T08:45:25Z</time>
      </trkpt>
      <trkpt lat="43.6246" lon="3.74874">
        <ele>154.1</ele>
        <time>2011-02-06T08:45:43Z</time>
      </trkpt>
      <trkpt lat="43.62461" lon="3.74874">
        <ele>154.2</ele>
        <time>2011-02-06T08:45:44Z</time>
      </trkpt>
      <trkpt lat="43.62478" lon="3.74879">
        <ele>156.3</ele>
        <time>2011-02-06T08:46:09Z</time>
      </trkpt>
      <trkpt lat="43.62485" lon="3.74884">
        <ele>158.4</ele>
        <time>2011-02-06T08:46:20Z</time>
      </trkpt>
      <trkpt lat="43.62494" lon="3.74884">
        <ele>159.7</ele>
        <time>2011-02-06T08:46:29Z</time>
      </trkpt>
      <trkpt lat="43.62502" lon="3.74886">
        <ele>160.8</ele>
        <time>2011-02-06T08:46:38Z</time>
      </trkpt>
      <trkpt lat="43.62511" lon="3.74889">
        <ele>163.7</ele>
        <time>2011-02-06T08:46:51Z</time>
      </trkpt>
      <trkpt lat="43.62512" lon="3.7489">
        <ele>163.6</ele>
        <time>2011-02-06T08:46:52Z</time>
      </trkpt>
      <trkpt lat="43.62525" lon="3.7489">
        <ele>166</ele>
        <time>2011-02-06T08:51:16Z</time>
      </trkpt>
      <trkpt lat="43.62525" lon="3.74889">
        <ele>166</ele>
        <time>2011-02-06T08:51:17Z</time>
      </trkpt>
      <trkpt lat="43.6253" lon="3.74871">
        <ele>164.9</ele>
        <time>2011-02-06T08:51:23Z</time>
      </trkpt>
      <trkpt lat="43.62532" lon="3.74863">
        <ele>164.5</ele>
        <time>2011-02-06T08:51:25Z</time>
      </trkpt>
      <trkpt lat="43.62534" lon="3.74854">
        <ele>164.2</ele>
        <time>2011-02-06T08:51:27Z</time>
      </trkpt>
      <trkpt lat="43.62538" lon="3.74844">
        <ele>163.6</ele>
        <time>2011-02-06T08:51:29Z</time>
      </trkpt>
      <trkpt lat="43.62544" lon="3.74837">
        <ele>163</ele>
        <time>2011-02-06T08:51:31Z</time>
      </trkpt>
      <trkpt lat="43.62553" lon="3.74833">
        <ele>162.6</ele>
        <time>2011-02-06T08:51:34Z</time>
      </trkpt>
      <trkpt lat="43.6256" lon="3.74831">
        <ele>162.9</ele>
        <time>2011-02-06T08:51:37Z</time>
      </trkpt>
      <trkpt lat="43.62566" lon="3.74829">
        <ele>162.9</ele>
        <time>2011-02-06T08:51:40Z</time>
      </trkpt>
      <trkpt lat="43.62574" lon="3.74828">
        <ele>163.5</ele>
        <time>2011-02-06T08:51:43Z</time>
      </trkpt>
      <trkpt lat="43.62582" lon="3.74829">
        <ele>164.5</ele>
        <time>2011-02-06T08:51:47Z</time>
      </trkpt>
      <trkpt lat="43.62589" lon="3.74832">
        <ele>164.6</ele>
        <time>2011-02-06T08:51:50Z</time>
      </trkpt>
      <trkpt lat="43.62596" lon="3.74834">
        <ele>164.6</ele>
        <time>2011-02-06T08:51:53Z</time>
      </trkpt>
      <trkpt lat="43.62603" lon="3.74836">
        <ele>165.1</ele>
        <time>2011-02-06T08:51:56Z</time>
      </trkpt>
      <trkpt lat="43.62609" lon="3.74838">
        <ele>165.7</ele>
        <time>2011-02-06T08:51:59Z</time>
      </trkpt>
      <trkpt lat="43.62616" lon="3.74841">
        <ele>166.8</ele>
        <time>2011-02-06T08:52:02Z</time>
      </trkpt>
      <trkpt lat="43.62623" lon="3.74845">
        <ele>167.5</ele>
        <time>2011-02-06T08:52:05Z</time>
      </trkpt>
      <trkpt lat="43.6263" lon="3.74848">
        <ele>167.7</ele>
        <time>2011-02-06T08:52:08Z</time>
      </trkpt>
      <trkpt lat="43.62636" lon="3.74853">
        <ele>168.1</ele>
        <time>2011-02-06T08:52:11Z</time>
      </trkpt>
      <trkpt lat="43.62642" lon="3.74858">
        <ele>168.6</ele>
        <time>2011-02-06T08:52:14Z</time>
      </trkpt>
      <trkpt lat="43.62648" lon="3.74865">
        <ele>169.1</ele>
        <time>2011-02-06T08:52:17Z</time>
      </trkpt>
      <trkpt lat="43.6265" lon="3.74867">
        <ele>169.4</ele>
        <time>2011-02-06T08:52:18Z</time>
      </trkpt>
      <trkpt lat="43.6266" lon="3.74879">
        <ele>170.4</ele>
        <time>2011-02-06T08:52:23Z</time>
      </trkpt>
      <trkpt lat="43.62665" lon="3.74886">
        <ele>170.7</ele>
        <time>2011-02-06T08:52:26Z</time>
      </trkpt>
      <trkpt lat="43.62672" lon="3.74893">
        <ele>171.4</ele>
        <time>2011-02-06T08:52:29Z</time>
      </trkpt>
      <trkpt lat="43.62677" lon="3.74898">
        <ele>171</ele>
        <time>2011-02-06T08:52:31Z</time>
      </trkpt>
      <trkpt lat="43.62684" lon="3.74901">
        <ele>170.7</ele>
        <time>2011-02-06T08:52:33Z</time>
      </trkpt>
      <trkpt lat="43.62691" lon="3.74901">
        <ele>170.6</ele>
        <time>2011-02-06T08:52:35Z</time>
      </trkpt>
      <trkpt lat="43.62698" lon="3.74901">
        <ele>170.6</ele>
        <time>2011-02-06T08:52:37Z</time>
      </trkpt>
      <trkpt lat="43.62706" lon="3.74903">
        <ele>170.7</ele>
        <time>2011-02-06T08:52:39Z</time>
      </trkpt>
      <trkpt lat="43.62714" lon="3.74908">
        <ele>170.4</ele>
        <time>2011-02-06T08:52:41Z</time>
      </trkpt>
      <trkpt lat="43.62722" lon="3.74913">
        <ele>169.9</ele>
        <time>2011-02-06T08:52:43Z</time>
      </trkpt>
      <trkpt lat="43.62726" lon="3.74917">
        <ele>169.6</ele>
        <time>2011-02-06T08:52:44Z</time>
      </trkpt>
      <trkpt lat="43.6273" lon="3.74921">
        <ele>169.3</ele>
        <time>2011-02-06T08:52:45Z</time>
      </trkpt>
      <trkpt lat="43.62735" lon="3.74924">
        <ele>168.7</ele>
        <time>2011-02-06T08:52:46Z</time>
      </trkpt>
      <trkpt lat="43.6274" lon="3.74927">
        <ele>168.2</ele>
        <time>2011-02-06T08:52:47Z</time>
      </trkpt>
      <trkpt lat="43.62746" lon="3.7493">
        <ele>167.9</ele>
        <time>2011-02-06T08:52:48Z</time>
      </trkpt>
      <trkpt lat="43.62752" lon="3.74931">
        <ele>167.4</ele>
        <time>2011-02-06T08:52:49Z</time>
      </trkpt>
      <trkpt lat="43.62758" lon="3.74932">
        <ele>167</ele>
        <time>2011-02-06T08:52:50Z</time>
      </trkpt>
      <trkpt lat="43.62764" lon="3.74933">
        <ele>166.8</ele>
        <time>2011-02-06T08:52:51Z</time>
      </trkpt>
      <trkpt lat="43.62771" lon="3.74936">
        <ele>166.4</ele>
        <time>2011-02-06T08:52:52Z</time>
      </trkpt>
      <trkpt lat="43.62776" lon="3.74942">
        <ele>166.1</ele>
        <time>2011-02-06T08:52:53Z</time>
      </trkpt>
      <trkpt lat="43.6278" lon="3.74948">
        <ele>165.8</ele>
        <time>2011-02-06T08:52:54Z</time>
      </trkpt>
      <trkpt lat="43.62785" lon="3.74954">
        <ele>165.3</ele>
        <time>2011-02-06T08:52:55Z</time>
      </trkpt>
      <trkpt lat="43.6279" lon="3.74959">
        <ele>164.8</ele>
        <time>2011-02-06T08:52:56Z</time>
      </trkpt>
      <trkpt lat="43.62792" lon="3.74966">
        <ele>164.5</ele>
        <time>2011-02-06T08:52:57Z</time>
      </trkpt>
      <trkpt lat="43.62795" lon="3.74978">
        <ele>163.4</ele>
        <time>2011-02-06T08:52:59Z</time>
      </trkpt>
      <trkpt lat="43.62802" lon="3.74981">
        <ele>162.4</ele>
        <time>2011-02-06T08:53:01Z</time>
      </trkpt>
      <trkpt lat="43.6281" lon="3.74983">
        <ele>162.2</ele>
        <time>2011-02-06T08:53:03Z</time>
      </trkpt>
      <trkpt lat="43.62818" lon="3.74987">
        <ele>162.3</ele>
        <time>2011-02-06T08:53:05Z</time>
      </trkpt>
      <trkpt lat="43.62822" lon="3.7499">
        <ele>162.4</ele>
        <time>2011-02-06T08:53:06Z</time>
      </trkpt>
      <trkpt lat="43.62826" lon="3.74993">
        <ele>162.5</ele>
        <time>2011-02-06T08:53:07Z</time>
      </trkpt>
      <trkpt lat="43.6283" lon="3.74995">
        <ele>162.3</ele>
        <time>2011-02-06T08:53:08Z</time>
      </trkpt>
      <trkpt lat="43.62834" lon="3.74998">
        <ele>162.1</ele>
        <time>2011-02-06T08:53:09Z</time>
      </trkpt>
      <trkpt lat="43.62839" lon="3.74999">
        <ele>162</ele>
        <time>2011-02-06T08:53:10Z</time>
      </trkpt>
      <trkpt lat="43.62843" lon="3.75">
        <ele>161.9</ele>
        <time>2011-02-06T08:53:11Z</time>
      </trkpt>
      <trkpt lat="43.62848" lon="3.75001">
        <ele>161.7</ele>
        <time>2011-02-06T08:53:12Z</time>
      </trkpt>
      <trkpt lat="43.62857" lon="3.75002">
        <ele>161.5</ele>
        <time>2011-02-06T08:53:14Z</time>
      </trkpt>
      <trkpt lat="43.62865" lon="3.75004">
        <ele>161.5</ele>
        <time>2011-02-06T08:53:16Z</time>
      </trkpt>
      <trkpt lat="43.62872" lon="3.75009">
        <ele>161.5</ele>
        <time>2011-02-06T08:53:18Z</time>
      </trkpt>
      <trkpt lat="43.62875" lon="3.75013">
        <ele>161.5</ele>
        <time>2011-02-06T08:53:19Z</time>
      </trkpt>
      <trkpt lat="43.62881" lon="3.75029">
        <ele>161.7</ele>
        <time>2011-02-06T08:53:22Z</time>
      </trkpt>
      <trkpt lat="43.62883" lon="3.75035">
        <ele>161.8</ele>
        <time>2011-02-06T08:53:23Z</time>
      </trkpt>
      <trkpt lat="43.62884" lon="3.75042">
        <ele>161.5</ele>
        <time>2011-02-06T08:53:24Z</time>
      </trkpt>
      <trkpt lat="43.62887" lon="3.75048">
        <ele>161.4</ele>
        <time>2011-02-06T08:53:25Z</time>
      </trkpt>
      <trkpt lat="43.62889" lon="3.75055">
        <ele>161.2</ele>
        <time>2011-02-06T08:53:26Z</time>
      </trkpt>
      <trkpt lat="43.62893" lon="3.75061">
        <ele>160.6</ele>
        <time>2011-02-06T08:53:27Z</time>
      </trkpt>
      <trkpt lat="43.62897" lon="3.75067">
        <ele>160.1</ele>
        <time>2011-02-06T08:53:28Z</time>
      </trkpt>
      <trkpt lat="43.62901" lon="3.75072">
        <ele>159.8</ele>
        <time>2011-02-06T08:53:29Z</time>
      </trkpt>
      <trkpt lat="43.62905" lon="3.75078">
        <ele>159.5</ele>
        <time>2011-02-06T08:53:30Z</time>
      </trkpt>
      <trkpt lat="43.62909" lon="3.75083">
        <ele>159.3</ele>
        <time>2011-02-06T08:53:31Z</time>
      </trkpt>
      <trkpt lat="43.62912" lon="3.75088">
        <ele>159.2</ele>
        <time>2011-02-06T08:53:32Z</time>
      </trkpt>
      <trkpt lat="43.62916" lon="3.75093">
        <ele>159.1</ele>
        <time>2011-02-06T08:53:33Z</time>
      </trkpt>
      <trkpt lat="43.62919" lon="3.75097">
        <ele>158.8</ele>
        <time>2011-02-06T08:53:34Z</time>
      </trkpt>
      <trkpt lat="43.62923" lon="3.75102">
        <ele>158.5</ele>
        <time>2011-02-06T08:53:35Z</time>
      </trkpt>
      <trkpt lat="43.62928" lon="3.75105">
        <ele>158.3</ele>
        <time>2011-02-06T08:53:36Z</time>
      </trkpt>
      <trkpt lat="43.62932" lon="3.75108">
        <ele>157.9</ele>
        <time>2011-02-06T08:53:37Z</time>
      </trkpt>
      <trkpt lat="43.62937" lon="3.75109">
        <ele>157.6</ele>
        <time>2011-02-06T08:53:38Z</time>
      </trkpt>
      <trkpt lat="43.62945" lon="3.75105">
        <ele>157.3</ele>
        <time>2011-02-06T08:53:40Z</time>
      </trkpt>
      <trkpt lat="43.62947" lon="3.75093">
        <ele>157.2</ele>
        <time>2011-02-06T08:53:43Z</time>
      </trkpt>
      <trkpt lat="43.62948" lon="3.75081">
        <ele>157.5</ele>
        <time>2011-02-06T08:53:46Z</time>
      </trkpt>
      <trkpt lat="43.62949" lon="3.75072">
        <ele>157.8</ele>
        <time>2011-02-06T08:53:48Z</time>
      </trkpt>
      <trkpt lat="43.6295" lon="3.75063">
        <ele>158</ele>
        <time>2011-02-06T08:53:50Z</time>
      </trkpt>
      <trkpt lat="43.62953" lon="3.75054">
        <ele>158.1</ele>
        <time>2011-02-06T08:53:52Z</time>
      </trkpt>
      <trkpt lat="43.62955" lon="3.75044">
        <ele>158.9</ele>
        <time>2011-02-06T08:53:54Z</time>
      </trkpt>
      <trkpt lat="43.62957" lon="3.75035">
        <ele>159.2</ele>
        <time>2011-02-06T08:53:56Z</time>
      </trkpt>
      <trkpt lat="43.62959" lon="3.75027">
        <ele>159.3</ele>
        <time>2011-02-06T08:53:58Z</time>
      </trkpt>
      <trkpt lat="43.62961" lon="3.75019">
        <ele>159.8</ele>
        <time>2011-02-06T08:54:00Z</time>
      </trkpt>
      <trkpt lat="43.62967" lon="3.7501">
        <ele>160</ele>
        <time>2011-02-06T08:54:03Z</time>
      </trkpt>
      <trkpt lat="43.62975" lon="3.75007">
        <ele>159.9</ele>
        <time>2011-02-06T08:54:06Z</time>
      </trkpt>
      <trkpt lat="43.62982" lon="3.75005">
        <ele>159.8</ele>
        <time>2011-02-06T08:54:08Z</time>
      </trkpt>
      <trkpt lat="43.62988" lon="3.75004">
        <ele>160.3</ele>
        <time>2011-02-06T08:54:10Z</time>
      </trkpt>
      <trkpt lat="43.62995" lon="3.75002">
        <ele>160.5</ele>
        <time>2011-02-06T08:54:12Z</time>
      </trkpt>
      <trkpt lat="43.63003" lon="3.74999">
        <ele>160.6</ele>
        <time>2011-02-06T08:54:14Z</time>
      </trkpt>
      <trkpt lat="43.6301" lon="3.74996">
        <ele>160.5</ele>
        <time>2011-02-06T08:54:16Z</time>
      </trkpt>
      <trkpt lat="43.63017" lon="3.74991">
        <ele>160.5</ele>
        <time>2011-02-06T08:54:18Z</time>
      </trkpt>
      <trkpt lat="43.63023" lon="3.74986">
        <ele>160.5</ele>
        <time>2011-02-06T08:54:20Z</time>
      </trkpt>
      <trkpt lat="43.63026" lon="3.74983">
        <ele>160.5</ele>
        <time>2011-02-06T08:54:21Z</time>
      </trkpt>
      <trkpt lat="43.63035" lon="3.74974">
        <ele>160.5</ele>
        <time>2011-02-06T08:54:24Z</time>
      </trkpt>
      <trkpt lat="43.6304" lon="3.74967">
        <ele>159.9</ele>
        <time>2011-02-06T08:54:26Z</time>
      </trkpt>
      <trkpt lat="43.63046" lon="3.74959">
        <ele>159.8</ele>
        <time>2011-02-06T08:54:28Z</time>
      </trkpt>
      <trkpt lat="43.63051" lon="3.74952">
        <ele>159.8</ele>
        <time>2011-02-06T08:54:30Z</time>
      </trkpt>
      <trkpt lat="43.63055" lon="3.74944">
        <ele>160.4</ele>
        <time>2011-02-06T08:54:32Z</time>
      </trkpt>
      <trkpt lat="43.6306" lon="3.74936">
        <ele>160.7</ele>
        <time>2011-02-06T08:54:34Z</time>
      </trkpt>
      <trkpt lat="43.63064" lon="3.74927">
        <ele>160.9</ele>
        <time>2011-02-06T08:54:36Z</time>
      </trkpt>
      <trkpt lat="43.63068" lon="3.74918">
        <ele>160.7</ele>
        <time>2011-02-06T08:54:38Z</time>
      </trkpt>
      <trkpt lat="43.63071" lon="3.74909">
        <ele>160.4</ele>
        <time>2011-02-06T08:54:40Z</time>
      </trkpt>
      <trkpt lat="43.63075" lon="3.749">
        <ele>160.4</ele>
        <time>2011-02-06T08:54:42Z</time>
      </trkpt>
      <trkpt lat="43.6308" lon="3.74891">
        <ele>160.1</ele>
        <time>2011-02-06T08:54:44Z</time>
      </trkpt>
      <trkpt lat="43.63085" lon="3.74884">
        <ele>159.8</ele>
        <time>2011-02-06T08:54:46Z</time>
      </trkpt>
      <trkpt lat="43.63091" lon="3.74877">
        <ele>160.1</ele>
        <time>2011-02-06T08:54:48Z</time>
      </trkpt>
      <trkpt lat="43.63096" lon="3.7487">
        <ele>160.2</ele>
        <time>2011-02-06T08:54:50Z</time>
      </trkpt>
      <trkpt lat="43.63102" lon="3.74862">
        <ele>160.2</ele>
        <time>2011-02-06T08:54:52Z</time>
      </trkpt>
      <trkpt lat="43.63107" lon="3.74855">
        <ele>160.6</ele>
        <time>2011-02-06T08:54:54Z</time>
      </trkpt>
      <trkpt lat="43.63113" lon="3.74849">
        <ele>161.1</ele>
        <time>2011-02-06T08:54:56Z</time>
      </trkpt>
      <trkpt lat="43.63118" lon="3.74841">
        <ele>161.1</ele>
        <time>2011-02-06T08:54:58Z</time>
      </trkpt>
      <trkpt lat="43.63121" lon="3.74832">
        <ele>161</ele>
        <time>2011-02-06T08:55:00Z</time>
      </trkpt>
      <trkpt lat="43.63124" lon="3.74823">
        <ele>160.9</ele>
        <time>2011-02-06T08:55:02Z</time>
      </trkpt>
      <trkpt lat="43.63127" lon="3.74813">
        <ele>161.1</ele>
        <time>2011-02-06T08:55:04Z</time>
      </trkpt>
      <trkpt lat="43.63131" lon="3.74804">
        <ele>161.1</ele>
        <time>2011-02-06T08:55:06Z</time>
      </trkpt>
      <trkpt lat="43.63138" lon="3.74798">
        <ele>161</ele>
        <time>2011-02-06T08:55:08Z</time>
      </trkpt>
      <trkpt lat="43.63145" lon="3.74793">
        <ele>161.5</ele>
        <time>2011-02-06T08:55:10Z</time>
      </trkpt>
      <trkpt lat="43.63151" lon="3.74787">
        <ele>162.3</ele>
        <time>2011-02-06T08:55:12Z</time>
      </trkpt>
      <trkpt lat="43.63157" lon="3.74783">
        <ele>162.3</ele>
        <time>2011-02-06T08:55:14Z</time>
      </trkpt>
      <trkpt lat="43.63164" lon="3.74779">
        <ele>162.6</ele>
        <time>2011-02-06T08:55:16Z</time>
      </trkpt>
      <trkpt lat="43.63171" lon="3.74775">
        <ele>163</ele>
        <time>2011-02-06T08:55:18Z</time>
      </trkpt>
      <trkpt lat="43.63177" lon="3.74771">
        <ele>163.2</ele>
        <time>2011-02-06T08:55:20Z</time>
      </trkpt>
      <trkpt lat="43.63184" lon="3.74766">
        <ele>163</ele>
        <time>2011-02-06T08:55:22Z</time>
      </trkpt>
      <trkpt lat="43.63187" lon="3.74764">
        <ele>162.8</ele>
        <time>2011-02-06T08:55:23Z</time>
      </trkpt>
      <trkpt lat="43.63197" lon="3.74757">
        <ele>162.7</ele>
        <time>2011-02-06T08:55:26Z</time>
      </trkpt>
      <trkpt lat="43.63203" lon="3.74752">
        <ele>163</ele>
        <time>2011-02-06T08:55:28Z</time>
      </trkpt>
      <trkpt lat="43.63209" lon="3.74747">
        <ele>163</ele>
        <time>2011-02-06T08:55:30Z</time>
      </trkpt>
      <trkpt lat="43.63215" lon="3.74741">
        <ele>163.2</ele>
        <time>2011-02-06T08:55:32Z</time>
      </trkpt>
      <trkpt lat="43.63219" lon="3.74734">
        <ele>163.4</ele>
        <time>2011-02-06T08:55:34Z</time>
      </trkpt>
      <trkpt lat="43.63219" lon="3.74724">
        <ele>162.9</ele>
        <time>2011-02-06T08:55:36Z</time>
      </trkpt>
      <trkpt lat="43.63217" lon="3.74715">
        <ele>162.5</ele>
        <time>2011-02-06T08:55:38Z</time>
      </trkpt>
      <trkpt lat="43.63214" lon="3.74705">
        <ele>162.2</ele>
        <time>2011-02-06T08:55:40Z</time>
      </trkpt>
      <trkpt lat="43.63211" lon="3.74695">
        <ele>162.2</ele>
        <time>2011-02-06T08:55:42Z</time>
      </trkpt>
      <trkpt lat="43.63208" lon="3.74684">
        <ele>162.2</ele>
        <time>2011-02-06T08:55:44Z</time>
      </trkpt>
      <trkpt lat="43.63214" lon="3.74675">
        <ele>161.5</ele>
        <time>2011-02-06T08:55:48Z</time>
      </trkpt>
      <trkpt lat="43.63221" lon="3.7468">
        <ele>161.5</ele>
        <time>2011-02-06T08:55:52Z</time>
      </trkpt>
      <trkpt lat="43.63228" lon="3.74684">
        <ele>162.3</ele>
        <time>2011-02-06T08:55:55Z</time>
      </trkpt>
      <trkpt lat="43.63235" lon="3.7469">
        <ele>162.9</ele>
        <time>2011-02-06T08:55:58Z</time>
      </trkpt>
      <trkpt lat="43.63243" lon="3.74694">
        <ele>163.4</ele>
        <time>2011-02-06T08:56:01Z</time>
      </trkpt>
      <trkpt lat="43.63249" lon="3.74698">
        <ele>163.8</ele>
        <time>2011-02-06T08:56:03Z</time>
      </trkpt>
      <trkpt lat="43.63254" lon="3.74701">
        <ele>164.3</ele>
        <time>2011-02-06T08:56:05Z</time>
      </trkpt>
      <trkpt lat="43.6326" lon="3.74704">
        <ele>164.7</ele>
        <time>2011-02-06T08:56:07Z</time>
      </trkpt>
      <trkpt lat="43.63266" lon="3.74708">
        <ele>165.1</ele>
        <time>2011-02-06T08:56:09Z</time>
      </trkpt>
      <trkpt lat="43.63272" lon="3.74712">
        <ele>164.9</ele>
        <time>2011-02-06T08:56:11Z</time>
      </trkpt>
      <trkpt lat="43.63278" lon="3.74716">
        <ele>165.2</ele>
        <time>2011-02-06T08:56:13Z</time>
      </trkpt>
      <trkpt lat="43.63284" lon="3.7472">
        <ele>165.7</ele>
        <time>2011-02-06T08:56:15Z</time>
      </trkpt>
      <trkpt lat="43.6329" lon="3.74724">
        <ele>166</ele>
        <time>2011-02-06T08:56:17Z</time>
      </trkpt>
      <trkpt lat="43.63296" lon="3.74728">
        <ele>166.1</ele>
        <time>2011-02-06T08:56:19Z</time>
      </trkpt>
      <trkpt lat="43.63302" lon="3.74732">
        <ele>166.2</ele>
        <time>2011-02-06T08:56:21Z</time>
      </trkpt>
      <trkpt lat="43.63309" lon="3.74736">
        <ele>166.5</ele>
        <time>2011-02-06T08:56:23Z</time>
      </trkpt>
      <trkpt lat="43.63312" lon="3.74738">
        <ele>166.8</ele>
        <time>2011-02-06T08:56:24Z</time>
      </trkpt>
      <trkpt lat="43.63323" lon="3.74745">
        <ele>166.9</ele>
        <time>2011-02-06T08:56:27Z</time>
      </trkpt>
      <trkpt lat="43.6333" lon="3.7475">
        <ele>167.1</ele>
        <time>2011-02-06T08:56:29Z</time>
      </trkpt>
      <trkpt lat="43.63337" lon="3.74755">
        <ele>167.3</ele>
        <time>2011-02-06T08:56:31Z</time>
      </trkpt>
      <trkpt lat="43.63345" lon="3.7476">
        <ele>167</ele>
        <time>2011-02-06T08:56:33Z</time>
      </trkpt>
      <trkpt lat="43.63352" lon="3.74764">
        <ele>166.9</ele>
        <time>2011-02-06T08:56:35Z</time>
      </trkpt>
      <trkpt lat="43.63359" lon="3.7477">
        <ele>167</ele>
        <time>2011-02-06T08:56:37Z</time>
      </trkpt>
      <trkpt lat="43.63367" lon="3.74775">
        <ele>166.7</ele>
        <time>2011-02-06T08:56:39Z</time>
      </trkpt>
      <trkpt lat="43.63374" lon="3.7478">
        <ele>166.3</ele>
        <time>2011-02-06T08:56:41Z</time>
      </trkpt>
      <trkpt lat="43.63382" lon="3.74785">
        <ele>167</ele>
        <time>2011-02-06T08:56:43Z</time>
      </trkpt>
      <trkpt lat="43.6339" lon="3.7479">
        <ele>167.3</ele>
        <time>2011-02-06T08:56:45Z</time>
      </trkpt>
      <trkpt lat="43.63398" lon="3.74795">
        <ele>167.3</ele>
        <time>2011-02-06T08:56:47Z</time>
      </trkpt>
      <trkpt lat="43.63405" lon="3.748">
        <ele>167.6</ele>
        <time>2011-02-06T08:56:49Z</time>
      </trkpt>
      <trkpt lat="43.63413" lon="3.74805">
        <ele>167.9</ele>
        <time>2011-02-06T08:56:51Z</time>
      </trkpt>
      <trkpt lat="43.63417" lon="3.74808">
        <ele>168</ele>
        <time>2011-02-06T08:56:52Z</time>
      </trkpt>
      <trkpt lat="43.63421" lon="3.74811">
        <ele>168</ele>
        <time>2011-02-06T08:56:53Z</time>
      </trkpt>
      <trkpt lat="43.63429" lon="3.74816">
        <ele>168</ele>
        <time>2011-02-06T08:56:55Z</time>
      </trkpt>
      <trkpt lat="43.63433" lon="3.74819">
        <ele>168</ele>
        <time>2011-02-06T08:56:56Z</time>
      </trkpt>
      <trkpt lat="43.63438" lon="3.74821">
        <ele>168</ele>
        <time>2011-02-06T08:56:57Z</time>
      </trkpt>
      <trkpt lat="43.63442" lon="3.74824">
        <ele>167.8</ele>
        <time>2011-02-06T08:56:58Z</time>
      </trkpt>
      <trkpt lat="43.63446" lon="3.74827">
        <ele>167.7</ele>
        <time>2011-02-06T08:56:59Z</time>
      </trkpt>
      <trkpt lat="43.6345" lon="3.74829">
        <ele>167.6</ele>
        <time>2011-02-06T08:57:00Z</time>
      </trkpt>
      <trkpt lat="43.63458" lon="3.74835">
        <ele>167.6</ele>
        <time>2011-02-06T08:57:02Z</time>
      </trkpt>
      <trkpt lat="43.63466" lon="3.7484">
        <ele>167.6</ele>
        <time>2011-02-06T08:57:04Z</time>
      </trkpt>
      <trkpt lat="43.63474" lon="3.74845">
        <ele>167.5</ele>
        <time>2011-02-06T08:57:06Z</time>
      </trkpt>
      <trkpt lat="43.63482" lon="3.7485">
        <ele>167.7</ele>
        <time>2011-02-06T08:57:08Z</time>
      </trkpt>
      <trkpt lat="43.6349" lon="3.74855">
        <ele>168.2</ele>
        <time>2011-02-06T08:57:10Z</time>
      </trkpt>
      <trkpt lat="43.63497" lon="3.7486">
        <ele>168.7</ele>
        <time>2011-02-06T08:57:12Z</time>
      </trkpt>
      <trkpt lat="43.63505" lon="3.74864">
        <ele>168.8</ele>
        <time>2011-02-06T08:57:14Z</time>
      </trkpt>
      <trkpt lat="43.63513" lon="3.74869">
        <ele>168.8</ele>
        <time>2011-02-06T08:57:16Z</time>
      </trkpt>
      <trkpt lat="43.63521" lon="3.74874">
        <ele>169.6</ele>
        <time>2011-02-06T08:57:18Z</time>
      </trkpt>
      <trkpt lat="43.63528" lon="3.74878">
        <ele>170.1</ele>
        <time>2011-02-06T08:57:20Z</time>
      </trkpt>
      <trkpt lat="43.63536" lon="3.74883">
        <ele>170.4</ele>
        <time>2011-02-06T08:57:22Z</time>
      </trkpt>
      <trkpt lat="43.63543" lon="3.74887">
        <ele>170.7</ele>
        <time>2011-02-06T08:57:24Z</time>
      </trkpt>
      <trkpt lat="43.63547" lon="3.7489">
        <ele>170.8</ele>
        <time>2011-02-06T08:57:25Z</time>
      </trkpt>
      <trkpt lat="43.63558" lon="3.74897">
        <ele>171.4</ele>
        <time>2011-02-06T08:57:28Z</time>
      </trkpt>
      <trkpt lat="43.63566" lon="3.74902">
        <ele>171.6</ele>
        <time>2011-02-06T08:57:30Z</time>
      </trkpt>
      <trkpt lat="43.63574" lon="3.74908">
        <ele>171.6</ele>
        <time>2011-02-06T08:57:32Z</time>
      </trkpt>
      <trkpt lat="43.63582" lon="3.74913">
        <ele>171.8</ele>
        <time>2011-02-06T08:57:34Z</time>
      </trkpt>
      <trkpt lat="43.63589" lon="3.74919">
        <ele>171.9</ele>
        <time>2011-02-06T08:57:36Z</time>
      </trkpt>
      <trkpt lat="43.63597" lon="3.74923">
        <ele>172</ele>
        <time>2011-02-06T08:57:38Z</time>
      </trkpt>
      <trkpt lat="43.63605" lon="3.74927">
        <ele>172.2</ele>
        <time>2011-02-06T08:57:40Z</time>
      </trkpt>
      <trkpt lat="43.63613" lon="3.74929">
        <ele>172.5</ele>
        <time>2011-02-06T08:57:42Z</time>
      </trkpt>
      <trkpt lat="43.63622" lon="3.74931">
        <ele>172.5</ele>
        <time>2011-02-06T08:57:44Z</time>
      </trkpt>
      <trkpt lat="43.6363" lon="3.74932">
        <ele>172.6</ele>
        <time>2011-02-06T08:57:46Z</time>
      </trkpt>
      <trkpt lat="43.63635" lon="3.74933">
        <ele>172.7</ele>
        <time>2011-02-06T08:57:47Z</time>
      </trkpt>
      <trkpt lat="43.63643" lon="3.74933">
        <ele>172.8</ele>
        <time>2011-02-06T08:57:49Z</time>
      </trkpt>
      <trkpt lat="43.63648" lon="3.74934">
        <ele>172.8</ele>
        <time>2011-02-06T08:57:50Z</time>
      </trkpt>
      <trkpt lat="43.63653" lon="3.74934">
        <ele>172.8</ele>
        <time>2011-02-06T08:57:51Z</time>
      </trkpt>
      <trkpt lat="43.63661" lon="3.74935">
        <ele>172.8</ele>
        <time>2011-02-06T08:57:53Z</time>
      </trkpt>
      <trkpt lat="43.6367" lon="3.74936">
        <ele>172.8</ele>
        <time>2011-02-06T08:57:55Z</time>
      </trkpt>
      <trkpt lat="43.63678" lon="3.74937">
        <ele>172.8</ele>
        <time>2011-02-06T08:57:57Z</time>
      </trkpt>
      <trkpt lat="43.63687" lon="3.74938">
        <ele>172.7</ele>
        <time>2011-02-06T08:57:59Z</time>
      </trkpt>
      <trkpt lat="43.63695" lon="3.74939">
        <ele>172.6</ele>
        <time>2011-02-06T08:58:01Z</time>
      </trkpt>
      <trkpt lat="43.63704" lon="3.7494">
        <ele>173.3</ele>
        <time>2011-02-06T08:58:03Z</time>
      </trkpt>
      <trkpt lat="43.63709" lon="3.74941">
        <ele>173.5</ele>
        <time>2011-02-06T08:58:04Z</time>
      </trkpt>
      <trkpt lat="43.63714" lon="3.74941">
        <ele>173.1</ele>
        <time>2011-02-06T08:58:05Z</time>
      </trkpt>
      <trkpt lat="43.63719" lon="3.74942">
        <ele>172.8</ele>
        <time>2011-02-06T08:58:06Z</time>
      </trkpt>
      <trkpt lat="43.63724" lon="3.74942">
        <ele>172.6</ele>
        <time>2011-02-06T08:58:07Z</time>
      </trkpt>
      <trkpt lat="43.63729" lon="3.74942">
        <ele>172.2</ele>
        <time>2011-02-06T08:58:08Z</time>
      </trkpt>
      <trkpt lat="43.63734" lon="3.74942">
        <ele>171.8</ele>
        <time>2011-02-06T08:58:09Z</time>
      </trkpt>
      <trkpt lat="43.6374" lon="3.74943">
        <ele>171.6</ele>
        <time>2011-02-06T08:58:10Z</time>
      </trkpt>
      <trkpt lat="43.63745" lon="3.74943">
        <ele>171.4</ele>
        <time>2011-02-06T08:58:11Z</time>
      </trkpt>
      <trkpt lat="43.6375" lon="3.74942">
        <ele>171</ele>
        <time>2011-02-06T08:58:12Z</time>
      </trkpt>
      <trkpt lat="43.63755" lon="3.74942">
        <ele>170.7</ele>
        <time>2011-02-06T08:58:13Z</time>
      </trkpt>
      <trkpt lat="43.6376" lon="3.74943">
        <ele>170.5</ele>
        <time>2011-02-06T08:58:14Z</time>
      </trkpt>
      <trkpt lat="43.63765" lon="3.74943">
        <ele>170.1</ele>
        <time>2011-02-06T08:58:15Z</time>
      </trkpt>
      <trkpt lat="43.6377" lon="3.74943">
        <ele>169.8</ele>
        <time>2011-02-06T08:58:16Z</time>
      </trkpt>
      <trkpt lat="43.63774" lon="3.74943">
        <ele>169.6</ele>
        <time>2011-02-06T08:58:17Z</time>
      </trkpt>
      <trkpt lat="43.63779" lon="3.74944">
        <ele>169.6</ele>
        <time>2011-02-06T08:58:18Z</time>
      </trkpt>
      <trkpt lat="43.63784" lon="3.74945">
        <ele>169.7</ele>
        <time>2011-02-06T08:58:19Z</time>
      </trkpt>
      <trkpt lat="43.63789" lon="3.74945">
        <ele>169.7</ele>
        <time>2011-02-06T08:58:20Z</time>
      </trkpt>
      <trkpt lat="43.63794" lon="3.74946">
        <ele>169.7</ele>
        <time>2011-02-06T08:58:21Z</time>
      </trkpt>
      <trkpt lat="43.63798" lon="3.74947">
        <ele>169.6</ele>
        <time>2011-02-06T08:58:22Z</time>
      </trkpt>
      <trkpt lat="43.63803" lon="3.74948">
        <ele>169.6</ele>
        <time>2011-02-06T08:58:23Z</time>
      </trkpt>
      <trkpt lat="43.63808" lon="3.74948">
        <ele>169.2</ele>
        <time>2011-02-06T08:58:24Z</time>
      </trkpt>
      <trkpt lat="43.63817" lon="3.74949">
        <ele>168.7</ele>
        <time>2011-02-06T08:58:26Z</time>
      </trkpt>
      <trkpt lat="43.63821" lon="3.7495">
        <ele>168.9</ele>
        <time>2011-02-06T08:58:27Z</time>
      </trkpt>
      <trkpt lat="43.63834" lon="3.74953">
        <ele>169.4</ele>
        <time>2011-02-06T08:58:30Z</time>
      </trkpt>
      <trkpt lat="43.63842" lon="3.74955">
        <ele>169.3</ele>
        <time>2011-02-06T08:58:32Z</time>
      </trkpt>
      <trkpt lat="43.6385" lon="3.74958">
        <ele>168.9</ele>
        <time>2011-02-06T08:58:35Z</time>
      </trkpt>
      <trkpt lat="43.63858" lon="3.74961">
        <ele>169</ele>
        <time>2011-02-06T08:58:39Z</time>
      </trkpt>
      <trkpt lat="43.63866" lon="3.7496">
        <ele>168.7</ele>
        <time>2011-02-06T08:58:42Z</time>
      </trkpt>
      <trkpt lat="43.63873" lon="3.7496">
        <ele>168.9</ele>
        <time>2011-02-06T08:58:44Z</time>
      </trkpt>
      <trkpt lat="43.6388" lon="3.7496">
        <ele>169</ele>
        <time>2011-02-06T08:58:46Z</time>
      </trkpt>
      <trkpt lat="43.63887" lon="3.74961">
        <ele>168.7</ele>
        <time>2011-02-06T08:58:48Z</time>
      </trkpt>
      <trkpt lat="43.63895" lon="3.74958">
        <ele>168.4</ele>
        <time>2011-02-06T08:58:52Z</time>
      </trkpt>
      <trkpt lat="43.63903" lon="3.74954">
        <ele>167.8</ele>
        <time>2011-02-06T08:58:59Z</time>
      </trkpt>
      <trkpt lat="43.6391" lon="3.74949">
        <ele>167.2</ele>
        <time>2011-02-06T08:59:03Z</time>
      </trkpt>
      <trkpt lat="43.63914" lon="3.74939">
        <ele>166.7</ele>
        <time>2011-02-06T08:59:08Z</time>
      </trkpt>
      <trkpt lat="43.63921" lon="3.7493">
        <ele>166.7</ele>
        <time>2011-02-06T08:59:13Z</time>
      </trkpt>
      <trkpt lat="43.63925" lon="3.74922">
        <ele>166.2</ele>
        <time>2011-02-06T08:59:17Z</time>
      </trkpt>
      <trkpt lat="43.63929" lon="3.74915">
        <ele>166.3</ele>
        <time>2011-02-06T08:59:20Z</time>
      </trkpt>
      <trkpt lat="43.63935" lon="3.74905">
        <ele>166.2</ele>
        <time>2011-02-06T08:59:23Z</time>
      </trkpt>
      <trkpt lat="43.63939" lon="3.74899">
        <ele>165.9</ele>
        <time>2011-02-06T08:59:25Z</time>
      </trkpt>
      <trkpt lat="43.63942" lon="3.74891">
        <ele>165.4</ele>
        <time>2011-02-06T08:59:27Z</time>
      </trkpt>
      <trkpt lat="43.63947" lon="3.74883">
        <ele>165.1</ele>
        <time>2011-02-06T08:59:29Z</time>
      </trkpt>
      <trkpt lat="43.63949" lon="3.74878">
        <ele>165.1</ele>
        <time>2011-02-06T08:59:30Z</time>
      </trkpt>
      <trkpt lat="43.63955" lon="3.74864">
        <ele>164.3</ele>
        <time>2011-02-06T08:59:33Z</time>
      </trkpt>
      <trkpt lat="43.63959" lon="3.74854">
        <ele>164</ele>
        <time>2011-02-06T08:59:35Z</time>
      </trkpt>
      <trkpt lat="43.63963" lon="3.74843">
        <ele>163.7</ele>
        <time>2011-02-06T08:59:37Z</time>
      </trkpt>
      <trkpt lat="43.63964" lon="3.7483">
        <ele>163.5</ele>
        <time>2011-02-06T08:59:39Z</time>
      </trkpt>
      <trkpt lat="43.63963" lon="3.74824">
        <ele>163.5</ele>
        <time>2011-02-06T08:59:40Z</time>
      </trkpt>
      <trkpt lat="43.63962" lon="3.74817">
        <ele>163.1</ele>
        <time>2011-02-06T08:59:41Z</time>
      </trkpt>
      <trkpt lat="43.63961" lon="3.74811">
        <ele>162.8</ele>
        <time>2011-02-06T08:59:42Z</time>
      </trkpt>
      <trkpt lat="43.63961" lon="3.74804">
        <ele>162.5</ele>
        <time>2011-02-06T08:59:43Z</time>
      </trkpt>
      <trkpt lat="43.6396" lon="3.74792">
        <ele>162.2</ele>
        <time>2011-02-06T08:59:45Z</time>
      </trkpt>
      <trkpt lat="43.63958" lon="3.74781">
        <ele>161.9</ele>
        <time>2011-02-06T08:59:47Z</time>
      </trkpt>
      <trkpt lat="43.63957" lon="3.74771">
        <ele>161.7</ele>
        <time>2011-02-06T08:59:49Z</time>
      </trkpt>
      <trkpt lat="43.63956" lon="3.74762">
        <ele>161.8</ele>
        <time>2011-02-06T08:59:51Z</time>
      </trkpt>
      <trkpt lat="43.63954" lon="3.74753">
        <ele>162.1</ele>
        <time>2011-02-06T08:59:53Z</time>
      </trkpt>
      <trkpt lat="43.63952" lon="3.74745">
        <ele>161.8</ele>
        <time>2011-02-06T08:59:55Z</time>
      </trkpt>
      <trkpt lat="43.63949" lon="3.74736">
        <ele>161.6</ele>
        <time>2011-02-06T08:59:57Z</time>
      </trkpt>
      <trkpt lat="43.63945" lon="3.74713">
        <ele>161</ele>
        <time>2011-02-06T09:00:01Z</time>
      </trkpt>
      <trkpt lat="43.63945" lon="3.74693">
        <ele>161</ele>
        <time>2011-02-06T09:00:05Z</time>
      </trkpt>
      <trkpt lat="43.63943" lon="3.74673">
        <ele>161</ele>
        <time>2011-02-06T09:00:09Z</time>
      </trkpt>
      <trkpt lat="43.63942" lon="3.74665">
        <ele>161.6</ele>
        <time>2011-02-06T09:00:11Z</time>
      </trkpt>
      <trkpt lat="43.6394" lon="3.74656">
        <ele>161.7</ele>
        <time>2011-02-06T09:00:13Z</time>
      </trkpt>
      <trkpt lat="43.63938" lon="3.74646">
        <ele>161.6</ele>
        <time>2011-02-06T09:00:15Z</time>
      </trkpt>
      <trkpt lat="43.63936" lon="3.74635">
        <ele>161.2</ele>
        <time>2011-02-06T09:00:17Z</time>
      </trkpt>
      <trkpt lat="43.63935" lon="3.74625">
        <ele>161.2</ele>
        <time>2011-02-06T09:00:19Z</time>
      </trkpt>
      <trkpt lat="43.63933" lon="3.74615">
        <ele>161.3</ele>
        <time>2011-02-06T09:00:21Z</time>
      </trkpt>
      <trkpt lat="43.63931" lon="3.74604">
        <ele>161.5</ele>
        <time>2011-02-06T09:00:23Z</time>
      </trkpt>
      <trkpt lat="43.6393" lon="3.74594">
        <ele>161.6</ele>
        <time>2011-02-06T09:00:25Z</time>
      </trkpt>
      <trkpt lat="43.63928" lon="3.74584">
        <ele>161.8</ele>
        <time>2011-02-06T09:00:27Z</time>
      </trkpt>
      <trkpt lat="43.63926" lon="3.74575">
        <ele>161.9</ele>
        <time>2011-02-06T09:00:29Z</time>
      </trkpt>
      <trkpt lat="43.63923" lon="3.74565">
        <ele>162.1</ele>
        <time>2011-02-06T09:00:31Z</time>
      </trkpt>
      <trkpt lat="43.63922" lon="3.7456">
        <ele>162</ele>
        <time>2011-02-06T09:00:32Z</time>
      </trkpt>
      <trkpt lat="43.63918" lon="3.74546">
        <ele>162</ele>
        <time>2011-02-06T09:00:35Z</time>
      </trkpt>
      <trkpt lat="43.63915" lon="3.74537">
        <ele>162.3</ele>
        <time>2011-02-06T09:00:37Z</time>
      </trkpt>
      <trkpt lat="43.63913" lon="3.74527">
        <ele>162.1</ele>
        <time>2011-02-06T09:00:39Z</time>
      </trkpt>
      <trkpt lat="43.63911" lon="3.74518">
        <ele>162</ele>
        <time>2011-02-06T09:00:41Z</time>
      </trkpt>
      <trkpt lat="43.6391" lon="3.74508">
        <ele>162.4</ele>
        <time>2011-02-06T09:00:43Z</time>
      </trkpt>
      <trkpt lat="43.63909" lon="3.74498">
        <ele>162.5</ele>
        <time>2011-02-06T09:00:45Z</time>
      </trkpt>
      <trkpt lat="43.63908" lon="3.74488">
        <ele>162.6</ele>
        <time>2011-02-06T09:00:47Z</time>
      </trkpt>
      <trkpt lat="43.63907" lon="3.74478">
        <ele>162.3</ele>
        <time>2011-02-06T09:00:49Z</time>
      </trkpt>
      <trkpt lat="43.63906" lon="3.74468">
        <ele>162.1</ele>
        <time>2011-02-06T09:00:51Z</time>
      </trkpt>
      <trkpt lat="43.63905" lon="3.74458">
        <ele>161.9</ele>
        <time>2011-02-06T09:00:53Z</time>
      </trkpt>
      <trkpt lat="43.63905" lon="3.74447">
        <ele>162.2</ele>
        <time>2011-02-06T09:00:55Z</time>
      </trkpt>
      <trkpt lat="43.63906" lon="3.74437">
        <ele>162.5</ele>
        <time>2011-02-06T09:00:57Z</time>
      </trkpt>
      <trkpt lat="43.63907" lon="3.74427">
        <ele>162.9</ele>
        <time>2011-02-06T09:00:59Z</time>
      </trkpt>
      <trkpt lat="43.63908" lon="3.74417">
        <ele>162.8</ele>
        <time>2011-02-06T09:01:01Z</time>
      </trkpt>
      <trkpt lat="43.63908" lon="3.74407">
        <ele>162.6</ele>
        <time>2011-02-06T09:01:03Z</time>
      </trkpt>
      <trkpt lat="43.63908" lon="3.74397">
        <ele>163</ele>
        <time>2011-02-06T09:01:05Z</time>
      </trkpt>
      <trkpt lat="43.63907" lon="3.74386">
        <ele>163.3</ele>
        <time>2011-02-06T09:01:07Z</time>
      </trkpt>
      <trkpt lat="43.63906" lon="3.74376">
        <ele>163.4</ele>
        <time>2011-02-06T09:01:09Z</time>
      </trkpt>
      <trkpt lat="43.63902" lon="3.74368">
        <ele>163.7</ele>
        <time>2011-02-06T09:01:11Z</time>
      </trkpt>
      <trkpt lat="43.63895" lon="3.74367">
        <ele>164.1</ele>
        <time>2011-02-06T09:01:13Z</time>
      </trkpt>
      <trkpt lat="43.63889" lon="3.74369">
        <ele>164.5</ele>
        <time>2011-02-06T09:01:15Z</time>
      </trkpt>
      <trkpt lat="43.63883" lon="3.74371">
        <ele>164.5</ele>
        <time>2011-02-06T09:01:17Z</time>
      </trkpt>
      <trkpt lat="43.63878" lon="3.74374">
        <ele>164.4</ele>
        <time>2011-02-06T09:01:19Z</time>
      </trkpt>
      <trkpt lat="43.63873" lon="3.7438">
        <ele>165</ele>
        <time>2011-02-06T09:01:21Z</time>
      </trkpt>
      <trkpt lat="43.63868" lon="3.74386">
        <ele>165.4</ele>
        <time>2011-02-06T09:01:23Z</time>
      </trkpt>
      <trkpt lat="43.63862" lon="3.7439">
        <ele>165.6</ele>
        <time>2011-02-06T09:01:25Z</time>
      </trkpt>
      <trkpt lat="43.63856" lon="3.74392">
        <ele>166</ele>
        <time>2011-02-06T09:01:27Z</time>
      </trkpt>
      <trkpt lat="43.6385" lon="3.74393">
        <ele>166.4</ele>
        <time>2011-02-06T09:01:29Z</time>
      </trkpt>
      <trkpt lat="43.63842" lon="3.74393">
        <ele>167.1</ele>
        <time>2011-02-06T09:01:32Z</time>
      </trkpt>
      <trkpt lat="43.63839" lon="3.74393">
        <ele>167.1</ele>
        <time>2011-02-06T09:01:33Z</time>
      </trkpt>
      <trkpt lat="43.63824" lon="3.74394">
        <ele>168.1</ele>
        <time>2011-02-06T09:01:38Z</time>
      </trkpt>
      <trkpt lat="43.63815" lon="3.74394">
        <ele>168.9</ele>
        <time>2011-02-06T09:01:41Z</time>
      </trkpt>
      <trkpt lat="43.63807" lon="3.74395">
        <ele>168.4</ele>
        <time>2011-02-06T09:01:44Z</time>
      </trkpt>
      <trkpt lat="43.63798" lon="3.74395">
        <ele>169.2</ele>
        <time>2011-02-06T09:01:47Z</time>
      </trkpt>
      <trkpt lat="43.6379" lon="3.74396">
        <ele>169.5</ele>
        <time>2011-02-06T09:01:50Z</time>
      </trkpt>
      <trkpt lat="43.63781" lon="3.74396">
        <ele>170.1</ele>
        <time>2011-02-06T09:01:53Z</time>
      </trkpt>
      <trkpt lat="43.63773" lon="3.74396">
        <ele>170.7</ele>
        <time>2011-02-06T09:01:56Z</time>
      </trkpt>
      <trkpt lat="43.63765" lon="3.74395">
        <ele>171.5</ele>
        <time>2011-02-06T09:01:59Z</time>
      </trkpt>
      <trkpt lat="43.63759" lon="3.74389">
        <ele>172.2</ele>
        <time>2011-02-06T09:02:02Z</time>
      </trkpt>
      <trkpt lat="43.63756" lon="3.7438">
        <ele>172.8</ele>
        <time>2011-02-06T09:02:05Z</time>
      </trkpt>
      <trkpt lat="43.63753" lon="3.74369">
        <ele>173.4</ele>
        <time>2011-02-06T09:02:08Z</time>
      </trkpt>
      <trkpt lat="43.6375" lon="3.7436">
        <ele>173.6</ele>
        <time>2011-02-06T09:02:10Z</time>
      </trkpt>
      <trkpt lat="43.63749" lon="3.74354">
        <ele>173.1</ele>
        <time>2011-02-06T09:02:11Z</time>
      </trkpt>
      <trkpt lat="43.63748" lon="3.74347">
        <ele>172.7</ele>
        <time>2011-02-06T09:02:12Z</time>
      </trkpt>
      <trkpt lat="43.63748" lon="3.74338">
        <ele>172.4</ele>
        <time>2011-02-06T09:02:13Z</time>
      </trkpt>
      <trkpt lat="43.63749" lon="3.74329">
        <ele>171.9</ele>
        <time>2011-02-06T09:02:14Z</time>
      </trkpt>
      <trkpt lat="43.6375" lon="3.74319">
        <ele>171.5</ele>
        <time>2011-02-06T09:02:15Z</time>
      </trkpt>
      <trkpt lat="43.6375" lon="3.74309">
        <ele>171.2</ele>
        <time>2011-02-06T09:02:16Z</time>
      </trkpt>
      <trkpt lat="43.63749" lon="3.743">
        <ele>170.7</ele>
        <time>2011-02-06T09:02:17Z</time>
      </trkpt>
      <trkpt lat="43.63748" lon="3.74292">
        <ele>170.2</ele>
        <time>2011-02-06T09:02:18Z</time>
      </trkpt>
      <trkpt lat="43.63745" lon="3.74281">
        <ele>169.7</ele>
        <time>2011-02-06T09:02:20Z</time>
      </trkpt>
      <trkpt lat="43.63741" lon="3.74274">
        <ele>170.7</ele>
        <time>2011-02-06T09:02:22Z</time>
      </trkpt>
      <trkpt lat="43.63736" lon="3.74265">
        <ele>172.2</ele>
        <time>2011-02-06T09:02:25Z</time>
      </trkpt>
      <trkpt lat="43.63733" lon="3.74255">
        <ele>173.2</ele>
        <time>2011-02-06T09:02:28Z</time>
      </trkpt>
      <trkpt lat="43.63733" lon="3.74243">
        <ele>173.3</ele>
        <time>2011-02-06T09:02:30Z</time>
      </trkpt>
      <trkpt lat="43.63733" lon="3.74236">
        <ele>173.1</ele>
        <time>2011-02-06T09:02:31Z</time>
      </trkpt>
      <trkpt lat="43.63731" lon="3.74229">
        <ele>173</ele>
        <time>2011-02-06T09:02:32Z</time>
      </trkpt>
      <trkpt lat="43.63728" lon="3.7422">
        <ele>172.5</ele>
        <time>2011-02-06T09:02:33Z</time>
      </trkpt>
      <trkpt lat="43.63725" lon="3.74213">
        <ele>172.2</ele>
        <time>2011-02-06T09:02:34Z</time>
      </trkpt>
      <trkpt lat="43.63721" lon="3.74205">
        <ele>171.9</ele>
        <time>2011-02-06T09:02:35Z</time>
      </trkpt>
      <trkpt lat="43.63717" lon="3.74198">
        <ele>171.4</ele>
        <time>2011-02-06T09:02:36Z</time>
      </trkpt>
      <trkpt lat="43.63716" lon="3.74192">
        <ele>171.1</ele>
        <time>2011-02-06T09:02:37Z</time>
      </trkpt>
      <trkpt lat="43.63713" lon="3.7418">
        <ele>170.6</ele>
        <time>2011-02-06T09:02:39Z</time>
      </trkpt>
      <trkpt lat="43.63713" lon="3.7417">
        <ele>171.1</ele>
        <time>2011-02-06T09:02:41Z</time>
      </trkpt>
      <trkpt lat="43.63712" lon="3.74164">
        <ele>171.3</ele>
        <time>2011-02-06T09:02:42Z</time>
      </trkpt>
      <trkpt lat="43.63712" lon="3.74157">
        <ele>171.3</ele>
        <time>2011-02-06T09:02:43Z</time>
      </trkpt>
      <trkpt lat="43.63714" lon="3.74149">
        <ele>171.4</ele>
        <time>2011-02-06T09:02:44Z</time>
      </trkpt>
      <trkpt lat="43.63716" lon="3.74141">
        <ele>171.4</ele>
        <time>2011-02-06T09:02:45Z</time>
      </trkpt>
      <trkpt lat="43.63717" lon="3.74133">
        <ele>170.9</ele>
        <time>2011-02-06T09:02:46Z</time>
      </trkpt>
      <trkpt lat="43.63718" lon="3.74125">
        <ele>170.4</ele>
        <time>2011-02-06T09:02:47Z</time>
      </trkpt>
      <trkpt lat="43.63717" lon="3.74116">
        <ele>170.1</ele>
        <time>2011-02-06T09:02:48Z</time>
      </trkpt>
      <trkpt lat="43.63716" lon="3.74107">
        <ele>169.1</ele>
        <time>2011-02-06T09:02:49Z</time>
      </trkpt>
      <trkpt lat="43.63715" lon="3.74097">
        <ele>168.3</ele>
        <time>2011-02-06T09:02:50Z</time>
      </trkpt>
      <trkpt lat="43.63715" lon="3.74087">
        <ele>167.7</ele>
        <time>2011-02-06T09:02:51Z</time>
      </trkpt>
      <trkpt lat="43.63715" lon="3.74079">
        <ele>167.4</ele>
        <time>2011-02-06T09:02:52Z</time>
      </trkpt>
      <trkpt lat="43.63714" lon="3.74067">
        <ele>166.9</ele>
        <time>2011-02-06T09:02:54Z</time>
      </trkpt>
      <trkpt lat="43.63714" lon="3.74058">
        <ele>167.4</ele>
        <time>2011-02-06T09:02:56Z</time>
      </trkpt>
      <trkpt lat="43.63715" lon="3.74046">
        <ele>169.1</ele>
        <time>2011-02-06T09:02:59Z</time>
      </trkpt>
      <trkpt lat="43.63717" lon="3.74038">
        <ele>170.2</ele>
        <time>2011-02-06T09:03:01Z</time>
      </trkpt>
      <trkpt lat="43.63719" lon="3.74028">
        <ele>170.6</ele>
        <time>2011-02-06T09:03:03Z</time>
      </trkpt>
      <trkpt lat="43.63718" lon="3.74017">
        <ele>170.9</ele>
        <time>2011-02-06T09:03:05Z</time>
      </trkpt>
      <trkpt lat="43.63716" lon="3.74006">
        <ele>171.2</ele>
        <time>2011-02-06T09:03:07Z</time>
      </trkpt>
      <trkpt lat="43.63714" lon="3.74">
        <ele>170.9</ele>
        <time>2011-02-06T09:03:08Z</time>
      </trkpt>
      <trkpt lat="43.63713" lon="3.73994">
        <ele>170.8</ele>
        <time>2011-02-06T09:03:09Z</time>
      </trkpt>
      <trkpt lat="43.63711" lon="3.73987">
        <ele>170.6</ele>
        <time>2011-02-06T09:03:10Z</time>
      </trkpt>
      <trkpt lat="43.6371" lon="3.73981">
        <ele>170.6</ele>
        <time>2011-02-06T09:03:11Z</time>
      </trkpt>
      <trkpt lat="43.6371" lon="3.73974">
        <ele>170.3</ele>
        <time>2011-02-06T09:03:12Z</time>
      </trkpt>
      <trkpt lat="43.63709" lon="3.73968">
        <ele>170.1</ele>
        <time>2011-02-06T09:03:13Z</time>
      </trkpt>
      <trkpt lat="43.63709" lon="3.73961">
        <ele>170</ele>
        <time>2011-02-06T09:03:14Z</time>
      </trkpt>
      <trkpt lat="43.63708" lon="3.7395">
        <ele>170.5</ele>
        <time>2011-02-06T09:03:16Z</time>
      </trkpt>
      <trkpt lat="43.63708" lon="3.7394">
        <ele>170.9</ele>
        <time>2011-02-06T09:03:18Z</time>
      </trkpt>
      <trkpt lat="43.63708" lon="3.7393">
        <ele>171.3</ele>
        <time>2011-02-06T09:03:20Z</time>
      </trkpt>
      <trkpt lat="43.63708" lon="3.73919">
        <ele>171.8</ele>
        <time>2011-02-06T09:03:22Z</time>
      </trkpt>
      <trkpt lat="43.63707" lon="3.73912">
        <ele>171.9</ele>
        <time>2011-02-06T09:03:23Z</time>
      </trkpt>
      <trkpt lat="43.63708" lon="3.73904">
        <ele>171.8</ele>
        <time>2011-02-06T09:03:24Z</time>
      </trkpt>
      <trkpt lat="43.63709" lon="3.73897">
        <ele>171.6</ele>
        <time>2011-02-06T09:03:25Z</time>
      </trkpt>
      <trkpt lat="43.6371" lon="3.7389">
        <ele>171.6</ele>
        <time>2011-02-06T09:03:26Z</time>
      </trkpt>
      <trkpt lat="43.6371" lon="3.73884">
        <ele>171.4</ele>
        <time>2011-02-06T09:03:27Z</time>
      </trkpt>
      <trkpt lat="43.6371" lon="3.73878">
        <ele>171.3</ele>
        <time>2011-02-06T09:03:28Z</time>
      </trkpt>
      <trkpt lat="43.63709" lon="3.73871">
        <ele>171.2</ele>
        <time>2011-02-06T09:03:29Z</time>
      </trkpt>
      <trkpt lat="43.63708" lon="3.73863">
        <ele>171.2</ele>
        <time>2011-02-06T09:03:30Z</time>
      </trkpt>
      <trkpt lat="43.63708" lon="3.73855">
        <ele>171.1</ele>
        <time>2011-02-06T09:03:31Z</time>
      </trkpt>
      <trkpt lat="43.63707" lon="3.73845">
        <ele>171.1</ele>
        <time>2011-02-06T09:03:32Z</time>
      </trkpt>
      <trkpt lat="43.63705" lon="3.73838">
        <ele>171.1</ele>
        <time>2011-02-06T09:03:33Z</time>
      </trkpt>
      <trkpt lat="43.63704" lon="3.73827">
        <ele>171.4</ele>
        <time>2011-02-06T09:03:35Z</time>
      </trkpt>
      <trkpt lat="43.63704" lon="3.73823">
        <ele>171.5</ele>
        <time>2011-02-06T09:03:36Z</time>
      </trkpt>
      <trkpt lat="43.63703" lon="3.73805">
        <ele>173.1</ele>
        <time>2011-02-06T09:03:40Z</time>
      </trkpt>
      <trkpt lat="43.63701" lon="3.73793">
        <ele>173.7</ele>
        <time>2011-02-06T09:03:42Z</time>
      </trkpt>
      <trkpt lat="43.63701" lon="3.73787">
        <ele>173.9</ele>
        <time>2011-02-06T09:03:43Z</time>
      </trkpt>
      <trkpt lat="43.637" lon="3.7378">
        <ele>173.8</ele>
        <time>2011-02-06T09:03:44Z</time>
      </trkpt>
      <trkpt lat="43.63701" lon="3.73768">
        <ele>173.7</ele>
        <time>2011-02-06T09:03:46Z</time>
      </trkpt>
      <trkpt lat="43.63702" lon="3.73757">
        <ele>173.8</ele>
        <time>2011-02-06T09:03:48Z</time>
      </trkpt>
      <trkpt lat="43.63702" lon="3.73751">
        <ele>173.9</ele>
        <time>2011-02-06T09:03:49Z</time>
      </trkpt>
      <trkpt lat="43.63701" lon="3.73744">
        <ele>173.8</ele>
        <time>2011-02-06T09:03:50Z</time>
      </trkpt>
      <trkpt lat="43.63699" lon="3.73738">
        <ele>173.7</ele>
        <time>2011-02-06T09:03:51Z</time>
      </trkpt>
      <trkpt lat="43.63698" lon="3.73731">
        <ele>173.6</ele>
        <time>2011-02-06T09:03:52Z</time>
      </trkpt>
      <trkpt lat="43.63697" lon="3.73725">
        <ele>173.4</ele>
        <time>2011-02-06T09:03:53Z</time>
      </trkpt>
      <trkpt lat="43.63696" lon="3.73719">
        <ele>173.2</ele>
        <time>2011-02-06T09:03:54Z</time>
      </trkpt>
      <trkpt lat="43.63695" lon="3.73713">
        <ele>173.1</ele>
        <time>2011-02-06T09:03:55Z</time>
      </trkpt>
      <trkpt lat="43.63691" lon="3.73702">
        <ele>173.4</ele>
        <time>2011-02-06T09:03:57Z</time>
      </trkpt>
      <trkpt lat="43.6369" lon="3.7369">
        <ele>176.5</ele>
        <time>2011-02-06T09:04:03Z</time>
      </trkpt>
      <trkpt lat="43.63687" lon="3.73679">
        <ele>177.6</ele>
        <time>2011-02-06T09:04:09Z</time>
      </trkpt>
      <trkpt lat="43.63684" lon="3.73668">
        <ele>178.8</ele>
        <time>2011-02-06T09:04:16Z</time>
      </trkpt>
      <trkpt lat="43.63682" lon="3.73658">
        <ele>179.5</ele>
        <time>2011-02-06T09:04:21Z</time>
      </trkpt>
      <trkpt lat="43.6368" lon="3.73649">
        <ele>179.4</ele>
        <time>2011-02-06T09:04:24Z</time>
      </trkpt>
      <trkpt lat="43.63677" lon="3.73639">
        <ele>179.7</ele>
        <time>2011-02-06T09:04:27Z</time>
      </trkpt>
      <trkpt lat="43.63675" lon="3.73629">
        <ele>180.5</ele>
        <time>2011-02-06T09:04:30Z</time>
      </trkpt>
      <trkpt lat="43.63673" lon="3.7362">
        <ele>180.2</ele>
        <time>2011-02-06T09:04:32Z</time>
      </trkpt>
      <trkpt lat="43.63671" lon="3.73609">
        <ele>180</ele>
        <time>2011-02-06T09:04:34Z</time>
      </trkpt>
      <trkpt lat="43.6367" lon="3.73603">
        <ele>179.6</ele>
        <time>2011-02-06T09:04:35Z</time>
      </trkpt>
      <trkpt lat="43.63669" lon="3.73596">
        <ele>179.3</ele>
        <time>2011-02-06T09:04:36Z</time>
      </trkpt>
      <trkpt lat="43.63668" lon="3.73589">
        <ele>179</ele>
        <time>2011-02-06T09:04:37Z</time>
      </trkpt>
      <trkpt lat="43.63667" lon="3.73582">
        <ele>178.7</ele>
        <time>2011-02-06T09:04:38Z</time>
      </trkpt>
      <trkpt lat="43.63666" lon="3.73576">
        <ele>178.5</ele>
        <time>2011-02-06T09:04:39Z</time>
      </trkpt>
      <trkpt lat="43.63666" lon="3.73569">
        <ele>178.3</ele>
        <time>2011-02-06T09:04:40Z</time>
      </trkpt>
      <trkpt lat="43.63665" lon="3.73557">
        <ele>178.2</ele>
        <time>2011-02-06T09:04:42Z</time>
      </trkpt>
      <trkpt lat="43.63663" lon="3.73546">
        <ele>178.9</ele>
        <time>2011-02-06T09:04:44Z</time>
      </trkpt>
      <trkpt lat="43.63662" lon="3.73535">
        <ele>179.9</ele>
        <time>2011-02-06T09:04:46Z</time>
      </trkpt>
      <trkpt lat="43.63661" lon="3.73523">
        <ele>179.2</ele>
        <time>2011-02-06T09:04:48Z</time>
      </trkpt>
      <trkpt lat="43.6366" lon="3.73512">
        <ele>178.9</ele>
        <time>2011-02-06T09:04:50Z</time>
      </trkpt>
      <trkpt lat="43.63658" lon="3.735">
        <ele>179.1</ele>
        <time>2011-02-06T09:04:52Z</time>
      </trkpt>
      <trkpt lat="43.63656" lon="3.73488">
        <ele>179.3</ele>
        <time>2011-02-06T09:04:54Z</time>
      </trkpt>
      <trkpt lat="43.63655" lon="3.73481">
        <ele>179.5</ele>
        <time>2011-02-06T09:04:55Z</time>
      </trkpt>
      <trkpt lat="43.63655" lon="3.73474">
        <ele>179.6</ele>
        <time>2011-02-06T09:04:56Z</time>
      </trkpt>
      <trkpt lat="43.63654" lon="3.73466">
        <ele>179.6</ele>
        <time>2011-02-06T09:04:57Z</time>
      </trkpt>
      <trkpt lat="43.63652" lon="3.73457">
        <ele>179.5</ele>
        <time>2011-02-06T09:04:58Z</time>
      </trkpt>
      <trkpt lat="43.63652" lon="3.73448">
        <ele>179.5</ele>
        <time>2011-02-06T09:04:59Z</time>
      </trkpt>
      <trkpt lat="43.63651" lon="3.73439">
        <ele>179</ele>
        <time>2011-02-06T09:05:00Z</time>
      </trkpt>
      <trkpt lat="43.63651" lon="3.73431">
        <ele>178.7</ele>
        <time>2011-02-06T09:05:01Z</time>
      </trkpt>
      <trkpt lat="43.63651" lon="3.73425">
        <ele>178.4</ele>
        <time>2011-02-06T09:05:02Z</time>
      </trkpt>
      <trkpt lat="43.6365" lon="3.73417">
        <ele>178.4</ele>
        <time>2011-02-06T09:05:03Z</time>
      </trkpt>
      <trkpt lat="43.6365" lon="3.7341">
        <ele>178.4</ele>
        <time>2011-02-06T09:05:04Z</time>
      </trkpt>
      <trkpt lat="43.63649" lon="3.73403">
        <ele>178.4</ele>
        <time>2011-02-06T09:05:05Z</time>
      </trkpt>
      <trkpt lat="43.63649" lon="3.73396">
        <ele>178.2</ele>
        <time>2011-02-06T09:05:06Z</time>
      </trkpt>
      <trkpt lat="43.63648" lon="3.73389">
        <ele>178.1</ele>
        <time>2011-02-06T09:05:07Z</time>
      </trkpt>
      <trkpt lat="43.63646" lon="3.73382">
        <ele>178</ele>
        <time>2011-02-06T09:05:08Z</time>
      </trkpt>
      <trkpt lat="43.63645" lon="3.73374">
        <ele>178</ele>
        <time>2011-02-06T09:05:09Z</time>
      </trkpt>
      <trkpt lat="43.63642" lon="3.73366">
        <ele>177.8</ele>
        <time>2011-02-06T09:05:10Z</time>
      </trkpt>
      <trkpt lat="43.63639" lon="3.73357">
        <ele>177.7</ele>
        <time>2011-02-06T09:05:11Z</time>
      </trkpt>
      <trkpt lat="43.63636" lon="3.73346">
        <ele>177.6</ele>
        <time>2011-02-06T09:05:12Z</time>
      </trkpt>
      <trkpt lat="43.63635" lon="3.73336">
        <ele>176.7</ele>
        <time>2011-02-06T09:05:13Z</time>
      </trkpt>
      <trkpt lat="43.63635" lon="3.73327">
        <ele>176</ele>
        <time>2011-02-06T09:05:14Z</time>
      </trkpt>
      <trkpt lat="43.63635" lon="3.7332">
        <ele>175.5</ele>
        <time>2011-02-06T09:05:15Z</time>
      </trkpt>
      <trkpt lat="43.63636" lon="3.73313">
        <ele>175.7</ele>
        <time>2011-02-06T09:05:16Z</time>
      </trkpt>
      <trkpt lat="43.63638" lon="3.73303">
        <ele>175.9</ele>
        <time>2011-02-06T09:05:18Z</time>
      </trkpt>
      <trkpt lat="43.63641" lon="3.73292">
        <ele>176.2</ele>
        <time>2011-02-06T09:05:20Z</time>
      </trkpt>
      <trkpt lat="43.63641" lon="3.73286">
        <ele>176.4</ele>
        <time>2011-02-06T09:05:21Z</time>
      </trkpt>
      <trkpt lat="43.63642" lon="3.7328">
        <ele>176.5</ele>
        <time>2011-02-06T09:05:22Z</time>
      </trkpt>
      <trkpt lat="43.63643" lon="3.73269">
        <ele>176.6</ele>
        <time>2011-02-06T09:05:24Z</time>
      </trkpt>
      <trkpt lat="43.63643" lon="3.73263">
        <ele>176.7</ele>
        <time>2011-02-06T09:05:25Z</time>
      </trkpt>
      <trkpt lat="43.63643" lon="3.73256">
        <ele>176.5</ele>
        <time>2011-02-06T09:05:26Z</time>
      </trkpt>
      <trkpt lat="43.63642" lon="3.73249">
        <ele>176.3</ele>
        <time>2011-02-06T09:05:27Z</time>
      </trkpt>
      <trkpt lat="43.6364" lon="3.73237">
        <ele>175.5</ele>
        <time>2011-02-06T09:05:29Z</time>
      </trkpt>
      <trkpt lat="43.63639" lon="3.73231">
        <ele>174.9</ele>
        <time>2011-02-06T09:05:30Z</time>
      </trkpt>
      <trkpt lat="43.63638" lon="3.73219">
        <ele>173.7</ele>
        <time>2011-02-06T09:05:32Z</time>
      </trkpt>
      <trkpt lat="43.6364" lon="3.73208">
        <ele>172.7</ele>
        <time>2011-02-06T09:05:35Z</time>
      </trkpt>
      <trkpt lat="43.63641" lon="3.73196">
        <ele>174.3</ele>
        <time>2011-02-06T09:05:45Z</time>
      </trkpt>
      <trkpt lat="43.6364" lon="3.73194">
        <ele>174.6</ele>
        <time>2011-02-06T09:05:46Z</time>
      </trkpt>
      <trkpt lat="43.63643" lon="3.73175">
        <ele>175.2</ele>
        <time>2011-02-06T09:05:56Z</time>
      </trkpt>
      <trkpt lat="43.63644" lon="3.73164">
        <ele>174.6</ele>
        <time>2011-02-06T09:05:59Z</time>
      </trkpt>
      <trkpt lat="43.63645" lon="3.73154">
        <ele>175</ele>
        <time>2011-02-06T09:06:02Z</time>
      </trkpt>
      <trkpt lat="43.63646" lon="3.73146">
        <ele>175.1</ele>
        <time>2011-02-06T09:06:04Z</time>
      </trkpt>
      <trkpt lat="43.63646" lon="3.73133">
        <ele>175.6</ele>
        <time>2011-02-06T09:06:07Z</time>
      </trkpt>
      <trkpt lat="43.63644" lon="3.73122">
        <ele>176.2</ele>
        <time>2011-02-06T09:06:10Z</time>
      </trkpt>
      <trkpt lat="43.63641" lon="3.73111">
        <ele>176</ele>
        <time>2011-02-06T09:06:13Z</time>
      </trkpt>
      <trkpt lat="43.6364" lon="3.731">
        <ele>176</ele>
        <time>2011-02-06T09:06:16Z</time>
      </trkpt>
      <trkpt lat="43.63642" lon="3.73091">
        <ele>176.1</ele>
        <time>2011-02-06T09:06:18Z</time>
      </trkpt>
      <trkpt lat="43.63644" lon="3.73079">
        <ele>175.7</ele>
        <time>2011-02-06T09:06:20Z</time>
      </trkpt>
      <trkpt lat="43.63644" lon="3.73073">
        <ele>175.4</ele>
        <time>2011-02-06T09:06:21Z</time>
      </trkpt>
      <trkpt lat="43.63644" lon="3.73066">
        <ele>175.2</ele>
        <time>2011-02-06T09:06:22Z</time>
      </trkpt>
      <trkpt lat="43.63644" lon="3.7306">
        <ele>175.2</ele>
        <time>2011-02-06T09:06:23Z</time>
      </trkpt>
      <trkpt lat="43.63645" lon="3.73048">
        <ele>175.2</ele>
        <time>2011-02-06T09:06:25Z</time>
      </trkpt>
      <trkpt lat="43.63646" lon="3.73042">
        <ele>175.4</ele>
        <time>2011-02-06T09:06:26Z</time>
      </trkpt>
      <trkpt lat="43.63647" lon="3.73036">
        <ele>175.5</ele>
        <time>2011-02-06T09:06:27Z</time>
      </trkpt>
      <trkpt lat="43.63648" lon="3.73029">
        <ele>175.6</ele>
        <time>2011-02-06T09:06:28Z</time>
      </trkpt>
      <trkpt lat="43.63649" lon="3.73023">
        <ele>175.2</ele>
        <time>2011-02-06T09:06:29Z</time>
      </trkpt>
      <trkpt lat="43.63649" lon="3.73016">
        <ele>174.8</ele>
        <time>2011-02-06T09:06:30Z</time>
      </trkpt>
      <trkpt lat="43.63648" lon="3.73009">
        <ele>174.6</ele>
        <time>2011-02-06T09:06:31Z</time>
      </trkpt>
      <trkpt lat="43.63648" lon="3.73002">
        <ele>174.4</ele>
        <time>2011-02-06T09:06:32Z</time>
      </trkpt>
      <trkpt lat="43.63649" lon="3.72995">
        <ele>174.6</ele>
        <time>2011-02-06T09:06:33Z</time>
      </trkpt>
      <trkpt lat="43.6365" lon="3.72988">
        <ele>174.7</ele>
        <time>2011-02-06T09:06:34Z</time>
      </trkpt>
      <trkpt lat="43.63652" lon="3.7298">
        <ele>174.9</ele>
        <time>2011-02-06T09:06:35Z</time>
      </trkpt>
      <trkpt lat="43.63652" lon="3.72973">
        <ele>174.5</ele>
        <time>2011-02-06T09:06:36Z</time>
      </trkpt>
      <trkpt lat="43.63652" lon="3.72965">
        <ele>174.2</ele>
        <time>2011-02-06T09:06:37Z</time>
      </trkpt>
      <trkpt lat="43.63652" lon="3.72958">
        <ele>174</ele>
        <time>2011-02-06T09:06:38Z</time>
      </trkpt>
      <trkpt lat="43.63652" lon="3.7295">
        <ele>173.8</ele>
        <time>2011-02-06T09:06:39Z</time>
      </trkpt>
      <trkpt lat="43.63653" lon="3.72943">
        <ele>173.6</ele>
        <time>2011-02-06T09:06:40Z</time>
      </trkpt>
      <trkpt lat="43.63654" lon="3.72936">
        <ele>173.5</ele>
        <time>2011-02-06T09:06:41Z</time>
      </trkpt>
      <trkpt lat="43.63655" lon="3.72928">
        <ele>173.1</ele>
        <time>2011-02-06T09:06:42Z</time>
      </trkpt>
      <trkpt lat="43.63656" lon="3.7292">
        <ele>172.9</ele>
        <time>2011-02-06T09:06:43Z</time>
      </trkpt>
      <trkpt lat="43.63656" lon="3.72913">
        <ele>172.7</ele>
        <time>2011-02-06T09:06:44Z</time>
      </trkpt>
      <trkpt lat="43.63657" lon="3.72905">
        <ele>172.7</ele>
        <time>2011-02-06T09:06:45Z</time>
      </trkpt>
      <trkpt lat="43.63658" lon="3.72898">
        <ele>172.6</ele>
        <time>2011-02-06T09:06:46Z</time>
      </trkpt>
      <trkpt lat="43.6366" lon="3.7289">
        <ele>172.6</ele>
        <time>2011-02-06T09:06:47Z</time>
      </trkpt>
      <trkpt lat="43.63661" lon="3.72882">
        <ele>172.6</ele>
        <time>2011-02-06T09:06:48Z</time>
      </trkpt>
      <trkpt lat="43.63662" lon="3.72875">
        <ele>172.6</ele>
        <time>2011-02-06T09:06:49Z</time>
      </trkpt>
      <trkpt lat="43.63662" lon="3.72867">
        <ele>172.7</ele>
        <time>2011-02-06T09:06:50Z</time>
      </trkpt>
      <trkpt lat="43.63662" lon="3.7286">
        <ele>172.7</ele>
        <time>2011-02-06T09:06:51Z</time>
      </trkpt>
      <trkpt lat="43.63661" lon="3.72853">
        <ele>172.7</ele>
        <time>2011-02-06T09:06:52Z</time>
      </trkpt>
      <trkpt lat="43.63661" lon="3.72842">
        <ele>172.6</ele>
        <time>2011-02-06T09:06:54Z</time>
      </trkpt>
      <trkpt lat="43.6366" lon="3.7283">
        <ele>172.5</ele>
        <time>2011-02-06T09:10:40Z</time>
      </trkpt>
      <trkpt lat="43.6366" lon="3.7283">
        <ele>172.4</ele>
        <time>2011-02-06T09:10:41Z</time>
      </trkpt>
      <trkpt lat="43.63665" lon="3.72819">
        <ele>173.4</ele>
        <time>2011-02-06T09:14:07Z</time>
      </trkpt>
      <trkpt lat="43.63667" lon="3.728">
        <ele>172.8</ele>
        <time>2011-02-06T09:14:16Z</time>
      </trkpt>
      <trkpt lat="43.6367" lon="3.7279">
        <ele>172.7</ele>
        <time>2011-02-06T09:14:24Z</time>
      </trkpt>
      <trkpt lat="43.63675" lon="3.7278">
        <ele>173</ele>
        <time>2011-02-06T09:14:30Z</time>
      </trkpt>
      <trkpt lat="43.63679" lon="3.72771">
        <ele>172.8</ele>
        <time>2011-02-06T09:14:34Z</time>
      </trkpt>
      <trkpt lat="43.63682" lon="3.7276">
        <ele>173.3</ele>
        <time>2011-02-06T09:14:38Z</time>
      </trkpt>
      <trkpt lat="43.63686" lon="3.7275">
        <ele>173.1</ele>
        <time>2011-02-06T09:14:41Z</time>
      </trkpt>
      <trkpt lat="43.63689" lon="3.72742">
        <ele>172.7</ele>
        <time>2011-02-06T09:14:43Z</time>
      </trkpt>
      <trkpt lat="43.63694" lon="3.72733">
        <ele>172</ele>
        <time>2011-02-06T09:14:45Z</time>
      </trkpt>
      <trkpt lat="43.63699" lon="3.72722">
        <ele>171.4</ele>
        <time>2011-02-06T09:14:47Z</time>
      </trkpt>
      <trkpt lat="43.63703" lon="3.72712">
        <ele>170.9</ele>
        <time>2011-02-06T09:14:49Z</time>
      </trkpt>
      <trkpt lat="43.63708" lon="3.72703">
        <ele>170.3</ele>
        <time>2011-02-06T09:14:51Z</time>
      </trkpt>
      <trkpt lat="43.63711" lon="3.72698">
        <ele>170</ele>
        <time>2011-02-06T09:14:52Z</time>
      </trkpt>
      <trkpt lat="43.63714" lon="3.72692">
        <ele>169.7</ele>
        <time>2011-02-06T09:14:53Z</time>
      </trkpt>
      <trkpt lat="43.63716" lon="3.72687">
        <ele>169.5</ele>
        <time>2011-02-06T09:14:54Z</time>
      </trkpt>
      <trkpt lat="43.63719" lon="3.72682">
        <ele>169.4</ele>
        <time>2011-02-06T09:14:55Z</time>
      </trkpt>
      <trkpt lat="43.63721" lon="3.72675">
        <ele>169.3</ele>
        <time>2011-02-06T09:14:56Z</time>
      </trkpt>
      <trkpt lat="43.63724" lon="3.72669">
        <ele>168.9</ele>
        <time>2011-02-06T09:14:57Z</time>
      </trkpt>
      <trkpt lat="43.63727" lon="3.72663">
        <ele>168.7</ele>
        <time>2011-02-06T09:14:58Z</time>
      </trkpt>
      <trkpt lat="43.6373" lon="3.72656">
        <ele>168.5</ele>
        <time>2011-02-06T09:14:59Z</time>
      </trkpt>
      <trkpt lat="43.63733" lon="3.7265">
        <ele>168.3</ele>
        <time>2011-02-06T09:15:00Z</time>
      </trkpt>
      <trkpt lat="43.63736" lon="3.72644">
        <ele>168.2</ele>
        <time>2011-02-06T09:15:01Z</time>
      </trkpt>
      <trkpt lat="43.6374" lon="3.72638">
        <ele>168.1</ele>
        <time>2011-02-06T09:15:02Z</time>
      </trkpt>
      <trkpt lat="43.63743" lon="3.72631">
        <ele>167.3</ele>
        <time>2011-02-06T09:15:03Z</time>
      </trkpt>
      <trkpt lat="43.63747" lon="3.72625">
        <ele>166.6</ele>
        <time>2011-02-06T09:15:04Z</time>
      </trkpt>
      <trkpt lat="43.6375" lon="3.72619">
        <ele>166.1</ele>
        <time>2011-02-06T09:15:05Z</time>
      </trkpt>
      <trkpt lat="43.63752" lon="3.72611">
        <ele>165.7</ele>
        <time>2011-02-06T09:15:06Z</time>
      </trkpt>
      <trkpt lat="43.63756" lon="3.72604">
        <ele>165.3</ele>
        <time>2011-02-06T09:15:07Z</time>
      </trkpt>
      <trkpt lat="43.63758" lon="3.72597">
        <ele>165</ele>
        <time>2011-02-06T09:15:08Z</time>
      </trkpt>
      <trkpt lat="43.63761" lon="3.7259">
        <ele>164.8</ele>
        <time>2011-02-06T09:15:09Z</time>
      </trkpt>
      <trkpt lat="43.63764" lon="3.72584">
        <ele>164.6</ele>
        <time>2011-02-06T09:15:10Z</time>
      </trkpt>
      <trkpt lat="43.63767" lon="3.72577">
        <ele>164.5</ele>
        <time>2011-02-06T09:15:11Z</time>
      </trkpt>
      <trkpt lat="43.6377" lon="3.72571">
        <ele>164.4</ele>
        <time>2011-02-06T09:15:12Z</time>
      </trkpt>
      <trkpt lat="43.63773" lon="3.72565">
        <ele>164</ele>
        <time>2011-02-06T09:15:13Z</time>
      </trkpt>
      <trkpt lat="43.63776" lon="3.72558">
        <ele>163.8</ele>
        <time>2011-02-06T09:15:14Z</time>
      </trkpt>
      <trkpt lat="43.63778" lon="3.72552">
        <ele>163.6</ele>
        <time>2011-02-06T09:15:15Z</time>
      </trkpt>
      <trkpt lat="43.6378" lon="3.72545">
        <ele>163.6</ele>
        <time>2011-02-06T09:15:16Z</time>
      </trkpt>
      <trkpt lat="43.6378" lon="3.72539">
        <ele>163.7</ele>
        <time>2011-02-06T09:15:17Z</time>
      </trkpt>
      <trkpt lat="43.63779" lon="3.72532">
        <ele>163.7</ele>
        <time>2011-02-06T09:15:18Z</time>
      </trkpt>
      <trkpt lat="43.63778" lon="3.72526">
        <ele>162.9</ele>
        <time>2011-02-06T09:15:19Z</time>
      </trkpt>
      <trkpt lat="43.63777" lon="3.72519">
        <ele>162.2</ele>
        <time>2011-02-06T09:15:20Z</time>
      </trkpt>
      <trkpt lat="43.63776" lon="3.72513">
        <ele>161.8</ele>
        <time>2011-02-06T09:15:21Z</time>
      </trkpt>
      <trkpt lat="43.63776" lon="3.72506">
        <ele>161.2</ele>
        <time>2011-02-06T09:15:22Z</time>
      </trkpt>
      <trkpt lat="43.63776" lon="3.72499">
        <ele>160.8</ele>
        <time>2011-02-06T09:15:23Z</time>
      </trkpt>
      <trkpt lat="43.63776" lon="3.72491">
        <ele>160.5</ele>
        <time>2011-02-06T09:15:24Z</time>
      </trkpt>
      <trkpt lat="43.63777" lon="3.72485">
        <ele>160.3</ele>
        <time>2011-02-06T09:15:25Z</time>
      </trkpt>
      <trkpt lat="43.63779" lon="3.72478">
        <ele>159.8</ele>
        <time>2011-02-06T09:15:26Z</time>
      </trkpt>
      <trkpt lat="43.63781" lon="3.72471">
        <ele>159.5</ele>
        <time>2011-02-06T09:15:27Z</time>
      </trkpt>
      <trkpt lat="43.63782" lon="3.72464">
        <ele>159.3</ele>
        <time>2011-02-06T09:15:28Z</time>
      </trkpt>
      <trkpt lat="43.63784" lon="3.72457">
        <ele>158.8</ele>
        <time>2011-02-06T09:15:29Z</time>
      </trkpt>
      <trkpt lat="43.63785" lon="3.7245">
        <ele>158.5</ele>
        <time>2011-02-06T09:15:30Z</time>
      </trkpt>
      <trkpt lat="43.63786" lon="3.72444">
        <ele>158.2</ele>
        <time>2011-02-06T09:15:31Z</time>
      </trkpt>
      <trkpt lat="43.63787" lon="3.72437">
        <ele>158</ele>
        <time>2011-02-06T09:15:32Z</time>
      </trkpt>
      <trkpt lat="43.63787" lon="3.7243">
        <ele>157.8</ele>
        <time>2011-02-06T09:15:33Z</time>
      </trkpt>
      <trkpt lat="43.63788" lon="3.72423">
        <ele>157.7</ele>
        <time>2011-02-06T09:15:34Z</time>
      </trkpt>
      <trkpt lat="43.63788" lon="3.72416">
        <ele>157.2</ele>
        <time>2011-02-06T09:15:35Z</time>
      </trkpt>
      <trkpt lat="43.63787" lon="3.7241">
        <ele>156.8</ele>
        <time>2011-02-06T09:15:36Z</time>
      </trkpt>
      <trkpt lat="43.63784" lon="3.72399">
        <ele>156.2</ele>
        <time>2011-02-06T09:15:38Z</time>
      </trkpt>
      <trkpt lat="43.63782" lon="3.72388">
        <ele>155.8</ele>
        <time>2011-02-06T09:15:40Z</time>
      </trkpt>
      <trkpt lat="43.63782" lon="3.72377">
        <ele>155.4</ele>
        <time>2011-02-06T09:15:42Z</time>
      </trkpt>
      <trkpt lat="43.63781" lon="3.72366">
        <ele>155</ele>
        <time>2011-02-06T09:15:44Z</time>
      </trkpt>
      <trkpt lat="43.6378" lon="3.72354">
        <ele>154.5</ele>
        <time>2011-02-06T09:15:46Z</time>
      </trkpt>
      <trkpt lat="43.6378" lon="3.72347">
        <ele>154.4</ele>
        <time>2011-02-06T09:15:47Z</time>
      </trkpt>
      <trkpt lat="43.6378" lon="3.72335">
        <ele>153.9</ele>
        <time>2011-02-06T09:15:49Z</time>
      </trkpt>
      <trkpt lat="43.63777" lon="3.72325">
        <ele>153.8</ele>
        <time>2011-02-06T09:15:51Z</time>
      </trkpt>
      <trkpt lat="43.63774" lon="3.72315">
        <ele>153.8</ele>
        <time>2011-02-06T09:15:53Z</time>
      </trkpt>
      <trkpt lat="43.63773" lon="3.72304">
        <ele>153.5</ele>
        <time>2011-02-06T09:15:55Z</time>
      </trkpt>
      <trkpt lat="43.63771" lon="3.72293">
        <ele>153.3</ele>
        <time>2011-02-06T09:15:57Z</time>
      </trkpt>
      <trkpt lat="43.63771" lon="3.72283">
        <ele>153.1</ele>
        <time>2011-02-06T09:15:59Z</time>
      </trkpt>
      <trkpt lat="43.63772" lon="3.72274">
        <ele>153.3</ele>
        <time>2011-02-06T09:16:01Z</time>
      </trkpt>
      <trkpt lat="43.63774" lon="3.72266">
        <ele>153.7</ele>
        <time>2011-02-06T09:16:03Z</time>
      </trkpt>
      <trkpt lat="43.63775" lon="3.72256">
        <ele>154.2</ele>
        <time>2011-02-06T09:16:05Z</time>
      </trkpt>
      <trkpt lat="43.63776" lon="3.72248">
        <ele>154.5</ele>
        <time>2011-02-06T09:16:07Z</time>
      </trkpt>
      <trkpt lat="43.63777" lon="3.72239">
        <ele>154.6</ele>
        <time>2011-02-06T09:16:09Z</time>
      </trkpt>
      <trkpt lat="43.63777" lon="3.72235">
        <ele>154.8</ele>
        <time>2011-02-06T09:16:10Z</time>
      </trkpt>
      <trkpt lat="43.63774" lon="3.72221">
        <ele>155</ele>
        <time>2011-02-06T09:16:13Z</time>
      </trkpt>
      <trkpt lat="43.63771" lon="3.72213">
        <ele>155.4</ele>
        <time>2011-02-06T09:16:15Z</time>
      </trkpt>
      <trkpt lat="43.63767" lon="3.72206">
        <ele>156</ele>
        <time>2011-02-06T09:16:17Z</time>
      </trkpt>
      <trkpt lat="43.63762" lon="3.722">
        <ele>156.6</ele>
        <time>2011-02-06T09:16:19Z</time>
      </trkpt>
      <trkpt lat="43.63757" lon="3.72193">
        <ele>157.1</ele>
        <time>2011-02-06T09:16:21Z</time>
      </trkpt>
      <trkpt lat="43.63754" lon="3.72185">
        <ele>157.5</ele>
        <time>2011-02-06T09:16:23Z</time>
      </trkpt>
      <trkpt lat="43.63752" lon="3.72176">
        <ele>157.8</ele>
        <time>2011-02-06T09:16:25Z</time>
      </trkpt>
      <trkpt lat="43.6375" lon="3.72166">
        <ele>157.5</ele>
        <time>2011-02-06T09:16:27Z</time>
      </trkpt>
      <trkpt lat="43.6375" lon="3.72155">
        <ele>157.4</ele>
        <time>2011-02-06T09:16:29Z</time>
      </trkpt>
      <trkpt lat="43.63751" lon="3.72144">
        <ele>156.9</ele>
        <time>2011-02-06T09:16:31Z</time>
      </trkpt>
      <trkpt lat="43.63749" lon="3.72134">
        <ele>156.5</ele>
        <time>2011-02-06T09:16:33Z</time>
      </trkpt>
      <trkpt lat="43.63749" lon="3.72122">
        <ele>156.2</ele>
        <time>2011-02-06T09:16:35Z</time>
      </trkpt>
      <trkpt lat="43.6375" lon="3.72115">
        <ele>155.9</ele>
        <time>2011-02-06T09:16:36Z</time>
      </trkpt>
      <trkpt lat="43.63751" lon="3.72108">
        <ele>155.6</ele>
        <time>2011-02-06T09:16:37Z</time>
      </trkpt>
      <trkpt lat="43.6375" lon="3.72101">
        <ele>155.3</ele>
        <time>2011-02-06T09:16:38Z</time>
      </trkpt>
      <trkpt lat="43.63749" lon="3.72094">
        <ele>154.6</ele>
        <time>2011-02-06T09:16:39Z</time>
      </trkpt>
      <trkpt lat="43.63747" lon="3.72086">
        <ele>154</ele>
        <time>2011-02-06T09:16:40Z</time>
      </trkpt>
      <trkpt lat="43.63746" lon="3.7208">
        <ele>153.6</ele>
        <time>2011-02-06T09:16:41Z</time>
      </trkpt>
      <trkpt lat="43.63744" lon="3.72074">
        <ele>153.4</ele>
        <time>2011-02-06T09:16:42Z</time>
      </trkpt>
      <trkpt lat="43.63741" lon="3.72062">
        <ele>153.3</ele>
        <time>2011-02-06T09:16:44Z</time>
      </trkpt>
      <trkpt lat="43.63739" lon="3.72052">
        <ele>153.2</ele>
        <time>2011-02-06T09:16:46Z</time>
      </trkpt>
      <trkpt lat="43.63735" lon="3.72042">
        <ele>153.2</ele>
        <time>2011-02-06T09:16:48Z</time>
      </trkpt>
      <trkpt lat="43.63731" lon="3.72034">
        <ele>152.7</ele>
        <time>2011-02-06T09:16:50Z</time>
      </trkpt>
      <trkpt lat="43.63727" lon="3.72026">
        <ele>153</ele>
        <time>2011-02-06T09:16:52Z</time>
      </trkpt>
      <trkpt lat="43.63723" lon="3.72018">
        <ele>153.7</ele>
        <time>2011-02-06T09:16:54Z</time>
      </trkpt>
      <trkpt lat="43.63719" lon="3.72008">
        <ele>154.7</ele>
        <time>2011-02-06T09:16:57Z</time>
      </trkpt>
      <trkpt lat="43.63714" lon="3.72">
        <ele>155.8</ele>
        <time>2011-02-06T09:17:00Z</time>
      </trkpt>
      <trkpt lat="43.63709" lon="3.71992">
        <ele>156.2</ele>
        <time>2011-02-06T09:17:03Z</time>
      </trkpt>
      <trkpt lat="43.63704" lon="3.71984">
        <ele>157</ele>
        <time>2011-02-06T09:17:06Z</time>
      </trkpt>
      <trkpt lat="43.637" lon="3.71976">
        <ele>157.7</ele>
        <time>2011-02-06T09:17:09Z</time>
      </trkpt>
      <trkpt lat="43.63697" lon="3.71965">
        <ele>159</ele>
        <time>2011-02-06T09:17:13Z</time>
      </trkpt>
      <trkpt lat="43.63696" lon="3.71963">
        <ele>159</ele>
        <time>2011-02-06T09:17:14Z</time>
      </trkpt>
      <trkpt lat="43.63688" lon="3.71949">
        <ele>158.6</ele>
        <time>2011-02-06T09:17:21Z</time>
      </trkpt>
      <trkpt lat="43.63685" lon="3.71937">
        <ele>158.6</ele>
        <time>2011-02-06T09:17:25Z</time>
      </trkpt>
      <trkpt lat="43.63681" lon="3.71926">
        <ele>158.8</ele>
        <time>2011-02-06T09:17:28Z</time>
      </trkpt>
      <trkpt lat="43.63677" lon="3.71916">
        <ele>158.3</ele>
        <time>2011-02-06T09:17:31Z</time>
      </trkpt>
      <trkpt lat="43.63674" lon="3.71908">
        <ele>157.9</ele>
        <time>2011-02-06T09:17:33Z</time>
      </trkpt>
      <trkpt lat="43.6367" lon="3.71897">
        <ele>157.7</ele>
        <time>2011-02-06T09:17:35Z</time>
      </trkpt>
      <trkpt lat="43.63665" lon="3.71888">
        <ele>157.5</ele>
        <time>2011-02-06T09:17:37Z</time>
      </trkpt>
      <trkpt lat="43.63662" lon="3.71884">
        <ele>157.4</ele>
        <time>2011-02-06T09:17:38Z</time>
      </trkpt>
      <trkpt lat="43.63658" lon="3.71879">
        <ele>157.4</ele>
        <time>2011-02-06T09:17:39Z</time>
      </trkpt>
      <trkpt lat="43.63656" lon="3.71873">
        <ele>157</ele>
        <time>2011-02-06T09:17:40Z</time>
      </trkpt>
      <trkpt lat="43.63655" lon="3.71867">
        <ele>156.7</ele>
        <time>2011-02-06T09:17:41Z</time>
      </trkpt>
      <trkpt lat="43.63654" lon="3.71856">
        <ele>156.2</ele>
        <time>2011-02-06T09:17:43Z</time>
      </trkpt>
      <trkpt lat="43.63651" lon="3.71846">
        <ele>155.6</ele>
        <time>2011-02-06T09:17:46Z</time>
      </trkpt>
      <trkpt lat="43.63649" lon="3.71836">
        <ele>155</ele>
        <time>2011-02-06T09:17:49Z</time>
      </trkpt>
      <trkpt lat="43.63646" lon="3.71828">
        <ele>154.5</ele>
        <time>2011-02-06T09:17:51Z</time>
      </trkpt>
      <trkpt lat="43.63643" lon="3.7182">
        <ele>153.9</ele>
        <time>2011-02-06T09:17:53Z</time>
      </trkpt>
      <trkpt lat="43.63641" lon="3.71811">
        <ele>153.3</ele>
        <time>2011-02-06T09:17:55Z</time>
      </trkpt>
      <trkpt lat="43.63638" lon="3.71803">
        <ele>152.6</ele>
        <time>2011-02-06T09:17:57Z</time>
      </trkpt>
      <trkpt lat="43.63635" lon="3.71795">
        <ele>152.7</ele>
        <time>2011-02-06T09:17:59Z</time>
      </trkpt>
      <trkpt lat="43.63629" lon="3.71789">
        <ele>153.2</ele>
        <time>2011-02-06T09:18:01Z</time>
      </trkpt>
      <trkpt lat="43.63623" lon="3.71784">
        <ele>153.7</ele>
        <time>2011-02-06T09:18:03Z</time>
      </trkpt>
      <trkpt lat="43.63616" lon="3.7178">
        <ele>153.9</ele>
        <time>2011-02-06T09:18:05Z</time>
      </trkpt>
      <trkpt lat="43.6361" lon="3.71777">
        <ele>154</ele>
        <time>2011-02-06T09:18:07Z</time>
      </trkpt>
      <trkpt lat="43.63605" lon="3.71772">
        <ele>153.8</ele>
        <time>2011-02-06T09:18:09Z</time>
      </trkpt>
      <trkpt lat="43.636" lon="3.71767">
        <ele>153.6</ele>
        <time>2011-02-06T09:18:11Z</time>
      </trkpt>
      <trkpt lat="43.63595" lon="3.71761">
        <ele>154.2</ele>
        <time>2011-02-06T09:18:13Z</time>
      </trkpt>
      <trkpt lat="43.63589" lon="3.71756">
        <ele>154.1</ele>
        <time>2011-02-06T09:18:15Z</time>
      </trkpt>
      <trkpt lat="43.63587" lon="3.71754">
        <ele>153.9</ele>
        <time>2011-02-06T09:18:16Z</time>
      </trkpt>
      <trkpt lat="43.63575" lon="3.71745">
        <ele>155</ele>
        <time>2011-02-06T09:18:21Z</time>
      </trkpt>
      <trkpt lat="43.63568" lon="3.7174">
        <ele>155.4</ele>
        <time>2011-02-06T09:18:24Z</time>
      </trkpt>
      <trkpt lat="43.63561" lon="3.71736">
        <ele>155.8</ele>
        <time>2011-02-06T09:18:27Z</time>
      </trkpt>
      <trkpt lat="43.63554" lon="3.71732">
        <ele>156.6</ele>
        <time>2011-02-06T09:18:30Z</time>
      </trkpt>
      <trkpt lat="43.63546" lon="3.7173">
        <ele>156.8</ele>
        <time>2011-02-06T09:18:33Z</time>
      </trkpt>
      <trkpt lat="43.63544" lon="3.71719">
        <ele>158</ele>
        <time>2011-02-06T09:18:38Z</time>
      </trkpt>
      <trkpt lat="43.63547" lon="3.71709">
        <ele>157.8</ele>
        <time>2011-02-06T09:18:44Z</time>
      </trkpt>
      <trkpt lat="43.63549" lon="3.71698">
        <ele>157.9</ele>
        <time>2011-02-06T09:18:49Z</time>
      </trkpt>
      <trkpt lat="43.63551" lon="3.71688">
        <ele>157.5</ele>
        <time>2011-02-06T09:18:53Z</time>
      </trkpt>
      <trkpt lat="43.63554" lon="3.71678">
        <ele>158.2</ele>
        <time>2011-02-06T09:18:57Z</time>
      </trkpt>
      <trkpt lat="43.63557" lon="3.71666">
        <ele>158.7</ele>
        <time>2011-02-06T09:19:01Z</time>
      </trkpt>
      <trkpt lat="43.6356" lon="3.71658">
        <ele>158.7</ele>
        <time>2011-02-06T09:19:04Z</time>
      </trkpt>
      <trkpt lat="43.63562" lon="3.71648">
        <ele>158.4</ele>
        <time>2011-02-06T09:19:07Z</time>
      </trkpt>
      <trkpt lat="43.63565" lon="3.71639">
        <ele>159.2</ele>
        <time>2011-02-06T09:19:10Z</time>
      </trkpt>
      <trkpt lat="43.63568" lon="3.71629">
        <ele>159.1</ele>
        <time>2011-02-06T09:19:13Z</time>
      </trkpt>
      <trkpt lat="43.63571" lon="3.71618">
        <ele>159</ele>
        <time>2011-02-06T09:19:16Z</time>
      </trkpt>
      <trkpt lat="43.63573" lon="3.71615">
        <ele>159.1</ele>
        <time>2011-02-06T09:19:17Z</time>
      </trkpt>
      <trkpt lat="43.63577" lon="3.71599">
        <ele>158.7</ele>
        <time>2011-02-06T09:19:21Z</time>
      </trkpt>
      <trkpt lat="43.6358" lon="3.71592">
        <ele>158.8</ele>
        <time>2011-02-06T09:19:23Z</time>
      </trkpt>
      <trkpt lat="43.63583" lon="3.71584">
        <ele>158.7</ele>
        <time>2011-02-06T09:19:25Z</time>
      </trkpt>
      <trkpt lat="43.63587" lon="3.71576">
        <ele>158.5</ele>
        <time>2011-02-06T09:19:27Z</time>
      </trkpt>
      <trkpt lat="43.63591" lon="3.71569">
        <ele>158.3</ele>
        <time>2011-02-06T09:19:29Z</time>
      </trkpt>
      <trkpt lat="43.63595" lon="3.71562">
        <ele>158.2</ele>
        <time>2011-02-06T09:19:31Z</time>
      </trkpt>
      <trkpt lat="43.636" lon="3.71554">
        <ele>158.5</ele>
        <time>2011-02-06T09:19:33Z</time>
      </trkpt>
      <trkpt lat="43.63605" lon="3.71547">
        <ele>158.6</ele>
        <time>2011-02-06T09:19:35Z</time>
      </trkpt>
      <trkpt lat="43.6361" lon="3.71538">
        <ele>158.5</ele>
        <time>2011-02-06T09:19:37Z</time>
      </trkpt>
      <trkpt lat="43.63615" lon="3.7153">
        <ele>157.2</ele>
        <time>2011-02-06T09:19:39Z</time>
      </trkpt>
      <trkpt lat="43.63621" lon="3.7152">
        <ele>156.4</ele>
        <time>2011-02-06T09:19:41Z</time>
      </trkpt>
      <trkpt lat="43.63624" lon="3.71515">
        <ele>156.1</ele>
        <time>2011-02-06T09:19:42Z</time>
      </trkpt>
      <trkpt lat="43.63626" lon="3.7151">
        <ele>155.8</ele>
        <time>2011-02-06T09:19:43Z</time>
      </trkpt>
      <trkpt lat="43.63629" lon="3.71505">
        <ele>155.8</ele>
        <time>2011-02-06T09:19:44Z</time>
      </trkpt>
      <trkpt lat="43.63632" lon="3.715">
        <ele>155.8</ele>
        <time>2011-02-06T09:19:45Z</time>
      </trkpt>
      <trkpt lat="43.63635" lon="3.71495">
        <ele>155.8</ele>
        <time>2011-02-06T09:19:46Z</time>
      </trkpt>
      <trkpt lat="43.63638" lon="3.7149">
        <ele>155.5</ele>
        <time>2011-02-06T09:19:47Z</time>
      </trkpt>
      <trkpt lat="43.63641" lon="3.71485">
        <ele>155.4</ele>
        <time>2011-02-06T09:19:48Z</time>
      </trkpt>
      <trkpt lat="43.63645" lon="3.7148">
        <ele>155.3</ele>
        <time>2011-02-06T09:19:49Z</time>
      </trkpt>
      <trkpt lat="43.63649" lon="3.71475">
        <ele>155.2</ele>
        <time>2011-02-06T09:19:50Z</time>
      </trkpt>
      <trkpt lat="43.63653" lon="3.71471">
        <ele>154.6</ele>
        <time>2011-02-06T09:19:51Z</time>
      </trkpt>
      <trkpt lat="43.63657" lon="3.71466">
        <ele>154.2</ele>
        <time>2011-02-06T09:19:52Z</time>
      </trkpt>
      <trkpt lat="43.6366" lon="3.71461">
        <ele>153.9</ele>
        <time>2011-02-06T09:19:53Z</time>
      </trkpt>
      <trkpt lat="43.63663" lon="3.71456">
        <ele>153.8</ele>
        <time>2011-02-06T09:19:54Z</time>
      </trkpt>
      <trkpt lat="43.63666" lon="3.71451">
        <ele>153.7</ele>
        <time>2011-02-06T09:19:55Z</time>
      </trkpt>
      <trkpt lat="43.63669" lon="3.71446">
        <ele>153.6</ele>
        <time>2011-02-06T09:19:56Z</time>
      </trkpt>
      <trkpt lat="43.63672" lon="3.71441">
        <ele>153.4</ele>
        <time>2011-02-06T09:19:57Z</time>
      </trkpt>
      <trkpt lat="43.63675" lon="3.71436">
        <ele>153.2</ele>
        <time>2011-02-06T09:19:58Z</time>
      </trkpt>
      <trkpt lat="43.6368" lon="3.71427">
        <ele>152.8</ele>
        <time>2011-02-06T09:20:00Z</time>
      </trkpt>
      <trkpt lat="43.63686" lon="3.71418">
        <ele>152.6</ele>
        <time>2011-02-06T09:20:02Z</time>
      </trkpt>
      <trkpt lat="43.63691" lon="3.71409">
        <ele>152.9</ele>
        <time>2011-02-06T09:20:04Z</time>
      </trkpt>
      <trkpt lat="43.63696" lon="3.71399">
        <ele>153.1</ele>
        <time>2011-02-06T09:20:06Z</time>
      </trkpt>
      <trkpt lat="43.63697" lon="3.71389">
        <ele>153.5</ele>
        <time>2011-02-06T09:20:08Z</time>
      </trkpt>
      <trkpt lat="43.63695" lon="3.71377">
        <ele>153.3</ele>
        <time>2011-02-06T09:20:11Z</time>
      </trkpt>
      <trkpt lat="43.63695" lon="3.71369">
        <ele>153.5</ele>
        <time>2011-02-06T09:20:13Z</time>
      </trkpt>
      <trkpt lat="43.63696" lon="3.71358">
        <ele>154.5</ele>
        <time>2011-02-06T09:20:16Z</time>
      </trkpt>
      <trkpt lat="43.63696" lon="3.71346">
        <ele>156</ele>
        <time>2011-02-06T09:20:19Z</time>
      </trkpt>
      <trkpt lat="43.63695" lon="3.71342">
        <ele>156.3</ele>
        <time>2011-02-06T09:20:20Z</time>
      </trkpt>
      <trkpt lat="43.6369" lon="3.71326">
        <ele>157</ele>
        <time>2011-02-06T09:20:25Z</time>
      </trkpt>
      <trkpt lat="43.63684" lon="3.7132">
        <ele>157.6</ele>
        <time>2011-02-06T09:20:28Z</time>
      </trkpt>
      <trkpt lat="43.63679" lon="3.71314">
        <ele>157.5</ele>
        <time>2011-02-06T09:20:31Z</time>
      </trkpt>
      <trkpt lat="43.63671" lon="3.71307">
        <ele>157.7</ele>
        <time>2011-02-06T09:20:35Z</time>
      </trkpt>
      <trkpt lat="43.63666" lon="3.713">
        <ele>158</ele>
        <time>2011-02-06T09:20:38Z</time>
      </trkpt>
      <trkpt lat="43.63664" lon="3.7129">
        <ele>159</ele>
        <time>2011-02-06T09:20:41Z</time>
      </trkpt>
      <trkpt lat="43.63661" lon="3.7128">
        <ele>159.2</ele>
        <time>2011-02-06T09:20:44Z</time>
      </trkpt>
      <trkpt lat="43.63658" lon="3.71271">
        <ele>158.4</ele>
        <time>2011-02-06T09:20:47Z</time>
      </trkpt>
      <trkpt lat="43.63654" lon="3.71262">
        <ele>159.3</ele>
        <time>2011-02-06T09:20:50Z</time>
      </trkpt>
      <trkpt lat="43.63649" lon="3.71256">
        <ele>158.8</ele>
        <time>2011-02-06T09:20:53Z</time>
      </trkpt>
      <trkpt lat="43.63642" lon="3.71257">
        <ele>158.6</ele>
        <time>2011-02-06T09:20:56Z</time>
      </trkpt>
      <trkpt lat="43.63635" lon="3.71258">
        <ele>159.1</ele>
        <time>2011-02-06T09:20:59Z</time>
      </trkpt>
      <trkpt lat="43.63628" lon="3.71255">
        <ele>159.8</ele>
        <time>2011-02-06T09:21:02Z</time>
      </trkpt>
      <trkpt lat="43.63622" lon="3.71248">
        <ele>159.4</ele>
        <time>2011-02-06T09:21:06Z</time>
      </trkpt>
      <trkpt lat="43.63618" lon="3.71239">
        <ele>159.6</ele>
        <time>2011-02-06T09:21:10Z</time>
      </trkpt>
      <trkpt lat="43.63614" lon="3.71228">
        <ele>160.2</ele>
        <time>2011-02-06T09:21:16Z</time>
      </trkpt>
      <trkpt lat="43.63608" lon="3.71219">
        <ele>159.9</ele>
        <time>2011-02-06T09:21:20Z</time>
      </trkpt>
      <trkpt lat="43.63606" lon="3.71217">
        <ele>160</ele>
        <time>2011-02-06T09:21:21Z</time>
      </trkpt>
      <trkpt lat="43.63596" lon="3.71206">
        <ele>160.1</ele>
        <time>2011-02-06T09:21:29Z</time>
      </trkpt>
      <trkpt lat="43.63597" lon="3.71195">
        <ele>160.2</ele>
        <time>2011-02-06T09:21:33Z</time>
      </trkpt>
      <trkpt lat="43.63601" lon="3.71185">
        <ele>160.8</ele>
        <time>2011-02-06T09:21:36Z</time>
      </trkpt>
      <trkpt lat="43.63605" lon="3.71176">
        <ele>160.6</ele>
        <time>2011-02-06T09:21:41Z</time>
      </trkpt>
      <trkpt lat="43.63614" lon="3.71171">
        <ele>161.4</ele>
        <time>2011-02-06T09:21:52Z</time>
      </trkpt>
      <trkpt lat="43.63616" lon="3.7116">
        <ele>161.6</ele>
        <time>2011-02-06T09:22:01Z</time>
      </trkpt>
      <trkpt lat="43.63615" lon="3.71148">
        <ele>162</ele>
        <time>2011-02-06T09:22:06Z</time>
      </trkpt>
      <trkpt lat="43.63615" lon="3.71136">
        <ele>162.3</ele>
        <time>2011-02-06T09:22:12Z</time>
      </trkpt>
      <trkpt lat="43.63617" lon="3.71148">
        <ele>162.4</ele>
        <time>2011-02-06T09:22:25Z</time>
      </trkpt>
      <trkpt lat="43.63617" lon="3.71151">
        <ele>162.1</ele>
        <time>2011-02-06T09:22:26Z</time>
      </trkpt>
      <trkpt lat="43.63619" lon="3.71169">
        <ele>161.3</ele>
        <time>2011-02-06T09:22:31Z</time>
      </trkpt>
      <trkpt lat="43.63621" lon="3.7118">
        <ele>161.5</ele>
        <time>2011-02-06T09:22:34Z</time>
      </trkpt>
      <trkpt lat="43.63623" lon="3.71189">
        <ele>161.7</ele>
        <time>2011-02-06T09:22:36Z</time>
      </trkpt>
      <trkpt lat="43.63631" lon="3.71187">
        <ele>161.4</ele>
        <time>2011-02-06T09:22:42Z</time>
      </trkpt>
      <trkpt lat="43.63635" lon="3.71179">
        <ele>161.1</ele>
        <time>2011-02-06T09:22:45Z</time>
      </trkpt>
      <trkpt lat="43.63639" lon="3.71174">
        <ele>161.6</ele>
        <time>2011-02-06T09:22:47Z</time>
      </trkpt>
      <trkpt lat="43.63644" lon="3.71168">
        <ele>161.3</ele>
        <time>2011-02-06T09:22:49Z</time>
      </trkpt>
      <trkpt lat="43.63651" lon="3.71162">
        <ele>160.8</ele>
        <time>2011-02-06T09:22:51Z</time>
      </trkpt>
      <trkpt lat="43.63657" lon="3.71157">
        <ele>160.1</ele>
        <time>2011-02-06T09:22:53Z</time>
      </trkpt>
      <trkpt lat="43.63661" lon="3.71148">
        <ele>159.3</ele>
        <time>2011-02-06T09:22:55Z</time>
      </trkpt>
      <trkpt lat="43.63662" lon="3.71137">
        <ele>159.9</ele>
        <time>2011-02-06T09:22:57Z</time>
      </trkpt>
      <trkpt lat="43.63664" lon="3.71127">
        <ele>159.6</ele>
        <time>2011-02-06T09:22:59Z</time>
      </trkpt>
      <trkpt lat="43.63667" lon="3.71117">
        <ele>159</ele>
        <time>2011-02-06T09:23:01Z</time>
      </trkpt>
      <trkpt lat="43.63671" lon="3.71106">
        <ele>158</ele>
        <time>2011-02-06T09:23:03Z</time>
      </trkpt>
      <trkpt lat="43.63675" lon="3.71096">
        <ele>157.7</ele>
        <time>2011-02-06T09:23:05Z</time>
      </trkpt>
      <trkpt lat="43.63677" lon="3.7109">
        <ele>157.8</ele>
        <time>2011-02-06T09:23:06Z</time>
      </trkpt>
      <trkpt lat="43.63678" lon="3.71084">
        <ele>157.8</ele>
        <time>2011-02-06T09:23:07Z</time>
      </trkpt>
      <trkpt lat="43.6368" lon="3.71078">
        <ele>157.9</ele>
        <time>2011-02-06T09:23:08Z</time>
      </trkpt>
      <trkpt lat="43.63682" lon="3.71072">
        <ele>157.3</ele>
        <time>2011-02-06T09:23:09Z</time>
      </trkpt>
      <trkpt lat="43.63684" lon="3.71066">
        <ele>156.9</ele>
        <time>2011-02-06T09:23:10Z</time>
      </trkpt>
      <trkpt lat="43.63687" lon="3.7106">
        <ele>156.6</ele>
        <time>2011-02-06T09:23:11Z</time>
      </trkpt>
      <trkpt lat="43.63689" lon="3.71054">
        <ele>156.6</ele>
        <time>2011-02-06T09:23:12Z</time>
      </trkpt>
      <trkpt lat="43.63692" lon="3.71048">
        <ele>156.6</ele>
        <time>2011-02-06T09:23:13Z</time>
      </trkpt>
      <trkpt lat="43.63696" lon="3.71042">
        <ele>156.6</ele>
        <time>2011-02-06T09:23:14Z</time>
      </trkpt>
      <trkpt lat="43.63699" lon="3.71035">
        <ele>155.9</ele>
        <time>2011-02-06T09:23:15Z</time>
      </trkpt>
      <trkpt lat="43.63703" lon="3.71029">
        <ele>155.4</ele>
        <time>2011-02-06T09:23:16Z</time>
      </trkpt>
      <trkpt lat="43.63705" lon="3.71022">
        <ele>155.1</ele>
        <time>2011-02-06T09:23:17Z</time>
      </trkpt>
      <trkpt lat="43.63706" lon="3.71014">
        <ele>153.9</ele>
        <time>2011-02-06T09:23:18Z</time>
      </trkpt>
      <trkpt lat="43.63706" lon="3.71007">
        <ele>153</ele>
        <time>2011-02-06T09:23:19Z</time>
      </trkpt>
      <trkpt lat="43.63705" lon="3.70999">
        <ele>152.4</ele>
        <time>2011-02-06T09:23:20Z</time>
      </trkpt>
      <trkpt lat="43.63704" lon="3.70992">
        <ele>151.7</ele>
        <time>2011-02-06T09:23:21Z</time>
      </trkpt>
      <trkpt lat="43.63703" lon="3.70985">
        <ele>151.2</ele>
        <time>2011-02-06T09:23:22Z</time>
      </trkpt>
      <trkpt lat="43.63703" lon="3.70979">
        <ele>150.8</ele>
        <time>2011-02-06T09:23:23Z</time>
      </trkpt>
      <trkpt lat="43.63704" lon="3.70973">
        <ele>150.5</ele>
        <time>2011-02-06T09:23:24Z</time>
      </trkpt>
      <trkpt lat="43.63707" lon="3.70961">
        <ele>149.8</ele>
        <time>2011-02-06T09:23:26Z</time>
      </trkpt>
      <trkpt lat="43.63708" lon="3.70956">
        <ele>149.5</ele>
        <time>2011-02-06T09:23:27Z</time>
      </trkpt>
      <trkpt lat="43.63713" lon="3.70943">
        <ele>148.9</ele>
        <time>2011-02-06T09:23:31Z</time>
      </trkpt>
      <trkpt lat="43.63715" lon="3.70931">
        <ele>148.2</ele>
        <time>2011-02-06T09:23:34Z</time>
      </trkpt>
      <trkpt lat="43.63716" lon="3.7092">
        <ele>147.7</ele>
        <time>2011-02-06T09:23:36Z</time>
      </trkpt>
      <trkpt lat="43.63716" lon="3.70908">
        <ele>147.2</ele>
        <time>2011-02-06T09:23:38Z</time>
      </trkpt>
      <trkpt lat="43.63716" lon="3.70901">
        <ele>147</ele>
        <time>2011-02-06T09:23:39Z</time>
      </trkpt>
      <trkpt lat="43.63716" lon="3.70895">
        <ele>146.5</ele>
        <time>2011-02-06T09:23:40Z</time>
      </trkpt>
      <trkpt lat="43.63717" lon="3.70888">
        <ele>146.1</ele>
        <time>2011-02-06T09:23:41Z</time>
      </trkpt>
      <trkpt lat="43.63719" lon="3.70882">
        <ele>145.8</ele>
        <time>2011-02-06T09:23:42Z</time>
      </trkpt>
      <trkpt lat="43.6372" lon="3.70876">
        <ele>145.5</ele>
        <time>2011-02-06T09:23:43Z</time>
      </trkpt>
      <trkpt lat="43.63722" lon="3.70869">
        <ele>145.2</ele>
        <time>2011-02-06T09:23:44Z</time>
      </trkpt>
      <trkpt lat="43.63724" lon="3.70863">
        <ele>145</ele>
        <time>2011-02-06T09:23:45Z</time>
      </trkpt>
      <trkpt lat="43.63725" lon="3.70856">
        <ele>144.9</ele>
        <time>2011-02-06T09:23:46Z</time>
      </trkpt>
      <trkpt lat="43.63726" lon="3.70849">
        <ele>145</ele>
        <time>2011-02-06T09:23:47Z</time>
      </trkpt>
      <trkpt lat="43.63728" lon="3.70843">
        <ele>145</ele>
        <time>2011-02-06T09:23:48Z</time>
      </trkpt>
      <trkpt lat="43.63729" lon="3.70836">
        <ele>145.1</ele>
        <time>2011-02-06T09:23:49Z</time>
      </trkpt>
      <trkpt lat="43.6373" lon="3.7083">
        <ele>144.7</ele>
        <time>2011-02-06T09:23:50Z</time>
      </trkpt>
      <trkpt lat="43.63731" lon="3.70823">
        <ele>144.3</ele>
        <time>2011-02-06T09:23:51Z</time>
      </trkpt>
      <trkpt lat="43.63732" lon="3.70816">
        <ele>144.1</ele>
        <time>2011-02-06T09:23:52Z</time>
      </trkpt>
      <trkpt lat="43.63733" lon="3.7081">
        <ele>144.3</ele>
        <time>2011-02-06T09:23:53Z</time>
      </trkpt>
      <trkpt lat="43.63734" lon="3.70803">
        <ele>144.4</ele>
        <time>2011-02-06T09:23:54Z</time>
      </trkpt>
      <trkpt lat="43.63735" lon="3.70797">
        <ele>144.5</ele>
        <time>2011-02-06T09:23:55Z</time>
      </trkpt>
      <trkpt lat="43.63735" lon="3.7079">
        <ele>144.3</ele>
        <time>2011-02-06T09:23:56Z</time>
      </trkpt>
      <trkpt lat="43.63736" lon="3.70784">
        <ele>144.2</ele>
        <time>2011-02-06T09:23:57Z</time>
      </trkpt>
      <trkpt lat="43.63737" lon="3.70777">
        <ele>144</ele>
        <time>2011-02-06T09:23:58Z</time>
      </trkpt>
      <trkpt lat="43.63738" lon="3.70771">
        <ele>143.9</ele>
        <time>2011-02-06T09:23:59Z</time>
      </trkpt>
      <trkpt lat="43.63738" lon="3.70764">
        <ele>143.8</ele>
        <time>2011-02-06T09:24:00Z</time>
      </trkpt>
      <trkpt lat="43.63736" lon="3.70752">
        <ele>143.5</ele>
        <time>2011-02-06T09:24:02Z</time>
      </trkpt>
      <trkpt lat="43.63734" lon="3.70742">
        <ele>144</ele>
        <time>2011-02-06T09:24:04Z</time>
      </trkpt>
      <trkpt lat="43.63736" lon="3.70731">
        <ele>144.4</ele>
        <time>2011-02-06T09:24:06Z</time>
      </trkpt>
      <trkpt lat="43.63741" lon="3.70725">
        <ele>144.7</ele>
        <time>2011-02-06T09:24:08Z</time>
      </trkpt>
      <trkpt lat="43.63747" lon="3.7072">
        <ele>144.5</ele>
        <time>2011-02-06T09:24:10Z</time>
      </trkpt>
      <trkpt lat="43.63752" lon="3.70712">
        <ele>144.1</ele>
        <time>2011-02-06T09:24:12Z</time>
      </trkpt>
      <trkpt lat="43.63758" lon="3.70705">
        <ele>143.6</ele>
        <time>2011-02-06T09:24:14Z</time>
      </trkpt>
      <trkpt lat="43.63763" lon="3.70695">
        <ele>143.2</ele>
        <time>2011-02-06T09:24:16Z</time>
      </trkpt>
      <trkpt lat="43.63765" lon="3.70684">
        <ele>142.9</ele>
        <time>2011-02-06T09:24:18Z</time>
      </trkpt>
      <trkpt lat="43.63766" lon="3.70673">
        <ele>142.6</ele>
        <time>2011-02-06T09:24:20Z</time>
      </trkpt>
      <trkpt lat="43.63767" lon="3.70661">
        <ele>142.7</ele>
        <time>2011-02-06T09:24:22Z</time>
      </trkpt>
      <trkpt lat="43.63767" lon="3.7065">
        <ele>142.9</ele>
        <time>2011-02-06T09:24:24Z</time>
      </trkpt>
      <trkpt lat="43.63768" lon="3.70637">
        <ele>142.6</ele>
        <time>2011-02-06T09:24:26Z</time>
      </trkpt>
      <trkpt lat="43.63769" lon="3.70631">
        <ele>142.5</ele>
        <time>2011-02-06T09:24:27Z</time>
      </trkpt>
      <trkpt lat="43.6377" lon="3.70625">
        <ele>142.4</ele>
        <time>2011-02-06T09:24:28Z</time>
      </trkpt>
      <trkpt lat="43.63771" lon="3.70618">
        <ele>142.4</ele>
        <time>2011-02-06T09:24:29Z</time>
      </trkpt>
      <trkpt lat="43.63772" lon="3.70611">
        <ele>142.3</ele>
        <time>2011-02-06T09:24:30Z</time>
      </trkpt>
      <trkpt lat="43.63773" lon="3.70603">
        <ele>142.3</ele>
        <time>2011-02-06T09:24:31Z</time>
      </trkpt>
      <trkpt lat="43.63774" lon="3.70596">
        <ele>142</ele>
        <time>2011-02-06T09:24:32Z</time>
      </trkpt>
      <trkpt lat="43.63775" lon="3.70589">
        <ele>141.9</ele>
        <time>2011-02-06T09:24:33Z</time>
      </trkpt>
      <trkpt lat="43.63776" lon="3.70581">
        <ele>141.7</ele>
        <time>2011-02-06T09:24:34Z</time>
      </trkpt>
      <trkpt lat="43.63777" lon="3.70574">
        <ele>141.7</ele>
        <time>2011-02-06T09:24:35Z</time>
      </trkpt>
      <trkpt lat="43.63779" lon="3.70567">
        <ele>141.6</ele>
        <time>2011-02-06T09:24:36Z</time>
      </trkpt>
      <trkpt lat="43.63781" lon="3.70559">
        <ele>141.6</ele>
        <time>2011-02-06T09:24:37Z</time>
      </trkpt>
      <trkpt lat="43.63782" lon="3.70552">
        <ele>141.5</ele>
        <time>2011-02-06T09:24:38Z</time>
      </trkpt>
      <trkpt lat="43.63786" lon="3.70545">
        <ele>141.5</ele>
        <time>2011-02-06T09:24:39Z</time>
      </trkpt>
      <trkpt lat="43.63789" lon="3.70538">
        <ele>141.5</ele>
        <time>2011-02-06T09:24:40Z</time>
      </trkpt>
      <trkpt lat="43.63793" lon="3.70531">
        <ele>141</ele>
        <time>2011-02-06T09:24:41Z</time>
      </trkpt>
      <trkpt lat="43.63797" lon="3.70523">
        <ele>140.7</ele>
        <time>2011-02-06T09:24:42Z</time>
      </trkpt>
      <trkpt lat="43.638" lon="3.70516">
        <ele>140.4</ele>
        <time>2011-02-06T09:24:43Z</time>
      </trkpt>
      <trkpt lat="43.63803" lon="3.70508">
        <ele>139.9</ele>
        <time>2011-02-06T09:24:44Z</time>
      </trkpt>
      <trkpt lat="43.63806" lon="3.705">
        <ele>139.6</ele>
        <time>2011-02-06T09:24:45Z</time>
      </trkpt>
      <trkpt lat="43.6381" lon="3.70494">
        <ele>139.4</ele>
        <time>2011-02-06T09:24:46Z</time>
      </trkpt>
      <trkpt lat="43.63818" lon="3.7049">
        <ele>139.2</ele>
        <time>2011-02-06T09:24:48Z</time>
      </trkpt>
      <trkpt lat="43.63822" lon="3.70492">
        <ele>139.2</ele>
        <time>2011-02-06T09:24:49Z</time>
      </trkpt>
      <trkpt lat="43.63826" lon="3.70495">
        <ele>139.1</ele>
        <time>2011-02-06T09:24:50Z</time>
      </trkpt>
      <trkpt lat="43.63831" lon="3.70499">
        <ele>139.3</ele>
        <time>2011-02-06T09:24:51Z</time>
      </trkpt>
      <trkpt lat="43.63836" lon="3.70502">
        <ele>139.4</ele>
        <time>2011-02-06T09:24:52Z</time>
      </trkpt>
      <trkpt lat="43.63841" lon="3.70506">
        <ele>139.5</ele>
        <time>2011-02-06T09:24:53Z</time>
      </trkpt>
      <trkpt lat="43.63846" lon="3.70509">
        <ele>139</ele>
        <time>2011-02-06T09:24:54Z</time>
      </trkpt>
      <trkpt lat="43.63851" lon="3.70513">
        <ele>138.6</ele>
        <time>2011-02-06T09:24:55Z</time>
      </trkpt>
      <trkpt lat="43.63857" lon="3.70516">
        <ele>138.3</ele>
        <time>2011-02-06T09:24:56Z</time>
      </trkpt>
      <trkpt lat="43.63863" lon="3.70519">
        <ele>137.9</ele>
        <time>2011-02-06T09:24:57Z</time>
      </trkpt>
      <trkpt lat="43.63869" lon="3.70521">
        <ele>137.5</ele>
        <time>2011-02-06T09:24:58Z</time>
      </trkpt>
      <trkpt lat="43.63876" lon="3.70522">
        <ele>137.3</ele>
        <time>2011-02-06T09:24:59Z</time>
      </trkpt>
      <trkpt lat="43.63883" lon="3.70524">
        <ele>137.1</ele>
        <time>2011-02-06T09:25:00Z</time>
      </trkpt>
      <trkpt lat="43.63889" lon="3.70527">
        <ele>136.9</ele>
        <time>2011-02-06T09:25:01Z</time>
      </trkpt>
      <trkpt lat="43.63895" lon="3.7053">
        <ele>136.8</ele>
        <time>2011-02-06T09:25:02Z</time>
      </trkpt>
      <trkpt lat="43.63904" lon="3.70529">
        <ele>137.2</ele>
        <time>2011-02-06T09:25:04Z</time>
      </trkpt>
      <trkpt lat="43.63907" lon="3.7052">
        <ele>137.5</ele>
        <time>2011-02-06T09:25:06Z</time>
      </trkpt>
      <trkpt lat="43.63909" lon="3.70511">
        <ele>137.7</ele>
        <time>2011-02-06T09:25:08Z</time>
      </trkpt>
      <trkpt lat="43.6391" lon="3.70501">
        <ele>137.7</ele>
        <time>2011-02-06T09:25:10Z</time>
      </trkpt>
      <trkpt lat="43.63912" lon="3.70493">
        <ele>137.6</ele>
        <time>2011-02-06T09:25:12Z</time>
      </trkpt>
      <trkpt lat="43.63916" lon="3.70482">
        <ele>137.7</ele>
        <time>2011-02-06T09:25:15Z</time>
      </trkpt>
      <trkpt lat="43.63919" lon="3.7047">
        <ele>138.5</ele>
        <time>2011-02-06T09:25:18Z</time>
      </trkpt>
      <trkpt lat="43.63921" lon="3.70462">
        <ele>137.1</ele>
        <time>2011-02-06T09:25:20Z</time>
      </trkpt>
      <trkpt lat="43.63924" lon="3.70453">
        <ele>136.2</ele>
        <time>2011-02-06T09:25:22Z</time>
      </trkpt>
      <trkpt lat="43.63927" lon="3.70443">
        <ele>136.3</ele>
        <time>2011-02-06T09:25:25Z</time>
      </trkpt>
      <trkpt lat="43.63931" lon="3.70432">
        <ele>136.7</ele>
        <time>2011-02-06T09:25:32Z</time>
      </trkpt>
      <trkpt lat="43.63931" lon="3.70431">
        <ele>136.7</ele>
        <time>2011-02-06T09:25:33Z</time>
      </trkpt>
      <trkpt lat="43.63939" lon="3.70412">
        <ele>136.6</ele>
        <time>2011-02-06T09:25:43Z</time>
      </trkpt>
      <trkpt lat="43.63944" lon="3.70403">
        <ele>136.6</ele>
        <time>2011-02-06T09:25:48Z</time>
      </trkpt>
      <trkpt lat="43.63951" lon="3.70397">
        <ele>137.1</ele>
        <time>2011-02-06T09:26:09Z</time>
      </trkpt>
      <trkpt lat="43.63952" lon="3.70387">
        <ele>137.4</ele>
        <time>2011-02-06T09:26:15Z</time>
      </trkpt>
      <trkpt lat="43.63954" lon="3.70375">
        <ele>135.9</ele>
        <time>2011-02-06T09:26:19Z</time>
      </trkpt>
      <trkpt lat="43.63959" lon="3.70364">
        <ele>135.1</ele>
        <time>2011-02-06T09:26:22Z</time>
      </trkpt>
      <trkpt lat="43.63962" lon="3.70353">
        <ele>134.3</ele>
        <time>2011-02-06T09:26:25Z</time>
      </trkpt>
      <trkpt lat="43.63964" lon="3.70342">
        <ele>134.1</ele>
        <time>2011-02-06T09:26:28Z</time>
      </trkpt>
      <trkpt lat="43.63967" lon="3.70331">
        <ele>133.7</ele>
        <time>2011-02-06T09:26:31Z</time>
      </trkpt>
      <trkpt lat="43.63971" lon="3.70324">
        <ele>133.2</ele>
        <time>2011-02-06T09:26:34Z</time>
      </trkpt>
      <trkpt lat="43.63973" lon="3.70321">
        <ele>133.1</ele>
        <time>2011-02-06T09:26:35Z</time>
      </trkpt>
      <trkpt lat="43.63985" lon="3.7031">
        <ele>132</ele>
        <time>2011-02-06T09:26:40Z</time>
      </trkpt>
      <trkpt lat="43.63989" lon="3.70303">
        <ele>132.1</ele>
        <time>2011-02-06T09:26:42Z</time>
      </trkpt>
      <trkpt lat="43.63992" lon="3.70296">
        <ele>132.1</ele>
        <time>2011-02-06T09:26:44Z</time>
      </trkpt>
      <trkpt lat="43.63995" lon="3.70288">
        <ele>131.9</ele>
        <time>2011-02-06T09:26:46Z</time>
      </trkpt>
      <trkpt lat="43.64" lon="3.70277">
        <ele>130.9</ele>
        <time>2011-02-06T09:26:51Z</time>
      </trkpt>
      <trkpt lat="43.64007" lon="3.70273">
        <ele>131.4</ele>
        <time>2011-02-06T09:27:17Z</time>
      </trkpt>
      <trkpt lat="43.64013" lon="3.70264">
        <ele>132.2</ele>
        <time>2011-02-06T09:27:28Z</time>
      </trkpt>
      <trkpt lat="43.64017" lon="3.70253">
        <ele>130.9</ele>
        <time>2011-02-06T09:27:37Z</time>
      </trkpt>
      <trkpt lat="43.64018" lon="3.70253">
        <ele>130.9</ele>
        <time>2011-02-06T09:27:38Z</time>
      </trkpt>
      <trkpt lat="43.64022" lon="3.70234">
        <ele>128.2</ele>
        <time>2011-02-06T09:27:57Z</time>
      </trkpt>
      <trkpt lat="43.64021" lon="3.70222">
        <ele>125.1</ele>
        <time>2011-02-06T09:28:15Z</time>
      </trkpt>
      <trkpt lat="43.64019" lon="3.7021">
        <ele>125.7</ele>
        <time>2011-02-06T09:28:56Z</time>
      </trkpt>
      <trkpt lat="43.6402" lon="3.70208">
        <ele>125.9</ele>
        <time>2011-02-06T09:28:57Z</time>
      </trkpt>
      <trkpt lat="43.64027" lon="3.70192">
        <ele>125.5</ele>
        <time>2011-02-06T09:29:02Z</time>
      </trkpt>
      <trkpt lat="43.64033" lon="3.70182">
        <ele>125</ele>
        <time>2011-02-06T09:29:06Z</time>
      </trkpt>
      <trkpt lat="43.64039" lon="3.70174">
        <ele>124.7</ele>
        <time>2011-02-06T09:29:09Z</time>
      </trkpt>
      <trkpt lat="43.64036" lon="3.70183">
        <ele>124.2</ele>
        <time>2011-02-06T09:29:29Z</time>
      </trkpt>
      <trkpt lat="43.6403" lon="3.70191">
        <ele>124.3</ele>
        <time>2011-02-06T09:29:34Z</time>
      </trkpt>
      <trkpt lat="43.64025" lon="3.70199">
        <ele>125.3</ele>
        <time>2011-02-06T09:29:39Z</time>
      </trkpt>
      <trkpt lat="43.64019" lon="3.70208">
        <ele>125</ele>
        <time>2011-02-06T09:29:45Z</time>
      </trkpt>
      <trkpt lat="43.64025" lon="3.702">
        <ele>127</ele>
        <time>2011-02-06T09:30:32Z</time>
      </trkpt>
      <trkpt lat="43.64026" lon="3.70198">
        <ele>126.9</ele>
        <time>2011-02-06T09:30:33Z</time>
      </trkpt>
      <trkpt lat="43.64025" lon="3.70177">
        <ele>125.9</ele>
        <time>2011-02-06T09:30:44Z</time>
      </trkpt>
      <trkpt lat="43.6403" lon="3.70171">
        <ele>125.4</ele>
        <time>2011-02-06T09:30:48Z</time>
      </trkpt>
      <trkpt lat="43.64038" lon="3.70165">
        <ele>124.7</ele>
        <time>2011-02-06T09:30:52Z</time>
      </trkpt>
      <trkpt lat="43.6404" lon="3.70153">
        <ele>124.3</ele>
        <time>2011-02-06T09:30:57Z</time>
      </trkpt>
      <trkpt lat="43.64037" lon="3.70143">
        <ele>123.5</ele>
        <time>2011-02-06T09:31:02Z</time>
      </trkpt>
      <trkpt lat="43.64036" lon="3.70132">
        <ele>123.9</ele>
        <time>2011-02-06T09:31:06Z</time>
      </trkpt>
      <trkpt lat="43.64031" lon="3.70122">
        <ele>122.9</ele>
        <time>2011-02-06T09:31:11Z</time>
      </trkpt>
      <trkpt lat="43.64025" lon="3.70113">
        <ele>123.5</ele>
        <time>2011-02-06T09:31:17Z</time>
      </trkpt>
      <trkpt lat="43.6402" lon="3.70104">
        <ele>123.8</ele>
        <time>2011-02-06T09:31:22Z</time>
      </trkpt>
      <trkpt lat="43.64016" lon="3.70095">
        <ele>123.5</ele>
        <time>2011-02-06T09:31:26Z</time>
      </trkpt>
      <trkpt lat="43.64013" lon="3.70086">
        <ele>123.4</ele>
        <time>2011-02-06T09:31:30Z</time>
      </trkpt>
      <trkpt lat="43.64009" lon="3.70078">
        <ele>123.2</ele>
        <time>2011-02-06T09:31:34Z</time>
      </trkpt>
      <trkpt lat="43.64008" lon="3.70075">
        <ele>123.2</ele>
        <time>2011-02-06T09:31:35Z</time>
      </trkpt>
      <trkpt lat="43.63999" lon="3.70058">
        <ele>123.3</ele>
        <time>2011-02-06T09:31:48Z</time>
      </trkpt>
      <trkpt lat="43.63997" lon="3.70048">
        <ele>123.5</ele>
        <time>2011-02-06T09:31:55Z</time>
      </trkpt>
      <trkpt lat="43.63994" lon="3.70037">
        <ele>124.3</ele>
        <time>2011-02-06T09:32:01Z</time>
      </trkpt>
      <trkpt lat="43.6399" lon="3.70028">
        <ele>124.1</ele>
        <time>2011-02-06T09:32:07Z</time>
      </trkpt>
      <trkpt lat="43.63984" lon="3.7002">
        <ele>123.2</ele>
        <time>2011-02-06T09:32:12Z</time>
      </trkpt>
      <trkpt lat="43.63979" lon="3.70012">
        <ele>123.1</ele>
        <time>2011-02-06T09:32:49Z</time>
      </trkpt>
      <trkpt lat="43.63978" lon="3.7001">
        <ele>123.4</ele>
        <time>2011-02-06T09:32:50Z</time>
      </trkpt>
      <trkpt lat="43.63969" lon="3.69994">
        <ele>123.7</ele>
        <time>2011-02-06T09:32:58Z</time>
      </trkpt>
      <trkpt lat="43.63964" lon="3.69987">
        <ele>123.7</ele>
        <time>2011-02-06T09:33:02Z</time>
      </trkpt>
      <trkpt lat="43.63961" lon="3.69977">
        <ele>123.8</ele>
        <time>2011-02-06T09:33:06Z</time>
      </trkpt>
      <trkpt lat="43.63956" lon="3.69969">
        <ele>124</ele>
        <time>2011-02-06T09:33:10Z</time>
      </trkpt>
      <trkpt lat="43.63952" lon="3.69959">
        <ele>125.3</ele>
        <time>2011-02-06T09:33:16Z</time>
      </trkpt>
      <trkpt lat="43.63959" lon="3.69952">
        <ele>124.9</ele>
        <time>2011-02-06T09:33:20Z</time>
      </trkpt>
      <trkpt lat="43.63965" lon="3.69946">
        <ele>123.8</ele>
        <time>2011-02-06T09:33:22Z</time>
      </trkpt>
      <trkpt lat="43.63972" lon="3.69939">
        <ele>122.5</ele>
        <time>2011-02-06T09:33:29Z</time>
      </trkpt>
      <trkpt lat="43.63971" lon="3.69927">
        <ele>123</ele>
        <time>2011-02-06T09:34:58Z</time>
      </trkpt>
      <trkpt lat="43.6397" lon="3.69927">
        <ele>122.8</ele>
        <time>2011-02-06T09:34:59Z</time>
      </trkpt>
      <trkpt lat="43.63955" lon="3.69916">
        <ele>123</ele>
        <time>2011-02-06T09:35:10Z</time>
      </trkpt>
      <trkpt lat="43.63948" lon="3.69912">
        <ele>123.8</ele>
        <time>2011-02-06T09:35:14Z</time>
      </trkpt>
      <trkpt lat="43.6394" lon="3.69909">
        <ele>123.6</ele>
        <time>2011-02-06T09:35:18Z</time>
      </trkpt>
      <trkpt lat="43.63933" lon="3.69902">
        <ele>124</ele>
        <time>2011-02-06T09:35:22Z</time>
      </trkpt>
      <trkpt lat="43.63927" lon="3.69897">
        <ele>123.4</ele>
        <time>2011-02-06T09:35:25Z</time>
      </trkpt>
      <trkpt lat="43.6392" lon="3.6989">
        <ele>125.2</ele>
        <time>2011-02-06T09:35:29Z</time>
      </trkpt>
      <trkpt lat="43.63915" lon="3.69883">
        <ele>124.9</ele>
        <time>2011-02-06T09:35:32Z</time>
      </trkpt>
      <trkpt lat="43.63909" lon="3.69878">
        <ele>125.1</ele>
        <time>2011-02-06T09:35:35Z</time>
      </trkpt>
      <trkpt lat="43.63902" lon="3.69875">
        <ele>125.3</ele>
        <time>2011-02-06T09:35:38Z</time>
      </trkpt>
      <trkpt lat="43.63894" lon="3.6987">
        <ele>126.7</ele>
        <time>2011-02-06T09:35:42Z</time>
      </trkpt>
      <trkpt lat="43.63888" lon="3.69866">
        <ele>126.5</ele>
        <time>2011-02-06T09:35:45Z</time>
      </trkpt>
      <trkpt lat="43.63881" lon="3.69862">
        <ele>126.6</ele>
        <time>2011-02-06T09:35:48Z</time>
      </trkpt>
      <trkpt lat="43.63874" lon="3.69859">
        <ele>127.3</ele>
        <time>2011-02-06T09:35:51Z</time>
      </trkpt>
      <trkpt lat="43.63867" lon="3.69858">
        <ele>128</ele>
        <time>2011-02-06T09:35:54Z</time>
      </trkpt>
      <trkpt lat="43.63859" lon="3.69857">
        <ele>127.6</ele>
        <time>2011-02-06T09:35:57Z</time>
      </trkpt>
      <trkpt lat="43.63852" lon="3.69855">
        <ele>128.5</ele>
        <time>2011-02-06T09:36:00Z</time>
      </trkpt>
      <trkpt lat="43.6385" lon="3.69854">
        <ele>128.7</ele>
        <time>2011-02-06T09:36:01Z</time>
      </trkpt>
      <trkpt lat="43.63838" lon="3.69848">
        <ele>128.9</ele>
        <time>2011-02-06T09:36:06Z</time>
      </trkpt>
      <trkpt lat="43.63833" lon="3.69844">
        <ele>129.5</ele>
        <time>2011-02-06T09:36:09Z</time>
      </trkpt>
      <trkpt lat="43.63826" lon="3.69836">
        <ele>129.9</ele>
        <time>2011-02-06T09:36:12Z</time>
      </trkpt>
      <trkpt lat="43.6382" lon="3.6983">
        <ele>130.6</ele>
        <time>2011-02-06T09:36:15Z</time>
      </trkpt>
      <trkpt lat="43.63814" lon="3.69826">
        <ele>130.7</ele>
        <time>2011-02-06T09:36:18Z</time>
      </trkpt>
      <trkpt lat="43.63807" lon="3.69822">
        <ele>131</ele>
        <time>2011-02-06T09:36:21Z</time>
      </trkpt>
      <trkpt lat="43.63801" lon="3.69818">
        <ele>131.7</ele>
        <time>2011-02-06T09:36:24Z</time>
      </trkpt>
      <trkpt lat="43.63794" lon="3.69815">
        <ele>131.9</ele>
        <time>2011-02-06T09:36:27Z</time>
      </trkpt>
      <trkpt lat="43.63785" lon="3.69813">
        <ele>132.2</ele>
        <time>2011-02-06T09:36:31Z</time>
      </trkpt>
      <trkpt lat="43.63779" lon="3.69812">
        <ele>131.8</ele>
        <time>2011-02-06T09:36:34Z</time>
      </trkpt>
      <trkpt lat="43.63772" lon="3.69814">
        <ele>131.8</ele>
        <time>2011-02-06T09:36:37Z</time>
      </trkpt>
      <trkpt lat="43.63763" lon="3.69816">
        <ele>131.7</ele>
        <time>2011-02-06T09:36:41Z</time>
      </trkpt>
      <trkpt lat="43.63755" lon="3.69818">
        <ele>131.6</ele>
        <time>2011-02-06T09:36:44Z</time>
      </trkpt>
      <trkpt lat="43.63747" lon="3.6982">
        <ele>131.7</ele>
        <time>2011-02-06T09:36:47Z</time>
      </trkpt>
      <trkpt lat="43.63739" lon="3.69817">
        <ele>132</ele>
        <time>2011-02-06T09:36:50Z</time>
      </trkpt>
      <trkpt lat="43.63731" lon="3.69813">
        <ele>132.2</ele>
        <time>2011-02-06T09:36:53Z</time>
      </trkpt>
      <trkpt lat="43.63725" lon="3.69807">
        <ele>133.2</ele>
        <time>2011-02-06T09:36:56Z</time>
      </trkpt>
      <trkpt lat="43.63717" lon="3.69803">
        <ele>133.9</ele>
        <time>2011-02-06T09:36:59Z</time>
      </trkpt>
      <trkpt lat="43.63709" lon="3.69802">
        <ele>134.5</ele>
        <time>2011-02-06T09:37:02Z</time>
      </trkpt>
      <trkpt lat="43.63707" lon="3.69803">
        <ele>134.8</ele>
        <time>2011-02-06T09:37:03Z</time>
      </trkpt>
      <trkpt lat="43.63693" lon="3.69804">
        <ele>135.4</ele>
        <time>2011-02-06T09:37:08Z</time>
      </trkpt>
      <trkpt lat="43.63685" lon="3.69805">
        <ele>136.3</ele>
        <time>2011-02-06T09:37:11Z</time>
      </trkpt>
      <trkpt lat="43.63677" lon="3.69806">
        <ele>136.7</ele>
        <time>2011-02-06T09:37:14Z</time>
      </trkpt>
      <trkpt lat="43.63669" lon="3.69806">
        <ele>137.1</ele>
        <time>2011-02-06T09:37:17Z</time>
      </trkpt>
      <trkpt lat="43.63662" lon="3.69808">
        <ele>138.2</ele>
        <time>2011-02-06T09:37:20Z</time>
      </trkpt>
      <trkpt lat="43.63655" lon="3.69809">
        <ele>138.3</ele>
        <time>2011-02-06T09:37:23Z</time>
      </trkpt>
      <trkpt lat="43.63648" lon="3.6981">
        <ele>139.7</ele>
        <time>2011-02-06T09:37:26Z</time>
      </trkpt>
      <trkpt lat="43.63641" lon="3.6981">
        <ele>140.3</ele>
        <time>2011-02-06T09:37:29Z</time>
      </trkpt>
      <trkpt lat="43.63634" lon="3.69811">
        <ele>140.7</ele>
        <time>2011-02-06T09:37:32Z</time>
      </trkpt>
      <trkpt lat="43.63627" lon="3.69812">
        <ele>140.7</ele>
        <time>2011-02-06T09:37:35Z</time>
      </trkpt>
      <trkpt lat="43.63619" lon="3.69812">
        <ele>140.7</ele>
        <time>2011-02-06T09:37:38Z</time>
      </trkpt>
      <trkpt lat="43.63611" lon="3.69809">
        <ele>141</ele>
        <time>2011-02-06T09:37:41Z</time>
      </trkpt>
      <trkpt lat="43.63602" lon="3.69806">
        <ele>141.7</ele>
        <time>2011-02-06T09:37:44Z</time>
      </trkpt>
      <trkpt lat="43.63596" lon="3.69806">
        <ele>141.6</ele>
        <time>2011-02-06T09:37:46Z</time>
      </trkpt>
      <trkpt lat="43.6359" lon="3.69805">
        <ele>141.3</ele>
        <time>2011-02-06T09:37:48Z</time>
      </trkpt>
      <trkpt lat="43.63581" lon="3.69804">
        <ele>140.7</ele>
        <time>2011-02-06T09:37:51Z</time>
      </trkpt>
      <trkpt lat="43.63572" lon="3.69806">
        <ele>140.7</ele>
        <time>2011-02-06T09:37:54Z</time>
      </trkpt>
      <trkpt lat="43.63566" lon="3.69807">
        <ele>140.9</ele>
        <time>2011-02-06T09:37:56Z</time>
      </trkpt>
      <trkpt lat="43.6356" lon="3.69811">
        <ele>141.1</ele>
        <time>2011-02-06T09:37:58Z</time>
      </trkpt>
      <trkpt lat="43.63553" lon="3.69814">
        <ele>141.1</ele>
        <time>2011-02-06T09:38:00Z</time>
      </trkpt>
      <trkpt lat="43.63547" lon="3.69816">
        <ele>141</ele>
        <time>2011-02-06T09:38:02Z</time>
      </trkpt>
      <trkpt lat="43.6354" lon="3.69816">
        <ele>140.9</ele>
        <time>2011-02-06T09:38:04Z</time>
      </trkpt>
      <trkpt lat="43.63537" lon="3.69817">
        <ele>141.3</ele>
        <time>2011-02-06T09:38:05Z</time>
      </trkpt>
      <trkpt lat="43.63528" lon="3.69821">
        <ele>141.9</ele>
        <time>2011-02-06T09:38:08Z</time>
      </trkpt>
      <trkpt lat="43.63523" lon="3.69825">
        <ele>141</ele>
        <time>2011-02-06T09:38:10Z</time>
      </trkpt>
      <trkpt lat="43.63515" lon="3.69831">
        <ele>140.8</ele>
        <time>2011-02-06T09:38:13Z</time>
      </trkpt>
      <trkpt lat="43.63506" lon="3.69833">
        <ele>141.4</ele>
        <time>2011-02-06T09:38:16Z</time>
      </trkpt>
      <trkpt lat="43.63498" lon="3.69831">
        <ele>141.9</ele>
        <time>2011-02-06T09:38:19Z</time>
      </trkpt>
      <trkpt lat="43.6349" lon="3.6983">
        <ele>142.8</ele>
        <time>2011-02-06T09:39:00Z</time>
      </trkpt>
      <trkpt lat="43.63481" lon="3.6983">
        <ele>143.3</ele>
        <time>2011-02-06T09:39:10Z</time>
      </trkpt>
      <trkpt lat="43.63479" lon="3.6983">
        <ele>143.3</ele>
        <time>2011-02-06T09:39:11Z</time>
      </trkpt>
      <trkpt lat="43.63465" lon="3.69832">
        <ele>142.9</ele>
        <time>2011-02-06T09:39:18Z</time>
      </trkpt>
      <trkpt lat="43.63459" lon="3.69837">
        <ele>143.6</ele>
        <time>2011-02-06T09:39:22Z</time>
      </trkpt>
      <trkpt lat="43.63451" lon="3.69842">
        <ele>144</ele>
        <time>2011-02-06T09:39:26Z</time>
      </trkpt>
      <trkpt lat="43.63442" lon="3.69845">
        <ele>143.7</ele>
        <time>2011-02-06T09:39:31Z</time>
      </trkpt>
      <trkpt lat="43.63435" lon="3.69847">
        <ele>144.8</ele>
        <time>2011-02-06T09:39:36Z</time>
      </trkpt>
      <trkpt lat="43.63428" lon="3.69852">
        <ele>147</ele>
        <time>2011-02-06T09:39:55Z</time>
      </trkpt>
      <trkpt lat="43.63421" lon="3.69856">
        <ele>147.1</ele>
        <time>2011-02-06T09:40:00Z</time>
      </trkpt>
      <trkpt lat="43.63414" lon="3.69862">
        <ele>147</ele>
        <time>2011-02-06T09:40:04Z</time>
      </trkpt>
      <trkpt lat="43.63408" lon="3.69866">
        <ele>146.5</ele>
        <time>2011-02-06T09:40:07Z</time>
      </trkpt>
      <trkpt lat="43.63399" lon="3.69869">
        <ele>146.5</ele>
        <time>2011-02-06T09:40:11Z</time>
      </trkpt>
      <trkpt lat="43.63397" lon="3.69869">
        <ele>146.6</ele>
        <time>2011-02-06T09:40:12Z</time>
      </trkpt>
      <trkpt lat="43.63384" lon="3.6987">
        <ele>149</ele>
        <time>2011-02-06T09:40:18Z</time>
      </trkpt>
      <trkpt lat="43.63375" lon="3.69873">
        <ele>149.9</ele>
        <time>2011-02-06T09:40:22Z</time>
      </trkpt>
      <trkpt lat="43.63369" lon="3.69875">
        <ele>150.5</ele>
        <time>2011-02-06T09:40:25Z</time>
      </trkpt>
      <trkpt lat="43.63362" lon="3.69878">
        <ele>151.3</ele>
        <time>2011-02-06T09:40:28Z</time>
      </trkpt>
      <trkpt lat="43.63354" lon="3.69882">
        <ele>152.1</ele>
        <time>2011-02-06T09:40:32Z</time>
      </trkpt>
      <trkpt lat="43.63346" lon="3.69882">
        <ele>153</ele>
        <time>2011-02-06T09:40:37Z</time>
      </trkpt>
      <trkpt lat="43.63343" lon="3.6987">
        <ele>153.2</ele>
        <time>2011-02-06T09:40:44Z</time>
      </trkpt>
      <trkpt lat="43.63342" lon="3.69858">
        <ele>152.7</ele>
        <time>2011-02-06T09:40:50Z</time>
      </trkpt>
      <trkpt lat="43.63344" lon="3.69847">
        <ele>152.3</ele>
        <time>2011-02-06T09:40:59Z</time>
      </trkpt>
      <trkpt lat="43.63344" lon="3.69836">
        <ele>152.3</ele>
        <time>2011-02-06T09:41:05Z</time>
      </trkpt>
      <trkpt lat="43.63347" lon="3.69825">
        <ele>151.3</ele>
        <time>2011-02-06T09:44:07Z</time>
      </trkpt>
      <trkpt lat="43.63347" lon="3.69824">
        <ele>151.3</ele>
        <time>2011-02-06T09:44:08Z</time>
      </trkpt>
      <trkpt lat="43.63351" lon="3.69802">
        <ele>151.4</ele>
        <time>2011-02-06T09:44:16Z</time>
      </trkpt>
      <trkpt lat="43.63353" lon="3.6979">
        <ele>151.3</ele>
        <time>2011-02-06T09:44:20Z</time>
      </trkpt>
      <trkpt lat="43.63353" lon="3.6978">
        <ele>151.2</ele>
        <time>2011-02-06T09:44:24Z</time>
      </trkpt>
      <trkpt lat="43.63353" lon="3.69769">
        <ele>150.2</ele>
        <time>2011-02-06T09:44:27Z</time>
      </trkpt>
      <trkpt lat="43.63353" lon="3.69761">
        <ele>150.1</ele>
        <time>2011-02-06T09:44:29Z</time>
      </trkpt>
      <trkpt lat="43.63352" lon="3.69751">
        <ele>150.3</ele>
        <time>2011-02-06T09:44:31Z</time>
      </trkpt>
      <trkpt lat="43.63351" lon="3.6974">
        <ele>149.7</ele>
        <time>2011-02-06T09:44:33Z</time>
      </trkpt>
      <trkpt lat="43.6335" lon="3.69733">
        <ele>149.5</ele>
        <time>2011-02-06T09:44:34Z</time>
      </trkpt>
      <trkpt lat="43.63349" lon="3.69726">
        <ele>149.1</ele>
        <time>2011-02-06T09:44:35Z</time>
      </trkpt>
      <trkpt lat="43.63348" lon="3.69717">
        <ele>148.8</ele>
        <time>2011-02-06T09:44:36Z</time>
      </trkpt>
      <trkpt lat="43.63348" lon="3.69707">
        <ele>148.6</ele>
        <time>2011-02-06T09:44:37Z</time>
      </trkpt>
      <trkpt lat="43.6335" lon="3.69697">
        <ele>147.5</ele>
        <time>2011-02-06T09:44:38Z</time>
      </trkpt>
      <trkpt lat="43.63353" lon="3.69687">
        <ele>146.7</ele>
        <time>2011-02-06T09:44:39Z</time>
      </trkpt>
      <trkpt lat="43.63356" lon="3.69678">
        <ele>146.1</ele>
        <time>2011-02-06T09:44:40Z</time>
      </trkpt>
      <trkpt lat="43.63359" lon="3.69669">
        <ele>145.5</ele>
        <time>2011-02-06T09:44:41Z</time>
      </trkpt>
      <trkpt lat="43.63362" lon="3.69662">
        <ele>145.1</ele>
        <time>2011-02-06T09:44:42Z</time>
      </trkpt>
      <trkpt lat="43.63364" lon="3.69656">
        <ele>144.8</ele>
        <time>2011-02-06T09:44:43Z</time>
      </trkpt>
      <trkpt lat="43.63368" lon="3.69645">
        <ele>144.9</ele>
        <time>2011-02-06T09:44:45Z</time>
      </trkpt>
      <trkpt lat="43.63372" lon="3.69636">
        <ele>145</ele>
        <time>2011-02-06T09:44:47Z</time>
      </trkpt>
      <trkpt lat="43.63375" lon="3.69626">
        <ele>145.8</ele>
        <time>2011-02-06T09:44:49Z</time>
      </trkpt>
      <trkpt lat="43.63379" lon="3.69616">
        <ele>145.9</ele>
        <time>2011-02-06T09:44:51Z</time>
      </trkpt>
      <trkpt lat="43.63382" lon="3.69605">
        <ele>145.8</ele>
        <time>2011-02-06T09:44:53Z</time>
      </trkpt>
      <trkpt lat="43.63385" lon="3.69596">
        <ele>146</ele>
        <time>2011-02-06T09:44:55Z</time>
      </trkpt>
      <trkpt lat="43.63388" lon="3.69588">
        <ele>146</ele>
        <time>2011-02-06T09:44:57Z</time>
      </trkpt>
      <trkpt lat="43.63391" lon="3.69579">
        <ele>145.8</ele>
        <time>2011-02-06T09:44:59Z</time>
      </trkpt>
      <trkpt lat="43.63394" lon="3.6957">
        <ele>146</ele>
        <time>2011-02-06T09:45:01Z</time>
      </trkpt>
      <trkpt lat="43.63398" lon="3.69559">
        <ele>146.1</ele>
        <time>2011-02-06T09:45:03Z</time>
      </trkpt>
      <trkpt lat="43.634" lon="3.69553">
        <ele>145.8</ele>
        <time>2011-02-06T09:45:04Z</time>
      </trkpt>
      <trkpt lat="43.63403" lon="3.69546">
        <ele>145.5</ele>
        <time>2011-02-06T09:45:05Z</time>
      </trkpt>
      <trkpt lat="43.63404" lon="3.69538">
        <ele>145.3</ele>
        <time>2011-02-06T09:45:06Z</time>
      </trkpt>
      <trkpt lat="43.63405" lon="3.6953">
        <ele>144.6</ele>
        <time>2011-02-06T09:45:07Z</time>
      </trkpt>
      <trkpt lat="43.63406" lon="3.6952">
        <ele>144.1</ele>
        <time>2011-02-06T09:45:08Z</time>
      </trkpt>
      <trkpt lat="43.63407" lon="3.69511">
        <ele>143.7</ele>
        <time>2011-02-06T09:45:09Z</time>
      </trkpt>
      <trkpt lat="43.63408" lon="3.695">
        <ele>143.3</ele>
        <time>2011-02-06T09:45:10Z</time>
      </trkpt>
      <trkpt lat="43.63409" lon="3.69489">
        <ele>143</ele>
        <time>2011-02-06T09:45:11Z</time>
      </trkpt>
      <trkpt lat="43.63411" lon="3.69477">
        <ele>142.7</ele>
        <time>2011-02-06T09:45:12Z</time>
      </trkpt>
      <trkpt lat="43.63411" lon="3.69464">
        <ele>141.2</ele>
        <time>2011-02-06T09:45:13Z</time>
      </trkpt>
      <trkpt lat="43.63412" lon="3.69451">
        <ele>140</ele>
        <time>2011-02-06T09:45:14Z</time>
      </trkpt>
      <trkpt lat="43.63413" lon="3.69437">
        <ele>139.1</ele>
        <time>2011-02-06T09:45:15Z</time>
      </trkpt>
      <trkpt lat="43.63414" lon="3.69424">
        <ele>137.9</ele>
        <time>2011-02-06T09:45:16Z</time>
      </trkpt>
      <trkpt lat="43.63418" lon="3.69412">
        <ele>137</ele>
        <time>2011-02-06T09:45:17Z</time>
      </trkpt>
      <trkpt lat="43.63425" lon="3.69401">
        <ele>136.3</ele>
        <time>2011-02-06T09:45:18Z</time>
      </trkpt>
      <trkpt lat="43.63434" lon="3.69394">
        <ele>135.8</ele>
        <time>2011-02-06T09:45:19Z</time>
      </trkpt>
      <trkpt lat="43.63443" lon="3.69386">
        <ele>134.9</ele>
        <time>2011-02-06T09:45:20Z</time>
      </trkpt>
      <trkpt lat="43.6345" lon="3.69377">
        <ele>134.2</ele>
        <time>2011-02-06T09:45:21Z</time>
      </trkpt>
      <trkpt lat="43.63456" lon="3.69366">
        <ele>133.6</ele>
        <time>2011-02-06T09:45:22Z</time>
      </trkpt>
      <trkpt lat="43.63461" lon="3.69355">
        <ele>132.7</ele>
        <time>2011-02-06T09:45:23Z</time>
      </trkpt>
      <trkpt lat="43.63465" lon="3.69345">
        <ele>132.1</ele>
        <time>2011-02-06T09:45:24Z</time>
      </trkpt>
      <trkpt lat="43.63469" lon="3.69337">
        <ele>131.6</ele>
        <time>2011-02-06T09:45:25Z</time>
      </trkpt>
      <trkpt lat="43.63472" lon="3.6933">
        <ele>131.6</ele>
        <time>2011-02-06T09:45:26Z</time>
      </trkpt>
      <trkpt lat="43.63477" lon="3.6932">
        <ele>131.6</ele>
        <time>2011-02-06T09:45:28Z</time>
      </trkpt>
      <trkpt lat="43.63481" lon="3.69309">
        <ele>133.9</ele>
        <time>2011-02-06T09:45:43Z</time>
      </trkpt>
      <trkpt lat="43.63484" lon="3.69299">
        <ele>134.4</ele>
        <time>2011-02-06T09:45:48Z</time>
      </trkpt>
      <trkpt lat="43.63485" lon="3.69288">
        <ele>134.3</ele>
        <time>2011-02-06T09:45:51Z</time>
      </trkpt>
      <trkpt lat="43.63488" lon="3.69278">
        <ele>134.7</ele>
        <time>2011-02-06T09:45:54Z</time>
      </trkpt>
      <trkpt lat="43.63489" lon="3.6927">
        <ele>134.3</ele>
        <time>2011-02-06T09:45:56Z</time>
      </trkpt>
      <trkpt lat="43.63491" lon="3.69262">
        <ele>134.2</ele>
        <time>2011-02-06T09:45:58Z</time>
      </trkpt>
      <trkpt lat="43.63492" lon="3.69249">
        <ele>134.1</ele>
        <time>2011-02-06T09:46:01Z</time>
      </trkpt>
      <trkpt lat="43.63493" lon="3.69237">
        <ele>133.9</ele>
        <time>2011-02-06T09:46:04Z</time>
      </trkpt>
      <trkpt lat="43.63495" lon="3.69227">
        <ele>133.7</ele>
        <time>2011-02-06T09:46:07Z</time>
      </trkpt>
      <trkpt lat="43.63497" lon="3.69218">
        <ele>134.4</ele>
        <time>2011-02-06T09:46:10Z</time>
      </trkpt>
      <trkpt lat="43.63497" lon="3.69215">
        <ele>134.5</ele>
        <time>2011-02-06T09:46:11Z</time>
      </trkpt>
      <trkpt lat="43.63501" lon="3.692">
        <ele>135</ele>
        <time>2011-02-06T09:46:16Z</time>
      </trkpt>
      <trkpt lat="43.63503" lon="3.69191">
        <ele>135.2</ele>
        <time>2011-02-06T09:46:19Z</time>
      </trkpt>
      <trkpt lat="43.63506" lon="3.69181">
        <ele>135.5</ele>
        <time>2011-02-06T09:46:22Z</time>
      </trkpt>
      <trkpt lat="43.63508" lon="3.69171">
        <ele>135.8</ele>
        <time>2011-02-06T09:46:25Z</time>
      </trkpt>
      <trkpt lat="43.63511" lon="3.69161">
        <ele>136.2</ele>
        <time>2011-02-06T09:46:28Z</time>
      </trkpt>
      <trkpt lat="43.63514" lon="3.69151">
        <ele>136.8</ele>
        <time>2011-02-06T09:46:31Z</time>
      </trkpt>
      <trkpt lat="43.63516" lon="3.6914">
        <ele>137.4</ele>
        <time>2011-02-06T09:46:34Z</time>
      </trkpt>
      <trkpt lat="43.63519" lon="3.6913">
        <ele>137.2</ele>
        <time>2011-02-06T09:46:37Z</time>
      </trkpt>
      <trkpt lat="43.63522" lon="3.69119">
        <ele>136.8</ele>
        <time>2011-02-06T09:46:40Z</time>
      </trkpt>
      <trkpt lat="43.63525" lon="3.69109">
        <ele>137.1</ele>
        <time>2011-02-06T09:46:43Z</time>
      </trkpt>
      <trkpt lat="43.63527" lon="3.69099">
        <ele>137.7</ele>
        <time>2011-02-06T09:46:46Z</time>
      </trkpt>
      <trkpt lat="43.6353" lon="3.69089">
        <ele>138</ele>
        <time>2011-02-06T09:46:49Z</time>
      </trkpt>
      <trkpt lat="43.63532" lon="3.69079">
        <ele>138.6</ele>
        <time>2011-02-06T09:46:52Z</time>
      </trkpt>
      <trkpt lat="43.63535" lon="3.69068">
        <ele>139</ele>
        <time>2011-02-06T09:46:55Z</time>
      </trkpt>
      <trkpt lat="43.63538" lon="3.69058">
        <ele>139.4</ele>
        <time>2011-02-06T09:46:58Z</time>
      </trkpt>
      <trkpt lat="43.6354" lon="3.69048">
        <ele>140</ele>
        <time>2011-02-06T09:47:01Z</time>
      </trkpt>
      <trkpt lat="43.63543" lon="3.69037">
        <ele>139.6</ele>
        <time>2011-02-06T09:47:04Z</time>
      </trkpt>
      <trkpt lat="43.63546" lon="3.69026">
        <ele>139.8</ele>
        <time>2011-02-06T09:47:07Z</time>
      </trkpt>
      <trkpt lat="43.63549" lon="3.69015">
        <ele>140</ele>
        <time>2011-02-06T09:47:10Z</time>
      </trkpt>
      <trkpt lat="43.63551" lon="3.69005">
        <ele>140.7</ele>
        <time>2011-02-06T09:47:13Z</time>
      </trkpt>
      <trkpt lat="43.63552" lon="3.69001">
        <ele>140.8</ele>
        <time>2011-02-06T09:47:14Z</time>
      </trkpt>
      <trkpt lat="43.63557" lon="3.68982">
        <ele>140.7</ele>
        <time>2011-02-06T09:47:19Z</time>
      </trkpt>
      <trkpt lat="43.6356" lon="3.68971">
        <ele>141.4</ele>
        <time>2011-02-06T09:47:22Z</time>
      </trkpt>
      <trkpt lat="43.63563" lon="3.6896">
        <ele>141.9</ele>
        <time>2011-02-06T09:47:25Z</time>
      </trkpt>
      <trkpt lat="43.63566" lon="3.68948">
        <ele>142.2</ele>
        <time>2011-02-06T09:47:28Z</time>
      </trkpt>
      <trkpt lat="43.63569" lon="3.68936">
        <ele>142.5</ele>
        <time>2011-02-06T09:47:31Z</time>
      </trkpt>
      <trkpt lat="43.63572" lon="3.68925">
        <ele>142.9</ele>
        <time>2011-02-06T09:47:34Z</time>
      </trkpt>
      <trkpt lat="43.63576" lon="3.68915">
        <ele>143.7</ele>
        <time>2011-02-06T09:47:37Z</time>
      </trkpt>
      <trkpt lat="43.6358" lon="3.68904">
        <ele>144.8</ele>
        <time>2011-02-06T09:47:40Z</time>
      </trkpt>
      <trkpt lat="43.63583" lon="3.68893">
        <ele>145.5</ele>
        <time>2011-02-06T09:47:43Z</time>
      </trkpt>
      <trkpt lat="43.63587" lon="3.68883">
        <ele>146</ele>
        <time>2011-02-06T09:47:46Z</time>
      </trkpt>
      <trkpt lat="43.63593" lon="3.68874">
        <ele>146.3</ele>
        <time>2011-02-06T09:47:49Z</time>
      </trkpt>
      <trkpt lat="43.63599" lon="3.68866">
        <ele>146.5</ele>
        <time>2011-02-06T09:47:52Z</time>
      </trkpt>
      <trkpt lat="43.63607" lon="3.68861">
        <ele>147.2</ele>
        <time>2011-02-06T09:47:55Z</time>
      </trkpt>
      <trkpt lat="43.63613" lon="3.68857">
        <ele>147</ele>
        <time>2011-02-06T09:47:57Z</time>
      </trkpt>
      <trkpt lat="43.63618" lon="3.68853">
        <ele>147.2</ele>
        <time>2011-02-06T09:47:59Z</time>
      </trkpt>
      <trkpt lat="43.63623" lon="3.68848">
        <ele>147.6</ele>
        <time>2011-02-06T09:48:01Z</time>
      </trkpt>
      <trkpt lat="43.63628" lon="3.68843">
        <ele>148.1</ele>
        <time>2011-02-06T09:48:03Z</time>
      </trkpt>
      <trkpt lat="43.63632" lon="3.68837">
        <ele>148.4</ele>
        <time>2011-02-06T09:48:05Z</time>
      </trkpt>
      <trkpt lat="43.63636" lon="3.6883">
        <ele>148.2</ele>
        <time>2011-02-06T09:48:07Z</time>
      </trkpt>
      <trkpt lat="43.63639" lon="3.68823">
        <ele>148.4</ele>
        <time>2011-02-06T09:48:09Z</time>
      </trkpt>
      <trkpt lat="43.63645" lon="3.68814">
        <ele>148.7</ele>
        <time>2011-02-06T09:48:12Z</time>
      </trkpt>
      <trkpt lat="43.63649" lon="3.68803">
        <ele>149</ele>
        <time>2011-02-06T09:48:15Z</time>
      </trkpt>
      <trkpt lat="43.6365" lon="3.68799">
        <ele>149.2</ele>
        <time>2011-02-06T09:48:16Z</time>
      </trkpt>
      <trkpt lat="43.63655" lon="3.68788">
        <ele>149.5</ele>
        <time>2011-02-06T09:48:19Z</time>
      </trkpt>
      <trkpt lat="43.63659" lon="3.68777">
        <ele>149.9</ele>
        <time>2011-02-06T09:48:22Z</time>
      </trkpt>
      <trkpt lat="43.63662" lon="3.68767">
        <ele>150.6</ele>
        <time>2011-02-06T09:48:25Z</time>
      </trkpt>
      <trkpt lat="43.63665" lon="3.68756">
        <ele>151.8</ele>
        <time>2011-02-06T09:48:28Z</time>
      </trkpt>
      <trkpt lat="43.63669" lon="3.68746">
        <ele>152.9</ele>
        <time>2011-02-06T09:48:31Z</time>
      </trkpt>
      <trkpt lat="43.63671" lon="3.68739">
        <ele>153.1</ele>
        <time>2011-02-06T09:48:33Z</time>
      </trkpt>
      <trkpt lat="43.63674" lon="3.6873">
        <ele>153.5</ele>
        <time>2011-02-06T09:48:35Z</time>
      </trkpt>
      <trkpt lat="43.63677" lon="3.68722">
        <ele>153.7</ele>
        <time>2011-02-06T09:48:37Z</time>
      </trkpt>
      <trkpt lat="43.63682" lon="3.68713">
        <ele>154</ele>
        <time>2011-02-06T09:48:40Z</time>
      </trkpt>
      <trkpt lat="43.6369" lon="3.68707">
        <ele>154.2</ele>
        <time>2011-02-06T09:48:43Z</time>
      </trkpt>
      <trkpt lat="43.63694" lon="3.68701">
        <ele>154.2</ele>
        <time>2011-02-06T09:48:45Z</time>
      </trkpt>
      <trkpt lat="43.63697" lon="3.6869">
        <ele>155</ele>
        <time>2011-02-06T09:48:48Z</time>
      </trkpt>
      <trkpt lat="43.63699" lon="3.68679">
        <ele>156.3</ele>
        <time>2011-02-06T09:48:51Z</time>
      </trkpt>
      <trkpt lat="43.63702" lon="3.68669">
        <ele>157.1</ele>
        <time>2011-02-06T09:48:54Z</time>
      </trkpt>
      <trkpt lat="43.63703" lon="3.68658">
        <ele>157.9</ele>
        <time>2011-02-06T09:48:57Z</time>
      </trkpt>
      <trkpt lat="43.63704" lon="3.68648">
        <ele>158.7</ele>
        <time>2011-02-06T09:49:00Z</time>
      </trkpt>
      <trkpt lat="43.63703" lon="3.68638">
        <ele>159.1</ele>
        <time>2011-02-06T09:49:03Z</time>
      </trkpt>
      <trkpt lat="43.63702" lon="3.68628">
        <ele>159.9</ele>
        <time>2011-02-06T09:49:06Z</time>
      </trkpt>
      <trkpt lat="43.63702" lon="3.68618">
        <ele>160.4</ele>
        <time>2011-02-06T09:49:09Z</time>
      </trkpt>
      <trkpt lat="43.63702" lon="3.68607">
        <ele>160.6</ele>
        <time>2011-02-06T09:49:12Z</time>
      </trkpt>
      <trkpt lat="43.63703" lon="3.68598">
        <ele>161.4</ele>
        <time>2011-02-06T09:49:15Z</time>
      </trkpt>
      <trkpt lat="43.63704" lon="3.68589">
        <ele>162.9</ele>
        <time>2011-02-06T09:49:18Z</time>
      </trkpt>
      <trkpt lat="43.63705" lon="3.68585">
        <ele>163</ele>
        <time>2011-02-06T09:49:19Z</time>
      </trkpt>
      <trkpt lat="43.63709" lon="3.68567">
        <ele>164.1</ele>
        <time>2011-02-06T09:49:25Z</time>
      </trkpt>
      <trkpt lat="43.6371" lon="3.68558">
        <ele>164.9</ele>
        <time>2011-02-06T09:49:28Z</time>
      </trkpt>
      <trkpt lat="43.63711" lon="3.68549">
        <ele>164.8</ele>
        <time>2011-02-06T09:49:31Z</time>
      </trkpt>
      <trkpt lat="43.63712" lon="3.68537">
        <ele>166.2</ele>
        <time>2011-02-06T09:49:35Z</time>
      </trkpt>
      <trkpt lat="43.63712" lon="3.68527">
        <ele>167.2</ele>
        <time>2011-02-06T09:49:38Z</time>
      </trkpt>
      <trkpt lat="43.63712" lon="3.68515">
        <ele>167.9</ele>
        <time>2011-02-06T09:49:42Z</time>
      </trkpt>
      <trkpt lat="43.63712" lon="3.68504">
        <ele>168.4</ele>
        <time>2011-02-06T09:49:46Z</time>
      </trkpt>
      <trkpt lat="43.63712" lon="3.68492">
        <ele>169.2</ele>
        <time>2011-02-06T09:49:50Z</time>
      </trkpt>
      <trkpt lat="43.63712" lon="3.6848">
        <ele>170.2</ele>
        <time>2011-02-06T09:49:54Z</time>
      </trkpt>
      <trkpt lat="43.63712" lon="3.68469">
        <ele>171.3</ele>
        <time>2011-02-06T09:49:58Z</time>
      </trkpt>
      <trkpt lat="43.63711" lon="3.68456">
        <ele>171.6</ele>
        <time>2011-02-06T09:50:02Z</time>
      </trkpt>
      <trkpt lat="43.63708" lon="3.68447">
        <ele>172</ele>
        <time>2011-02-06T09:50:05Z</time>
      </trkpt>
      <trkpt lat="43.63705" lon="3.68436">
        <ele>172.6</ele>
        <time>2011-02-06T09:50:08Z</time>
      </trkpt>
      <trkpt lat="43.63702" lon="3.68425">
        <ele>173.2</ele>
        <time>2011-02-06T09:50:11Z</time>
      </trkpt>
      <trkpt lat="43.637" lon="3.68417">
        <ele>173.3</ele>
        <time>2011-02-06T09:50:13Z</time>
      </trkpt>
      <trkpt lat="43.63696" lon="3.68408">
        <ele>173.3</ele>
        <time>2011-02-06T09:50:15Z</time>
      </trkpt>
      <trkpt lat="43.63691" lon="3.684">
        <ele>173</ele>
        <time>2011-02-06T09:50:17Z</time>
      </trkpt>
      <trkpt lat="43.63687" lon="3.68392">
        <ele>172.5</ele>
        <time>2011-02-06T09:50:19Z</time>
      </trkpt>
      <trkpt lat="43.63685" lon="3.68389">
        <ele>172.7</ele>
        <time>2011-02-06T09:50:20Z</time>
      </trkpt>
      <trkpt lat="43.63675" lon="3.68379">
        <ele>173</ele>
        <time>2011-02-06T09:50:24Z</time>
      </trkpt>
      <trkpt lat="43.6367" lon="3.68375">
        <ele>172.9</ele>
        <time>2011-02-06T09:50:26Z</time>
      </trkpt>
      <trkpt lat="43.63664" lon="3.68374">
        <ele>172.9</ele>
        <time>2011-02-06T09:50:28Z</time>
      </trkpt>
      <trkpt lat="43.63656" lon="3.6837">
        <ele>173.6</ele>
        <time>2011-02-06T09:50:31Z</time>
      </trkpt>
      <trkpt lat="43.63649" lon="3.68363">
        <ele>173.1</ele>
        <time>2011-02-06T09:50:34Z</time>
      </trkpt>
      <trkpt lat="43.63643" lon="3.68356">
        <ele>174.5</ele>
        <time>2011-02-06T09:50:37Z</time>
      </trkpt>
      <trkpt lat="43.63636" lon="3.6835">
        <ele>175.2</ele>
        <time>2011-02-06T09:50:40Z</time>
      </trkpt>
      <trkpt lat="43.63629" lon="3.68344">
        <ele>175.9</ele>
        <time>2011-02-06T09:50:43Z</time>
      </trkpt>
      <trkpt lat="43.63623" lon="3.68339">
        <ele>176.7</ele>
        <time>2011-02-06T09:50:46Z</time>
      </trkpt>
      <trkpt lat="43.63616" lon="3.68333">
        <ele>177</ele>
        <time>2011-02-06T09:50:49Z</time>
      </trkpt>
      <trkpt lat="43.63609" lon="3.68327">
        <ele>177.1</ele>
        <time>2011-02-06T09:50:52Z</time>
      </trkpt>
      <trkpt lat="43.63603" lon="3.68321">
        <ele>177.9</ele>
        <time>2011-02-06T09:50:55Z</time>
      </trkpt>
      <trkpt lat="43.63596" lon="3.68316">
        <ele>178.9</ele>
        <time>2011-02-06T09:50:58Z</time>
      </trkpt>
      <trkpt lat="43.63589" lon="3.68312">
        <ele>179</ele>
        <time>2011-02-06T09:51:01Z</time>
      </trkpt>
      <trkpt lat="43.63582" lon="3.6831">
        <ele>179.3</ele>
        <time>2011-02-06T09:51:04Z</time>
      </trkpt>
      <trkpt lat="43.63575" lon="3.68309">
        <ele>179.8</ele>
        <time>2011-02-06T09:51:07Z</time>
      </trkpt>
      <trkpt lat="43.63567" lon="3.68309">
        <ele>180.4</ele>
        <time>2011-02-06T09:51:10Z</time>
      </trkpt>
      <trkpt lat="43.6356" lon="3.68309">
        <ele>181</ele>
        <time>2011-02-06T09:51:13Z</time>
      </trkpt>
      <trkpt lat="43.63552" lon="3.68308">
        <ele>182.3</ele>
        <time>2011-02-06T09:51:17Z</time>
      </trkpt>
      <trkpt lat="43.63545" lon="3.68306">
        <ele>183.1</ele>
        <time>2011-02-06T09:51:20Z</time>
      </trkpt>
      <trkpt lat="43.63543" lon="3.68305">
        <ele>183.2</ele>
        <time>2011-02-06T09:51:21Z</time>
      </trkpt>
      <trkpt lat="43.63528" lon="3.68302">
        <ele>185.1</ele>
        <time>2011-02-06T09:51:28Z</time>
      </trkpt>
      <trkpt lat="43.63521" lon="3.68299">
        <ele>185.9</ele>
        <time>2011-02-06T09:51:31Z</time>
      </trkpt>
      <trkpt lat="43.63514" lon="3.68294">
        <ele>186.4</ele>
        <time>2011-02-06T09:51:34Z</time>
      </trkpt>
      <trkpt lat="43.63506" lon="3.68288">
        <ele>186.3</ele>
        <time>2011-02-06T09:51:37Z</time>
      </trkpt>
      <trkpt lat="43.63501" lon="3.68284">
        <ele>186.3</ele>
        <time>2011-02-06T09:51:39Z</time>
      </trkpt>
      <trkpt lat="43.63495" lon="3.68279">
        <ele>187.1</ele>
        <time>2011-02-06T09:51:41Z</time>
      </trkpt>
      <trkpt lat="43.63489" lon="3.68273">
        <ele>187.3</ele>
        <time>2011-02-06T09:51:44Z</time>
      </trkpt>
      <trkpt lat="43.63485" lon="3.68266">
        <ele>187.7</ele>
        <time>2011-02-06T09:51:47Z</time>
      </trkpt>
      <trkpt lat="43.63483" lon="3.68258">
        <ele>187.9</ele>
        <time>2011-02-06T09:51:49Z</time>
      </trkpt>
      <trkpt lat="43.63482" lon="3.68249">
        <ele>187.9</ele>
        <time>2011-02-06T09:51:51Z</time>
      </trkpt>
      <trkpt lat="43.6348" lon="3.6824">
        <ele>187</ele>
        <time>2011-02-06T09:51:53Z</time>
      </trkpt>
      <trkpt lat="43.6348" lon="3.68229">
        <ele>186.3</ele>
        <time>2011-02-06T09:51:55Z</time>
      </trkpt>
      <trkpt lat="43.6348" lon="3.68217">
        <ele>185.7</ele>
        <time>2011-02-06T09:51:57Z</time>
      </trkpt>
      <trkpt lat="43.63479" lon="3.68207">
        <ele>185.6</ele>
        <time>2011-02-06T09:51:59Z</time>
      </trkpt>
      <trkpt lat="43.63478" lon="3.68196">
        <ele>185.8</ele>
        <time>2011-02-06T09:52:01Z</time>
      </trkpt>
      <trkpt lat="43.63473" lon="3.68187">
        <ele>185.8</ele>
        <time>2011-02-06T09:52:03Z</time>
      </trkpt>
      <trkpt lat="43.63467" lon="3.68185">
        <ele>186.2</ele>
        <time>2011-02-06T09:52:05Z</time>
      </trkpt>
      <trkpt lat="43.63459" lon="3.68182">
        <ele>187.3</ele>
        <time>2011-02-06T09:52:08Z</time>
      </trkpt>
      <trkpt lat="43.63452" lon="3.68181">
        <ele>188.1</ele>
        <time>2011-02-06T09:52:11Z</time>
      </trkpt>
      <trkpt lat="43.63444" lon="3.6818">
        <ele>188.5</ele>
        <time>2011-02-06T09:52:14Z</time>
      </trkpt>
      <trkpt lat="43.63436" lon="3.68178">
        <ele>189.1</ele>
        <time>2011-02-06T09:52:17Z</time>
      </trkpt>
      <trkpt lat="43.63429" lon="3.68175">
        <ele>189.4</ele>
        <time>2011-02-06T09:52:20Z</time>
      </trkpt>
      <trkpt lat="43.63421" lon="3.68171">
        <ele>190.6</ele>
        <time>2011-02-06T09:52:24Z</time>
      </trkpt>
      <trkpt lat="43.63419" lon="3.6817">
        <ele>191.1</ele>
        <time>2011-02-06T09:52:25Z</time>
      </trkpt>
      <trkpt lat="43.63407" lon="3.68164">
        <ele>192.2</ele>
        <time>2011-02-06T09:52:31Z</time>
      </trkpt>
      <trkpt lat="43.634" lon="3.68161">
        <ele>193.5</ele>
        <time>2011-02-06T09:52:34Z</time>
      </trkpt>
      <trkpt lat="43.63392" lon="3.68157">
        <ele>194.8</ele>
        <time>2011-02-06T09:52:38Z</time>
      </trkpt>
      <trkpt lat="43.63384" lon="3.68153">
        <ele>196.1</ele>
        <time>2011-02-06T09:52:42Z</time>
      </trkpt>
      <trkpt lat="43.63376" lon="3.68151">
        <ele>197.2</ele>
        <time>2011-02-06T09:52:46Z</time>
      </trkpt>
      <trkpt lat="43.63368" lon="3.68155">
        <ele>197.3</ele>
        <time>2011-02-06T09:52:50Z</time>
      </trkpt>
      <trkpt lat="43.6336" lon="3.6816">
        <ele>198.4</ele>
        <time>2011-02-06T09:52:54Z</time>
      </trkpt>
      <trkpt lat="43.63353" lon="3.68166">
        <ele>198.9</ele>
        <time>2011-02-06T09:52:58Z</time>
      </trkpt>
      <trkpt lat="43.63347" lon="3.68173">
        <ele>200.5</ele>
        <time>2011-02-06T09:53:02Z</time>
      </trkpt>
      <trkpt lat="43.63341" lon="3.68182">
        <ele>201.4</ele>
        <time>2011-02-06T09:53:06Z</time>
      </trkpt>
      <trkpt lat="43.63336" lon="3.68189">
        <ele>202.7</ele>
        <time>2011-02-06T09:53:09Z</time>
      </trkpt>
      <trkpt lat="43.63332" lon="3.68199">
        <ele>203.9</ele>
        <time>2011-02-06T09:53:13Z</time>
      </trkpt>
      <trkpt lat="43.63328" lon="3.6821">
        <ele>204</ele>
        <time>2011-02-06T09:53:19Z</time>
      </trkpt>
      <trkpt lat="43.63328" lon="3.68222">
        <ele>204.5</ele>
        <time>2011-02-06T09:55:28Z</time>
      </trkpt>
      <trkpt lat="43.63328" lon="3.68222">
        <ele>204.5</ele>
        <time>2011-02-06T09:55:29Z</time>
      </trkpt>
      <trkpt lat="43.6331" lon="3.68224">
        <ele>204.1</ele>
        <time>2011-02-06T09:56:27Z</time>
      </trkpt>
      <trkpt lat="43.63303" lon="3.68225">
        <ele>204.4</ele>
        <time>2011-02-06T09:56:30Z</time>
      </trkpt>
      <trkpt lat="43.63301" lon="3.68225">
        <ele>204.5</ele>
        <time>2011-02-06T09:56:31Z</time>
      </trkpt>
      <trkpt lat="43.63287" lon="3.68232">
        <ele>204.4</ele>
        <time>2011-02-06T09:56:38Z</time>
      </trkpt>
      <trkpt lat="43.63282" lon="3.6824">
        <ele>203.8</ele>
        <time>2011-02-06T09:56:41Z</time>
      </trkpt>
      <trkpt lat="43.6328" lon="3.68248">
        <ele>203.5</ele>
        <time>2011-02-06T09:56:43Z</time>
      </trkpt>
      <trkpt lat="43.63279" lon="3.68258">
        <ele>203.3</ele>
        <time>2011-02-06T09:56:45Z</time>
      </trkpt>
      <trkpt lat="43.63277" lon="3.68268">
        <ele>202.9</ele>
        <time>2011-02-06T09:56:47Z</time>
      </trkpt>
      <trkpt lat="43.63275" lon="3.68278">
        <ele>202.9</ele>
        <time>2011-02-06T09:56:49Z</time>
      </trkpt>
      <trkpt lat="43.63273" lon="3.6829">
        <ele>202.3</ele>
        <time>2011-02-06T09:56:53Z</time>
      </trkpt>
      <trkpt lat="43.63268" lon="3.68299">
        <ele>201.8</ele>
        <time>2011-02-06T09:57:09Z</time>
      </trkpt>
      <trkpt lat="43.63265" lon="3.68308">
        <ele>202</ele>
        <time>2011-02-06T09:57:12Z</time>
      </trkpt>
      <trkpt lat="43.63261" lon="3.68317">
        <ele>201.8</ele>
        <time>2011-02-06T09:57:15Z</time>
      </trkpt>
      <trkpt lat="43.63257" lon="3.68328">
        <ele>200.9</ele>
        <time>2011-02-06T09:57:18Z</time>
      </trkpt>
      <trkpt lat="43.63254" lon="3.68338">
        <ele>199.7</ele>
        <time>2011-02-06T09:57:21Z</time>
      </trkpt>
      <trkpt lat="43.63251" lon="3.68348">
        <ele>198.5</ele>
        <time>2011-02-06T09:57:24Z</time>
      </trkpt>
      <trkpt lat="43.63248" lon="3.68356">
        <ele>197.6</ele>
        <time>2011-02-06T09:57:26Z</time>
      </trkpt>
      <trkpt lat="43.63244" lon="3.68366">
        <ele>194.4</ele>
        <time>2011-02-06T09:57:29Z</time>
      </trkpt>
      <trkpt lat="43.63239" lon="3.68374">
        <ele>193.3</ele>
        <time>2011-02-06T09:57:32Z</time>
      </trkpt>
      <trkpt lat="43.63238" lon="3.68378">
        <ele>193.1</ele>
        <time>2011-02-06T09:57:33Z</time>
      </trkpt>
      <trkpt lat="43.63231" lon="3.68393">
        <ele>191</ele>
        <time>2011-02-06T09:57:38Z</time>
      </trkpt>
      <trkpt lat="43.63227" lon="3.684">
        <ele>190</ele>
        <time>2011-02-06T09:57:40Z</time>
      </trkpt>
      <trkpt lat="43.63223" lon="3.68409">
        <ele>189.3</ele>
        <time>2011-02-06T09:57:42Z</time>
      </trkpt>
      <trkpt lat="43.63218" lon="3.68419">
        <ele>188.5</ele>
        <time>2011-02-06T09:57:44Z</time>
      </trkpt>
      <trkpt lat="43.63212" lon="3.68428">
        <ele>188</ele>
        <time>2011-02-06T09:57:46Z</time>
      </trkpt>
      <trkpt lat="43.63206" lon="3.68436">
        <ele>187.6</ele>
        <time>2011-02-06T09:57:48Z</time>
      </trkpt>
      <trkpt lat="43.63202" lon="3.68442">
        <ele>187.5</ele>
        <time>2011-02-06T09:57:49Z</time>
      </trkpt>
      <trkpt lat="43.63198" lon="3.68447">
        <ele>186</ele>
        <time>2011-02-06T09:57:50Z</time>
      </trkpt>
      <trkpt lat="43.63195" lon="3.68452">
        <ele>184.9</ele>
        <time>2011-02-06T09:57:51Z</time>
      </trkpt>
      <trkpt lat="43.63191" lon="3.68456">
        <ele>184</ele>
        <time>2011-02-06T09:57:52Z</time>
      </trkpt>
      <trkpt lat="43.63187" lon="3.68461">
        <ele>183.1</ele>
        <time>2011-02-06T09:57:53Z</time>
      </trkpt>
      <trkpt lat="43.63183" lon="3.68466">
        <ele>182.4</ele>
        <time>2011-02-06T09:57:54Z</time>
      </trkpt>
      <trkpt lat="43.6318" lon="3.68472">
        <ele>181.9</ele>
        <time>2011-02-06T09:57:55Z</time>
      </trkpt>
      <trkpt lat="43.63176" lon="3.68476">
        <ele>181</ele>
        <time>2011-02-06T09:57:56Z</time>
      </trkpt>
      <trkpt lat="43.63172" lon="3.68481">
        <ele>180.4</ele>
        <time>2011-02-06T09:57:57Z</time>
      </trkpt>
      <trkpt lat="43.63169" lon="3.68485">
        <ele>179.9</ele>
        <time>2011-02-06T09:57:58Z</time>
      </trkpt>
      <trkpt lat="43.63166" lon="3.68489">
        <ele>179</ele>
        <time>2011-02-06T09:57:59Z</time>
      </trkpt>
      <trkpt lat="43.63162" lon="3.68494">
        <ele>178.3</ele>
        <time>2011-02-06T09:58:00Z</time>
      </trkpt>
      <trkpt lat="43.63158" lon="3.68498">
        <ele>177.8</ele>
        <time>2011-02-06T09:58:01Z</time>
      </trkpt>
      <trkpt lat="43.63151" lon="3.68503">
        <ele>176.4</ele>
        <time>2011-02-06T09:58:03Z</time>
      </trkpt>
      <trkpt lat="43.63146" lon="3.6851">
        <ele>175.1</ele>
        <time>2011-02-06T09:58:05Z</time>
      </trkpt>
      <trkpt lat="43.63142" lon="3.68518">
        <ele>174.5</ele>
        <time>2011-02-06T09:58:07Z</time>
      </trkpt>
      <trkpt lat="43.63138" lon="3.68522">
        <ele>174.4</ele>
        <time>2011-02-06T09:58:08Z</time>
      </trkpt>
      <trkpt lat="43.63132" lon="3.6853">
        <ele>173.5</ele>
        <time>2011-02-06T09:58:10Z</time>
      </trkpt>
      <trkpt lat="43.63132" lon="3.6854">
        <ele>173.1</ele>
        <time>2011-02-06T09:58:13Z</time>
      </trkpt>
      <trkpt lat="43.63133" lon="3.68552">
        <ele>173.9</ele>
        <time>2011-02-06T09:58:31Z</time>
      </trkpt>
      <trkpt lat="43.63139" lon="3.68559">
        <ele>173.7</ele>
        <time>2011-02-06T09:58:35Z</time>
      </trkpt>
      <trkpt lat="43.6314" lon="3.68561">
        <ele>174</ele>
        <time>2011-02-06T09:58:36Z</time>
      </trkpt>
      <trkpt lat="43.63139" lon="3.68579">
        <ele>174.9</ele>
        <time>2011-02-06T09:58:42Z</time>
      </trkpt>
      <trkpt lat="43.63138" lon="3.68588">
        <ele>174.1</ele>
        <time>2011-02-06T09:58:44Z</time>
      </trkpt>
      <trkpt lat="43.63136" lon="3.68598">
        <ele>173.1</ele>
        <time>2011-02-06T09:58:46Z</time>
      </trkpt>
      <trkpt lat="43.63135" lon="3.68607">
        <ele>171.4</ele>
        <time>2011-02-06T09:58:48Z</time>
      </trkpt>
      <trkpt lat="43.63134" lon="3.68616">
        <ele>169.8</ele>
        <time>2011-02-06T09:58:50Z</time>
      </trkpt>
      <trkpt lat="43.63132" lon="3.68625">
        <ele>168.4</ele>
        <time>2011-02-06T09:58:52Z</time>
      </trkpt>
      <trkpt lat="43.63131" lon="3.68636">
        <ele>166.8</ele>
        <time>2011-02-06T09:58:54Z</time>
      </trkpt>
      <trkpt lat="43.6313" lon="3.68646">
        <ele>165.3</ele>
        <time>2011-02-06T09:58:56Z</time>
      </trkpt>
      <trkpt lat="43.63128" lon="3.68657">
        <ele>163.4</ele>
        <time>2011-02-06T09:58:58Z</time>
      </trkpt>
      <trkpt lat="43.63127" lon="3.68663">
        <ele>162.8</ele>
        <time>2011-02-06T09:58:59Z</time>
      </trkpt>
      <trkpt lat="43.63125" lon="3.68669">
        <ele>161.4</ele>
        <time>2011-02-06T09:59:00Z</time>
      </trkpt>
      <trkpt lat="43.63124" lon="3.68676">
        <ele>160.4</ele>
        <time>2011-02-06T09:59:01Z</time>
      </trkpt>
      <trkpt lat="43.63124" lon="3.68682">
        <ele>159.6</ele>
        <time>2011-02-06T09:59:02Z</time>
      </trkpt>
      <trkpt lat="43.63123" lon="3.68689">
        <ele>157.8</ele>
        <time>2011-02-06T09:59:03Z</time>
      </trkpt>
      <trkpt lat="43.63122" lon="3.68695">
        <ele>156.5</ele>
        <time>2011-02-06T09:59:04Z</time>
      </trkpt>
      <trkpt lat="43.63121" lon="3.68702">
        <ele>155.5</ele>
        <time>2011-02-06T09:59:05Z</time>
      </trkpt>
      <trkpt lat="43.63117" lon="3.68712">
        <ele>152.9</ele>
        <time>2011-02-06T09:59:07Z</time>
      </trkpt>
      <trkpt lat="43.63109" lon="3.68713">
        <ele>151.1</ele>
        <time>2011-02-06T09:59:10Z</time>
      </trkpt>
      <trkpt lat="43.63101" lon="3.68709">
        <ele>149.8</ele>
        <time>2011-02-06T09:59:14Z</time>
      </trkpt>
      <trkpt lat="43.63058" lon="3.68688">
        <ele>149</ele>
        <time>2011-02-06T09:59:56Z</time>
      </trkpt>
      <trkpt lat="43.63042" lon="3.68679">
        <ele>149.9</ele>
        <time>2011-02-06T10:00:05Z</time>
      </trkpt>
      <trkpt lat="43.63036" lon="3.68676">
        <ele>150</ele>
        <time>2011-02-06T10:00:07Z</time>
      </trkpt>
      <trkpt lat="43.6303" lon="3.68672">
        <ele>150</ele>
        <time>2011-02-06T10:00:09Z</time>
      </trkpt>
      <trkpt lat="43.63024" lon="3.68668">
        <ele>150.7</ele>
        <time>2011-02-06T10:00:11Z</time>
      </trkpt>
      <trkpt lat="43.63017" lon="3.68664">
        <ele>151.1</ele>
        <time>2011-02-06T10:00:14Z</time>
      </trkpt>
      <trkpt lat="43.6301" lon="3.68661">
        <ele>151.2</ele>
        <time>2011-02-06T10:00:18Z</time>
      </trkpt>
      <trkpt lat="43.63003" lon="3.68656">
        <ele>151.6</ele>
        <time>2011-02-06T10:00:22Z</time>
      </trkpt>
      <trkpt lat="43.62996" lon="3.68652">
        <ele>151.9</ele>
        <time>2011-02-06T10:00:25Z</time>
      </trkpt>
      <trkpt lat="43.62989" lon="3.68647">
        <ele>152.4</ele>
        <time>2011-02-06T10:00:28Z</time>
      </trkpt>
      <trkpt lat="43.62982" lon="3.68642">
        <ele>152.9</ele>
        <time>2011-02-06T10:00:31Z</time>
      </trkpt>
      <trkpt lat="43.62974" lon="3.68639">
        <ele>153</ele>
        <time>2011-02-06T10:00:34Z</time>
      </trkpt>
      <trkpt lat="43.62966" lon="3.68639">
        <ele>152.6</ele>
        <time>2011-02-06T10:00:37Z</time>
      </trkpt>
      <trkpt lat="43.62958" lon="3.68645">
        <ele>152.2</ele>
        <time>2011-02-06T10:00:40Z</time>
      </trkpt>
      <trkpt lat="43.62955" lon="3.68652">
        <ele>152.2</ele>
        <time>2011-02-06T10:00:42Z</time>
      </trkpt>
      <trkpt lat="43.62951" lon="3.6866">
        <ele>152.4</ele>
        <time>2011-02-06T10:00:44Z</time>
      </trkpt>
      <trkpt lat="43.62947" lon="3.68668">
        <ele>152.7</ele>
        <time>2011-02-06T10:00:46Z</time>
      </trkpt>
      <trkpt lat="43.62942" lon="3.68676">
        <ele>152.9</ele>
        <time>2011-02-06T10:00:48Z</time>
      </trkpt>
      <trkpt lat="43.62935" lon="3.68682">
        <ele>152.3</ele>
        <time>2011-02-06T10:00:50Z</time>
      </trkpt>
      <trkpt lat="43.62927" lon="3.68682">
        <ele>152.1</ele>
        <time>2011-02-06T10:00:52Z</time>
      </trkpt>
      <trkpt lat="43.62919" lon="3.68681">
        <ele>151.9</ele>
        <time>2011-02-06T10:00:54Z</time>
      </trkpt>
      <trkpt lat="43.6291" lon="3.68679">
        <ele>151.5</ele>
        <time>2011-02-06T10:00:56Z</time>
      </trkpt>
      <trkpt lat="43.62902" lon="3.68677">
        <ele>151.2</ele>
        <time>2011-02-06T10:00:58Z</time>
      </trkpt>
      <trkpt lat="43.62894" lon="3.68675">
        <ele>151</ele>
        <time>2011-02-06T10:01:00Z</time>
      </trkpt>
      <trkpt lat="43.62886" lon="3.68673">
        <ele>150.8</ele>
        <time>2011-02-06T10:01:02Z</time>
      </trkpt>
      <trkpt lat="43.62877" lon="3.68671">
        <ele>150.7</ele>
        <time>2011-02-06T10:01:04Z</time>
      </trkpt>
      <trkpt lat="43.62868" lon="3.68669">
        <ele>150.8</ele>
        <time>2011-02-06T10:01:06Z</time>
      </trkpt>
      <trkpt lat="43.62864" lon="3.68668">
        <ele>150.9</ele>
        <time>2011-02-06T10:01:07Z</time>
      </trkpt>
      <trkpt lat="43.62851" lon="3.68665">
        <ele>151</ele>
        <time>2011-02-06T10:01:10Z</time>
      </trkpt>
      <trkpt lat="43.62846" lon="3.68665">
        <ele>150.7</ele>
        <time>2011-02-06T10:01:11Z</time>
      </trkpt>
      <trkpt lat="43.62837" lon="3.68664">
        <ele>150.4</ele>
        <time>2011-02-06T10:01:13Z</time>
      </trkpt>
      <trkpt lat="43.62833" lon="3.68663">
        <ele>150.4</ele>
        <time>2011-02-06T10:01:14Z</time>
      </trkpt>
      <trkpt lat="43.62824" lon="3.68662">
        <ele>150.4</ele>
        <time>2011-02-06T10:01:16Z</time>
      </trkpt>
      <trkpt lat="43.62815" lon="3.68661">
        <ele>150</ele>
        <time>2011-02-06T10:01:18Z</time>
      </trkpt>
      <trkpt lat="43.62807" lon="3.6866">
        <ele>149.7</ele>
        <time>2011-02-06T10:01:20Z</time>
      </trkpt>
      <trkpt lat="43.628" lon="3.68658">
        <ele>149.7</ele>
        <time>2011-02-06T10:01:22Z</time>
      </trkpt>
      <trkpt lat="43.62794" lon="3.68657">
        <ele>149.9</ele>
        <time>2011-02-06T10:01:24Z</time>
      </trkpt>
      <trkpt lat="43.62785" lon="3.68653">
        <ele>150.5</ele>
        <time>2011-02-06T10:01:27Z</time>
      </trkpt>
      <trkpt lat="43.62777" lon="3.68649">
        <ele>151</ele>
        <time>2011-02-06T10:01:30Z</time>
      </trkpt>
      <trkpt lat="43.6277" lon="3.68643">
        <ele>151.5</ele>
        <time>2011-02-06T10:01:33Z</time>
      </trkpt>
      <trkpt lat="43.62765" lon="3.68638">
        <ele>152.1</ele>
        <time>2011-02-06T10:01:35Z</time>
      </trkpt>
      <trkpt lat="43.62759" lon="3.68634">
        <ele>151.9</ele>
        <time>2011-02-06T10:01:37Z</time>
      </trkpt>
      <trkpt lat="43.62752" lon="3.68632">
        <ele>151.8</ele>
        <time>2011-02-06T10:01:39Z</time>
      </trkpt>
      <trkpt lat="43.62747" lon="3.68639">
        <ele>152.5</ele>
        <time>2011-02-06T10:01:42Z</time>
      </trkpt>
      <trkpt lat="43.62744" lon="3.68647">
        <ele>152.6</ele>
        <time>2011-02-06T10:01:44Z</time>
      </trkpt>
      <trkpt lat="43.62742" lon="3.68657">
        <ele>152.4</ele>
        <time>2011-02-06T10:01:46Z</time>
      </trkpt>
      <trkpt lat="43.62742" lon="3.68669">
        <ele>152.1</ele>
        <time>2011-02-06T10:01:48Z</time>
      </trkpt>
      <trkpt lat="43.62743" lon="3.68681">
        <ele>152.5</ele>
        <time>2011-02-06T10:01:50Z</time>
      </trkpt>
      <trkpt lat="43.62744" lon="3.68687">
        <ele>152.6</ele>
        <time>2011-02-06T10:01:51Z</time>
      </trkpt>
      <trkpt lat="43.62745" lon="3.68693">
        <ele>152.4</ele>
        <time>2011-02-06T10:01:52Z</time>
      </trkpt>
      <trkpt lat="43.62746" lon="3.687">
        <ele>152.2</ele>
        <time>2011-02-06T10:01:53Z</time>
      </trkpt>
      <trkpt lat="43.62747" lon="3.68707">
        <ele>152</ele>
        <time>2011-02-06T10:01:54Z</time>
      </trkpt>
      <trkpt lat="43.62748" lon="3.68714">
        <ele>151.9</ele>
        <time>2011-02-06T10:01:55Z</time>
      </trkpt>
      <trkpt lat="43.62749" lon="3.68722">
        <ele>151.7</ele>
        <time>2011-02-06T10:01:56Z</time>
      </trkpt>
      <trkpt lat="43.6275" lon="3.6873">
        <ele>151.5</ele>
        <time>2011-02-06T10:01:57Z</time>
      </trkpt>
      <trkpt lat="43.62751" lon="3.68738">
        <ele>151.4</ele>
        <time>2011-02-06T10:01:58Z</time>
      </trkpt>
      <trkpt lat="43.62752" lon="3.68746">
        <ele>150.7</ele>
        <time>2011-02-06T10:01:59Z</time>
      </trkpt>
      <trkpt lat="43.62754" lon="3.68755">
        <ele>150.1</ele>
        <time>2011-02-06T10:02:00Z</time>
      </trkpt>
      <trkpt lat="43.62752" lon="3.68764">
        <ele>149.7</ele>
        <time>2011-02-06T10:02:01Z</time>
      </trkpt>
      <trkpt lat="43.62748" lon="3.68771">
        <ele>149.3</ele>
        <time>2011-02-06T10:02:02Z</time>
      </trkpt>
      <trkpt lat="43.62742" lon="3.68777">
        <ele>148.9</ele>
        <time>2011-02-06T10:02:03Z</time>
      </trkpt>
      <trkpt lat="43.62737" lon="3.68783">
        <ele>148.6</ele>
        <time>2011-02-06T10:02:04Z</time>
      </trkpt>
      <trkpt lat="43.62731" lon="3.68788">
        <ele>148.7</ele>
        <time>2011-02-06T10:02:05Z</time>
      </trkpt>
      <trkpt lat="43.62726" lon="3.68792">
        <ele>148.8</ele>
        <time>2011-02-06T10:02:06Z</time>
      </trkpt>
      <trkpt lat="43.62721" lon="3.68796">
        <ele>148.9</ele>
        <time>2011-02-06T10:02:07Z</time>
      </trkpt>
      <trkpt lat="43.62717" lon="3.688">
        <ele>149</ele>
        <time>2011-02-06T10:02:08Z</time>
      </trkpt>
      <trkpt lat="43.62713" lon="3.68804">
        <ele>149</ele>
        <time>2011-02-06T10:02:09Z</time>
      </trkpt>
      <trkpt lat="43.62708" lon="3.68808">
        <ele>149.1</ele>
        <time>2011-02-06T10:02:10Z</time>
      </trkpt>
      <trkpt lat="43.62704" lon="3.68812">
        <ele>149.1</ele>
        <time>2011-02-06T10:02:11Z</time>
      </trkpt>
      <trkpt lat="43.627" lon="3.68816">
        <ele>148.7</ele>
        <time>2011-02-06T10:02:12Z</time>
      </trkpt>
      <trkpt lat="43.62695" lon="3.6882">
        <ele>148.4</ele>
        <time>2011-02-06T10:02:13Z</time>
      </trkpt>
      <trkpt lat="43.62691" lon="3.68823">
        <ele>148.1</ele>
        <time>2011-02-06T10:02:14Z</time>
      </trkpt>
      <trkpt lat="43.62687" lon="3.68827">
        <ele>147.9</ele>
        <time>2011-02-06T10:02:15Z</time>
      </trkpt>
      <trkpt lat="43.62682" lon="3.6883">
        <ele>147.8</ele>
        <time>2011-02-06T10:02:16Z</time>
      </trkpt>
      <trkpt lat="43.62678" lon="3.68834">
        <ele>147.7</ele>
        <time>2011-02-06T10:02:17Z</time>
      </trkpt>
      <trkpt lat="43.62673" lon="3.68838">
        <ele>147.5</ele>
        <time>2011-02-06T10:02:18Z</time>
      </trkpt>
      <trkpt lat="43.62668" lon="3.68842">
        <ele>147.4</ele>
        <time>2011-02-06T10:02:19Z</time>
      </trkpt>
      <trkpt lat="43.62664" lon="3.68845">
        <ele>147.3</ele>
        <time>2011-02-06T10:02:20Z</time>
      </trkpt>
      <trkpt lat="43.62659" lon="3.68849">
        <ele>147.4</ele>
        <time>2011-02-06T10:02:21Z</time>
      </trkpt>
      <trkpt lat="43.62655" lon="3.68852">
        <ele>147.4</ele>
        <time>2011-02-06T10:02:22Z</time>
      </trkpt>
      <trkpt lat="43.6265" lon="3.68856">
        <ele>147.4</ele>
        <time>2011-02-06T10:02:23Z</time>
      </trkpt>
      <trkpt lat="43.62646" lon="3.68859">
        <ele>147.2</ele>
        <time>2011-02-06T10:02:24Z</time>
      </trkpt>
      <trkpt lat="43.62641" lon="3.68863">
        <ele>147.1</ele>
        <time>2011-02-06T10:02:25Z</time>
      </trkpt>
      <trkpt lat="43.62636" lon="3.68866">
        <ele>147</ele>
        <time>2011-02-06T10:02:26Z</time>
      </trkpt>
      <trkpt lat="43.62632" lon="3.68869">
        <ele>146.9</ele>
        <time>2011-02-06T10:02:27Z</time>
      </trkpt>
      <trkpt lat="43.62627" lon="3.68873">
        <ele>147.1</ele>
        <time>2011-02-06T10:02:28Z</time>
      </trkpt>
      <trkpt lat="43.62622" lon="3.68876">
        <ele>147.3</ele>
        <time>2011-02-06T10:02:29Z</time>
      </trkpt>
      <trkpt lat="43.62617" lon="3.68879">
        <ele>147.5</ele>
        <time>2011-02-06T10:02:30Z</time>
      </trkpt>
      <trkpt lat="43.62613" lon="3.68882">
        <ele>147.1</ele>
        <time>2011-02-06T10:02:31Z</time>
      </trkpt>
      <trkpt lat="43.62608" lon="3.68885">
        <ele>146.9</ele>
        <time>2011-02-06T10:02:32Z</time>
      </trkpt>
      <trkpt lat="43.62603" lon="3.68887">
        <ele>146.7</ele>
        <time>2011-02-06T10:02:33Z</time>
      </trkpt>
      <trkpt lat="43.62599" lon="3.68889">
        <ele>146.6</ele>
        <time>2011-02-06T10:02:34Z</time>
      </trkpt>
      <trkpt lat="43.62594" lon="3.6889">
        <ele>146.5</ele>
        <time>2011-02-06T10:02:35Z</time>
      </trkpt>
      <trkpt lat="43.62585" lon="3.6889">
        <ele>146.6</ele>
        <time>2011-02-06T10:02:37Z</time>
      </trkpt>
      <trkpt lat="43.62576" lon="3.68888">
        <ele>146.7</ele>
        <time>2011-02-06T10:02:39Z</time>
      </trkpt>
      <trkpt lat="43.62569" lon="3.68884">
        <ele>146.6</ele>
        <time>2011-02-06T10:02:41Z</time>
      </trkpt>
      <trkpt lat="43.62561" lon="3.6888">
        <ele>146.5</ele>
        <time>2011-02-06T10:02:43Z</time>
      </trkpt>
      <trkpt lat="43.62554" lon="3.68875">
        <ele>146.7</ele>
        <time>2011-02-06T10:02:45Z</time>
      </trkpt>
      <trkpt lat="43.62547" lon="3.68871">
        <ele>147.1</ele>
        <time>2011-02-06T10:02:47Z</time>
      </trkpt>
      <trkpt lat="43.62539" lon="3.68869">
        <ele>147.5</ele>
        <time>2011-02-06T10:02:49Z</time>
      </trkpt>
      <trkpt lat="43.62532" lon="3.68868">
        <ele>148.2</ele>
        <time>2011-02-06T10:02:51Z</time>
      </trkpt>
      <trkpt lat="43.62527" lon="3.68869">
        <ele>148.5</ele>
        <time>2011-02-06T10:02:52Z</time>
      </trkpt>
      <trkpt lat="43.62523" lon="3.6887">
        <ele>148.5</ele>
        <time>2011-02-06T10:02:53Z</time>
      </trkpt>
      <trkpt lat="43.62518" lon="3.68872">
        <ele>148.4</ele>
        <time>2011-02-06T10:02:54Z</time>
      </trkpt>
      <trkpt lat="43.62513" lon="3.68875">
        <ele>148.4</ele>
        <time>2011-02-06T10:02:55Z</time>
      </trkpt>
      <trkpt lat="43.62509" lon="3.6888">
        <ele>147.6</ele>
        <time>2011-02-06T10:02:56Z</time>
      </trkpt>
      <trkpt lat="43.62505" lon="3.68887">
        <ele>147.1</ele>
        <time>2011-02-06T10:02:57Z</time>
      </trkpt>
      <trkpt lat="43.62503" lon="3.68895">
        <ele>146.6</ele>
        <time>2011-02-06T10:02:58Z</time>
      </trkpt>
      <trkpt lat="43.62501" lon="3.68904">
        <ele>146.3</ele>
        <time>2011-02-06T10:02:59Z</time>
      </trkpt>
      <trkpt lat="43.62499" lon="3.68913">
        <ele>146</ele>
        <time>2011-02-06T10:03:00Z</time>
      </trkpt>
      <trkpt lat="43.62498" lon="3.68923">
        <ele>145.8</ele>
        <time>2011-02-06T10:03:01Z</time>
      </trkpt>
      <trkpt lat="43.62496" lon="3.68932">
        <ele>145.6</ele>
        <time>2011-02-06T10:03:02Z</time>
      </trkpt>
      <trkpt lat="43.62495" lon="3.68941">
        <ele>145.2</ele>
        <time>2011-02-06T10:03:03Z</time>
      </trkpt>
      <trkpt lat="43.62494" lon="3.6895">
        <ele>144.9</ele>
        <time>2011-02-06T10:03:04Z</time>
      </trkpt>
      <trkpt lat="43.62493" lon="3.68958">
        <ele>144.6</ele>
        <time>2011-02-06T10:03:05Z</time>
      </trkpt>
      <trkpt lat="43.62491" lon="3.68966">
        <ele>144.7</ele>
        <time>2011-02-06T10:03:06Z</time>
      </trkpt>
      <trkpt lat="43.6249" lon="3.68974">
        <ele>144.7</ele>
        <time>2011-02-06T10:03:07Z</time>
      </trkpt>
      <trkpt lat="43.62488" lon="3.68982">
        <ele>144.7</ele>
        <time>2011-02-06T10:03:08Z</time>
      </trkpt>
      <trkpt lat="43.62487" lon="3.68989">
        <ele>144.6</ele>
        <time>2011-02-06T10:03:09Z</time>
      </trkpt>
      <trkpt lat="43.62486" lon="3.68996">
        <ele>144.6</ele>
        <time>2011-02-06T10:03:10Z</time>
      </trkpt>
      <trkpt lat="43.62484" lon="3.69003">
        <ele>144.5</ele>
        <time>2011-02-06T10:03:11Z</time>
      </trkpt>
      <trkpt lat="43.62483" lon="3.69011">
        <ele>144.7</ele>
        <time>2011-02-06T10:03:12Z</time>
      </trkpt>
      <trkpt lat="43.62481" lon="3.69018">
        <ele>144.8</ele>
        <time>2011-02-06T10:03:13Z</time>
      </trkpt>
      <trkpt lat="43.6248" lon="3.69025">
        <ele>144.9</ele>
        <time>2011-02-06T10:03:14Z</time>
      </trkpt>
      <trkpt lat="43.62478" lon="3.69032">
        <ele>145.1</ele>
        <time>2011-02-06T10:03:15Z</time>
      </trkpt>
      <trkpt lat="43.62475" lon="3.69038">
        <ele>145.3</ele>
        <time>2011-02-06T10:03:16Z</time>
      </trkpt>
      <trkpt lat="43.62473" lon="3.69045">
        <ele>145.4</ele>
        <time>2011-02-06T10:03:17Z</time>
      </trkpt>
      <trkpt lat="43.6247" lon="3.69051">
        <ele>145.6</ele>
        <time>2011-02-06T10:03:18Z</time>
      </trkpt>
      <trkpt lat="43.62467" lon="3.69056">
        <ele>145.4</ele>
        <time>2011-02-06T10:03:19Z</time>
      </trkpt>
      <trkpt lat="43.62464" lon="3.69062">
        <ele>145.3</ele>
        <time>2011-02-06T10:03:20Z</time>
      </trkpt>
      <trkpt lat="43.62461" lon="3.69067">
        <ele>145.2</ele>
        <time>2011-02-06T10:03:21Z</time>
      </trkpt>
      <trkpt lat="43.62458" lon="3.69072">
        <ele>145.5</ele>
        <time>2011-02-06T10:03:22Z</time>
      </trkpt>
      <trkpt lat="43.62455" lon="3.69077">
        <ele>145.8</ele>
        <time>2011-02-06T10:03:23Z</time>
      </trkpt>
      <trkpt lat="43.6245" lon="3.69087">
        <ele>146.5</ele>
        <time>2011-02-06T10:03:25Z</time>
      </trkpt>
      <trkpt lat="43.62445" lon="3.69096">
        <ele>147.2</ele>
        <time>2011-02-06T10:03:27Z</time>
      </trkpt>
      <trkpt lat="43.62441" lon="3.69106">
        <ele>147.5</ele>
        <time>2011-02-06T10:03:29Z</time>
      </trkpt>
      <trkpt lat="43.62437" lon="3.69115">
        <ele>148</ele>
        <time>2011-02-06T10:03:31Z</time>
      </trkpt>
      <trkpt lat="43.62433" lon="3.69124">
        <ele>148.5</ele>
        <time>2011-02-06T10:03:33Z</time>
      </trkpt>
      <trkpt lat="43.62429" lon="3.69133">
        <ele>149.3</ele>
        <time>2011-02-06T10:03:35Z</time>
      </trkpt>
      <trkpt lat="43.62425" lon="3.69142">
        <ele>150.2</ele>
        <time>2011-02-06T10:03:37Z</time>
      </trkpt>
      <trkpt lat="43.62422" lon="3.69152">
        <ele>151.3</ele>
        <time>2011-02-06T10:03:39Z</time>
      </trkpt>
      <trkpt lat="43.62419" lon="3.69163">
        <ele>152</ele>
        <time>2011-02-06T10:03:41Z</time>
      </trkpt>
      <trkpt lat="43.62417" lon="3.69175">
        <ele>152.3</ele>
        <time>2011-02-06T10:03:43Z</time>
      </trkpt>
      <trkpt lat="43.62415" lon="3.69185">
        <ele>153.3</ele>
        <time>2011-02-06T10:03:45Z</time>
      </trkpt>
      <trkpt lat="43.62411" lon="3.69195">
        <ele>154.2</ele>
        <time>2011-02-06T10:03:47Z</time>
      </trkpt>
      <trkpt lat="43.62406" lon="3.69204">
        <ele>155</ele>
        <time>2011-02-06T10:03:49Z</time>
      </trkpt>
      <trkpt lat="43.62402" lon="3.69213">
        <ele>155.4</ele>
        <time>2011-02-06T10:03:51Z</time>
      </trkpt>
      <trkpt lat="43.62398" lon="3.69221">
        <ele>155.6</ele>
        <time>2011-02-06T10:03:53Z</time>
      </trkpt>
      <trkpt lat="43.62394" lon="3.69229">
        <ele>156.5</ele>
        <time>2011-02-06T10:03:55Z</time>
      </trkpt>
      <trkpt lat="43.6239" lon="3.69237">
        <ele>157.1</ele>
        <time>2011-02-06T10:03:57Z</time>
      </trkpt>
      <trkpt lat="43.62387" lon="3.69244">
        <ele>157.4</ele>
        <time>2011-02-06T10:03:59Z</time>
      </trkpt>
      <trkpt lat="43.62384" lon="3.69252">
        <ele>158.1</ele>
        <time>2011-02-06T10:04:01Z</time>
      </trkpt>
      <trkpt lat="43.6238" lon="3.6926">
        <ele>158.3</ele>
        <time>2011-02-06T10:04:03Z</time>
      </trkpt>
      <trkpt lat="43.62377" lon="3.69268">
        <ele>158.4</ele>
        <time>2011-02-06T10:04:05Z</time>
      </trkpt>
      <trkpt lat="43.62373" lon="3.69276">
        <ele>158.7</ele>
        <time>2011-02-06T10:04:07Z</time>
      </trkpt>
      <trkpt lat="43.6237" lon="3.69283">
        <ele>158.8</ele>
        <time>2011-02-06T10:04:09Z</time>
      </trkpt>
      <trkpt lat="43.62369" lon="3.69287">
        <ele>159</ele>
        <time>2011-02-06T10:04:10Z</time>
      </trkpt>
      <trkpt lat="43.62363" lon="3.69298">
        <ele>159.4</ele>
        <time>2011-02-06T10:04:13Z</time>
      </trkpt>
      <trkpt lat="43.6236" lon="3.69306">
        <ele>159.5</ele>
        <time>2011-02-06T10:04:15Z</time>
      </trkpt>
      <trkpt lat="43.62357" lon="3.69314">
        <ele>160.1</ele>
        <time>2011-02-06T10:04:17Z</time>
      </trkpt>
      <trkpt lat="43.62354" lon="3.69322">
        <ele>160.4</ele>
        <time>2011-02-06T10:04:19Z</time>
      </trkpt>
      <trkpt lat="43.62351" lon="3.69329">
        <ele>160.5</ele>
        <time>2011-02-06T10:04:21Z</time>
      </trkpt>
      <trkpt lat="43.62347" lon="3.69336">
        <ele>161.5</ele>
        <time>2011-02-06T10:04:23Z</time>
      </trkpt>
      <trkpt lat="43.62342" lon="3.69346">
        <ele>162.2</ele>
        <time>2011-02-06T10:04:26Z</time>
      </trkpt>
      <trkpt lat="43.62337" lon="3.69355">
        <ele>162.6</ele>
        <time>2011-02-06T10:04:29Z</time>
      </trkpt>
      <trkpt lat="43.62332" lon="3.69364">
        <ele>163.4</ele>
        <time>2011-02-06T10:04:32Z</time>
      </trkpt>
      <trkpt lat="43.62327" lon="3.69372">
        <ele>164.2</ele>
        <time>2011-02-06T10:04:35Z</time>
      </trkpt>
      <trkpt lat="43.62323" lon="3.69381">
        <ele>165.3</ele>
        <time>2011-02-06T10:04:38Z</time>
      </trkpt>
      <trkpt lat="43.62317" lon="3.6939">
        <ele>166.8</ele>
        <time>2011-02-06T10:04:42Z</time>
      </trkpt>
      <trkpt lat="43.62313" lon="3.69398">
        <ele>167</ele>
        <time>2011-02-06T10:04:45Z</time>
      </trkpt>
      <trkpt lat="43.62309" lon="3.69405">
        <ele>167.5</ele>
        <time>2011-02-06T10:04:48Z</time>
      </trkpt>
      <trkpt lat="43.62305" lon="3.69413">
        <ele>167.9</ele>
        <time>2011-02-06T10:04:51Z</time>
      </trkpt>
      <trkpt lat="43.623" lon="3.69422">
        <ele>168.9</ele>
        <time>2011-02-06T10:04:55Z</time>
      </trkpt>
      <trkpt lat="43.62294" lon="3.6943">
        <ele>169.4</ele>
        <time>2011-02-06T10:04:59Z</time>
      </trkpt>
      <trkpt lat="43.62289" lon="3.69437">
        <ele>169.8</ele>
        <time>2011-02-06T10:05:02Z</time>
      </trkpt>
      <trkpt lat="43.62284" lon="3.69444">
        <ele>170.4</ele>
        <time>2011-02-06T10:05:05Z</time>
      </trkpt>
      <trkpt lat="43.62279" lon="3.69451">
        <ele>171.6</ele>
        <time>2011-02-06T10:05:08Z</time>
      </trkpt>
      <trkpt lat="43.62275" lon="3.69462">
        <ele>172.1</ele>
        <time>2011-02-06T10:05:12Z</time>
      </trkpt>
      <trkpt lat="43.62274" lon="3.69465">
        <ele>172.2</ele>
        <time>2011-02-06T10:05:13Z</time>
      </trkpt>
      <trkpt lat="43.62266" lon="3.69478">
        <ele>173.1</ele>
        <time>2011-02-06T10:05:18Z</time>
      </trkpt>
      <trkpt lat="43.62261" lon="3.69486">
        <ele>173.7</ele>
        <time>2011-02-06T10:05:21Z</time>
      </trkpt>
      <trkpt lat="43.62257" lon="3.69494">
        <ele>174.2</ele>
        <time>2011-02-06T10:05:24Z</time>
      </trkpt>
      <trkpt lat="43.62252" lon="3.69502">
        <ele>174.7</ele>
        <time>2011-02-06T10:05:27Z</time>
      </trkpt>
      <trkpt lat="43.62247" lon="3.6951">
        <ele>175.1</ele>
        <time>2011-02-06T10:05:30Z</time>
      </trkpt>
      <trkpt lat="43.62243" lon="3.69518">
        <ele>175.6</ele>
        <time>2011-02-06T10:05:33Z</time>
      </trkpt>
      <trkpt lat="43.62239" lon="3.69527">
        <ele>176.2</ele>
        <time>2011-02-06T10:05:36Z</time>
      </trkpt>
      <trkpt lat="43.62236" lon="3.69538">
        <ele>176.5</ele>
        <time>2011-02-06T10:05:39Z</time>
      </trkpt>
      <trkpt lat="43.62233" lon="3.69548">
        <ele>176.9</ele>
        <time>2011-02-06T10:05:42Z</time>
      </trkpt>
      <trkpt lat="43.6223" lon="3.69558">
        <ele>177.6</ele>
        <time>2011-02-06T10:05:45Z</time>
      </trkpt>
      <trkpt lat="43.62226" lon="3.69569">
        <ele>177.8</ele>
        <time>2011-02-06T10:05:48Z</time>
      </trkpt>
      <trkpt lat="43.62222" lon="3.69575">
        <ele>178.2</ele>
        <time>2011-02-06T10:05:50Z</time>
      </trkpt>
      <trkpt lat="43.62217" lon="3.69581">
        <ele>178.3</ele>
        <time>2011-02-06T10:05:52Z</time>
      </trkpt>
      <trkpt lat="43.6221" lon="3.69586">
        <ele>178.3</ele>
        <time>2011-02-06T10:05:55Z</time>
      </trkpt>
      <trkpt lat="43.62204" lon="3.69593">
        <ele>177.9</ele>
        <time>2011-02-06T10:07:23Z</time>
      </trkpt>
      <trkpt lat="43.62202" lon="3.69595">
        <ele>177.9</ele>
        <time>2011-02-06T10:07:24Z</time>
      </trkpt>
      <trkpt lat="43.62196" lon="3.69608">
        <ele>177.7</ele>
        <time>2011-02-06T10:07:28Z</time>
      </trkpt>
      <trkpt lat="43.62192" lon="3.69616">
        <ele>177.6</ele>
        <time>2011-02-06T10:07:30Z</time>
      </trkpt>
      <trkpt lat="43.6219" lon="3.69624">
        <ele>177.4</ele>
        <time>2011-02-06T10:07:32Z</time>
      </trkpt>
      <trkpt lat="43.62186" lon="3.69635">
        <ele>177.1</ele>
        <time>2011-02-06T10:07:35Z</time>
      </trkpt>
      <trkpt lat="43.62182" lon="3.69645">
        <ele>176.8</ele>
        <time>2011-02-06T10:07:38Z</time>
      </trkpt>
      <trkpt lat="43.62177" lon="3.69655">
        <ele>176.7</ele>
        <time>2011-02-06T10:07:42Z</time>
      </trkpt>
      <trkpt lat="43.62171" lon="3.69647">
        <ele>176.3</ele>
        <time>2011-02-06T10:08:49Z</time>
      </trkpt>
      <trkpt lat="43.62169" lon="3.69644">
        <ele>176.1</ele>
        <time>2011-02-06T10:08:50Z</time>
      </trkpt>
      <trkpt lat="43.62164" lon="3.69632">
        <ele>174.7</ele>
        <time>2011-02-06T10:08:53Z</time>
      </trkpt>
      <trkpt lat="43.62157" lon="3.69625">
        <ele>170.9</ele>
        <time>2011-02-06T10:08:58Z</time>
      </trkpt>
      <trkpt lat="43.62149" lon="3.69629">
        <ele>170.4</ele>
        <time>2011-02-06T10:09:09Z</time>
      </trkpt>
      <trkpt lat="43.62142" lon="3.69633">
        <ele>170.2</ele>
        <time>2011-02-06T10:09:13Z</time>
      </trkpt>
      <trkpt lat="43.62134" lon="3.69634">
        <ele>171</ele>
        <time>2011-02-06T10:09:16Z</time>
      </trkpt>
      <trkpt lat="43.62126" lon="3.69632">
        <ele>171.5</ele>
        <time>2011-02-06T10:09:19Z</time>
      </trkpt>
      <trkpt lat="43.6212" lon="3.6963">
        <ele>171.6</ele>
        <time>2011-02-06T10:09:21Z</time>
      </trkpt>
      <trkpt lat="43.62112" lon="3.69628">
        <ele>171.2</ele>
        <time>2011-02-06T10:09:23Z</time>
      </trkpt>
      <trkpt lat="43.62105" lon="3.69626">
        <ele>171</ele>
        <time>2011-02-06T10:09:25Z</time>
      </trkpt>
      <trkpt lat="43.62099" lon="3.69624">
        <ele>170.4</ele>
        <time>2011-02-06T10:09:27Z</time>
      </trkpt>
      <trkpt lat="43.62092" lon="3.69622">
        <ele>169.9</ele>
        <time>2011-02-06T10:09:30Z</time>
      </trkpt>
      <trkpt lat="43.62084" lon="3.69621">
        <ele>169.7</ele>
        <time>2011-02-06T10:09:33Z</time>
      </trkpt>
      <trkpt lat="43.62078" lon="3.69621">
        <ele>169.4</ele>
        <time>2011-02-06T10:09:35Z</time>
      </trkpt>
      <trkpt lat="43.62071" lon="3.6962">
        <ele>168.7</ele>
        <time>2011-02-06T10:09:38Z</time>
      </trkpt>
      <trkpt lat="43.62067" lon="3.69613">
        <ele>168.3</ele>
        <time>2011-02-06T10:09:40Z</time>
      </trkpt>
      <trkpt lat="43.62061" lon="3.69607">
        <ele>167.4</ele>
        <time>2011-02-06T10:09:42Z</time>
      </trkpt>
      <trkpt lat="43.62055" lon="3.696">
        <ele>166.3</ele>
        <time>2011-02-06T10:09:44Z</time>
      </trkpt>
      <trkpt lat="43.62049" lon="3.69595">
        <ele>164.1</ele>
        <time>2011-02-06T10:09:46Z</time>
      </trkpt>
      <trkpt lat="43.62043" lon="3.69591">
        <ele>162.3</ele>
        <time>2011-02-06T10:09:48Z</time>
      </trkpt>
      <trkpt lat="43.62036" lon="3.69587">
        <ele>160</ele>
        <time>2011-02-06T10:09:51Z</time>
      </trkpt>
      <trkpt lat="43.62034" lon="3.69585">
        <ele>159.4</ele>
        <time>2011-02-06T10:09:52Z</time>
      </trkpt>
      <trkpt lat="43.62038" lon="3.69573">
        <ele>154.6</ele>
        <time>2011-02-06T10:11:44Z</time>
      </trkpt>
      <trkpt lat="43.62039" lon="3.69572">
        <ele>154.4</ele>
        <time>2011-02-06T10:11:45Z</time>
      </trkpt>
      <trkpt lat="43.6204" lon="3.69557">
        <ele>154.6</ele>
        <time>2011-02-06T10:12:46Z</time>
      </trkpt>
      <trkpt lat="43.62038" lon="3.69557">
        <ele>154.4</ele>
        <time>2011-02-06T10:12:47Z</time>
      </trkpt>
      <trkpt lat="43.62025" lon="3.69549">
        <ele>152.9</ele>
        <time>2011-02-06T10:13:24Z</time>
      </trkpt>
      <trkpt lat="43.6202" lon="3.6954">
        <ele>154.7</ele>
        <time>2011-02-06T10:13:35Z</time>
      </trkpt>
      <trkpt lat="43.62013" lon="3.69531">
        <ele>158.9</ele>
        <time>2011-02-06T10:13:53Z</time>
      </trkpt>
      <trkpt lat="43.62013" lon="3.69531">
        <ele>158.8</ele>
        <time>2011-02-06T10:13:54Z</time>
      </trkpt>
      <trkpt lat="43.62008" lon="3.6952">
        <ele>159.1</ele>
        <time>2011-02-06T10:15:43Z</time>
      </trkpt>
      <trkpt lat="43.62004" lon="3.69498">
        <ele>161.8</ele>
        <time>2011-02-06T10:16:04Z</time>
      </trkpt>
      <trkpt lat="43.61997" lon="3.69492">
        <ele>163.6</ele>
        <time>2011-02-06T10:16:10Z</time>
      </trkpt>
      <trkpt lat="43.61994" lon="3.69482">
        <ele>165.2</ele>
        <time>2011-02-06T10:16:15Z</time>
      </trkpt>
      <trkpt lat="43.61991" lon="3.69471">
        <ele>165.8</ele>
        <time>2011-02-06T10:16:20Z</time>
      </trkpt>
      <trkpt lat="43.61982" lon="3.69471">
        <ele>168.1</ele>
        <time>2011-02-06T10:16:31Z</time>
      </trkpt>
      <trkpt lat="43.61977" lon="3.69481">
        <ele>168.7</ele>
        <time>2011-02-06T10:16:39Z</time>
      </trkpt>
      <trkpt lat="43.61971" lon="3.69489">
        <ele>170.3</ele>
        <time>2011-02-06T10:16:47Z</time>
      </trkpt>
      <trkpt lat="43.6197" lon="3.69489">
        <ele>170.3</ele>
        <time>2011-02-06T10:16:48Z</time>
      </trkpt>
      <trkpt lat="43.61954" lon="3.69485">
        <ele>174.5</ele>
        <time>2011-02-06T10:17:07Z</time>
      </trkpt>
      <trkpt lat="43.61947" lon="3.69478">
        <ele>175.5</ele>
        <time>2011-02-06T10:17:15Z</time>
      </trkpt>
      <trkpt lat="43.61942" lon="3.69469">
        <ele>176.9</ele>
        <time>2011-02-06T10:17:24Z</time>
      </trkpt>
      <trkpt lat="43.61935" lon="3.69462">
        <ele>178.7</ele>
        <time>2011-02-06T10:17:35Z</time>
      </trkpt>
      <trkpt lat="43.61929" lon="3.69455">
        <ele>178.8</ele>
        <time>2011-02-06T10:17:39Z</time>
      </trkpt>
      <trkpt lat="43.61922" lon="3.6945">
        <ele>180.3</ele>
        <time>2011-02-06T10:17:43Z</time>
      </trkpt>
      <trkpt lat="43.61916" lon="3.69443">
        <ele>181.4</ele>
        <time>2011-02-06T10:17:47Z</time>
      </trkpt>
      <trkpt lat="43.6191" lon="3.69437">
        <ele>182</ele>
        <time>2011-02-06T10:17:51Z</time>
      </trkpt>
      <trkpt lat="43.61909" lon="3.69435">
        <ele>182</ele>
        <time>2011-02-06T10:17:52Z</time>
      </trkpt>
      <trkpt lat="43.61894" lon="3.69432">
        <ele>183.4</ele>
        <time>2011-02-06T10:18:00Z</time>
      </trkpt>
      <trkpt lat="43.61886" lon="3.69434">
        <ele>183.7</ele>
        <time>2011-02-06T10:18:04Z</time>
      </trkpt>
      <trkpt lat="43.61879" lon="3.69435">
        <ele>184.1</ele>
        <time>2011-02-06T10:18:08Z</time>
      </trkpt>
      <trkpt lat="43.61871" lon="3.69427">
        <ele>185.8</ele>
        <time>2011-02-06T10:19:17Z</time>
      </trkpt>
      <trkpt lat="43.61871" lon="3.69427">
        <ele>185.9</ele>
        <time>2011-02-06T10:19:18Z</time>
      </trkpt>
      <trkpt lat="43.61874" lon="3.69406">
        <ele>186</ele>
        <time>2011-02-06T10:20:21Z</time>
      </trkpt>
      <trkpt lat="43.61874" lon="3.69403">
        <ele>186.1</ele>
        <time>2011-02-06T10:20:22Z</time>
      </trkpt>
      <trkpt lat="43.61872" lon="3.69387">
        <ele>185.1</ele>
        <time>2011-02-06T10:20:26Z</time>
      </trkpt>
      <trkpt lat="43.61869" lon="3.69378">
        <ele>184.8</ele>
        <time>2011-02-06T10:20:28Z</time>
      </trkpt>
      <trkpt lat="43.61864" lon="3.6937">
        <ele>184.5</ele>
        <time>2011-02-06T10:20:30Z</time>
      </trkpt>
      <trkpt lat="43.61859" lon="3.69364">
        <ele>184.4</ele>
        <time>2011-02-06T10:20:32Z</time>
      </trkpt>
      <trkpt lat="43.61856" lon="3.69357">
        <ele>184.5</ele>
        <time>2011-02-06T10:20:34Z</time>
      </trkpt>
      <trkpt lat="43.61854" lon="3.69348">
        <ele>184.1</ele>
        <time>2011-02-06T10:20:36Z</time>
      </trkpt>
      <trkpt lat="43.61851" lon="3.69336">
        <ele>183.5</ele>
        <time>2011-02-06T10:20:38Z</time>
      </trkpt>
      <trkpt lat="43.61849" lon="3.69325">
        <ele>182.9</ele>
        <time>2011-02-06T10:20:40Z</time>
      </trkpt>
      <trkpt lat="43.61847" lon="3.69318">
        <ele>182.7</ele>
        <time>2011-02-06T10:20:41Z</time>
      </trkpt>
      <trkpt lat="43.61846" lon="3.69312">
        <ele>181.9</ele>
        <time>2011-02-06T10:20:42Z</time>
      </trkpt>
      <trkpt lat="43.61844" lon="3.69306">
        <ele>181.4</ele>
        <time>2011-02-06T10:20:43Z</time>
      </trkpt>
      <trkpt lat="43.61842" lon="3.69299">
        <ele>181</ele>
        <time>2011-02-06T10:20:44Z</time>
      </trkpt>
      <trkpt lat="43.61841" lon="3.69293">
        <ele>180.7</ele>
        <time>2011-02-06T10:20:45Z</time>
      </trkpt>
      <trkpt lat="43.61839" lon="3.69286">
        <ele>180.1</ele>
        <time>2011-02-06T10:20:46Z</time>
      </trkpt>
      <trkpt lat="43.61837" lon="3.69281">
        <ele>179.7</ele>
        <time>2011-02-06T10:20:47Z</time>
      </trkpt>
      <trkpt lat="43.61835" lon="3.69274">
        <ele>179.4</ele>
        <time>2011-02-06T10:20:48Z</time>
      </trkpt>
      <trkpt lat="43.61833" lon="3.69268">
        <ele>178.6</ele>
        <time>2011-02-06T10:20:49Z</time>
      </trkpt>
      <trkpt lat="43.61833" lon="3.69261">
        <ele>177.9</ele>
        <time>2011-02-06T10:20:50Z</time>
      </trkpt>
      <trkpt lat="43.61832" lon="3.69254">
        <ele>177.5</ele>
        <time>2011-02-06T10:20:51Z</time>
      </trkpt>
      <trkpt lat="43.61832" lon="3.69248">
        <ele>177.4</ele>
        <time>2011-02-06T10:20:52Z</time>
      </trkpt>
      <trkpt lat="43.61831" lon="3.69241">
        <ele>177.4</ele>
        <time>2011-02-06T10:20:53Z</time>
      </trkpt>
      <trkpt lat="43.6183" lon="3.69235">
        <ele>177.3</ele>
        <time>2011-02-06T10:20:54Z</time>
      </trkpt>
      <trkpt lat="43.61827" lon="3.69229">
        <ele>176.7</ele>
        <time>2011-02-06T10:20:55Z</time>
      </trkpt>
      <trkpt lat="43.61825" lon="3.69222">
        <ele>176.2</ele>
        <time>2011-02-06T10:20:56Z</time>
      </trkpt>
      <trkpt lat="43.61822" lon="3.69216">
        <ele>175.8</ele>
        <time>2011-02-06T10:20:57Z</time>
      </trkpt>
      <trkpt lat="43.6182" lon="3.69209">
        <ele>175</ele>
        <time>2011-02-06T10:20:58Z</time>
      </trkpt>
      <trkpt lat="43.61816" lon="3.69202">
        <ele>174.3</ele>
        <time>2011-02-06T10:20:59Z</time>
      </trkpt>
      <trkpt lat="43.61813" lon="3.69195">
        <ele>173.8</ele>
        <time>2011-02-06T10:21:00Z</time>
      </trkpt>
      <trkpt lat="43.6181" lon="3.69188">
        <ele>173.4</ele>
        <time>2011-02-06T10:21:01Z</time>
      </trkpt>
      <trkpt lat="43.61807" lon="3.6918">
        <ele>173.1</ele>
        <time>2011-02-06T10:21:02Z</time>
      </trkpt>
      <trkpt lat="43.61805" lon="3.69171">
        <ele>172.8</ele>
        <time>2011-02-06T10:21:03Z</time>
      </trkpt>
      <trkpt lat="43.61802" lon="3.69163">
        <ele>172.6</ele>
        <time>2011-02-06T10:21:04Z</time>
      </trkpt>
      <trkpt lat="43.61799" lon="3.69155">
        <ele>171.9</ele>
        <time>2011-02-06T10:21:05Z</time>
      </trkpt>
      <trkpt lat="43.61795" lon="3.69147">
        <ele>171.3</ele>
        <time>2011-02-06T10:21:06Z</time>
      </trkpt>
      <trkpt lat="43.61792" lon="3.69138">
        <ele>170.9</ele>
        <time>2011-02-06T10:21:07Z</time>
      </trkpt>
      <trkpt lat="43.61791" lon="3.69129">
        <ele>170.3</ele>
        <time>2011-02-06T10:21:08Z</time>
      </trkpt>
      <trkpt lat="43.61791" lon="3.6912">
        <ele>169.8</ele>
        <time>2011-02-06T10:21:09Z</time>
      </trkpt>
      <trkpt lat="43.61792" lon="3.6911">
        <ele>169.5</ele>
        <time>2011-02-06T10:21:10Z</time>
      </trkpt>
      <trkpt lat="43.61793" lon="3.69101">
        <ele>168.8</ele>
        <time>2011-02-06T10:21:11Z</time>
      </trkpt>
      <trkpt lat="43.61794" lon="3.69092">
        <ele>168.3</ele>
        <time>2011-02-06T10:21:12Z</time>
      </trkpt>
      <trkpt lat="43.61794" lon="3.69083">
        <ele>167.9</ele>
        <time>2011-02-06T10:21:13Z</time>
      </trkpt>
      <trkpt lat="43.61795" lon="3.69075">
        <ele>167.5</ele>
        <time>2011-02-06T10:21:14Z</time>
      </trkpt>
      <trkpt lat="43.61797" lon="3.69067">
        <ele>167.2</ele>
        <time>2011-02-06T10:21:15Z</time>
      </trkpt>
      <trkpt lat="43.618" lon="3.6906">
        <ele>167</ele>
        <time>2011-02-06T10:21:16Z</time>
      </trkpt>
      <trkpt lat="43.61801" lon="3.69052">
        <ele>166.8</ele>
        <time>2011-02-06T10:21:17Z</time>
      </trkpt>
      <trkpt lat="43.61802" lon="3.69045">
        <ele>166.7</ele>
        <time>2011-02-06T10:21:18Z</time>
      </trkpt>
      <trkpt lat="43.61802" lon="3.69037">
        <ele>166.6</ele>
        <time>2011-02-06T10:21:19Z</time>
      </trkpt>
      <trkpt lat="43.61802" lon="3.69029">
        <ele>166.5</ele>
        <time>2011-02-06T10:21:20Z</time>
      </trkpt>
      <trkpt lat="43.61802" lon="3.69021">
        <ele>166.5</ele>
        <time>2011-02-06T10:21:21Z</time>
      </trkpt>
      <trkpt lat="43.61802" lon="3.69014">
        <ele>166.5</ele>
        <time>2011-02-06T10:21:22Z</time>
      </trkpt>
      <trkpt lat="43.61803" lon="3.69006">
        <ele>166.5</ele>
        <time>2011-02-06T10:21:23Z</time>
      </trkpt>
      <trkpt lat="43.61805" lon="3.68998">
        <ele>166.2</ele>
        <time>2011-02-06T10:21:24Z</time>
      </trkpt>
      <trkpt lat="43.61807" lon="3.68991">
        <ele>166</ele>
        <time>2011-02-06T10:21:25Z</time>
      </trkpt>
      <trkpt lat="43.61809" lon="3.68983">
        <ele>165.9</ele>
        <time>2011-02-06T10:21:26Z</time>
      </trkpt>
      <trkpt lat="43.61811" lon="3.68975">
        <ele>165.7</ele>
        <time>2011-02-06T10:21:27Z</time>
      </trkpt>
      <trkpt lat="43.61812" lon="3.68967">
        <ele>165.5</ele>
        <time>2011-02-06T10:21:28Z</time>
      </trkpt>
      <trkpt lat="43.61813" lon="3.68959">
        <ele>165.4</ele>
        <time>2011-02-06T10:21:29Z</time>
      </trkpt>
      <trkpt lat="43.61814" lon="3.68952">
        <ele>164.8</ele>
        <time>2011-02-06T10:21:30Z</time>
      </trkpt>
      <trkpt lat="43.61814" lon="3.68944">
        <ele>164.3</ele>
        <time>2011-02-06T10:21:31Z</time>
      </trkpt>
      <trkpt lat="43.61815" lon="3.68936">
        <ele>163.9</ele>
        <time>2011-02-06T10:21:32Z</time>
      </trkpt>
      <trkpt lat="43.61816" lon="3.68928">
        <ele>163.4</ele>
        <time>2011-02-06T10:21:33Z</time>
      </trkpt>
      <trkpt lat="43.61816" lon="3.68919">
        <ele>163.1</ele>
        <time>2011-02-06T10:21:34Z</time>
      </trkpt>
      <trkpt lat="43.61815" lon="3.68911">
        <ele>162.8</ele>
        <time>2011-02-06T10:21:35Z</time>
      </trkpt>
      <trkpt lat="43.61814" lon="3.68904">
        <ele>162.6</ele>
        <time>2011-02-06T10:21:36Z</time>
      </trkpt>
      <trkpt lat="43.61813" lon="3.68897">
        <ele>161.7</ele>
        <time>2011-02-06T10:21:37Z</time>
      </trkpt>
      <trkpt lat="43.61811" lon="3.68891">
        <ele>161</ele>
        <time>2011-02-06T10:21:38Z</time>
      </trkpt>
      <trkpt lat="43.6181" lon="3.68884">
        <ele>160.4</ele>
        <time>2011-02-06T10:21:39Z</time>
      </trkpt>
      <trkpt lat="43.61808" lon="3.68872">
        <ele>159.5</ele>
        <time>2011-02-06T10:21:41Z</time>
      </trkpt>
      <trkpt lat="43.61809" lon="3.68861">
        <ele>158</ele>
        <time>2011-02-06T10:21:43Z</time>
      </trkpt>
      <trkpt lat="43.61809" lon="3.68849">
        <ele>156.5</ele>
        <time>2011-02-06T10:21:45Z</time>
      </trkpt>
      <trkpt lat="43.6181" lon="3.68838">
        <ele>155</ele>
        <time>2011-02-06T10:21:47Z</time>
      </trkpt>
      <trkpt lat="43.61812" lon="3.68828">
        <ele>153.3</ele>
        <time>2011-02-06T10:21:49Z</time>
      </trkpt>
      <trkpt lat="43.61809" lon="3.68819">
        <ele>151.6</ele>
        <time>2011-02-06T10:21:51Z</time>
      </trkpt>
      <trkpt lat="43.61803" lon="3.6881">
        <ele>150.9</ele>
        <time>2011-02-06T10:21:53Z</time>
      </trkpt>
      <trkpt lat="43.61798" lon="3.688">
        <ele>150.6</ele>
        <time>2011-02-06T10:21:55Z</time>
      </trkpt>
      <trkpt lat="43.61796" lon="3.68795">
        <ele>149.7</ele>
        <time>2011-02-06T10:21:56Z</time>
      </trkpt>
      <trkpt lat="43.61794" lon="3.68788">
        <ele>149.1</ele>
        <time>2011-02-06T10:21:57Z</time>
      </trkpt>
      <trkpt lat="43.61792" lon="3.68782">
        <ele>148.7</ele>
        <time>2011-02-06T10:21:58Z</time>
      </trkpt>
      <trkpt lat="43.61791" lon="3.68775">
        <ele>147.9</ele>
        <time>2011-02-06T10:21:59Z</time>
      </trkpt>
      <trkpt lat="43.61787" lon="3.68766">
        <ele>146.8</ele>
        <time>2011-02-06T10:22:01Z</time>
      </trkpt>
      <trkpt lat="43.61784" lon="3.68756">
        <ele>146</ele>
        <time>2011-02-06T10:22:03Z</time>
      </trkpt>
      <trkpt lat="43.61783" lon="3.6875">
        <ele>145.7</ele>
        <time>2011-02-06T10:22:04Z</time>
      </trkpt>
      <trkpt lat="43.61781" lon="3.68744">
        <ele>144.9</ele>
        <time>2011-02-06T10:22:05Z</time>
      </trkpt>
      <trkpt lat="43.61777" lon="3.68735">
        <ele>143.9</ele>
        <time>2011-02-06T10:22:07Z</time>
      </trkpt>
      <trkpt lat="43.61772" lon="3.68725">
        <ele>142.7</ele>
        <time>2011-02-06T10:22:09Z</time>
      </trkpt>
      <trkpt lat="43.6177" lon="3.6872">
        <ele>142.1</ele>
        <time>2011-02-06T10:22:10Z</time>
      </trkpt>
      <trkpt lat="43.61768" lon="3.68713">
        <ele>141.6</ele>
        <time>2011-02-06T10:22:11Z</time>
      </trkpt>
      <trkpt lat="43.61766" lon="3.68706">
        <ele>141</ele>
        <time>2011-02-06T10:22:12Z</time>
      </trkpt>
      <trkpt lat="43.61764" lon="3.68699">
        <ele>140.5</ele>
        <time>2011-02-06T10:22:13Z</time>
      </trkpt>
      <trkpt lat="43.61763" lon="3.68692">
        <ele>140.2</ele>
        <time>2011-02-06T10:22:14Z</time>
      </trkpt>
      <trkpt lat="43.6176" lon="3.68685">
        <ele>139.4</ele>
        <time>2011-02-06T10:22:15Z</time>
      </trkpt>
      <trkpt lat="43.61758" lon="3.68678">
        <ele>138.9</ele>
        <time>2011-02-06T10:22:16Z</time>
      </trkpt>
      <trkpt lat="43.61756" lon="3.68671">
        <ele>138.5</ele>
        <time>2011-02-06T10:22:17Z</time>
      </trkpt>
      <trkpt lat="43.61753" lon="3.68663">
        <ele>138.1</ele>
        <time>2011-02-06T10:22:18Z</time>
      </trkpt>
      <trkpt lat="43.61751" lon="3.68656">
        <ele>137.8</ele>
        <time>2011-02-06T10:22:19Z</time>
      </trkpt>
      <trkpt lat="43.6175" lon="3.68649">
        <ele>137.6</ele>
        <time>2011-02-06T10:22:20Z</time>
      </trkpt>
      <trkpt lat="43.61749" lon="3.68643">
        <ele>137.3</ele>
        <time>2011-02-06T10:22:21Z</time>
      </trkpt>
      <trkpt lat="43.61748" lon="3.68635">
        <ele>137</ele>
        <time>2011-02-06T10:22:22Z</time>
      </trkpt>
      <trkpt lat="43.61747" lon="3.68628">
        <ele>136.8</ele>
        <time>2011-02-06T10:22:23Z</time>
      </trkpt>
      <trkpt lat="43.61745" lon="3.68621">
        <ele>136.7</ele>
        <time>2011-02-06T10:22:24Z</time>
      </trkpt>
      <trkpt lat="43.61745" lon="3.68613">
        <ele>136.2</ele>
        <time>2011-02-06T10:22:25Z</time>
      </trkpt>
      <trkpt lat="43.61744" lon="3.68606">
        <ele>135.8</ele>
        <time>2011-02-06T10:22:26Z</time>
      </trkpt>
      <trkpt lat="43.61744" lon="3.68598">
        <ele>135.5</ele>
        <time>2011-02-06T10:22:27Z</time>
      </trkpt>
      <trkpt lat="43.61744" lon="3.6859">
        <ele>135.4</ele>
        <time>2011-02-06T10:22:28Z</time>
      </trkpt>
      <trkpt lat="43.61744" lon="3.68582">
        <ele>135.3</ele>
        <time>2011-02-06T10:22:29Z</time>
      </trkpt>
      <trkpt lat="43.61745" lon="3.68575">
        <ele>135.2</ele>
        <time>2011-02-06T10:22:30Z</time>
      </trkpt>
      <trkpt lat="43.61746" lon="3.68567">
        <ele>135</ele>
        <time>2011-02-06T10:22:31Z</time>
      </trkpt>
      <trkpt lat="43.61747" lon="3.68559">
        <ele>134.8</ele>
        <time>2011-02-06T10:22:32Z</time>
      </trkpt>
      <trkpt lat="43.61748" lon="3.68551">
        <ele>134.7</ele>
        <time>2011-02-06T10:22:33Z</time>
      </trkpt>
      <trkpt lat="43.61749" lon="3.68543">
        <ele>134.6</ele>
        <time>2011-02-06T10:22:34Z</time>
      </trkpt>
      <trkpt lat="43.6175" lon="3.68535">
        <ele>134.6</ele>
        <time>2011-02-06T10:22:35Z</time>
      </trkpt>
      <trkpt lat="43.61751" lon="3.68527">
        <ele>134.6</ele>
        <time>2011-02-06T10:22:36Z</time>
      </trkpt>
      <trkpt lat="43.61751" lon="3.68515">
        <ele>132.9</ele>
        <time>2011-02-06T10:22:38Z</time>
      </trkpt>
      <trkpt lat="43.61748" lon="3.68505">
        <ele>131.8</ele>
        <time>2011-02-06T10:22:40Z</time>
      </trkpt>
      <trkpt lat="43.61748" lon="3.68499">
        <ele>131.3</ele>
        <time>2011-02-06T10:22:41Z</time>
      </trkpt>
      <trkpt lat="43.61748" lon="3.68492">
        <ele>131</ele>
        <time>2011-02-06T10:22:42Z</time>
      </trkpt>
      <trkpt lat="43.61748" lon="3.68484">
        <ele>130.8</ele>
        <time>2011-02-06T10:22:43Z</time>
      </trkpt>
      <trkpt lat="43.61748" lon="3.68477">
        <ele>130.5</ele>
        <time>2011-02-06T10:22:44Z</time>
      </trkpt>
      <trkpt lat="43.61749" lon="3.68469">
        <ele>130.2</ele>
        <time>2011-02-06T10:22:45Z</time>
      </trkpt>
      <trkpt lat="43.6175" lon="3.68461">
        <ele>130</ele>
        <time>2011-02-06T10:22:46Z</time>
      </trkpt>
      <trkpt lat="43.6175" lon="3.68454">
        <ele>129.8</ele>
        <time>2011-02-06T10:22:47Z</time>
      </trkpt>
      <trkpt lat="43.61748" lon="3.68447">
        <ele>129.6</ele>
        <time>2011-02-06T10:22:48Z</time>
      </trkpt>
      <trkpt lat="43.61745" lon="3.68441">
        <ele>129.4</ele>
        <time>2011-02-06T10:22:49Z</time>
      </trkpt>
      <trkpt lat="43.61742" lon="3.68434">
        <ele>128.9</ele>
        <time>2011-02-06T10:22:50Z</time>
      </trkpt>
      <trkpt lat="43.61739" lon="3.68427">
        <ele>128.6</ele>
        <time>2011-02-06T10:22:51Z</time>
      </trkpt>
      <trkpt lat="43.61735" lon="3.6842">
        <ele>128.3</ele>
        <time>2011-02-06T10:22:52Z</time>
      </trkpt>
      <trkpt lat="43.61728" lon="3.68413">
        <ele>127.2</ele>
        <time>2011-02-06T10:22:54Z</time>
      </trkpt>
      <trkpt lat="43.61724" lon="3.68404">
        <ele>126.5</ele>
        <time>2011-02-06T10:22:56Z</time>
      </trkpt>
      <trkpt lat="43.6172" lon="3.68393">
        <ele>126.2</ele>
        <time>2011-02-06T10:22:58Z</time>
      </trkpt>
      <trkpt lat="43.61718" lon="3.68388">
        <ele>126.1</ele>
        <time>2011-02-06T10:22:59Z</time>
      </trkpt>
      <trkpt lat="43.61715" lon="3.68383">
        <ele>126</ele>
        <time>2011-02-06T10:23:00Z</time>
      </trkpt>
      <trkpt lat="43.61712" lon="3.68377">
        <ele>125.9</ele>
        <time>2011-02-06T10:23:01Z</time>
      </trkpt>
      <trkpt lat="43.61709" lon="3.68371">
        <ele>125.8</ele>
        <time>2011-02-06T10:23:02Z</time>
      </trkpt>
      <trkpt lat="43.61707" lon="3.68364">
        <ele>124.9</ele>
        <time>2011-02-06T10:23:03Z</time>
      </trkpt>
      <trkpt lat="43.61707" lon="3.68353">
        <ele>123.6</ele>
        <time>2011-02-06T10:23:05Z</time>
      </trkpt>
      <trkpt lat="43.61706" lon="3.68341">
        <ele>123.1</ele>
        <time>2011-02-06T10:23:08Z</time>
      </trkpt>
      <trkpt lat="43.61703" lon="3.68332">
        <ele>122.9</ele>
        <time>2011-02-06T10:23:10Z</time>
      </trkpt>
      <trkpt lat="43.61695" lon="3.68327">
        <ele>122.4</ele>
        <time>2011-02-06T10:23:13Z</time>
      </trkpt>
      <trkpt lat="43.61687" lon="3.6833">
        <ele>122.4</ele>
        <time>2011-02-06T10:23:16Z</time>
      </trkpt>
      <trkpt lat="43.61682" lon="3.68336">
        <ele>122.6</ele>
        <time>2011-02-06T10:23:19Z</time>
      </trkpt>
      <trkpt lat="43.61675" lon="3.68344">
        <ele>122</ele>
        <time>2011-02-06T10:23:23Z</time>
      </trkpt>
      <trkpt lat="43.61668" lon="3.68348">
        <ele>122.1</ele>
        <time>2011-02-06T10:23:27Z</time>
      </trkpt>
      <trkpt lat="43.61667" lon="3.68349">
        <ele>122.1</ele>
        <time>2011-02-06T10:23:28Z</time>
      </trkpt>
      <trkpt lat="43.61654" lon="3.68341">
        <ele>123</ele>
        <time>2011-02-06T10:24:13Z</time>
      </trkpt>
      <trkpt lat="43.61646" lon="3.68341">
        <ele>123.6</ele>
        <time>2011-02-06T10:24:16Z</time>
      </trkpt>
      <trkpt lat="43.61639" lon="3.68345">
        <ele>123.9</ele>
        <time>2011-02-06T10:24:19Z</time>
      </trkpt>
      <trkpt lat="43.61632" lon="3.6835">
        <ele>124.5</ele>
        <time>2011-02-06T10:24:22Z</time>
      </trkpt>
      <trkpt lat="43.61627" lon="3.68356">
        <ele>123.8</ele>
        <time>2011-02-06T10:24:24Z</time>
      </trkpt>
      <trkpt lat="43.61621" lon="3.68359">
        <ele>123.4</ele>
        <time>2011-02-06T10:24:26Z</time>
      </trkpt>
      <trkpt lat="43.61615" lon="3.68363">
        <ele>123.1</ele>
        <time>2011-02-06T10:24:28Z</time>
      </trkpt>
      <trkpt lat="43.61613" lon="3.68365">
        <ele>122.8</ele>
        <time>2011-02-06T10:24:29Z</time>
      </trkpt>
      <trkpt lat="43.616" lon="3.6837">
        <ele>121.7</ele>
        <time>2011-02-06T10:24:34Z</time>
      </trkpt>
      <trkpt lat="43.61592" lon="3.68374">
        <ele>124.8</ele>
        <time>2011-02-06T10:24:39Z</time>
      </trkpt>
      <trkpt lat="43.61584" lon="3.68378">
        <ele>127.2</ele>
        <time>2011-02-06T10:24:48Z</time>
      </trkpt>
      <trkpt lat="43.61576" lon="3.68382">
        <ele>128.6</ele>
        <time>2011-02-06T10:24:58Z</time>
      </trkpt>
      <trkpt lat="43.61568" lon="3.68386">
        <ele>128.4</ele>
        <time>2011-02-06T10:25:02Z</time>
      </trkpt>
      <trkpt lat="43.61561" lon="3.68391">
        <ele>128.5</ele>
        <time>2011-02-06T10:25:05Z</time>
      </trkpt>
      <trkpt lat="43.61554" lon="3.68394">
        <ele>128.3</ele>
        <time>2011-02-06T10:25:07Z</time>
      </trkpt>
      <trkpt lat="43.61548" lon="3.68396">
        <ele>127.9</ele>
        <time>2011-02-06T10:25:09Z</time>
      </trkpt>
      <trkpt lat="43.61542" lon="3.68398">
        <ele>128.5</ele>
        <time>2011-02-06T10:25:11Z</time>
      </trkpt>
      <trkpt lat="43.61536" lon="3.68402">
        <ele>128.9</ele>
        <time>2011-02-06T10:25:13Z</time>
      </trkpt>
      <trkpt lat="43.61529" lon="3.68407">
        <ele>128.3</ele>
        <time>2011-02-06T10:25:15Z</time>
      </trkpt>
      <trkpt lat="43.61521" lon="3.68411">
        <ele>127.4</ele>
        <time>2011-02-06T10:25:17Z</time>
      </trkpt>
      <trkpt lat="43.61513" lon="3.68414">
        <ele>126.6</ele>
        <time>2011-02-06T10:25:19Z</time>
      </trkpt>
      <trkpt lat="43.61506" lon="3.68414">
        <ele>126</ele>
        <time>2011-02-06T10:25:21Z</time>
      </trkpt>
      <trkpt lat="43.61499" lon="3.68411">
        <ele>125.5</ele>
        <time>2011-02-06T10:25:23Z</time>
      </trkpt>
      <trkpt lat="43.61493" lon="3.68407">
        <ele>125.1</ele>
        <time>2011-02-06T10:25:25Z</time>
      </trkpt>
      <trkpt lat="43.61486" lon="3.68402">
        <ele>123.9</ele>
        <time>2011-02-06T10:25:27Z</time>
      </trkpt>
      <trkpt lat="43.61481" lon="3.68392">
        <ele>122.8</ele>
        <time>2011-02-06T10:25:31Z</time>
      </trkpt>
      <trkpt lat="43.61481" lon="3.68391">
        <ele>122.7</ele>
        <time>2011-02-06T10:25:32Z</time>
      </trkpt>
      <trkpt lat="43.61478" lon="3.68371">
        <ele>122.8</ele>
        <time>2011-02-06T10:25:38Z</time>
      </trkpt>
      <trkpt lat="43.61479" lon="3.68358">
        <ele>123.4</ele>
        <time>2011-02-06T10:25:42Z</time>
      </trkpt>
      <trkpt lat="43.61473" lon="3.68351">
        <ele>123.7</ele>
        <time>2011-02-06T10:25:53Z</time>
      </trkpt>
      <trkpt lat="43.61468" lon="3.68342">
        <ele>121.6</ele>
        <time>2011-02-06T10:26:01Z</time>
      </trkpt>
      <trkpt lat="43.61465" lon="3.68332">
        <ele>121</ele>
        <time>2011-02-06T10:26:10Z</time>
      </trkpt>
      <trkpt lat="43.61456" lon="3.68331">
        <ele>120</ele>
        <time>2011-02-06T10:26:23Z</time>
      </trkpt>
      <trkpt lat="43.61447" lon="3.68329">
        <ele>118.5</ele>
        <time>2011-02-06T10:26:31Z</time>
      </trkpt>
      <trkpt lat="43.61446" lon="3.68317">
        <ele>119.6</ele>
        <time>2011-02-06T10:28:02Z</time>
      </trkpt>
      <trkpt lat="43.61446" lon="3.68316">
        <ele>119.7</ele>
        <time>2011-02-06T10:28:03Z</time>
      </trkpt>
      <trkpt lat="43.61435" lon="3.68302">
        <ele>120.6</ele>
        <time>2011-02-06T10:28:11Z</time>
      </trkpt>
      <trkpt lat="43.61429" lon="3.68298">
        <ele>120.6</ele>
        <time>2011-02-06T10:28:14Z</time>
      </trkpt>
      <trkpt lat="43.6142" lon="3.68298">
        <ele>121.2</ele>
        <time>2011-02-06T10:28:17Z</time>
      </trkpt>
      <trkpt lat="43.61414" lon="3.68296">
        <ele>121.8</ele>
        <time>2011-02-06T10:28:19Z</time>
      </trkpt>
      <trkpt lat="43.61407" lon="3.68296">
        <ele>122.2</ele>
        <time>2011-02-06T10:28:21Z</time>
      </trkpt>
      <trkpt lat="43.61401" lon="3.68298">
        <ele>121.9</ele>
        <time>2011-02-06T10:28:23Z</time>
      </trkpt>
      <trkpt lat="43.61394" lon="3.68301">
        <ele>121.7</ele>
        <time>2011-02-06T10:28:25Z</time>
      </trkpt>
      <trkpt lat="43.61387" lon="3.683">
        <ele>121.5</ele>
        <time>2011-02-06T10:28:27Z</time>
      </trkpt>
      <trkpt lat="43.6138" lon="3.68299">
        <ele>121.3</ele>
        <time>2011-02-06T10:28:29Z</time>
      </trkpt>
      <trkpt lat="43.61372" lon="3.68299">
        <ele>121.2</ele>
        <time>2011-02-06T10:28:31Z</time>
      </trkpt>
      <trkpt lat="43.61365" lon="3.68299">
        <ele>122.1</ele>
        <time>2011-02-06T10:28:33Z</time>
      </trkpt>
      <trkpt lat="43.61358" lon="3.68299">
        <ele>122.1</ele>
        <time>2011-02-06T10:28:35Z</time>
      </trkpt>
      <trkpt lat="43.6135" lon="3.68298">
        <ele>121.7</ele>
        <time>2011-02-06T10:28:37Z</time>
      </trkpt>
      <trkpt lat="43.61344" lon="3.68295">
        <ele>121.2</ele>
        <time>2011-02-06T10:28:39Z</time>
      </trkpt>
      <trkpt lat="43.61336" lon="3.68293">
        <ele>121</ele>
        <time>2011-02-06T10:28:41Z</time>
      </trkpt>
      <trkpt lat="43.61329" lon="3.68291">
        <ele>120.9</ele>
        <time>2011-02-06T10:28:43Z</time>
      </trkpt>
      <trkpt lat="43.61322" lon="3.68289">
        <ele>121.1</ele>
        <time>2011-02-06T10:28:45Z</time>
      </trkpt>
      <trkpt lat="43.61315" lon="3.68288">
        <ele>121.3</ele>
        <time>2011-02-06T10:28:47Z</time>
      </trkpt>
      <trkpt lat="43.61309" lon="3.68286">
        <ele>121.5</ele>
        <time>2011-02-06T10:28:49Z</time>
      </trkpt>
      <trkpt lat="43.61302" lon="3.68282">
        <ele>121.3</ele>
        <time>2011-02-06T10:28:53Z</time>
      </trkpt>
      <trkpt lat="43.61294" lon="3.68285">
        <ele>120.3</ele>
        <time>2011-02-06T10:28:57Z</time>
      </trkpt>
      <trkpt lat="43.61289" lon="3.68277">
        <ele>120.4</ele>
        <time>2011-02-06T10:29:06Z</time>
      </trkpt>
      <trkpt lat="43.61288" lon="3.68273">
        <ele>120.6</ele>
        <time>2011-02-06T10:29:07Z</time>
      </trkpt>
      <trkpt lat="43.61279" lon="3.68261">
        <ele>120.8</ele>
        <time>2011-02-06T10:29:11Z</time>
      </trkpt>
      <trkpt lat="43.61273" lon="3.68258">
        <ele>120.9</ele>
        <time>2011-02-06T10:29:13Z</time>
      </trkpt>
      <trkpt lat="43.61265" lon="3.68255">
        <ele>121.2</ele>
        <time>2011-02-06T10:29:15Z</time>
      </trkpt>
      <trkpt lat="43.61257" lon="3.68252">
        <ele>121</ele>
        <time>2011-02-06T10:29:17Z</time>
      </trkpt>
      <trkpt lat="43.61249" lon="3.68253">
        <ele>120.5</ele>
        <time>2011-02-06T10:29:19Z</time>
      </trkpt>
      <trkpt lat="43.61242" lon="3.68254">
        <ele>119.9</ele>
        <time>2011-02-06T10:29:21Z</time>
      </trkpt>
      <trkpt lat="43.61235" lon="3.68257">
        <ele>120.1</ele>
        <time>2011-02-06T10:29:23Z</time>
      </trkpt>
      <trkpt lat="43.61228" lon="3.68262">
        <ele>120.6</ele>
        <time>2011-02-06T10:29:25Z</time>
      </trkpt>
      <trkpt lat="43.61222" lon="3.68267">
        <ele>121.3</ele>
        <time>2011-02-06T10:29:27Z</time>
      </trkpt>
      <trkpt lat="43.61215" lon="3.68274">
        <ele>121.1</ele>
        <time>2011-02-06T10:29:29Z</time>
      </trkpt>
      <trkpt lat="43.6121" lon="3.68282">
        <ele>120.6</ele>
        <time>2011-02-06T10:29:31Z</time>
      </trkpt>
      <trkpt lat="43.61204" lon="3.6829">
        <ele>120.7</ele>
        <time>2011-02-06T10:29:33Z</time>
      </trkpt>
      <trkpt lat="43.61199" lon="3.68299">
        <ele>120.3</ele>
        <time>2011-02-06T10:29:35Z</time>
      </trkpt>
      <trkpt lat="43.61195" lon="3.68308">
        <ele>119.8</ele>
        <time>2011-02-06T10:29:37Z</time>
      </trkpt>
      <trkpt lat="43.61192" lon="3.68318">
        <ele>119.6</ele>
        <time>2011-02-06T10:29:39Z</time>
      </trkpt>
      <trkpt lat="43.61189" lon="3.68328">
        <ele>119.4</ele>
        <time>2011-02-06T10:29:41Z</time>
      </trkpt>
      <trkpt lat="43.61186" lon="3.68337">
        <ele>119</ele>
        <time>2011-02-06T10:29:43Z</time>
      </trkpt>
      <trkpt lat="43.61184" lon="3.68347">
        <ele>119.5</ele>
        <time>2011-02-06T10:29:46Z</time>
      </trkpt>
      <trkpt lat="43.61182" lon="3.68355">
        <ele>119.5</ele>
        <time>2011-02-06T10:29:48Z</time>
      </trkpt>
      <trkpt lat="43.61181" lon="3.68364">
        <ele>119.3</ele>
        <time>2011-02-06T10:29:50Z</time>
      </trkpt>
      <trkpt lat="43.6118" lon="3.68373">
        <ele>119.4</ele>
        <time>2011-02-06T10:29:52Z</time>
      </trkpt>
      <trkpt lat="43.61181" lon="3.68383">
        <ele>119.5</ele>
        <time>2011-02-06T10:29:54Z</time>
      </trkpt>
      <trkpt lat="43.61183" lon="3.68391">
        <ele>119.1</ele>
        <time>2011-02-06T10:29:56Z</time>
      </trkpt>
      <trkpt lat="43.61182" lon="3.68401">
        <ele>119.6</ele>
        <time>2011-02-06T10:29:59Z</time>
      </trkpt>
      <trkpt lat="43.61177" lon="3.68405">
        <ele>119.2</ele>
        <time>2011-02-06T10:30:01Z</time>
      </trkpt>
      <trkpt lat="43.6117" lon="3.68408">
        <ele>118.3</ele>
        <time>2011-02-06T10:30:03Z</time>
      </trkpt>
      <trkpt lat="43.61163" lon="3.68414">
        <ele>118.4</ele>
        <time>2011-02-06T10:30:05Z</time>
      </trkpt>
      <trkpt lat="43.61157" lon="3.68422">
        <ele>117.7</ele>
        <time>2011-02-06T10:30:07Z</time>
      </trkpt>
      <trkpt lat="43.61155" lon="3.68426">
        <ele>117.1</ele>
        <time>2011-02-06T10:30:08Z</time>
      </trkpt>
      <trkpt lat="43.61151" lon="3.68438">
        <ele>117</ele>
        <time>2011-02-06T10:30:11Z</time>
      </trkpt>
      <trkpt lat="43.61147" lon="3.68446">
        <ele>117.6</ele>
        <time>2011-02-06T10:30:13Z</time>
      </trkpt>
      <trkpt lat="43.61142" lon="3.68453">
        <ele>118.5</ele>
        <time>2011-02-06T10:30:15Z</time>
      </trkpt>
      <trkpt lat="43.61138" lon="3.68459">
        <ele>119</ele>
        <time>2011-02-06T10:30:17Z</time>
      </trkpt>
      <trkpt lat="43.61133" lon="3.68466">
        <ele>119.3</ele>
        <time>2011-02-06T10:30:19Z</time>
      </trkpt>
      <trkpt lat="43.61128" lon="3.68471">
        <ele>119.9</ele>
        <time>2011-02-06T10:30:21Z</time>
      </trkpt>
      <trkpt lat="43.61123" lon="3.68477">
        <ele>119</ele>
        <time>2011-02-06T10:30:23Z</time>
      </trkpt>
      <trkpt lat="43.61119" lon="3.68484">
        <ele>117.5</ele>
        <time>2011-02-06T10:30:25Z</time>
      </trkpt>
      <trkpt lat="43.61114" lon="3.68491">
        <ele>117.8</ele>
        <time>2011-02-06T10:30:27Z</time>
      </trkpt>
      <trkpt lat="43.61108" lon="3.68498">
        <ele>119</ele>
        <time>2011-02-06T10:30:29Z</time>
      </trkpt>
      <trkpt lat="43.61103" lon="3.68505">
        <ele>118.8</ele>
        <time>2011-02-06T10:30:31Z</time>
      </trkpt>
      <trkpt lat="43.61098" lon="3.68511">
        <ele>118.9</ele>
        <time>2011-02-06T10:30:33Z</time>
      </trkpt>
      <trkpt lat="43.61091" lon="3.68515">
        <ele>119.1</ele>
        <time>2011-02-06T10:30:35Z</time>
      </trkpt>
      <trkpt lat="43.61084" lon="3.68519">
        <ele>118.9</ele>
        <time>2011-02-06T10:30:37Z</time>
      </trkpt>
      <trkpt lat="43.61077" lon="3.68524">
        <ele>118.5</ele>
        <time>2011-02-06T10:30:39Z</time>
      </trkpt>
      <trkpt lat="43.61069" lon="3.68529">
        <ele>118.1</ele>
        <time>2011-02-06T10:30:41Z</time>
      </trkpt>
      <trkpt lat="43.61061" lon="3.68533">
        <ele>117.8</ele>
        <time>2011-02-06T10:30:43Z</time>
      </trkpt>
      <trkpt lat="43.61053" lon="3.68536">
        <ele>117.7</ele>
        <time>2011-02-06T10:30:45Z</time>
      </trkpt>
      <trkpt lat="43.61046" lon="3.68539">
        <ele>117.8</ele>
        <time>2011-02-06T10:30:47Z</time>
      </trkpt>
      <trkpt lat="43.61038" lon="3.68539">
        <ele>117.7</ele>
        <time>2011-02-06T10:30:49Z</time>
      </trkpt>
      <trkpt lat="43.61031" lon="3.68538">
        <ele>117.6</ele>
        <time>2011-02-06T10:30:51Z</time>
      </trkpt>
      <trkpt lat="43.61024" lon="3.68536">
        <ele>117.8</ele>
        <time>2011-02-06T10:30:53Z</time>
      </trkpt>
      <trkpt lat="43.61017" lon="3.68535">
        <ele>118.1</ele>
        <time>2011-02-06T10:30:55Z</time>
      </trkpt>
      <trkpt lat="43.61009" lon="3.68534">
        <ele>118.2</ele>
        <time>2011-02-06T10:30:57Z</time>
      </trkpt>
      <trkpt lat="43.61002" lon="3.68533">
        <ele>118</ele>
        <time>2011-02-06T10:30:59Z</time>
      </trkpt>
      <trkpt lat="43.60995" lon="3.68533">
        <ele>117.9</ele>
        <time>2011-02-06T10:31:01Z</time>
      </trkpt>
      <trkpt lat="43.60988" lon="3.68532">
        <ele>118.2</ele>
        <time>2011-02-06T10:31:03Z</time>
      </trkpt>
      <trkpt lat="43.6098" lon="3.68531">
        <ele>118.1</ele>
        <time>2011-02-06T10:31:05Z</time>
      </trkpt>
      <trkpt lat="43.60972" lon="3.68531">
        <ele>117.9</ele>
        <time>2011-02-06T10:31:07Z</time>
      </trkpt>
      <trkpt lat="43.60963" lon="3.68531">
        <ele>116.5</ele>
        <time>2011-02-06T10:31:09Z</time>
      </trkpt>
      <trkpt lat="43.60958" lon="3.68532">
        <ele>116.1</ele>
        <time>2011-02-06T10:31:10Z</time>
      </trkpt>
      <trkpt lat="43.6095" lon="3.68533">
        <ele>116.3</ele>
        <time>2011-02-06T10:31:12Z</time>
      </trkpt>
      <trkpt lat="43.60941" lon="3.68533">
        <ele>117</ele>
        <time>2011-02-06T10:31:14Z</time>
      </trkpt>
      <trkpt lat="43.60933" lon="3.68533">
        <ele>117.7</ele>
        <time>2011-02-06T10:31:16Z</time>
      </trkpt>
      <trkpt lat="43.60925" lon="3.68534">
        <ele>117.2</ele>
        <time>2011-02-06T10:31:18Z</time>
      </trkpt>
      <trkpt lat="43.60918" lon="3.68534">
        <ele>116.1</ele>
        <time>2011-02-06T10:31:20Z</time>
      </trkpt>
      <trkpt lat="43.60912" lon="3.68536">
        <ele>116.4</ele>
        <time>2011-02-06T10:31:22Z</time>
      </trkpt>
      <trkpt lat="43.60905" lon="3.68537">
        <ele>117.1</ele>
        <time>2011-02-06T10:31:24Z</time>
      </trkpt>
      <trkpt lat="43.60897" lon="3.68535">
        <ele>117.9</ele>
        <time>2011-02-06T10:31:26Z</time>
      </trkpt>
      <trkpt lat="43.6089" lon="3.68534">
        <ele>117</ele>
        <time>2011-02-06T10:31:28Z</time>
      </trkpt>
      <trkpt lat="43.60882" lon="3.68536">
        <ele>115.8</ele>
        <time>2011-02-06T10:31:30Z</time>
      </trkpt>
      <trkpt lat="43.60874" lon="3.68536">
        <ele>114.7</ele>
        <time>2011-02-06T10:31:32Z</time>
      </trkpt>
      <trkpt lat="43.60869" lon="3.68536">
        <ele>114.3</ele>
        <time>2011-02-06T10:31:33Z</time>
      </trkpt>
      <trkpt lat="43.60865" lon="3.68536">
        <ele>115.1</ele>
        <time>2011-02-06T10:31:34Z</time>
      </trkpt>
      <trkpt lat="43.6086" lon="3.68535">
        <ele>115.7</ele>
        <time>2011-02-06T10:31:35Z</time>
      </trkpt>
      <trkpt lat="43.60855" lon="3.68535">
        <ele>116.1</ele>
        <time>2011-02-06T10:31:36Z</time>
      </trkpt>
      <trkpt lat="43.60851" lon="3.68534">
        <ele>115.9</ele>
        <time>2011-02-06T10:31:37Z</time>
      </trkpt>
      <trkpt lat="43.60846" lon="3.68533">
        <ele>115.7</ele>
        <time>2011-02-06T10:31:38Z</time>
      </trkpt>
      <trkpt lat="43.60841" lon="3.68532">
        <ele>115.6</ele>
        <time>2011-02-06T10:31:39Z</time>
      </trkpt>
      <trkpt lat="43.60837" lon="3.68531">
        <ele>115.7</ele>
        <time>2011-02-06T10:31:40Z</time>
      </trkpt>
      <trkpt lat="43.60832" lon="3.68531">
        <ele>115.8</ele>
        <time>2011-02-06T10:31:41Z</time>
      </trkpt>
      <trkpt lat="43.60828" lon="3.6853">
        <ele>115.8</ele>
        <time>2011-02-06T10:31:42Z</time>
      </trkpt>
      <trkpt lat="43.60823" lon="3.6853">
        <ele>116.2</ele>
        <time>2011-02-06T10:31:43Z</time>
      </trkpt>
      <trkpt lat="43.60818" lon="3.68529">
        <ele>116.5</ele>
        <time>2011-02-06T10:31:44Z</time>
      </trkpt>
      <trkpt lat="43.60814" lon="3.68529">
        <ele>116.8</ele>
        <time>2011-02-06T10:31:45Z</time>
      </trkpt>
      <trkpt lat="43.60809" lon="3.68529">
        <ele>117</ele>
        <time>2011-02-06T10:31:46Z</time>
      </trkpt>
      <trkpt lat="43.60804" lon="3.68529">
        <ele>117.2</ele>
        <time>2011-02-06T10:31:47Z</time>
      </trkpt>
      <trkpt lat="43.60799" lon="3.68528">
        <ele>117.4</ele>
        <time>2011-02-06T10:31:48Z</time>
      </trkpt>
      <trkpt lat="43.60794" lon="3.68528">
        <ele>117.5</ele>
        <time>2011-02-06T10:31:49Z</time>
      </trkpt>
      <trkpt lat="43.60789" lon="3.68528">
        <ele>116.9</ele>
        <time>2011-02-06T10:31:50Z</time>
      </trkpt>
      <trkpt lat="43.60783" lon="3.68527">
        <ele>116.5</ele>
        <time>2011-02-06T10:31:51Z</time>
      </trkpt>
      <trkpt lat="43.60778" lon="3.68527">
        <ele>116.1</ele>
        <time>2011-02-06T10:31:52Z</time>
      </trkpt>
      <trkpt lat="43.60773" lon="3.68526">
        <ele>116.1</ele>
        <time>2011-02-06T10:31:53Z</time>
      </trkpt>
      <trkpt lat="43.60768" lon="3.68526">
        <ele>116.1</ele>
        <time>2011-02-06T10:31:54Z</time>
      </trkpt>
      <trkpt lat="43.60763" lon="3.68525">
        <ele>116</ele>
        <time>2011-02-06T10:31:55Z</time>
      </trkpt>
      <trkpt lat="43.60758" lon="3.68524">
        <ele>116.2</ele>
        <time>2011-02-06T10:31:56Z</time>
      </trkpt>
      <trkpt lat="43.60753" lon="3.68523">
        <ele>116.3</ele>
        <time>2011-02-06T10:31:57Z</time>
      </trkpt>
      <trkpt lat="43.60748" lon="3.68523">
        <ele>116.4</ele>
        <time>2011-02-06T10:31:58Z</time>
      </trkpt>
      <trkpt lat="43.60743" lon="3.68522">
        <ele>116.3</ele>
        <time>2011-02-06T10:31:59Z</time>
      </trkpt>
      <trkpt lat="43.60738" lon="3.68522">
        <ele>116.3</ele>
        <time>2011-02-06T10:32:00Z</time>
      </trkpt>
      <trkpt lat="43.60733" lon="3.68522">
        <ele>116.3</ele>
        <time>2011-02-06T10:32:01Z</time>
      </trkpt>
      <trkpt lat="43.60727" lon="3.68522">
        <ele>115.9</ele>
        <time>2011-02-06T10:32:02Z</time>
      </trkpt>
      <trkpt lat="43.60722" lon="3.68522">
        <ele>115.6</ele>
        <time>2011-02-06T10:32:03Z</time>
      </trkpt>
      <trkpt lat="43.60717" lon="3.68523">
        <ele>115.4</ele>
        <time>2011-02-06T10:32:04Z</time>
      </trkpt>
      <trkpt lat="43.60708" lon="3.68523">
        <ele>115.2</ele>
        <time>2011-02-06T10:32:06Z</time>
      </trkpt>
      <trkpt lat="43.60701" lon="3.6852">
        <ele>115</ele>
        <time>2011-02-06T10:32:08Z</time>
      </trkpt>
      <trkpt lat="43.60695" lon="3.68516">
        <ele>115.2</ele>
        <time>2011-02-06T10:32:10Z</time>
      </trkpt>
      <trkpt lat="43.60692" lon="3.68515">
        <ele>115.2</ele>
        <time>2011-02-06T10:32:11Z</time>
      </trkpt>
      <trkpt lat="43.60681" lon="3.68513">
        <ele>115.7</ele>
        <time>2011-02-06T10:32:14Z</time>
      </trkpt>
      <trkpt lat="43.60673" lon="3.68511">
        <ele>116.6</ele>
        <time>2011-02-06T10:32:16Z</time>
      </trkpt>
      <trkpt lat="43.60665" lon="3.68508">
        <ele>116.6</ele>
        <time>2011-02-06T10:32:18Z</time>
      </trkpt>
      <trkpt lat="43.60658" lon="3.68507">
        <ele>116.2</ele>
        <time>2011-02-06T10:32:20Z</time>
      </trkpt>
      <trkpt lat="43.6065" lon="3.6851">
        <ele>116.9</ele>
        <time>2011-02-06T10:32:23Z</time>
      </trkpt>
      <trkpt lat="43.60642" lon="3.68509">
        <ele>116.9</ele>
        <time>2011-02-06T10:32:26Z</time>
      </trkpt>
      <trkpt lat="43.60635" lon="3.68508">
        <ele>116.5</ele>
        <time>2011-02-06T10:32:28Z</time>
      </trkpt>
      <trkpt lat="43.60628" lon="3.68508">
        <ele>115.8</ele>
        <time>2011-02-06T10:32:30Z</time>
      </trkpt>
      <trkpt lat="43.60622" lon="3.68507">
        <ele>117.6</ele>
        <time>2011-02-06T10:32:32Z</time>
      </trkpt>
      <trkpt lat="43.60615" lon="3.68506">
        <ele>118</ele>
        <time>2011-02-06T10:32:34Z</time>
      </trkpt>
      <trkpt lat="43.60607" lon="3.68506">
        <ele>117.7</ele>
        <time>2011-02-06T10:32:36Z</time>
      </trkpt>
      <trkpt lat="43.60599" lon="3.68509">
        <ele>117.1</ele>
        <time>2011-02-06T10:32:38Z</time>
      </trkpt>
      <trkpt lat="43.60591" lon="3.68513">
        <ele>116.8</ele>
        <time>2011-02-06T10:32:40Z</time>
      </trkpt>
      <trkpt lat="43.60583" lon="3.68515">
        <ele>115.9</ele>
        <time>2011-02-06T10:32:42Z</time>
      </trkpt>
      <trkpt lat="43.60574" lon="3.68516">
        <ele>115.8</ele>
        <time>2011-02-06T10:32:44Z</time>
      </trkpt>
      <trkpt lat="43.60565" lon="3.68517">
        <ele>116</ele>
        <time>2011-02-06T10:32:46Z</time>
      </trkpt>
      <trkpt lat="43.60556" lon="3.68518">
        <ele>116.4</ele>
        <time>2011-02-06T10:32:48Z</time>
      </trkpt>
      <trkpt lat="43.60548" lon="3.68519">
        <ele>116.5</ele>
        <time>2011-02-06T10:32:50Z</time>
      </trkpt>
      <trkpt lat="43.60539" lon="3.6852">
        <ele>116.6</ele>
        <time>2011-02-06T10:32:52Z</time>
      </trkpt>
      <trkpt lat="43.60531" lon="3.68521">
        <ele>116.5</ele>
        <time>2011-02-06T10:32:54Z</time>
      </trkpt>
      <trkpt lat="43.60524" lon="3.68521">
        <ele>116.4</ele>
        <time>2011-02-06T10:32:56Z</time>
      </trkpt>
      <trkpt lat="43.60518" lon="3.68523">
        <ele>116.4</ele>
        <time>2011-02-06T10:32:58Z</time>
      </trkpt>
      <trkpt lat="43.60511" lon="3.68525">
        <ele>116.8</ele>
        <time>2011-02-06T10:33:00Z</time>
      </trkpt>
      <trkpt lat="43.60503" lon="3.6853">
        <ele>117.4</ele>
        <time>2011-02-06T10:33:03Z</time>
      </trkpt>
      <trkpt lat="43.60497" lon="3.68536">
        <ele>118.1</ele>
        <time>2011-02-06T10:33:06Z</time>
      </trkpt>
      <trkpt lat="43.60492" lon="3.68542">
        <ele>118.7</ele>
        <time>2011-02-06T10:33:09Z</time>
      </trkpt>
      <trkpt lat="43.60486" lon="3.6855">
        <ele>118.6</ele>
        <time>2011-02-06T10:33:12Z</time>
      </trkpt>
      <trkpt lat="43.60484" lon="3.68552">
        <ele>118.6</ele>
        <time>2011-02-06T10:33:13Z</time>
      </trkpt>
      <trkpt lat="43.60477" lon="3.68562">
        <ele>118.7</ele>
        <time>2011-02-06T10:33:16Z</time>
      </trkpt>
      <trkpt lat="43.60473" lon="3.68568">
        <ele>118.7</ele>
        <time>2011-02-06T10:33:18Z</time>
      </trkpt>
      <trkpt lat="43.60468" lon="3.68575">
        <ele>118.7</ele>
        <time>2011-02-06T10:33:20Z</time>
      </trkpt>
      <trkpt lat="43.60464" lon="3.68583">
        <ele>118.6</ele>
        <time>2011-02-06T10:33:22Z</time>
      </trkpt>
      <trkpt lat="43.60459" lon="3.6859">
        <ele>118.4</ele>
        <time>2011-02-06T10:33:24Z</time>
      </trkpt>
      <trkpt lat="43.60454" lon="3.686">
        <ele>117.5</ele>
        <time>2011-02-06T10:33:26Z</time>
      </trkpt>
      <trkpt lat="43.60453" lon="3.68606">
        <ele>117.3</ele>
        <time>2011-02-06T10:33:27Z</time>
      </trkpt>
      <trkpt lat="43.60451" lon="3.68612">
        <ele>116.9</ele>
        <time>2011-02-06T10:33:28Z</time>
      </trkpt>
      <trkpt lat="43.60446" lon="3.6862">
        <ele>116.3</ele>
        <time>2011-02-06T10:33:30Z</time>
      </trkpt>
      <trkpt lat="43.60439" lon="3.68625">
        <ele>115</ele>
        <time>2011-02-06T10:33:34Z</time>
      </trkpt>
      <trkpt lat="43.60437" lon="3.68636">
        <ele>116.2</ele>
        <time>2011-02-06T10:33:38Z</time>
      </trkpt>
      <trkpt lat="43.60435" lon="3.68648">
        <ele>116.8</ele>
        <time>2011-02-06T10:33:42Z</time>
      </trkpt>
      <trkpt lat="43.60434" lon="3.68658">
        <ele>117</ele>
        <time>2011-02-06T10:33:45Z</time>
      </trkpt>
      <trkpt lat="43.60431" lon="3.68669">
        <ele>117</ele>
        <time>2011-02-06T10:33:48Z</time>
      </trkpt>
      <trkpt lat="43.60426" lon="3.68679">
        <ele>117.2</ele>
        <time>2011-02-06T10:33:51Z</time>
      </trkpt>
      <trkpt lat="43.60422" lon="3.68686">
        <ele>117.4</ele>
        <time>2011-02-06T10:33:53Z</time>
      </trkpt>
      <trkpt lat="43.60419" lon="3.68695">
        <ele>117.1</ele>
        <time>2011-02-06T10:33:55Z</time>
      </trkpt>
      <trkpt lat="43.60416" lon="3.68704">
        <ele>116.8</ele>
        <time>2011-02-06T10:33:57Z</time>
      </trkpt>
      <trkpt lat="43.60412" lon="3.68712">
        <ele>116.6</ele>
        <time>2011-02-06T10:33:59Z</time>
      </trkpt>
      <trkpt lat="43.60409" lon="3.68719">
        <ele>116.4</ele>
        <time>2011-02-06T10:34:01Z</time>
      </trkpt>
      <trkpt lat="43.60406" lon="3.68727">
        <ele>116.3</ele>
        <time>2011-02-06T10:34:03Z</time>
      </trkpt>
      <trkpt lat="43.60402" lon="3.68737">
        <ele>117.1</ele>
        <time>2011-02-06T10:34:06Z</time>
      </trkpt>
      <trkpt lat="43.60401" lon="3.68745">
        <ele>116.6</ele>
        <time>2011-02-06T10:34:08Z</time>
      </trkpt>
      <trkpt lat="43.60399" lon="3.68754">
        <ele>116.3</ele>
        <time>2011-02-06T10:34:10Z</time>
      </trkpt>
      <trkpt lat="43.60396" lon="3.68763">
        <ele>116.1</ele>
        <time>2011-02-06T10:34:12Z</time>
      </trkpt>
      <trkpt lat="43.60393" lon="3.68771">
        <ele>115.7</ele>
        <time>2011-02-06T10:34:14Z</time>
      </trkpt>
      <trkpt lat="43.60391" lon="3.68776">
        <ele>115.6</ele>
        <time>2011-02-06T10:34:15Z</time>
      </trkpt>
      <trkpt lat="43.60387" lon="3.68789">
        <ele>115.6</ele>
        <time>2011-02-06T10:34:18Z</time>
      </trkpt>
      <trkpt lat="43.60384" lon="3.68799">
        <ele>115.8</ele>
        <time>2011-02-06T10:34:20Z</time>
      </trkpt>
      <trkpt lat="43.60382" lon="3.68808">
        <ele>115.9</ele>
        <time>2011-02-06T10:34:22Z</time>
      </trkpt>
      <trkpt lat="43.6038" lon="3.68816">
        <ele>115.9</ele>
        <time>2011-02-06T10:34:24Z</time>
      </trkpt>
      <trkpt lat="43.60378" lon="3.68824">
        <ele>116.2</ele>
        <time>2011-02-06T10:34:26Z</time>
      </trkpt>
      <trkpt lat="43.60375" lon="3.68832">
        <ele>116.5</ele>
        <time>2011-02-06T10:34:28Z</time>
      </trkpt>
      <trkpt lat="43.60372" lon="3.68841">
        <ele>115.8</ele>
        <time>2011-02-06T10:34:30Z</time>
      </trkpt>
      <trkpt lat="43.6037" lon="3.68851">
        <ele>115.6</ele>
        <time>2011-02-06T10:34:32Z</time>
      </trkpt>
      <trkpt lat="43.60369" lon="3.6886">
        <ele>115.7</ele>
        <time>2011-02-06T10:34:34Z</time>
      </trkpt>
      <trkpt lat="43.60367" lon="3.68869">
        <ele>115.7</ele>
        <time>2011-02-06T10:34:36Z</time>
      </trkpt>
      <trkpt lat="43.60366" lon="3.68877">
        <ele>115.6</ele>
        <time>2011-02-06T10:34:38Z</time>
      </trkpt>
      <trkpt lat="43.60363" lon="3.68887">
        <ele>116.3</ele>
        <time>2011-02-06T10:34:41Z</time>
      </trkpt>
      <trkpt lat="43.60358" lon="3.68896">
        <ele>115.9</ele>
        <time>2011-02-06T10:34:44Z</time>
      </trkpt>
      <trkpt lat="43.60354" lon="3.68903">
        <ele>117.2</ele>
        <time>2011-02-06T10:34:47Z</time>
      </trkpt>
      <trkpt lat="43.6035" lon="3.68914">
        <ele>118.7</ele>
        <time>2011-02-06T10:34:51Z</time>
      </trkpt>
      <trkpt lat="43.60346" lon="3.68925">
        <ele>119.3</ele>
        <time>2011-02-06T10:34:55Z</time>
      </trkpt>
      <trkpt lat="43.60339" lon="3.68932">
        <ele>119.5</ele>
        <time>2011-02-06T10:34:59Z</time>
      </trkpt>
      <trkpt lat="43.60331" lon="3.68931">
        <ele>120.6</ele>
        <time>2011-02-06T10:35:03Z</time>
      </trkpt>
      <trkpt lat="43.60324" lon="3.68926">
        <ele>121.7</ele>
        <time>2011-02-06T10:35:07Z</time>
      </trkpt>
      <trkpt lat="43.60319" lon="3.68917">
        <ele>122.5</ele>
        <time>2011-02-06T10:35:12Z</time>
      </trkpt>
      <trkpt lat="43.60319" lon="3.68907">
        <ele>122.5</ele>
        <time>2011-02-06T10:35:16Z</time>
      </trkpt>
      <trkpt lat="43.60319" lon="3.68905">
        <ele>122.6</ele>
        <time>2011-02-06T10:35:17Z</time>
      </trkpt>
      <trkpt lat="43.60325" lon="3.68889">
        <ele>124</ele>
        <time>2011-02-06T10:35:24Z</time>
      </trkpt>
      <trkpt lat="43.6033" lon="3.68881">
        <ele>124.5</ele>
        <time>2011-02-06T10:35:28Z</time>
      </trkpt>
      <trkpt lat="43.60334" lon="3.68872">
        <ele>124.7</ele>
        <time>2011-02-06T10:35:32Z</time>
      </trkpt>
      <trkpt lat="43.60337" lon="3.68862">
        <ele>126</ele>
        <time>2011-02-06T10:35:36Z</time>
      </trkpt>
      <trkpt lat="43.60339" lon="3.6885">
        <ele>126.7</ele>
        <time>2011-02-06T10:35:40Z</time>
      </trkpt>
      <trkpt lat="43.60338" lon="3.68839">
        <ele>127.2</ele>
        <time>2011-02-06T10:35:44Z</time>
      </trkpt>
      <trkpt lat="43.60335" lon="3.68829">
        <ele>127.6</ele>
        <time>2011-02-06T10:35:48Z</time>
      </trkpt>
      <trkpt lat="43.60333" lon="3.68817">
        <ele>128.2</ele>
        <time>2011-02-06T10:35:52Z</time>
      </trkpt>
      <trkpt lat="43.60334" lon="3.68807">
        <ele>128.2</ele>
        <time>2011-02-06T10:35:56Z</time>
      </trkpt>
      <trkpt lat="43.60338" lon="3.68796">
        <ele>128.2</ele>
        <time>2011-02-06T10:36:00Z</time>
      </trkpt>
      <trkpt lat="43.60344" lon="3.68789">
        <ele>129.7</ele>
        <time>2011-02-06T10:36:04Z</time>
      </trkpt>
      <trkpt lat="43.60349" lon="3.68783">
        <ele>130.9</ele>
        <time>2011-02-06T10:36:07Z</time>
      </trkpt>
      <trkpt lat="43.60356" lon="3.68775">
        <ele>130</ele>
        <time>2011-02-06T10:36:11Z</time>
      </trkpt>
      <trkpt lat="43.6036" lon="3.68768">
        <ele>130.5</ele>
        <time>2011-02-06T10:36:14Z</time>
      </trkpt>
      <trkpt lat="43.60364" lon="3.6876">
        <ele>130.3</ele>
        <time>2011-02-06T10:36:17Z</time>
      </trkpt>
      <trkpt lat="43.60366" lon="3.68758">
        <ele>130.5</ele>
        <time>2011-02-06T10:36:18Z</time>
      </trkpt>
      <trkpt lat="43.60375" lon="3.68741">
        <ele>131.9</ele>
        <time>2011-02-06T10:36:25Z</time>
      </trkpt>
      <trkpt lat="43.60379" lon="3.6873">
        <ele>132.8</ele>
        <time>2011-02-06T10:36:29Z</time>
      </trkpt>
      <trkpt lat="43.6038" lon="3.68718">
        <ele>133.1</ele>
        <time>2011-02-06T10:36:33Z</time>
      </trkpt>
      <trkpt lat="43.60381" lon="3.68706">
        <ele>134.6</ele>
        <time>2011-02-06T10:36:37Z</time>
      </trkpt>
      <trkpt lat="43.60381" lon="3.68694">
        <ele>134.1</ele>
        <time>2011-02-06T10:36:41Z</time>
      </trkpt>
      <trkpt lat="43.60382" lon="3.68682">
        <ele>135.5</ele>
        <time>2011-02-06T10:36:45Z</time>
      </trkpt>
      <trkpt lat="43.60382" lon="3.68669">
        <ele>135.8</ele>
        <time>2011-02-06T10:36:49Z</time>
      </trkpt>
      <trkpt lat="43.60382" lon="3.68657">
        <ele>136.5</ele>
        <time>2011-02-06T10:36:53Z</time>
      </trkpt>
      <trkpt lat="43.60381" lon="3.68646">
        <ele>136.8</ele>
        <time>2011-02-06T10:36:57Z</time>
      </trkpt>
      <trkpt lat="43.60378" lon="3.68634">
        <ele>137.4</ele>
        <time>2011-02-06T10:37:01Z</time>
      </trkpt>
      <trkpt lat="43.60375" lon="3.68624">
        <ele>138.4</ele>
        <time>2011-02-06T10:37:05Z</time>
      </trkpt>
      <trkpt lat="43.6037" lon="3.68614">
        <ele>139.7</ele>
        <time>2011-02-06T10:37:09Z</time>
      </trkpt>
      <trkpt lat="43.60364" lon="3.68605">
        <ele>140.2</ele>
        <time>2011-02-06T10:37:13Z</time>
      </trkpt>
      <trkpt lat="43.60358" lon="3.68598">
        <ele>141</ele>
        <time>2011-02-06T10:37:17Z</time>
      </trkpt>
      <trkpt lat="43.60353" lon="3.68589">
        <ele>140.9</ele>
        <time>2011-02-06T10:37:21Z</time>
      </trkpt>
      <trkpt lat="43.60352" lon="3.68587">
        <ele>140.7</ele>
        <time>2011-02-06T10:37:22Z</time>
      </trkpt>
      <trkpt lat="43.60344" lon="3.68571">
        <ele>141.5</ele>
        <time>2011-02-06T10:37:29Z</time>
      </trkpt>
      <trkpt lat="43.6034" lon="3.68563">
        <ele>141.9</ele>
        <time>2011-02-06T10:37:32Z</time>
      </trkpt>
      <trkpt lat="43.60335" lon="3.68552">
        <ele>143.6</ele>
        <time>2011-02-06T10:37:36Z</time>
      </trkpt>
      <trkpt lat="43.60332" lon="3.68541">
        <ele>143.5</ele>
        <time>2011-02-06T10:37:40Z</time>
      </trkpt>
      <trkpt lat="43.60329" lon="3.68533">
        <ele>144.4</ele>
        <time>2011-02-06T10:37:43Z</time>
      </trkpt>
      <trkpt lat="43.60325" lon="3.68524">
        <ele>144</ele>
        <time>2011-02-06T10:37:46Z</time>
      </trkpt>
      <trkpt lat="43.60321" lon="3.68516">
        <ele>144.2</ele>
        <time>2011-02-06T10:37:49Z</time>
      </trkpt>
      <trkpt lat="43.60317" lon="3.68508">
        <ele>144.8</ele>
        <time>2011-02-06T10:37:52Z</time>
      </trkpt>
      <trkpt lat="43.60311" lon="3.685">
        <ele>144.5</ele>
        <time>2011-02-06T10:37:56Z</time>
      </trkpt>
      <trkpt lat="43.60303" lon="3.68494">
        <ele>145.5</ele>
        <time>2011-02-06T10:38:00Z</time>
      </trkpt>
      <trkpt lat="43.60296" lon="3.68487">
        <ele>146.7</ele>
        <time>2011-02-06T10:38:04Z</time>
      </trkpt>
      <trkpt lat="43.60288" lon="3.68484">
        <ele>147.4</ele>
        <time>2011-02-06T10:38:08Z</time>
      </trkpt>
      <trkpt lat="43.60279" lon="3.68482">
        <ele>148.8</ele>
        <time>2011-02-06T10:38:12Z</time>
      </trkpt>
      <trkpt lat="43.6027" lon="3.68479">
        <ele>149.8</ele>
        <time>2011-02-06T10:38:16Z</time>
      </trkpt>
      <trkpt lat="43.60264" lon="3.68477">
        <ele>150.5</ele>
        <time>2011-02-06T10:38:19Z</time>
      </trkpt>
      <trkpt lat="43.60255" lon="3.68474">
        <ele>151.1</ele>
        <time>2011-02-06T10:38:23Z</time>
      </trkpt>
      <trkpt lat="43.60253" lon="3.68473">
        <ele>151.2</ele>
        <time>2011-02-06T10:38:24Z</time>
      </trkpt>
      <trkpt lat="43.6024" lon="3.68468">
        <ele>152.4</ele>
        <time>2011-02-06T10:38:30Z</time>
      </trkpt>
      <trkpt lat="43.60234" lon="3.68465">
        <ele>152.6</ele>
        <time>2011-02-06T10:38:33Z</time>
      </trkpt>
      <trkpt lat="43.60226" lon="3.68459">
        <ele>153.1</ele>
        <time>2011-02-06T10:38:37Z</time>
      </trkpt>
      <trkpt lat="43.6022" lon="3.68455">
        <ele>154</ele>
        <time>2011-02-06T10:38:40Z</time>
      </trkpt>
      <trkpt lat="43.60214" lon="3.6845">
        <ele>154.3</ele>
        <time>2011-02-06T10:38:43Z</time>
      </trkpt>
      <trkpt lat="43.60208" lon="3.68445">
        <ele>154.8</ele>
        <time>2011-02-06T10:38:46Z</time>
      </trkpt>
      <trkpt lat="43.60201" lon="3.68437">
        <ele>155.2</ele>
        <time>2011-02-06T10:38:50Z</time>
      </trkpt>
      <trkpt lat="43.60195" lon="3.68429">
        <ele>156.1</ele>
        <time>2011-02-06T10:38:54Z</time>
      </trkpt>
      <trkpt lat="43.6019" lon="3.68419">
        <ele>157.5</ele>
        <time>2011-02-06T10:38:58Z</time>
      </trkpt>
      <trkpt lat="43.60186" lon="3.68411">
        <ele>157.8</ele>
        <time>2011-02-06T10:39:01Z</time>
      </trkpt>
      <trkpt lat="43.60182" lon="3.68403">
        <ele>158</ele>
        <time>2011-02-06T10:39:04Z</time>
      </trkpt>
      <trkpt lat="43.60177" lon="3.68393">
        <ele>158.8</ele>
        <time>2011-02-06T10:39:08Z</time>
      </trkpt>
      <trkpt lat="43.60173" lon="3.68385">
        <ele>159.6</ele>
        <time>2011-02-06T10:39:11Z</time>
      </trkpt>
      <trkpt lat="43.60169" lon="3.68377">
        <ele>160.4</ele>
        <time>2011-02-06T10:39:14Z</time>
      </trkpt>
      <trkpt lat="43.60165" lon="3.68368">
        <ele>160.6</ele>
        <time>2011-02-06T10:39:17Z</time>
      </trkpt>
      <trkpt lat="43.60162" lon="3.68361">
        <ele>161</ele>
        <time>2011-02-06T10:39:20Z</time>
      </trkpt>
      <trkpt lat="43.60156" lon="3.68351">
        <ele>162.3</ele>
        <time>2011-02-06T10:39:24Z</time>
      </trkpt>
      <trkpt lat="43.60155" lon="3.68348">
        <ele>162.5</ele>
        <time>2011-02-06T10:39:25Z</time>
      </trkpt>
      <trkpt lat="43.60146" lon="3.68331">
        <ele>163.3</ele>
        <time>2011-02-06T10:39:32Z</time>
      </trkpt>
      <trkpt lat="43.60143" lon="3.68323">
        <ele>163.9</ele>
        <time>2011-02-06T10:39:35Z</time>
      </trkpt>
      <trkpt lat="43.60137" lon="3.68314">
        <ele>164.8</ele>
        <time>2011-02-06T10:39:39Z</time>
      </trkpt>
      <trkpt lat="43.6013" lon="3.68307">
        <ele>165.1</ele>
        <time>2011-02-06T10:39:43Z</time>
      </trkpt>
      <trkpt lat="43.60122" lon="3.6831">
        <ele>167</ele>
        <time>2011-02-06T10:39:47Z</time>
      </trkpt>
      <trkpt lat="43.60121" lon="3.68322">
        <ele>167.8</ele>
        <time>2011-02-06T10:39:51Z</time>
      </trkpt>
      <trkpt lat="43.6012" lon="3.68334">
        <ele>168.7</ele>
        <time>2011-02-06T10:39:55Z</time>
      </trkpt>
      <trkpt lat="43.60117" lon="3.68345">
        <ele>169.9</ele>
        <time>2011-02-06T10:39:59Z</time>
      </trkpt>
      <trkpt lat="43.60114" lon="3.68353">
        <ele>169.7</ele>
        <time>2011-02-06T10:40:02Z</time>
      </trkpt>
      <trkpt lat="43.60109" lon="3.68363">
        <ele>169.6</ele>
        <time>2011-02-06T10:40:06Z</time>
      </trkpt>
      <trkpt lat="43.60102" lon="3.68372">
        <ele>170.1</ele>
        <time>2011-02-06T10:40:10Z</time>
      </trkpt>
      <trkpt lat="43.60096" lon="3.68379">
        <ele>171.3</ele>
        <time>2011-02-06T10:40:14Z</time>
      </trkpt>
      <trkpt lat="43.6009" lon="3.68385">
        <ele>171.8</ele>
        <time>2011-02-06T10:40:18Z</time>
      </trkpt>
      <trkpt lat="43.60083" lon="3.68391">
        <ele>173.4</ele>
        <time>2011-02-06T10:40:22Z</time>
      </trkpt>
      <trkpt lat="43.60077" lon="3.68397">
        <ele>174.5</ele>
        <time>2011-02-06T10:40:26Z</time>
      </trkpt>
      <trkpt lat="43.60075" lon="3.68399">
        <ele>174.9</ele>
        <time>2011-02-06T10:40:27Z</time>
      </trkpt>
      <trkpt lat="43.60065" lon="3.68413">
        <ele>175.7</ele>
        <time>2011-02-06T10:40:34Z</time>
      </trkpt>
      <trkpt lat="43.60059" lon="3.6842">
        <ele>176.3</ele>
        <time>2011-02-06T10:40:38Z</time>
      </trkpt>
      <trkpt lat="43.60052" lon="3.68426">
        <ele>177.4</ele>
        <time>2011-02-06T10:40:42Z</time>
      </trkpt>
      <trkpt lat="43.60045" lon="3.68431">
        <ele>177.6</ele>
        <time>2011-02-06T10:40:46Z</time>
      </trkpt>
      <trkpt lat="43.60038" lon="3.68436">
        <ele>177.9</ele>
        <time>2011-02-06T10:40:50Z</time>
      </trkpt>
      <trkpt lat="43.60031" lon="3.68441">
        <ele>178.4</ele>
        <time>2011-02-06T10:40:54Z</time>
      </trkpt>
      <trkpt lat="43.60024" lon="3.68446">
        <ele>179</ele>
        <time>2011-02-06T10:40:58Z</time>
      </trkpt>
      <trkpt lat="43.60017" lon="3.68452">
        <ele>180.8</ele>
        <time>2011-02-06T10:41:02Z</time>
      </trkpt>
      <trkpt lat="43.60009" lon="3.68455">
        <ele>181.1</ele>
        <time>2011-02-06T10:41:06Z</time>
      </trkpt>
      <trkpt lat="43.60003" lon="3.68449">
        <ele>181.2</ele>
        <time>2011-02-06T10:41:10Z</time>
      </trkpt>
      <trkpt lat="43.60003" lon="3.68437">
        <ele>182.2</ele>
        <time>2011-02-06T10:41:14Z</time>
      </trkpt>
      <trkpt lat="43.60002" lon="3.68427">
        <ele>182.4</ele>
        <time>2011-02-06T10:41:18Z</time>
      </trkpt>
      <trkpt lat="43.59998" lon="3.68417">
        <ele>182.9</ele>
        <time>2011-02-06T10:41:22Z</time>
      </trkpt>
      <trkpt lat="43.59992" lon="3.68409">
        <ele>184.7</ele>
        <time>2011-02-06T10:41:27Z</time>
      </trkpt>
      <trkpt lat="43.5999" lon="3.68407">
        <ele>185</ele>
        <time>2011-02-06T10:41:28Z</time>
      </trkpt>
      <trkpt lat="43.59977" lon="3.68402">
        <ele>186</ele>
        <time>2011-02-06T10:41:35Z</time>
      </trkpt>
      <trkpt lat="43.59969" lon="3.68403">
        <ele>187.3</ele>
        <time>2011-02-06T10:41:39Z</time>
      </trkpt>
      <trkpt lat="43.59961" lon="3.68402">
        <ele>187</ele>
        <time>2011-02-06T10:41:43Z</time>
      </trkpt>
      <trkpt lat="43.59954" lon="3.68401">
        <ele>187.8</ele>
        <time>2011-02-06T10:41:46Z</time>
      </trkpt>
      <trkpt lat="43.59947" lon="3.684">
        <ele>188.3</ele>
        <time>2011-02-06T10:41:49Z</time>
      </trkpt>
      <trkpt lat="43.59941" lon="3.68397">
        <ele>188.7</ele>
        <time>2011-02-06T10:41:52Z</time>
      </trkpt>
      <trkpt lat="43.59934" lon="3.68389">
        <ele>188.8</ele>
        <time>2011-02-06T10:41:56Z</time>
      </trkpt>
      <trkpt lat="43.59926" lon="3.68383">
        <ele>188.7</ele>
        <time>2011-02-06T10:42:00Z</time>
      </trkpt>
      <trkpt lat="43.59918" lon="3.68377">
        <ele>189.1</ele>
        <time>2011-02-06T10:42:04Z</time>
      </trkpt>
      <trkpt lat="43.5991" lon="3.68376">
        <ele>190</ele>
        <time>2011-02-06T10:42:08Z</time>
      </trkpt>
      <trkpt lat="43.59902" lon="3.68376">
        <ele>190.7</ele>
        <time>2011-02-06T10:42:12Z</time>
      </trkpt>
      <trkpt lat="43.59893" lon="3.68375">
        <ele>191.9</ele>
        <time>2011-02-06T10:42:16Z</time>
      </trkpt>
      <trkpt lat="43.59885" lon="3.68372">
        <ele>193.1</ele>
        <time>2011-02-06T10:42:20Z</time>
      </trkpt>
      <trkpt lat="43.59878" lon="3.68368">
        <ele>193</ele>
        <time>2011-02-06T10:42:24Z</time>
      </trkpt>
      <trkpt lat="43.59871" lon="3.68362">
        <ele>194.6</ele>
        <time>2011-02-06T10:42:28Z</time>
      </trkpt>
      <trkpt lat="43.59869" lon="3.68361">
        <ele>194.8</ele>
        <time>2011-02-06T10:42:29Z</time>
      </trkpt>
      <trkpt lat="43.59858" lon="3.68351">
        <ele>195.7</ele>
        <time>2011-02-06T10:42:36Z</time>
      </trkpt>
      <trkpt lat="43.59858" lon="3.68342">
        <ele>196.1</ele>
        <time>2011-02-06T10:42:39Z</time>
      </trkpt>
      <trkpt lat="43.59858" lon="3.68331">
        <ele>197.3</ele>
        <time>2011-02-06T10:42:42Z</time>
      </trkpt>
      <trkpt lat="43.59852" lon="3.68322">
        <ele>195.6</ele>
        <time>2011-02-06T10:42:46Z</time>
      </trkpt>
      <trkpt lat="43.59845" lon="3.68317">
        <ele>195.6</ele>
        <time>2011-02-06T10:42:50Z</time>
      </trkpt>
      <trkpt lat="43.59838" lon="3.68311">
        <ele>195.7</ele>
        <time>2011-02-06T10:42:53Z</time>
      </trkpt>
      <trkpt lat="43.59832" lon="3.68307">
        <ele>196</ele>
        <time>2011-02-06T10:42:55Z</time>
      </trkpt>
      <trkpt lat="43.59826" lon="3.68302">
        <ele>196.4</ele>
        <time>2011-02-06T10:42:57Z</time>
      </trkpt>
      <trkpt lat="43.59821" lon="3.68296">
        <ele>196.8</ele>
        <time>2011-02-06T10:42:59Z</time>
      </trkpt>
      <trkpt lat="43.59818" lon="3.68288">
        <ele>195.6</ele>
        <time>2011-02-06T10:43:01Z</time>
      </trkpt>
      <trkpt lat="43.59816" lon="3.68279">
        <ele>195.3</ele>
        <time>2011-02-06T10:43:03Z</time>
      </trkpt>
      <trkpt lat="43.59814" lon="3.68271">
        <ele>195.4</ele>
        <time>2011-02-06T10:43:05Z</time>
      </trkpt>
      <trkpt lat="43.59811" lon="3.68261">
        <ele>195.5</ele>
        <time>2011-02-06T10:43:08Z</time>
      </trkpt>
      <trkpt lat="43.59807" lon="3.6825">
        <ele>195.6</ele>
        <time>2011-02-06T10:43:11Z</time>
      </trkpt>
      <trkpt lat="43.59804" lon="3.68239">
        <ele>197.1</ele>
        <time>2011-02-06T10:43:14Z</time>
      </trkpt>
      <trkpt lat="43.598" lon="3.68228">
        <ele>197.5</ele>
        <time>2011-02-06T10:43:17Z</time>
      </trkpt>
      <trkpt lat="43.59796" lon="3.68218">
        <ele>198.5</ele>
        <time>2011-02-06T10:43:20Z</time>
      </trkpt>
      <trkpt lat="43.59793" lon="3.68208">
        <ele>199.1</ele>
        <time>2011-02-06T10:43:23Z</time>
      </trkpt>
      <trkpt lat="43.59789" lon="3.68197">
        <ele>199.6</ele>
        <time>2011-02-06T10:43:26Z</time>
      </trkpt>
      <trkpt lat="43.59784" lon="3.68187">
        <ele>200.2</ele>
        <time>2011-02-06T10:43:29Z</time>
      </trkpt>
      <trkpt lat="43.59783" lon="3.68184">
        <ele>200.6</ele>
        <time>2011-02-06T10:43:30Z</time>
      </trkpt>
      <trkpt lat="43.59776" lon="3.68168">
        <ele>201</ele>
        <time>2011-02-06T10:43:35Z</time>
      </trkpt>
      <trkpt lat="43.59771" lon="3.6816">
        <ele>201.3</ele>
        <time>2011-02-06T10:43:38Z</time>
      </trkpt>
      <trkpt lat="43.59766" lon="3.6815">
        <ele>201.5</ele>
        <time>2011-02-06T10:43:41Z</time>
      </trkpt>
      <trkpt lat="43.59761" lon="3.6814">
        <ele>201.4</ele>
        <time>2011-02-06T10:43:44Z</time>
      </trkpt>
      <trkpt lat="43.59757" lon="3.6813">
        <ele>202</ele>
        <time>2011-02-06T10:43:47Z</time>
      </trkpt>
      <trkpt lat="43.59753" lon="3.6812">
        <ele>201.8</ele>
        <time>2011-02-06T10:43:50Z</time>
      </trkpt>
      <trkpt lat="43.59749" lon="3.68109">
        <ele>202.3</ele>
        <time>2011-02-06T10:43:53Z</time>
      </trkpt>
      <trkpt lat="43.59747" lon="3.68101">
        <ele>203</ele>
        <time>2011-02-06T10:43:55Z</time>
      </trkpt>
      <trkpt lat="43.59743" lon="3.6809">
        <ele>202.7</ele>
        <time>2011-02-06T10:43:58Z</time>
      </trkpt>
      <trkpt lat="43.59741" lon="3.68082">
        <ele>202.9</ele>
        <time>2011-02-06T10:44:00Z</time>
      </trkpt>
      <trkpt lat="43.5974" lon="3.68074">
        <ele>203.3</ele>
        <time>2011-02-06T10:44:02Z</time>
      </trkpt>
      <trkpt lat="43.59738" lon="3.68065">
        <ele>203.7</ele>
        <time>2011-02-06T10:44:04Z</time>
      </trkpt>
      <trkpt lat="43.59736" lon="3.68054">
        <ele>204.5</ele>
        <time>2011-02-06T10:44:07Z</time>
      </trkpt>
      <trkpt lat="43.59732" lon="3.68043">
        <ele>205.7</ele>
        <time>2011-02-06T10:44:10Z</time>
      </trkpt>
      <trkpt lat="43.59727" lon="3.68033">
        <ele>206.5</ele>
        <time>2011-02-06T10:44:13Z</time>
      </trkpt>
      <trkpt lat="43.59721" lon="3.68026">
        <ele>207.3</ele>
        <time>2011-02-06T10:44:16Z</time>
      </trkpt>
      <trkpt lat="43.59715" lon="3.6802">
        <ele>208.5</ele>
        <time>2011-02-06T10:44:19Z</time>
      </trkpt>
      <trkpt lat="43.59707" lon="3.68015">
        <ele>208.2</ele>
        <time>2011-02-06T10:44:22Z</time>
      </trkpt>
      <trkpt lat="43.59699" lon="3.68011">
        <ele>208.8</ele>
        <time>2011-02-06T10:44:25Z</time>
      </trkpt>
      <trkpt lat="43.59691" lon="3.68007">
        <ele>208.9</ele>
        <time>2011-02-06T10:44:28Z</time>
      </trkpt>
      <trkpt lat="43.59684" lon="3.68003">
        <ele>209.5</ele>
        <time>2011-02-06T10:44:31Z</time>
      </trkpt>
      <trkpt lat="43.59681" lon="3.68002">
        <ele>209.9</ele>
        <time>2011-02-06T10:44:32Z</time>
      </trkpt>
      <trkpt lat="43.5967" lon="3.67997">
        <ele>210.9</ele>
        <time>2011-02-06T10:44:37Z</time>
      </trkpt>
      <trkpt lat="43.59663" lon="3.68003">
        <ele>210.8</ele>
        <time>2011-02-06T10:46:59Z</time>
      </trkpt>
      <trkpt lat="43.59662" lon="3.68004">
        <ele>210.7</ele>
        <time>2011-02-06T10:47:00Z</time>
      </trkpt>
      <trkpt lat="43.59654" lon="3.68006">
        <ele>212.2</ele>
        <time>2011-02-06T10:48:53Z</time>
      </trkpt>
      <trkpt lat="43.59645" lon="3.68012">
        <ele>212.1</ele>
        <time>2011-02-06T10:50:07Z</time>
      </trkpt>
      <trkpt lat="43.59633" lon="3.68014">
        <ele>212.1</ele>
        <time>2011-02-06T10:50:11Z</time>
      </trkpt>
      <trkpt lat="43.59624" lon="3.68017">
        <ele>211.8</ele>
        <time>2011-02-06T10:50:14Z</time>
      </trkpt>
      <trkpt lat="43.59616" lon="3.68019">
        <ele>211.3</ele>
        <time>2011-02-06T10:50:17Z</time>
      </trkpt>
      <trkpt lat="43.5961" lon="3.68017">
        <ele>211.1</ele>
        <time>2011-02-06T10:50:19Z</time>
      </trkpt>
      <trkpt lat="43.59602" lon="3.68015">
        <ele>211.4</ele>
        <time>2011-02-06T10:50:22Z</time>
      </trkpt>
      <trkpt lat="43.59594" lon="3.68013">
        <ele>210.8</ele>
        <time>2011-02-06T10:50:25Z</time>
      </trkpt>
      <trkpt lat="43.59585" lon="3.68013">
        <ele>210.2</ele>
        <time>2011-02-06T10:50:28Z</time>
      </trkpt>
      <trkpt lat="43.59578" lon="3.68011">
        <ele>209.9</ele>
        <time>2011-02-06T10:50:32Z</time>
      </trkpt>
      <trkpt lat="43.59571" lon="3.68011">
        <ele>209.6</ele>
        <time>2011-02-06T10:50:34Z</time>
      </trkpt>
      <trkpt lat="43.59564" lon="3.68012">
        <ele>208.5</ele>
        <time>2011-02-06T10:50:36Z</time>
      </trkpt>
      <trkpt lat="43.59559" lon="3.68013">
        <ele>207.7</ele>
        <time>2011-02-06T10:50:37Z</time>
      </trkpt>
      <trkpt lat="43.59551" lon="3.68017">
        <ele>206.6</ele>
        <time>2011-02-06T10:50:39Z</time>
      </trkpt>
      <trkpt lat="43.59544" lon="3.6802">
        <ele>205.7</ele>
        <time>2011-02-06T10:50:41Z</time>
      </trkpt>
      <trkpt lat="43.59539" lon="3.68023">
        <ele>204.3</ele>
        <time>2011-02-06T10:50:43Z</time>
      </trkpt>
      <trkpt lat="43.59533" lon="3.68027">
        <ele>202.9</ele>
        <time>2011-02-06T10:50:45Z</time>
      </trkpt>
      <trkpt lat="43.59526" lon="3.68028">
        <ele>201.9</ele>
        <time>2011-02-06T10:50:47Z</time>
      </trkpt>
      <trkpt lat="43.59522" lon="3.68029">
        <ele>201.6</ele>
        <time>2011-02-06T10:50:48Z</time>
      </trkpt>
      <trkpt lat="43.59517" lon="3.6803">
        <ele>200.6</ele>
        <time>2011-02-06T10:50:49Z</time>
      </trkpt>
      <trkpt lat="43.59512" lon="3.6803">
        <ele>199.9</ele>
        <time>2011-02-06T10:50:50Z</time>
      </trkpt>
      <trkpt lat="43.59506" lon="3.68031">
        <ele>199.4</ele>
        <time>2011-02-06T10:50:51Z</time>
      </trkpt>
      <trkpt lat="43.595" lon="3.68031">
        <ele>198.7</ele>
        <time>2011-02-06T10:50:52Z</time>
      </trkpt>
      <trkpt lat="43.59495" lon="3.68032">
        <ele>198.2</ele>
        <time>2011-02-06T10:50:53Z</time>
      </trkpt>
      <trkpt lat="43.5949" lon="3.68033">
        <ele>197.8</ele>
        <time>2011-02-06T10:50:54Z</time>
      </trkpt>
      <trkpt lat="43.59484" lon="3.68035">
        <ele>197.3</ele>
        <time>2011-02-06T10:50:55Z</time>
      </trkpt>
      <trkpt lat="43.59479" lon="3.68037">
        <ele>197</ele>
        <time>2011-02-06T10:50:56Z</time>
      </trkpt>
      <trkpt lat="43.5947" lon="3.68037">
        <ele>196.5</ele>
        <time>2011-02-06T10:50:58Z</time>
      </trkpt>
      <trkpt lat="43.59462" lon="3.68033">
        <ele>195.4</ele>
        <time>2011-02-06T10:51:00Z</time>
      </trkpt>
      <trkpt lat="43.59454" lon="3.68027">
        <ele>194.6</ele>
        <time>2011-02-06T10:51:02Z</time>
      </trkpt>
      <trkpt lat="43.5945" lon="3.68024">
        <ele>194.3</ele>
        <time>2011-02-06T10:51:03Z</time>
      </trkpt>
      <trkpt lat="43.59442" lon="3.6802">
        <ele>193.4</ele>
        <time>2011-02-06T10:51:05Z</time>
      </trkpt>
      <trkpt lat="43.59435" lon="3.68022">
        <ele>192.7</ele>
        <time>2011-02-06T10:51:07Z</time>
      </trkpt>
      <trkpt lat="43.59433" lon="3.68021">
        <ele>192.1</ele>
        <time>2011-02-06T10:51:08Z</time>
      </trkpt>
      <trkpt lat="43.59424" lon="3.68013">
        <ele>190.5</ele>
        <time>2011-02-06T10:51:12Z</time>
      </trkpt>
      <trkpt lat="43.59417" lon="3.68006">
        <ele>190</ele>
        <time>2011-02-06T10:51:14Z</time>
      </trkpt>
      <trkpt lat="43.59409" lon="3.68">
        <ele>188.3</ele>
        <time>2011-02-06T10:51:16Z</time>
      </trkpt>
      <trkpt lat="43.59402" lon="3.67999">
        <ele>187.3</ele>
        <time>2011-02-06T10:51:18Z</time>
      </trkpt>
      <trkpt lat="43.59397" lon="3.68005">
        <ele>185.5</ele>
        <time>2011-02-06T10:51:21Z</time>
      </trkpt>
      <trkpt lat="43.59395" lon="3.68015">
        <ele>183.5</ele>
        <time>2011-02-06T10:51:24Z</time>
      </trkpt>
      <trkpt lat="43.59392" lon="3.68023">
        <ele>182.6</ele>
        <time>2011-02-06T10:51:26Z</time>
      </trkpt>
      <trkpt lat="43.59388" lon="3.68035">
        <ele>181.6</ele>
        <time>2011-02-06T10:51:28Z</time>
      </trkpt>
      <trkpt lat="43.59387" lon="3.68041">
        <ele>181.2</ele>
        <time>2011-02-06T10:51:29Z</time>
      </trkpt>
      <trkpt lat="43.59385" lon="3.68052">
        <ele>180.7</ele>
        <time>2011-02-06T10:51:31Z</time>
      </trkpt>
      <trkpt lat="43.59383" lon="3.68061">
        <ele>180.1</ele>
        <time>2011-02-06T10:51:34Z</time>
      </trkpt>
      <trkpt lat="43.59381" lon="3.6807">
        <ele>179.5</ele>
        <time>2011-02-06T10:51:37Z</time>
      </trkpt>
      <trkpt lat="43.59376" lon="3.68079">
        <ele>178.7</ele>
        <time>2011-02-06T10:51:40Z</time>
      </trkpt>
      <trkpt lat="43.59371" lon="3.68085">
        <ele>178.2</ele>
        <time>2011-02-06T10:51:42Z</time>
      </trkpt>
      <trkpt lat="43.59365" lon="3.6809">
        <ele>178</ele>
        <time>2011-02-06T10:51:44Z</time>
      </trkpt>
      <trkpt lat="43.59361" lon="3.68096">
        <ele>177.9</ele>
        <time>2011-02-06T10:51:46Z</time>
      </trkpt>
      <trkpt lat="43.59357" lon="3.68105">
        <ele>176.4</ele>
        <time>2011-02-06T10:51:48Z</time>
      </trkpt>
      <trkpt lat="43.59353" lon="3.68112">
        <ele>175.6</ele>
        <time>2011-02-06T10:51:50Z</time>
      </trkpt>
      <trkpt lat="43.59347" lon="3.68118">
        <ele>175.3</ele>
        <time>2011-02-06T10:51:52Z</time>
      </trkpt>
      <trkpt lat="43.5934" lon="3.68121">
        <ele>174.1</ele>
        <time>2011-02-06T10:51:54Z</time>
      </trkpt>
      <trkpt lat="43.59332" lon="3.68125">
        <ele>172.9</ele>
        <time>2011-02-06T10:51:56Z</time>
      </trkpt>
      <trkpt lat="43.59325" lon="3.68128">
        <ele>171.8</ele>
        <time>2011-02-06T10:51:58Z</time>
      </trkpt>
      <trkpt lat="43.59318" lon="3.68131">
        <ele>170.6</ele>
        <time>2011-02-06T10:52:00Z</time>
      </trkpt>
      <trkpt lat="43.59309" lon="3.68132">
        <ele>169.3</ele>
        <time>2011-02-06T10:52:03Z</time>
      </trkpt>
      <trkpt lat="43.59303" lon="3.68133">
        <ele>168.4</ele>
        <time>2011-02-06T10:52:05Z</time>
      </trkpt>
      <trkpt lat="43.59296" lon="3.68137">
        <ele>167.7</ele>
        <time>2011-02-06T10:52:07Z</time>
      </trkpt>
      <trkpt lat="43.59289" lon="3.68141">
        <ele>167.1</ele>
        <time>2011-02-06T10:52:09Z</time>
      </trkpt>
      <trkpt lat="43.59286" lon="3.68144">
        <ele>166.8</ele>
        <time>2011-02-06T10:52:10Z</time>
      </trkpt>
      <trkpt lat="43.59273" lon="3.68152">
        <ele>164.9</ele>
        <time>2011-02-06T10:52:15Z</time>
      </trkpt>
      <trkpt lat="43.59267" lon="3.68156">
        <ele>163.9</ele>
        <time>2011-02-06T10:52:17Z</time>
      </trkpt>
      <trkpt lat="43.5926" lon="3.68157">
        <ele>163.2</ele>
        <time>2011-02-06T10:52:19Z</time>
      </trkpt>
      <trkpt lat="43.59255" lon="3.68161">
        <ele>162.9</ele>
        <time>2011-02-06T10:52:21Z</time>
      </trkpt>
      <trkpt lat="43.59248" lon="3.68166">
        <ele>161.8</ele>
        <time>2011-02-06T10:52:23Z</time>
      </trkpt>
      <trkpt lat="43.59241" lon="3.68171">
        <ele>160.4</ele>
        <time>2011-02-06T10:52:26Z</time>
      </trkpt>
      <trkpt lat="43.59235" lon="3.68179">
        <ele>158.6</ele>
        <time>2011-02-06T10:52:38Z</time>
      </trkpt>
      <trkpt lat="43.59228" lon="3.68185">
        <ele>158.2</ele>
        <time>2011-02-06T10:52:44Z</time>
      </trkpt>
      <trkpt lat="43.59223" lon="3.6819">
        <ele>158.1</ele>
        <time>2011-02-06T10:52:46Z</time>
      </trkpt>
      <trkpt lat="43.59215" lon="3.68193">
        <ele>157.9</ele>
        <time>2011-02-06T10:52:49Z</time>
      </trkpt>
      <trkpt lat="43.59208" lon="3.68199">
        <ele>156.9</ele>
        <time>2011-02-06T10:52:53Z</time>
      </trkpt>
      <trkpt lat="43.59201" lon="3.68206">
        <ele>156.4</ele>
        <time>2011-02-06T10:52:56Z</time>
      </trkpt>
      <trkpt lat="43.59194" lon="3.68215">
        <ele>155.3</ele>
        <time>2011-02-06T10:52:59Z</time>
      </trkpt>
      <trkpt lat="43.59187" lon="3.68222">
        <ele>153.9</ele>
        <time>2011-02-06T10:53:02Z</time>
      </trkpt>
      <trkpt lat="43.59182" lon="3.68228">
        <ele>153.4</ele>
        <time>2011-02-06T10:53:04Z</time>
      </trkpt>
      <trkpt lat="43.59177" lon="3.68233">
        <ele>152.7</ele>
        <time>2011-02-06T10:53:06Z</time>
      </trkpt>
      <trkpt lat="43.59172" lon="3.6824">
        <ele>152.1</ele>
        <time>2011-02-06T10:53:08Z</time>
      </trkpt>
      <trkpt lat="43.59167" lon="3.68247">
        <ele>151.5</ele>
        <time>2011-02-06T10:53:10Z</time>
      </trkpt>
      <trkpt lat="43.59165" lon="3.68251">
        <ele>151.2</ele>
        <time>2011-02-06T10:53:11Z</time>
      </trkpt>
      <trkpt lat="43.59158" lon="3.68261">
        <ele>150.9</ele>
        <time>2011-02-06T10:53:14Z</time>
      </trkpt>
      <trkpt lat="43.59153" lon="3.68269">
        <ele>150.6</ele>
        <time>2011-02-06T10:53:16Z</time>
      </trkpt>
      <trkpt lat="43.59146" lon="3.68274">
        <ele>150.1</ele>
        <time>2011-02-06T10:53:19Z</time>
      </trkpt>
      <trkpt lat="43.59141" lon="3.68279">
        <ele>149.9</ele>
        <time>2011-02-06T10:53:21Z</time>
      </trkpt>
      <trkpt lat="43.59133" lon="3.68283">
        <ele>148.8</ele>
        <time>2011-02-06T10:53:24Z</time>
      </trkpt>
      <trkpt lat="43.59127" lon="3.68289">
        <ele>147.8</ele>
        <time>2011-02-06T10:53:27Z</time>
      </trkpt>
      <trkpt lat="43.59121" lon="3.68294">
        <ele>147.2</ele>
        <time>2011-02-06T10:53:29Z</time>
      </trkpt>
      <trkpt lat="43.59115" lon="3.68302">
        <ele>146.6</ele>
        <time>2011-02-06T10:53:38Z</time>
      </trkpt>
      <trkpt lat="43.59108" lon="3.68307">
        <ele>146.1</ele>
        <time>2011-02-06T10:53:42Z</time>
      </trkpt>
      <trkpt lat="43.59102" lon="3.68311">
        <ele>146</ele>
        <time>2011-02-06T10:53:44Z</time>
      </trkpt>
      <trkpt lat="43.59094" lon="3.68312">
        <ele>145.6</ele>
        <time>2011-02-06T10:53:47Z</time>
      </trkpt>
      <trkpt lat="43.59086" lon="3.68315">
        <ele>145.3</ele>
        <time>2011-02-06T10:53:50Z</time>
      </trkpt>
      <trkpt lat="43.59079" lon="3.6832">
        <ele>144.1</ele>
        <time>2011-02-06T10:53:54Z</time>
      </trkpt>
      <trkpt lat="43.59072" lon="3.68323">
        <ele>142.8</ele>
        <time>2011-02-06T10:53:57Z</time>
      </trkpt>
      <trkpt lat="43.59064" lon="3.68326">
        <ele>142.1</ele>
        <time>2011-02-06T10:54:00Z</time>
      </trkpt>
      <trkpt lat="43.59058" lon="3.68333">
        <ele>142.5</ele>
        <time>2011-02-06T10:54:02Z</time>
      </trkpt>
      <trkpt lat="43.59052" lon="3.6834">
        <ele>142.3</ele>
        <time>2011-02-06T10:54:04Z</time>
      </trkpt>
      <trkpt lat="43.59046" lon="3.68347">
        <ele>136.2</ele>
        <time>2011-02-06T10:54:06Z</time>
      </trkpt>
      <trkpt lat="43.59042" lon="3.68358">
        <ele>127.9</ele>
        <time>2011-02-06T10:54:21Z</time>
      </trkpt>
      <trkpt lat="43.59041" lon="3.68358">
        <ele>128.1</ele>
        <time>2011-02-06T10:54:22Z</time>
      </trkpt>
      <trkpt lat="43.59032" lon="3.68362">
        <ele>128</ele>
        <time>2011-02-06T10:58:04Z</time>
      </trkpt>
      <trkpt lat="43.59023" lon="3.68377">
        <ele>128.2</ele>
        <time>2011-02-06T10:58:37Z</time>
      </trkpt>
      <trkpt lat="43.59018" lon="3.68385">
        <ele>128.3</ele>
        <time>2011-02-06T10:58:40Z</time>
      </trkpt>
      <trkpt lat="43.59014" lon="3.68392">
        <ele>129.5</ele>
        <time>2011-02-06T10:58:43Z</time>
      </trkpt>
      <trkpt lat="43.59008" lon="3.68401">
        <ele>129.9</ele>
        <time>2011-02-06T10:58:46Z</time>
      </trkpt>
      <trkpt lat="43.59003" lon="3.68409">
        <ele>130.4</ele>
        <time>2011-02-06T10:58:49Z</time>
      </trkpt>
      <trkpt lat="43.58997" lon="3.68419">
        <ele>131.6</ele>
        <time>2011-02-06T10:58:52Z</time>
      </trkpt>
      <trkpt lat="43.58992" lon="3.68428">
        <ele>132.9</ele>
        <time>2011-02-06T10:58:55Z</time>
      </trkpt>
      <trkpt lat="43.58989" lon="3.68439">
        <ele>134.5</ele>
        <time>2011-02-06T10:58:58Z</time>
      </trkpt>
      <trkpt lat="43.58987" lon="3.68449">
        <ele>135</ele>
        <time>2011-02-06T10:59:01Z</time>
      </trkpt>
      <trkpt lat="43.58986" lon="3.68461">
        <ele>133.8</ele>
        <time>2011-02-06T10:59:05Z</time>
      </trkpt>
      <trkpt lat="43.58984" lon="3.68463">
        <ele>133.6</ele>
        <time>2011-02-06T10:59:06Z</time>
      </trkpt>
      <trkpt lat="43.58972" lon="3.68472">
        <ele>134.4</ele>
        <time>2011-02-06T10:59:15Z</time>
      </trkpt>
      <trkpt lat="43.58965" lon="3.6848">
        <ele>133.8</ele>
        <time>2011-02-06T10:59:23Z</time>
      </trkpt>
      <trkpt lat="43.58961" lon="3.6849">
        <ele>134.1</ele>
        <time>2011-02-06T10:59:28Z</time>
      </trkpt>
      <trkpt lat="43.58954" lon="3.68497">
        <ele>133.8</ele>
        <time>2011-02-06T10:59:33Z</time>
      </trkpt>
      <trkpt lat="43.58948" lon="3.68506">
        <ele>132.8</ele>
        <time>2011-02-06T10:59:41Z</time>
      </trkpt>
      <trkpt lat="43.58949" lon="3.68518">
        <ele>131.1</ele>
        <time>2011-02-06T10:59:49Z</time>
      </trkpt>
      <trkpt lat="43.5895" lon="3.6853">
        <ele>129.2</ele>
        <time>2011-02-06T11:00:04Z</time>
      </trkpt>
      <trkpt lat="43.58951" lon="3.68542">
        <ele>129.6</ele>
        <time>2011-02-06T11:00:17Z</time>
      </trkpt>
      <trkpt lat="43.5895" lon="3.68543">
        <ele>129.6</ele>
        <time>2011-02-06T11:00:18Z</time>
      </trkpt>
      <trkpt lat="43.58946" lon="3.68563">
        <ele>127.4</ele>
        <time>2011-02-06T11:00:38Z</time>
      </trkpt>
      <trkpt lat="43.58939" lon="3.68568">
        <ele>126.7</ele>
        <time>2011-02-06T11:00:43Z</time>
      </trkpt>
      <trkpt lat="43.58931" lon="3.68573">
        <ele>125.5</ele>
        <time>2011-02-06T11:00:49Z</time>
      </trkpt>
      <trkpt lat="43.58924" lon="3.68579">
        <ele>124.8</ele>
        <time>2011-02-06T11:00:55Z</time>
      </trkpt>
      <trkpt lat="43.58917" lon="3.68582">
        <ele>124.1</ele>
        <time>2011-02-06T11:00:59Z</time>
      </trkpt>
      <trkpt lat="43.58926" lon="3.6858">
        <ele>124.8</ele>
        <time>2011-02-06T11:01:14Z</time>
      </trkpt>
      <trkpt lat="43.58919" lon="3.68586">
        <ele>125.5</ele>
        <time>2011-02-06T11:02:34Z</time>
      </trkpt>
      <trkpt lat="43.58917" lon="3.68587">
        <ele>125.4</ele>
        <time>2011-02-06T11:02:35Z</time>
      </trkpt>
      <trkpt lat="43.58905" lon="3.68591">
        <ele>124.9</ele>
        <time>2011-02-06T11:02:39Z</time>
      </trkpt>
      <trkpt lat="43.58898" lon="3.68595">
        <ele>124.8</ele>
        <time>2011-02-06T11:02:41Z</time>
      </trkpt>
      <trkpt lat="43.58891" lon="3.68597">
        <ele>124.7</ele>
        <time>2011-02-06T11:02:43Z</time>
      </trkpt>
      <trkpt lat="43.58887" lon="3.68598">
        <ele>124</ele>
        <time>2011-02-06T11:02:44Z</time>
      </trkpt>
      <trkpt lat="43.58882" lon="3.686">
        <ele>123.5</ele>
        <time>2011-02-06T11:02:45Z</time>
      </trkpt>
      <trkpt lat="43.58877" lon="3.68601">
        <ele>123.1</ele>
        <time>2011-02-06T11:02:46Z</time>
      </trkpt>
      <trkpt lat="43.58872" lon="3.68603">
        <ele>122.4</ele>
        <time>2011-02-06T11:02:47Z</time>
      </trkpt>
      <trkpt lat="43.58866" lon="3.68604">
        <ele>121.9</ele>
        <time>2011-02-06T11:02:48Z</time>
      </trkpt>
      <trkpt lat="43.58861" lon="3.68606">
        <ele>121.4</ele>
        <time>2011-02-06T11:02:49Z</time>
      </trkpt>
      <trkpt lat="43.58855" lon="3.68607">
        <ele>121.1</ele>
        <time>2011-02-06T11:02:50Z</time>
      </trkpt>
      <trkpt lat="43.58849" lon="3.6861">
        <ele>120.9</ele>
        <time>2011-02-06T11:02:51Z</time>
      </trkpt>
      <trkpt lat="43.58842" lon="3.68612">
        <ele>120.8</ele>
        <time>2011-02-06T11:02:52Z</time>
      </trkpt>
      <trkpt lat="43.58835" lon="3.68613">
        <ele>120.7</ele>
        <time>2011-02-06T11:02:53Z</time>
      </trkpt>
      <trkpt lat="43.58828" lon="3.68613">
        <ele>118.9</ele>
        <time>2011-02-06T11:02:54Z</time>
      </trkpt>
      <trkpt lat="43.58821" lon="3.68612">
        <ele>117.5</ele>
        <time>2011-02-06T11:02:55Z</time>
      </trkpt>
      <trkpt lat="43.58815" lon="3.68607">
        <ele>116.5</ele>
        <time>2011-02-06T11:02:56Z</time>
      </trkpt>
      <trkpt lat="43.58811" lon="3.68601">
        <ele>116.1</ele>
        <time>2011-02-06T11:02:57Z</time>
      </trkpt>
      <trkpt lat="43.58808" lon="3.68593">
        <ele>115.9</ele>
        <time>2011-02-06T11:02:58Z</time>
      </trkpt>
      <trkpt lat="43.58807" lon="3.68584">
        <ele>115.6</ele>
        <time>2011-02-06T11:02:59Z</time>
      </trkpt>
      <trkpt lat="43.58806" lon="3.68574">
        <ele>115.2</ele>
        <time>2011-02-06T11:03:00Z</time>
      </trkpt>
      <trkpt lat="43.58806" lon="3.68564">
        <ele>114.9</ele>
        <time>2011-02-06T11:03:01Z</time>
      </trkpt>
      <trkpt lat="43.58806" lon="3.68555">
        <ele>114.6</ele>
        <time>2011-02-06T11:03:02Z</time>
      </trkpt>
      <trkpt lat="43.58806" lon="3.68545">
        <ele>114.7</ele>
        <time>2011-02-06T11:03:03Z</time>
      </trkpt>
      <trkpt lat="43.58805" lon="3.68534">
        <ele>114.7</ele>
        <time>2011-02-06T11:03:04Z</time>
      </trkpt>
      <trkpt lat="43.58804" lon="3.68524">
        <ele>114.7</ele>
        <time>2011-02-06T11:03:05Z</time>
      </trkpt>
      <trkpt lat="43.58803" lon="3.68513">
        <ele>113.9</ele>
        <time>2011-02-06T11:03:06Z</time>
      </trkpt>
      <trkpt lat="43.58802" lon="3.68502">
        <ele>113.2</ele>
        <time>2011-02-06T11:03:07Z</time>
      </trkpt>
      <trkpt lat="43.58801" lon="3.68492">
        <ele>112.7</ele>
        <time>2011-02-06T11:03:08Z</time>
      </trkpt>
      <trkpt lat="43.58801" lon="3.68481">
        <ele>112.3</ele>
        <time>2011-02-06T11:03:09Z</time>
      </trkpt>
      <trkpt lat="43.588" lon="3.68471">
        <ele>111.7</ele>
        <time>2011-02-06T11:03:10Z</time>
      </trkpt>
      <trkpt lat="43.588" lon="3.68461">
        <ele>111.3</ele>
        <time>2011-02-06T11:03:11Z</time>
      </trkpt>
      <trkpt lat="43.588" lon="3.68451">
        <ele>110.9</ele>
        <time>2011-02-06T11:03:12Z</time>
      </trkpt>
      <trkpt lat="43.588" lon="3.68442">
        <ele>110.6</ele>
        <time>2011-02-06T11:03:13Z</time>
      </trkpt>
      <trkpt lat="43.588" lon="3.68434">
        <ele>110.4</ele>
        <time>2011-02-06T11:03:14Z</time>
      </trkpt>
      <trkpt lat="43.58798" lon="3.68424">
        <ele>110.1</ele>
        <time>2011-02-06T11:03:16Z</time>
      </trkpt>
      <trkpt lat="43.58791" lon="3.68429">
        <ele>109.8</ele>
        <time>2011-02-06T11:03:21Z</time>
      </trkpt>
      <trkpt lat="43.58791" lon="3.68437">
        <ele>109.4</ele>
        <time>2011-02-06T11:03:23Z</time>
      </trkpt>
      <trkpt lat="43.5879" lon="3.68447">
        <ele>109.2</ele>
        <time>2011-02-06T11:03:25Z</time>
      </trkpt>
      <trkpt lat="43.5879" lon="3.68458">
        <ele>108.8</ele>
        <time>2011-02-06T11:03:27Z</time>
      </trkpt>
      <trkpt lat="43.5879" lon="3.68464">
        <ele>108.7</ele>
        <time>2011-02-06T11:03:28Z</time>
      </trkpt>
      <trkpt lat="43.5879" lon="3.68471">
        <ele>108.6</ele>
        <time>2011-02-06T11:03:29Z</time>
      </trkpt>
      <trkpt lat="43.5879" lon="3.68477">
        <ele>108.6</ele>
        <time>2011-02-06T11:03:30Z</time>
      </trkpt>
      <trkpt lat="43.58789" lon="3.68484">
        <ele>108.5</ele>
        <time>2011-02-06T11:03:31Z</time>
      </trkpt>
      <trkpt lat="43.58789" lon="3.6849">
        <ele>108.1</ele>
        <time>2011-02-06T11:03:32Z</time>
      </trkpt>
      <trkpt lat="43.58789" lon="3.68497">
        <ele>107.9</ele>
        <time>2011-02-06T11:03:33Z</time>
      </trkpt>
      <trkpt lat="43.58788" lon="3.68503">
        <ele>107.6</ele>
        <time>2011-02-06T11:03:34Z</time>
      </trkpt>
      <trkpt lat="43.58787" lon="3.6851">
        <ele>108.1</ele>
        <time>2011-02-06T11:03:35Z</time>
      </trkpt>
      <trkpt lat="43.58787" lon="3.68517">
        <ele>108.5</ele>
        <time>2011-02-06T11:03:36Z</time>
      </trkpt>
      <trkpt lat="43.58786" lon="3.68524">
        <ele>108.7</ele>
        <time>2011-02-06T11:03:37Z</time>
      </trkpt>
      <trkpt lat="43.58785" lon="3.68531">
        <ele>108.4</ele>
        <time>2011-02-06T11:03:38Z</time>
      </trkpt>
      <trkpt lat="43.58784" lon="3.68539">
        <ele>108.2</ele>
        <time>2011-02-06T11:03:39Z</time>
      </trkpt>
      <trkpt lat="43.58783" lon="3.68546">
        <ele>108.1</ele>
        <time>2011-02-06T11:03:40Z</time>
      </trkpt>
      <trkpt lat="43.58781" lon="3.68553">
        <ele>107.9</ele>
        <time>2011-02-06T11:03:41Z</time>
      </trkpt>
      <trkpt lat="43.5878" lon="3.68561">
        <ele>107.5</ele>
        <time>2011-02-06T11:03:42Z</time>
      </trkpt>
      <trkpt lat="43.58778" lon="3.68569">
        <ele>107.2</ele>
        <time>2011-02-06T11:03:43Z</time>
      </trkpt>
      <trkpt lat="43.58776" lon="3.68577">
        <ele>107</ele>
        <time>2011-02-06T11:03:44Z</time>
      </trkpt>
      <trkpt lat="43.58775" lon="3.68585">
        <ele>107</ele>
        <time>2011-02-06T11:03:45Z</time>
      </trkpt>
      <trkpt lat="43.58773" lon="3.68593">
        <ele>107</ele>
        <time>2011-02-06T11:03:46Z</time>
      </trkpt>
      <trkpt lat="43.5877" lon="3.68601">
        <ele>107</ele>
        <time>2011-02-06T11:03:47Z</time>
      </trkpt>
      <trkpt lat="43.58768" lon="3.68609">
        <ele>106.5</ele>
        <time>2011-02-06T11:03:48Z</time>
      </trkpt>
      <trkpt lat="43.58766" lon="3.68617">
        <ele>106.1</ele>
        <time>2011-02-06T11:03:49Z</time>
      </trkpt>
      <trkpt lat="43.58764" lon="3.68625">
        <ele>105.8</ele>
        <time>2011-02-06T11:03:50Z</time>
      </trkpt>
      <trkpt lat="43.58762" lon="3.68633">
        <ele>105.8</ele>
        <time>2011-02-06T11:03:51Z</time>
      </trkpt>
      <trkpt lat="43.5876" lon="3.68642">
        <ele>105.8</ele>
        <time>2011-02-06T11:03:52Z</time>
      </trkpt>
      <trkpt lat="43.58758" lon="3.6865">
        <ele>105.8</ele>
        <time>2011-02-06T11:03:53Z</time>
      </trkpt>
      <trkpt lat="43.58756" lon="3.68659">
        <ele>105.6</ele>
        <time>2011-02-06T11:03:54Z</time>
      </trkpt>
      <trkpt lat="43.58755" lon="3.68669">
        <ele>105.4</ele>
        <time>2011-02-06T11:03:55Z</time>
      </trkpt>
      <trkpt lat="43.58755" lon="3.68678">
        <ele>105.3</ele>
        <time>2011-02-06T11:03:56Z</time>
      </trkpt>
      <trkpt lat="43.58758" lon="3.68687">
        <ele>105.2</ele>
        <time>2011-02-06T11:03:57Z</time>
      </trkpt>
      <trkpt lat="43.58761" lon="3.68695">
        <ele>104.7</ele>
        <time>2011-02-06T11:03:58Z</time>
      </trkpt>
      <trkpt lat="43.58766" lon="3.68702">
        <ele>104.3</ele>
        <time>2011-02-06T11:03:59Z</time>
      </trkpt>
      <trkpt lat="43.58771" lon="3.68709">
        <ele>104.1</ele>
        <time>2011-02-06T11:04:00Z</time>
      </trkpt>
      <trkpt lat="43.58776" lon="3.68716">
        <ele>103.7</ele>
        <time>2011-02-06T11:04:01Z</time>
      </trkpt>
      <trkpt lat="43.5878" lon="3.68724">
        <ele>103.4</ele>
        <time>2011-02-06T11:04:02Z</time>
      </trkpt>
      <trkpt lat="43.58784" lon="3.68731">
        <ele>103.2</ele>
        <time>2011-02-06T11:04:03Z</time>
      </trkpt>
      <trkpt lat="43.58787" lon="3.68738">
        <ele>103.2</ele>
        <time>2011-02-06T11:04:04Z</time>
      </trkpt>
      <trkpt lat="43.5879" lon="3.68744">
        <ele>103.1</ele>
        <time>2011-02-06T11:04:05Z</time>
      </trkpt>
      <trkpt lat="43.58793" lon="3.68751">
        <ele>103.1</ele>
        <time>2011-02-06T11:04:06Z</time>
      </trkpt>
      <trkpt lat="43.58796" lon="3.68757">
        <ele>103.7</ele>
        <time>2011-02-06T11:04:07Z</time>
      </trkpt>
      <trkpt lat="43.58799" lon="3.68762">
        <ele>104.1</ele>
        <time>2011-02-06T11:04:08Z</time>
      </trkpt>
      <trkpt lat="43.58802" lon="3.68768">
        <ele>104.4</ele>
        <time>2011-02-06T11:04:09Z</time>
      </trkpt>
      <trkpt lat="43.58804" lon="3.68773">
        <ele>105.1</ele>
        <time>2011-02-06T11:04:10Z</time>
      </trkpt>
      <trkpt lat="43.58807" lon="3.68779">
        <ele>105.5</ele>
        <time>2011-02-06T11:04:11Z</time>
      </trkpt>
      <trkpt lat="43.58809" lon="3.68784">
        <ele>105.9</ele>
        <time>2011-02-06T11:04:12Z</time>
      </trkpt>
      <trkpt lat="43.58812" lon="3.6879">
        <ele>106.5</ele>
        <time>2011-02-06T11:04:13Z</time>
      </trkpt>
      <trkpt lat="43.58815" lon="3.68795">
        <ele>107</ele>
        <time>2011-02-06T11:04:14Z</time>
      </trkpt>
      <trkpt lat="43.58817" lon="3.68801">
        <ele>107.3</ele>
        <time>2011-02-06T11:04:15Z</time>
      </trkpt>
      <trkpt lat="43.58822" lon="3.68811">
        <ele>108.1</ele>
        <time>2011-02-06T11:04:17Z</time>
      </trkpt>
      <trkpt lat="43.58826" lon="3.68821">
        <ele>108.8</ele>
        <time>2011-02-06T11:04:19Z</time>
      </trkpt>
      <trkpt lat="43.58831" lon="3.68831">
        <ele>109.4</ele>
        <time>2011-02-06T11:04:21Z</time>
      </trkpt>
      <trkpt lat="43.58837" lon="3.68838">
        <ele>110.1</ele>
        <time>2011-02-06T11:04:23Z</time>
      </trkpt>
      <trkpt lat="43.58843" lon="3.68845">
        <ele>110.7</ele>
        <time>2011-02-06T11:04:25Z</time>
      </trkpt>
      <trkpt lat="43.58849" lon="3.68851">
        <ele>111.4</ele>
        <time>2011-02-06T11:04:27Z</time>
      </trkpt>
      <trkpt lat="43.58855" lon="3.68858">
        <ele>112.4</ele>
        <time>2011-02-06T11:04:29Z</time>
      </trkpt>
      <trkpt lat="43.58859" lon="3.68865">
        <ele>113.5</ele>
        <time>2011-02-06T11:04:31Z</time>
      </trkpt>
      <trkpt lat="43.58863" lon="3.68872">
        <ele>114.4</ele>
        <time>2011-02-06T11:04:33Z</time>
      </trkpt>
      <trkpt lat="43.58866" lon="3.68879">
        <ele>115.1</ele>
        <time>2011-02-06T11:04:35Z</time>
      </trkpt>
      <trkpt lat="43.5887" lon="3.68886">
        <ele>114.9</ele>
        <time>2011-02-06T11:04:37Z</time>
      </trkpt>
      <trkpt lat="43.58871" lon="3.68889">
        <ele>114.8</ele>
        <time>2011-02-06T11:04:38Z</time>
      </trkpt>
      <trkpt lat="43.58877" lon="3.68899">
        <ele>115.9</ele>
        <time>2011-02-06T11:04:41Z</time>
      </trkpt>
      <trkpt lat="43.58881" lon="3.68906">
        <ele>116.4</ele>
        <time>2011-02-06T11:04:43Z</time>
      </trkpt>
      <trkpt lat="43.58887" lon="3.68915">
        <ele>117.4</ele>
        <time>2011-02-06T11:04:46Z</time>
      </trkpt>
      <trkpt lat="43.58894" lon="3.68923">
        <ele>118.3</ele>
        <time>2011-02-06T11:04:49Z</time>
      </trkpt>
      <trkpt lat="43.58901" lon="3.68931">
        <ele>119.2</ele>
        <time>2011-02-06T11:04:52Z</time>
      </trkpt>
      <trkpt lat="43.58908" lon="3.68938">
        <ele>120.1</ele>
        <time>2011-02-06T11:04:55Z</time>
      </trkpt>
      <trkpt lat="43.58913" lon="3.68943">
        <ele>120.5</ele>
        <time>2011-02-06T11:04:57Z</time>
      </trkpt>
      <trkpt lat="43.58918" lon="3.68947">
        <ele>121</ele>
        <time>2011-02-06T11:04:59Z</time>
      </trkpt>
      <trkpt lat="43.58925" lon="3.68954">
        <ele>121.6</ele>
        <time>2011-02-06T11:05:02Z</time>
      </trkpt>
      <trkpt lat="43.58931" lon="3.68958">
        <ele>122</ele>
        <time>2011-02-06T11:05:04Z</time>
      </trkpt>
      <trkpt lat="43.58937" lon="3.68963">
        <ele>122.3</ele>
        <time>2011-02-06T11:05:06Z</time>
      </trkpt>
      <trkpt lat="43.58942" lon="3.68967">
        <ele>122.7</ele>
        <time>2011-02-06T11:05:08Z</time>
      </trkpt>
      <trkpt lat="43.58948" lon="3.68972">
        <ele>123.2</ele>
        <time>2011-02-06T11:05:10Z</time>
      </trkpt>
      <trkpt lat="43.58954" lon="3.68976">
        <ele>123.3</ele>
        <time>2011-02-06T11:05:12Z</time>
      </trkpt>
      <trkpt lat="43.5896" lon="3.6898">
        <ele>123.8</ele>
        <time>2011-02-06T11:05:14Z</time>
      </trkpt>
      <trkpt lat="43.58966" lon="3.68984">
        <ele>124.3</ele>
        <time>2011-02-06T11:05:16Z</time>
      </trkpt>
      <trkpt lat="43.58972" lon="3.68989">
        <ele>123.7</ele>
        <time>2011-02-06T11:05:18Z</time>
      </trkpt>
      <trkpt lat="43.58978" lon="3.68993">
        <ele>123.7</ele>
        <time>2011-02-06T11:05:20Z</time>
      </trkpt>
      <trkpt lat="43.58984" lon="3.68998">
        <ele>123.8</ele>
        <time>2011-02-06T11:05:22Z</time>
      </trkpt>
      <trkpt lat="43.5899" lon="3.69004">
        <ele>124</ele>
        <time>2011-02-06T11:05:24Z</time>
      </trkpt>
      <trkpt lat="43.58997" lon="3.69009">
        <ele>124.2</ele>
        <time>2011-02-06T11:05:26Z</time>
      </trkpt>
      <trkpt lat="43.59004" lon="3.69014">
        <ele>124.1</ele>
        <time>2011-02-06T11:05:28Z</time>
      </trkpt>
      <trkpt lat="43.59011" lon="3.69019">
        <ele>124.2</ele>
        <time>2011-02-06T11:05:30Z</time>
      </trkpt>
      <trkpt lat="43.59018" lon="3.69025">
        <ele>124.3</ele>
        <time>2011-02-06T11:05:32Z</time>
      </trkpt>
      <trkpt lat="43.59026" lon="3.69031">
        <ele>124.4</ele>
        <time>2011-02-06T11:05:34Z</time>
      </trkpt>
      <trkpt lat="43.5903" lon="3.69034">
        <ele>124.5</ele>
        <time>2011-02-06T11:05:35Z</time>
      </trkpt>
      <trkpt lat="43.59034" lon="3.69037">
        <ele>124.4</ele>
        <time>2011-02-06T11:05:36Z</time>
      </trkpt>
      <trkpt lat="43.59038" lon="3.6904">
        <ele>124.4</ele>
        <time>2011-02-06T11:05:37Z</time>
      </trkpt>
      <trkpt lat="43.59043" lon="3.69044">
        <ele>124.3</ele>
        <time>2011-02-06T11:05:38Z</time>
      </trkpt>
      <trkpt lat="43.59047" lon="3.69048">
        <ele>124.3</ele>
        <time>2011-02-06T11:05:39Z</time>
      </trkpt>
      <trkpt lat="43.5905" lon="3.69054">
        <ele>123.9</ele>
        <time>2011-02-06T11:05:40Z</time>
      </trkpt>
      <trkpt lat="43.59054" lon="3.69064">
        <ele>123.4</ele>
        <time>2011-02-06T11:05:42Z</time>
      </trkpt>
      <trkpt lat="43.59056" lon="3.69074">
        <ele>123.7</ele>
        <time>2011-02-06T11:05:44Z</time>
      </trkpt>
      <trkpt lat="43.59059" lon="3.69083">
        <ele>124.6</ele>
        <time>2011-02-06T11:05:46Z</time>
      </trkpt>
      <trkpt lat="43.59061" lon="3.69093">
        <ele>125.6</ele>
        <time>2011-02-06T11:05:48Z</time>
      </trkpt>
      <trkpt lat="43.59063" lon="3.69102">
        <ele>125.9</ele>
        <time>2011-02-06T11:05:50Z</time>
      </trkpt>
      <trkpt lat="43.59066" lon="3.6911">
        <ele>126.6</ele>
        <time>2011-02-06T11:05:52Z</time>
      </trkpt>
      <trkpt lat="43.59069" lon="3.69118">
        <ele>127.5</ele>
        <time>2011-02-06T11:05:54Z</time>
      </trkpt>
      <trkpt lat="43.59072" lon="3.69126">
        <ele>128.1</ele>
        <time>2011-02-06T11:05:56Z</time>
      </trkpt>
      <trkpt lat="43.59074" lon="3.69134">
        <ele>128.5</ele>
        <time>2011-02-06T11:05:58Z</time>
      </trkpt>
      <trkpt lat="43.59077" lon="3.69142">
        <ele>129.2</ele>
        <time>2011-02-06T11:06:00Z</time>
      </trkpt>
      <trkpt lat="43.59079" lon="3.6915">
        <ele>129.7</ele>
        <time>2011-02-06T11:06:02Z</time>
      </trkpt>
      <trkpt lat="43.59082" lon="3.69158">
        <ele>130.1</ele>
        <time>2011-02-06T11:06:04Z</time>
      </trkpt>
      <trkpt lat="43.59085" lon="3.69166">
        <ele>131</ele>
        <time>2011-02-06T11:06:06Z</time>
      </trkpt>
      <trkpt lat="43.59089" lon="3.69173">
        <ele>131.4</ele>
        <time>2011-02-06T11:06:08Z</time>
      </trkpt>
      <trkpt lat="43.59092" lon="3.6918">
        <ele>131.5</ele>
        <time>2011-02-06T11:06:10Z</time>
      </trkpt>
      <trkpt lat="43.59096" lon="3.69188">
        <ele>132.1</ele>
        <time>2011-02-06T11:06:12Z</time>
      </trkpt>
      <trkpt lat="43.591" lon="3.69194">
        <ele>132.8</ele>
        <time>2011-02-06T11:06:14Z</time>
      </trkpt>
      <trkpt lat="43.59105" lon="3.69201">
        <ele>133.1</ele>
        <time>2011-02-06T11:06:16Z</time>
      </trkpt>
      <trkpt lat="43.5911" lon="3.69207">
        <ele>133.6</ele>
        <time>2011-02-06T11:06:18Z</time>
      </trkpt>
      <trkpt lat="43.59116" lon="3.69213">
        <ele>134.1</ele>
        <time>2011-02-06T11:06:20Z</time>
      </trkpt>
      <trkpt lat="43.59121" lon="3.69219">
        <ele>135</ele>
        <time>2011-02-06T11:06:22Z</time>
      </trkpt>
      <trkpt lat="43.59126" lon="3.69225">
        <ele>135.4</ele>
        <time>2011-02-06T11:06:24Z</time>
      </trkpt>
      <trkpt lat="43.59132" lon="3.69231">
        <ele>135.4</ele>
        <time>2011-02-06T11:06:26Z</time>
      </trkpt>
      <trkpt lat="43.59138" lon="3.69236">
        <ele>135.4</ele>
        <time>2011-02-06T11:06:28Z</time>
      </trkpt>
      <trkpt lat="43.59143" lon="3.69241">
        <ele>135.4</ele>
        <time>2011-02-06T11:06:30Z</time>
      </trkpt>
      <trkpt lat="43.59148" lon="3.69247">
        <ele>135.2</ele>
        <time>2011-02-06T11:06:32Z</time>
      </trkpt>
      <trkpt lat="43.59154" lon="3.69252">
        <ele>135.1</ele>
        <time>2011-02-06T11:06:34Z</time>
      </trkpt>
      <trkpt lat="43.59158" lon="3.69258">
        <ele>135</ele>
        <time>2011-02-06T11:06:36Z</time>
      </trkpt>
      <trkpt lat="43.59164" lon="3.69266">
        <ele>136.5</ele>
        <time>2011-02-06T11:06:39Z</time>
      </trkpt>
      <trkpt lat="43.59166" lon="3.69269">
        <ele>136.3</ele>
        <time>2011-02-06T11:06:40Z</time>
      </trkpt>
      <trkpt lat="43.59176" lon="3.6928">
        <ele>136.4</ele>
        <time>2011-02-06T11:06:46Z</time>
      </trkpt>
      <trkpt lat="43.59183" lon="3.69285">
        <ele>136.4</ele>
        <time>2011-02-06T11:06:51Z</time>
      </trkpt>
      <trkpt lat="43.59181" lon="3.69297">
        <ele>136.7</ele>
        <time>2011-02-06T11:08:43Z</time>
      </trkpt>
      <trkpt lat="43.59181" lon="3.69299">
        <ele>136.6</ele>
        <time>2011-02-06T11:08:44Z</time>
      </trkpt>
      <trkpt lat="43.59174" lon="3.69314">
        <ele>136.5</ele>
        <time>2011-02-06T11:08:51Z</time>
      </trkpt>
      <trkpt lat="43.59174" lon="3.69327">
        <ele>137.6</ele>
        <time>2011-02-06T11:08:56Z</time>
      </trkpt>
      <trkpt lat="43.59174" lon="3.69336">
        <ele>138.3</ele>
        <time>2011-02-06T11:09:04Z</time>
      </trkpt>
      <trkpt lat="43.59173" lon="3.69346">
        <ele>138.1</ele>
        <time>2011-02-06T11:09:07Z</time>
      </trkpt>
      <trkpt lat="43.59172" lon="3.69357">
        <ele>138.2</ele>
        <time>2011-02-06T11:09:10Z</time>
      </trkpt>
      <trkpt lat="43.59173" lon="3.69368">
        <ele>138.7</ele>
        <time>2011-02-06T11:09:13Z</time>
      </trkpt>
      <trkpt lat="43.59173" lon="3.69377">
        <ele>138.8</ele>
        <time>2011-02-06T11:09:16Z</time>
      </trkpt>
      <trkpt lat="43.5917" lon="3.69387">
        <ele>139.2</ele>
        <time>2011-02-06T11:09:19Z</time>
      </trkpt>
      <trkpt lat="43.59169" lon="3.69397">
        <ele>140.3</ele>
        <time>2011-02-06T11:09:22Z</time>
      </trkpt>
      <trkpt lat="43.59167" lon="3.6941">
        <ele>142.2</ele>
        <time>2011-02-06T11:09:26Z</time>
      </trkpt>
      <trkpt lat="43.59168" lon="3.69421">
        <ele>143.2</ele>
        <time>2011-02-06T11:09:30Z</time>
      </trkpt>
      <trkpt lat="43.59171" lon="3.69431">
        <ele>143.4</ele>
        <time>2011-02-06T11:09:33Z</time>
      </trkpt>
      <trkpt lat="43.59171" lon="3.69441">
        <ele>143.6</ele>
        <time>2011-02-06T11:09:36Z</time>
      </trkpt>
      <trkpt lat="43.59172" lon="3.69453">
        <ele>143.9</ele>
        <time>2011-02-06T11:09:39Z</time>
      </trkpt>
      <trkpt lat="43.59171" lon="3.69462">
        <ele>144.7</ele>
        <time>2011-02-06T11:09:42Z</time>
      </trkpt>
      <trkpt lat="43.59172" lon="3.69473">
        <ele>145.3</ele>
        <time>2011-02-06T11:09:45Z</time>
      </trkpt>
      <trkpt lat="43.59172" lon="3.69477">
        <ele>145.6</ele>
        <time>2011-02-06T11:09:46Z</time>
      </trkpt>
      <trkpt lat="43.59172" lon="3.69496">
        <ele>145.7</ele>
        <time>2011-02-06T11:09:51Z</time>
      </trkpt>
      <trkpt lat="43.59172" lon="3.69505">
        <ele>146.1</ele>
        <time>2011-02-06T11:09:53Z</time>
      </trkpt>
      <trkpt lat="43.59176" lon="3.69515">
        <ele>145.6</ele>
        <time>2011-02-06T11:09:56Z</time>
      </trkpt>
      <trkpt lat="43.5918" lon="3.69521">
        <ele>144</ele>
        <time>2011-02-06T11:10:00Z</time>
      </trkpt>
      <trkpt lat="43.59184" lon="3.69529">
        <ele>143.9</ele>
        <time>2011-02-06T11:10:02Z</time>
      </trkpt>
      <trkpt lat="43.59188" lon="3.69539">
        <ele>143.9</ele>
        <time>2011-02-06T11:10:04Z</time>
      </trkpt>
      <trkpt lat="43.59189" lon="3.69549">
        <ele>141.9</ele>
        <time>2011-02-06T11:10:06Z</time>
      </trkpt>
      <trkpt lat="43.59189" lon="3.69558">
        <ele>140.3</ele>
        <time>2011-02-06T11:10:08Z</time>
      </trkpt>
      <trkpt lat="43.5919" lon="3.69567">
        <ele>138.9</ele>
        <time>2011-02-06T11:10:10Z</time>
      </trkpt>
      <trkpt lat="43.59195" lon="3.69576">
        <ele>137.7</ele>
        <time>2011-02-06T11:10:13Z</time>
      </trkpt>
      <trkpt lat="43.59203" lon="3.69582">
        <ele>136.4</ele>
        <time>2011-02-06T11:10:16Z</time>
      </trkpt>
      <trkpt lat="43.5921" lon="3.69578">
        <ele>134.9</ele>
        <time>2011-02-06T11:10:18Z</time>
      </trkpt>
      <trkpt lat="43.59218" lon="3.69574">
        <ele>134</ele>
        <time>2011-02-06T11:10:20Z</time>
      </trkpt>
      <trkpt lat="43.59226" lon="3.69577">
        <ele>132.4</ele>
        <time>2011-02-06T11:10:23Z</time>
      </trkpt>
      <trkpt lat="43.59228" lon="3.69586">
        <ele>131</ele>
        <time>2011-02-06T11:10:25Z</time>
      </trkpt>
      <trkpt lat="43.59231" lon="3.69596">
        <ele>130</ele>
        <time>2011-02-06T11:10:27Z</time>
      </trkpt>
      <trkpt lat="43.59234" lon="3.69605">
        <ele>129.2</ele>
        <time>2011-02-06T11:10:29Z</time>
      </trkpt>
      <trkpt lat="43.59235" lon="3.69615">
        <ele>129.2</ele>
        <time>2011-02-06T11:10:31Z</time>
      </trkpt>
      <trkpt lat="43.59236" lon="3.69625">
        <ele>128.8</ele>
        <time>2011-02-06T11:10:33Z</time>
      </trkpt>
      <trkpt lat="43.59241" lon="3.69635">
        <ele>128.2</ele>
        <time>2011-02-06T11:10:36Z</time>
      </trkpt>
      <trkpt lat="43.59247" lon="3.69636">
        <ele>128.2</ele>
        <time>2011-02-06T11:10:38Z</time>
      </trkpt>
      <trkpt lat="43.59254" lon="3.69636">
        <ele>127.6</ele>
        <time>2011-02-06T11:10:40Z</time>
      </trkpt>
      <trkpt lat="43.59261" lon="3.69637">
        <ele>126.3</ele>
        <time>2011-02-06T11:10:43Z</time>
      </trkpt>
      <trkpt lat="43.59267" lon="3.69644">
        <ele>125.1</ele>
        <time>2011-02-06T11:10:46Z</time>
      </trkpt>
      <trkpt lat="43.59268" lon="3.69648">
        <ele>124.7</ele>
        <time>2011-02-06T11:10:47Z</time>
      </trkpt>
      <trkpt lat="43.59265" lon="3.69667">
        <ele>124.1</ele>
        <time>2011-02-06T11:10:55Z</time>
      </trkpt>
      <trkpt lat="43.59266" lon="3.69678">
        <ele>124.3</ele>
        <time>2011-02-06T11:10:58Z</time>
      </trkpt>
      <trkpt lat="43.5927" lon="3.69686">
        <ele>124.3</ele>
        <time>2011-02-06T11:11:01Z</time>
      </trkpt>
      <trkpt lat="43.59276" lon="3.69696">
        <ele>123.5</ele>
        <time>2011-02-06T11:11:29Z</time>
      </trkpt>
      <trkpt lat="43.5928" lon="3.69705">
        <ele>124.6</ele>
        <time>2011-02-06T11:11:38Z</time>
      </trkpt>
      <trkpt lat="43.59283" lon="3.69712">
        <ele>124</ele>
        <time>2011-02-06T11:11:40Z</time>
      </trkpt>
      <trkpt lat="43.59286" lon="3.69721">
        <ele>123.1</ele>
        <time>2011-02-06T11:11:42Z</time>
      </trkpt>
      <trkpt lat="43.59288" lon="3.69732">
        <ele>122.6</ele>
        <time>2011-02-06T11:11:45Z</time>
      </trkpt>
      <trkpt lat="43.5929" lon="3.69741">
        <ele>121.9</ele>
        <time>2011-02-06T11:11:47Z</time>
      </trkpt>
      <trkpt lat="43.5929" lon="3.69747">
        <ele>121.5</ele>
        <time>2011-02-06T11:11:48Z</time>
      </trkpt>
      <trkpt lat="43.59292" lon="3.69764">
        <ele>119.8</ele>
        <time>2011-02-06T11:11:51Z</time>
      </trkpt>
      <trkpt lat="43.59294" lon="3.69776">
        <ele>117.4</ele>
        <time>2011-02-06T11:11:54Z</time>
      </trkpt>
      <trkpt lat="43.59295" lon="3.69785">
        <ele>115.9</ele>
        <time>2011-02-06T11:11:56Z</time>
      </trkpt>
      <trkpt lat="43.59301" lon="3.69794">
        <ele>114.1</ele>
        <time>2011-02-06T11:11:59Z</time>
      </trkpt>
      <trkpt lat="43.59306" lon="3.69804">
        <ele>113.3</ele>
        <time>2011-02-06T11:12:01Z</time>
      </trkpt>
      <trkpt lat="43.59312" lon="3.6981">
        <ele>111.8</ele>
        <time>2011-02-06T11:12:03Z</time>
      </trkpt>
      <trkpt lat="43.59316" lon="3.69819">
        <ele>110.3</ele>
        <time>2011-02-06T11:12:05Z</time>
      </trkpt>
      <trkpt lat="43.59316" lon="3.69829">
        <ele>108</ele>
        <time>2011-02-06T11:12:07Z</time>
      </trkpt>
      <trkpt lat="43.59311" lon="3.6984">
        <ele>105.9</ele>
        <time>2011-02-06T11:12:12Z</time>
      </trkpt>
      <trkpt lat="43.59306" lon="3.69849">
        <ele>105.2</ele>
        <time>2011-02-06T11:12:17Z</time>
      </trkpt>
      <trkpt lat="43.593" lon="3.69858">
        <ele>103.8</ele>
        <time>2011-02-06T11:12:23Z</time>
      </trkpt>
      <trkpt lat="43.59297" lon="3.69869">
        <ele>102.5</ele>
        <time>2011-02-06T11:12:47Z</time>
      </trkpt>
      <trkpt lat="43.59291" lon="3.69877">
        <ele>102.7</ele>
        <time>2011-02-06T11:12:50Z</time>
      </trkpt>
      <trkpt lat="43.59289" lon="3.69879">
        <ele>102.6</ele>
        <time>2011-02-06T11:12:51Z</time>
      </trkpt>
      <trkpt lat="43.59281" lon="3.69888">
        <ele>101.8</ele>
        <time>2011-02-06T11:12:55Z</time>
      </trkpt>
      <trkpt lat="43.59274" lon="3.69894">
        <ele>101.2</ele>
        <time>2011-02-06T11:12:57Z</time>
      </trkpt>
      <trkpt lat="43.59267" lon="3.699">
        <ele>100.8</ele>
        <time>2011-02-06T11:12:59Z</time>
      </trkpt>
      <trkpt lat="43.59263" lon="3.69903">
        <ele>100.5</ele>
        <time>2011-02-06T11:13:00Z</time>
      </trkpt>
      <trkpt lat="43.59258" lon="3.69905">
        <ele>100.3</ele>
        <time>2011-02-06T11:13:01Z</time>
      </trkpt>
      <trkpt lat="43.59253" lon="3.69907">
        <ele>100.2</ele>
        <time>2011-02-06T11:13:02Z</time>
      </trkpt>
      <trkpt lat="43.59248" lon="3.69908">
        <ele>99.5</ele>
        <time>2011-02-06T11:13:03Z</time>
      </trkpt>
      <trkpt lat="43.59242" lon="3.69908">
        <ele>99</ele>
        <time>2011-02-06T11:13:04Z</time>
      </trkpt>
      <trkpt lat="43.59236" lon="3.69908">
        <ele>98.7</ele>
        <time>2011-02-06T11:13:05Z</time>
      </trkpt>
      <trkpt lat="43.5923" lon="3.69906">
        <ele>98.4</ele>
        <time>2011-02-06T11:13:06Z</time>
      </trkpt>
      <trkpt lat="43.59224" lon="3.69905">
        <ele>98.3</ele>
        <time>2011-02-06T11:13:07Z</time>
      </trkpt>
      <trkpt lat="43.59217" lon="3.69902">
        <ele>98.3</ele>
        <time>2011-02-06T11:13:08Z</time>
      </trkpt>
      <trkpt lat="43.59211" lon="3.69899">
        <ele>98.2</ele>
        <time>2011-02-06T11:13:09Z</time>
      </trkpt>
      <trkpt lat="43.59205" lon="3.69896">
        <ele>97.8</ele>
        <time>2011-02-06T11:13:10Z</time>
      </trkpt>
      <trkpt lat="43.59199" lon="3.69893">
        <ele>97.5</ele>
        <time>2011-02-06T11:13:11Z</time>
      </trkpt>
      <trkpt lat="43.59192" lon="3.69889">
        <ele>97.3</ele>
        <time>2011-02-06T11:13:12Z</time>
      </trkpt>
      <trkpt lat="43.59186" lon="3.69885">
        <ele>96.1</ele>
        <time>2011-02-06T11:13:13Z</time>
      </trkpt>
      <trkpt lat="43.59179" lon="3.6988">
        <ele>95.2</ele>
        <time>2011-02-06T11:13:14Z</time>
      </trkpt>
      <trkpt lat="43.59173" lon="3.69875">
        <ele>94.6</ele>
        <time>2011-02-06T11:13:15Z</time>
      </trkpt>
      <trkpt lat="43.59166" lon="3.6987">
        <ele>93.8</ele>
        <time>2011-02-06T11:13:16Z</time>
      </trkpt>
      <trkpt lat="43.59159" lon="3.69865">
        <ele>93.3</ele>
        <time>2011-02-06T11:13:17Z</time>
      </trkpt>
      <trkpt lat="43.59151" lon="3.69861">
        <ele>92.9</ele>
        <time>2011-02-06T11:13:18Z</time>
      </trkpt>
      <trkpt lat="43.59144" lon="3.69856">
        <ele>92.2</ele>
        <time>2011-02-06T11:13:19Z</time>
      </trkpt>
      <trkpt lat="43.59136" lon="3.69851">
        <ele>91.7</ele>
        <time>2011-02-06T11:13:20Z</time>
      </trkpt>
      <trkpt lat="43.59128" lon="3.69847">
        <ele>91.3</ele>
        <time>2011-02-06T11:13:21Z</time>
      </trkpt>
      <trkpt lat="43.5912" lon="3.69842">
        <ele>90.4</ele>
        <time>2011-02-06T11:13:22Z</time>
      </trkpt>
      <trkpt lat="43.59112" lon="3.69836">
        <ele>89.7</ele>
        <time>2011-02-06T11:13:23Z</time>
      </trkpt>
      <trkpt lat="43.59104" lon="3.69829">
        <ele>89.1</ele>
        <time>2011-02-06T11:13:24Z</time>
      </trkpt>
      <trkpt lat="43.59096" lon="3.69822">
        <ele>88.7</ele>
        <time>2011-02-06T11:13:25Z</time>
      </trkpt>
      <trkpt lat="43.59089" lon="3.69812">
        <ele>87.7</ele>
        <time>2011-02-06T11:13:26Z</time>
      </trkpt>
      <trkpt lat="43.59083" lon="3.69802">
        <ele>87</ele>
        <time>2011-02-06T11:13:27Z</time>
      </trkpt>
      <trkpt lat="43.59076" lon="3.69792">
        <ele>86.4</ele>
        <time>2011-02-06T11:13:28Z</time>
      </trkpt>
      <trkpt lat="43.59069" lon="3.69781">
        <ele>85.5</ele>
        <time>2011-02-06T11:13:29Z</time>
      </trkpt>
      <trkpt lat="43.59061" lon="3.69772">
        <ele>84.7</ele>
        <time>2011-02-06T11:13:30Z</time>
      </trkpt>
      <trkpt lat="43.59053" lon="3.69763">
        <ele>84.2</ele>
        <time>2011-02-06T11:13:31Z</time>
      </trkpt>
      <trkpt lat="43.59043" lon="3.69756">
        <ele>82.7</ele>
        <time>2011-02-06T11:13:32Z</time>
      </trkpt>
      <trkpt lat="43.59033" lon="3.6975">
        <ele>81.6</ele>
        <time>2011-02-06T11:13:33Z</time>
      </trkpt>
      <trkpt lat="43.59023" lon="3.69742">
        <ele>80.7</ele>
        <time>2011-02-06T11:13:34Z</time>
      </trkpt>
      <trkpt lat="43.59012" lon="3.69738">
        <ele>79.6</ele>
        <time>2011-02-06T11:13:35Z</time>
      </trkpt>
      <trkpt lat="43.59003" lon="3.69733">
        <ele>78.8</ele>
        <time>2011-02-06T11:13:36Z</time>
      </trkpt>
      <trkpt lat="43.58994" lon="3.6973">
        <ele>78.2</ele>
        <time>2011-02-06T11:13:37Z</time>
      </trkpt>
      <trkpt lat="43.58985" lon="3.69728">
        <ele>78.2</ele>
        <time>2011-02-06T11:13:38Z</time>
      </trkpt>
      <trkpt lat="43.58977" lon="3.69729">
        <ele>78.3</ele>
        <time>2011-02-06T11:13:39Z</time>
      </trkpt>
      <trkpt lat="43.5897" lon="3.69729">
        <ele>78.3</ele>
        <time>2011-02-06T11:13:40Z</time>
      </trkpt>
      <trkpt lat="43.58964" lon="3.6973">
        <ele>78.4</ele>
        <time>2011-02-06T11:13:41Z</time>
      </trkpt>
      <trkpt lat="43.58959" lon="3.69732">
        <ele>79.5</ele>
        <time>2011-02-06T11:13:42Z</time>
      </trkpt>
      <trkpt lat="43.58954" lon="3.69734">
        <ele>80.3</ele>
        <time>2011-02-06T11:13:43Z</time>
      </trkpt>
      <trkpt lat="43.58949" lon="3.69736">
        <ele>80.9</ele>
        <time>2011-02-06T11:13:44Z</time>
      </trkpt>
      <trkpt lat="43.58941" lon="3.6974">
        <ele>82.4</ele>
        <time>2011-02-06T11:13:46Z</time>
      </trkpt>
      <trkpt lat="43.58935" lon="3.69744">
        <ele>83.5</ele>
        <time>2011-02-06T11:13:48Z</time>
      </trkpt>
      <trkpt lat="43.58929" lon="3.69749">
        <ele>84.4</ele>
        <time>2011-02-06T11:13:50Z</time>
      </trkpt>
      <trkpt lat="43.58924" lon="3.69756">
        <ele>85.1</ele>
        <time>2011-02-06T11:13:52Z</time>
      </trkpt>
      <trkpt lat="43.58922" lon="3.69759">
        <ele>85.4</ele>
        <time>2011-02-06T11:13:53Z</time>
      </trkpt>
      <trkpt lat="43.58918" lon="3.69771">
        <ele>86</ele>
        <time>2011-02-06T11:13:56Z</time>
      </trkpt>
      <trkpt lat="43.58915" lon="3.6978">
        <ele>86.3</ele>
        <time>2011-02-06T11:13:58Z</time>
      </trkpt>
      <trkpt lat="43.58909" lon="3.69789">
        <ele>87.1</ele>
        <time>2011-02-06T11:14:01Z</time>
      </trkpt>
      <trkpt lat="43.58903" lon="3.69797">
        <ele>88.5</ele>
        <time>2011-02-06T11:14:04Z</time>
      </trkpt>
      <trkpt lat="43.58898" lon="3.69805">
        <ele>89.3</ele>
        <time>2011-02-06T11:14:07Z</time>
      </trkpt>
      <trkpt lat="43.58894" lon="3.69814">
        <ele>90.3</ele>
        <time>2011-02-06T11:14:10Z</time>
      </trkpt>
      <trkpt lat="43.58891" lon="3.69824">
        <ele>91.5</ele>
        <time>2011-02-06T11:14:13Z</time>
      </trkpt>
      <trkpt lat="43.58889" lon="3.69836">
        <ele>91.6</ele>
        <time>2011-02-06T11:14:16Z</time>
      </trkpt>
      <trkpt lat="43.58886" lon="3.69846">
        <ele>92.4</ele>
        <time>2011-02-06T11:14:19Z</time>
      </trkpt>
      <trkpt lat="43.58884" lon="3.69857">
        <ele>92.4</ele>
        <time>2011-02-06T11:14:22Z</time>
      </trkpt>
      <trkpt lat="43.58884" lon="3.69868">
        <ele>93</ele>
        <time>2011-02-06T11:14:25Z</time>
      </trkpt>
      <trkpt lat="43.58892" lon="3.69868">
        <ele>95.3</ele>
        <time>2011-02-06T11:14:30Z</time>
      </trkpt>
      <trkpt lat="43.58896" lon="3.6986">
        <ele>95.4</ele>
        <time>2011-02-06T11:14:33Z</time>
      </trkpt>
      <trkpt lat="43.589" lon="3.69851">
        <ele>95.9</ele>
        <time>2011-02-06T11:14:36Z</time>
      </trkpt>
      <trkpt lat="43.58905" lon="3.69843">
        <ele>96.7</ele>
        <time>2011-02-06T11:14:39Z</time>
      </trkpt>
      <trkpt lat="43.58912" lon="3.69839">
        <ele>97</ele>
        <time>2011-02-06T11:14:42Z</time>
      </trkpt>
      <trkpt lat="43.58919" lon="3.69839">
        <ele>96.5</ele>
        <time>2011-02-06T11:14:45Z</time>
      </trkpt>
      <trkpt lat="43.58926" lon="3.69841">
        <ele>97.3</ele>
        <time>2011-02-06T11:14:48Z</time>
      </trkpt>
      <trkpt lat="43.58933" lon="3.69844">
        <ele>98.5</ele>
        <time>2011-02-06T11:14:51Z</time>
      </trkpt>
      <trkpt lat="43.5894" lon="3.69849">
        <ele>99.2</ele>
        <time>2011-02-06T11:14:54Z</time>
      </trkpt>
      <trkpt lat="43.58942" lon="3.69851">
        <ele>99.5</ele>
        <time>2011-02-06T11:14:55Z</time>
      </trkpt>
      <trkpt lat="43.5895" lon="3.69865">
        <ele>99.7</ele>
        <time>2011-02-06T11:15:00Z</time>
      </trkpt>
      <trkpt lat="43.58952" lon="3.69874">
        <ele>101</ele>
        <time>2011-02-06T11:15:03Z</time>
      </trkpt>
      <trkpt lat="43.58954" lon="3.69883">
        <ele>101.7</ele>
        <time>2011-02-06T11:15:06Z</time>
      </trkpt>
      <trkpt lat="43.58957" lon="3.69892">
        <ele>102.1</ele>
        <time>2011-02-06T11:15:09Z</time>
      </trkpt>
      <trkpt lat="43.58964" lon="3.69898">
        <ele>103.1</ele>
        <time>2011-02-06T11:15:13Z</time>
      </trkpt>
      <trkpt lat="43.58973" lon="3.69896">
        <ele>104.4</ele>
        <time>2011-02-06T11:15:17Z</time>
      </trkpt>
      <trkpt lat="43.5898" lon="3.69889">
        <ele>105.2</ele>
        <time>2011-02-06T11:15:21Z</time>
      </trkpt>
      <trkpt lat="43.58987" lon="3.69883">
        <ele>106.4</ele>
        <time>2011-02-06T11:15:25Z</time>
      </trkpt>
      <trkpt lat="43.58996" lon="3.69881">
        <ele>106.9</ele>
        <time>2011-02-06T11:15:29Z</time>
      </trkpt>
      <trkpt lat="43.59003" lon="3.69888">
        <ele>108.9</ele>
        <time>2011-02-06T11:15:33Z</time>
      </trkpt>
      <trkpt lat="43.59004" lon="3.69899">
        <ele>110.1</ele>
        <time>2011-02-06T11:15:37Z</time>
      </trkpt>
      <trkpt lat="43.59001" lon="3.6991">
        <ele>110.4</ele>
        <time>2011-02-06T11:15:41Z</time>
      </trkpt>
      <trkpt lat="43.59" lon="3.69922">
        <ele>111.3</ele>
        <time>2011-02-06T11:15:45Z</time>
      </trkpt>
      <trkpt lat="43.59" lon="3.69931">
        <ele>112.1</ele>
        <time>2011-02-06T11:15:48Z</time>
      </trkpt>
      <trkpt lat="43.59002" lon="3.6994">
        <ele>113.8</ele>
        <time>2011-02-06T11:15:51Z</time>
      </trkpt>
      <trkpt lat="43.59007" lon="3.6995">
        <ele>113.2</ele>
        <time>2011-02-06T11:15:55Z</time>
      </trkpt>
      <trkpt lat="43.59008" lon="3.69952">
        <ele>113.7</ele>
        <time>2011-02-06T11:15:56Z</time>
      </trkpt>
      <trkpt lat="43.59016" lon="3.69967">
        <ele>115.6</ele>
        <time>2011-02-06T11:16:02Z</time>
      </trkpt>
      <trkpt lat="43.59022" lon="3.69976">
        <ele>116.6</ele>
        <time>2011-02-06T11:16:06Z</time>
      </trkpt>
      <trkpt lat="43.59027" lon="3.69982">
        <ele>117.5</ele>
        <time>2011-02-06T11:16:09Z</time>
      </trkpt>
      <trkpt lat="43.59032" lon="3.6999">
        <ele>117.9</ele>
        <time>2011-02-06T11:16:12Z</time>
      </trkpt>
      <trkpt lat="43.59037" lon="3.69997">
        <ele>118</ele>
        <time>2011-02-06T11:16:15Z</time>
      </trkpt>
      <trkpt lat="43.59042" lon="3.70005">
        <ele>118.6</ele>
        <time>2011-02-06T11:16:18Z</time>
      </trkpt>
      <trkpt lat="43.59048" lon="3.70013">
        <ele>118.9</ele>
        <time>2011-02-06T11:16:21Z</time>
      </trkpt>
      <trkpt lat="43.59054" lon="3.70022">
        <ele>119.2</ele>
        <time>2011-02-06T11:16:24Z</time>
      </trkpt>
      <trkpt lat="43.59059" lon="3.70028">
        <ele>119.6</ele>
        <time>2011-02-06T11:16:26Z</time>
      </trkpt>
      <trkpt lat="43.59064" lon="3.70034">
        <ele>119.8</ele>
        <time>2011-02-06T11:16:28Z</time>
      </trkpt>
      <trkpt lat="43.5907" lon="3.7004">
        <ele>120.1</ele>
        <time>2011-02-06T11:16:30Z</time>
      </trkpt>
      <trkpt lat="43.59074" lon="3.70047">
        <ele>120.3</ele>
        <time>2011-02-06T11:16:32Z</time>
      </trkpt>
      <trkpt lat="43.59079" lon="3.70053">
        <ele>120.5</ele>
        <time>2011-02-06T11:16:34Z</time>
      </trkpt>
      <trkpt lat="43.59084" lon="3.70059">
        <ele>120.7</ele>
        <time>2011-02-06T11:16:36Z</time>
      </trkpt>
      <trkpt lat="43.59088" lon="3.70064">
        <ele>121.3</ele>
        <time>2011-02-06T11:16:38Z</time>
      </trkpt>
      <trkpt lat="43.59093" lon="3.7007">
        <ele>121.8</ele>
        <time>2011-02-06T11:16:40Z</time>
      </trkpt>
      <trkpt lat="43.59097" lon="3.70077">
        <ele>122.1</ele>
        <time>2011-02-06T11:16:42Z</time>
      </trkpt>
      <trkpt lat="43.59101" lon="3.70083">
        <ele>122.3</ele>
        <time>2011-02-06T11:16:44Z</time>
      </trkpt>
      <trkpt lat="43.59105" lon="3.7009">
        <ele>122.5</ele>
        <time>2011-02-06T11:16:46Z</time>
      </trkpt>
      <trkpt lat="43.59109" lon="3.70096">
        <ele>122.5</ele>
        <time>2011-02-06T11:16:48Z</time>
      </trkpt>
      <trkpt lat="43.59113" lon="3.70104">
        <ele>123.2</ele>
        <time>2011-02-06T11:16:50Z</time>
      </trkpt>
      <trkpt lat="43.59116" lon="3.70112">
        <ele>124</ele>
        <time>2011-02-06T11:16:52Z</time>
      </trkpt>
      <trkpt lat="43.5912" lon="3.70121">
        <ele>124.9</ele>
        <time>2011-02-06T11:16:54Z</time>
      </trkpt>
      <trkpt lat="43.59122" lon="3.7013">
        <ele>125.7</ele>
        <time>2011-02-06T11:16:56Z</time>
      </trkpt>
      <trkpt lat="43.59123" lon="3.70135">
        <ele>126.1</ele>
        <time>2011-02-06T11:16:57Z</time>
      </trkpt>
      <trkpt lat="43.59127" lon="3.70148">
        <ele>127.3</ele>
        <time>2011-02-06T11:17:00Z</time>
      </trkpt>
      <trkpt lat="43.5913" lon="3.70157">
        <ele>128</ele>
        <time>2011-02-06T11:17:02Z</time>
      </trkpt>
      <trkpt lat="43.59134" lon="3.70166">
        <ele>128.4</ele>
        <time>2011-02-06T11:17:04Z</time>
      </trkpt>
      <trkpt lat="43.59138" lon="3.70174">
        <ele>128.8</ele>
        <time>2011-02-06T11:17:06Z</time>
      </trkpt>
      <trkpt lat="43.59142" lon="3.70181">
        <ele>129</ele>
        <time>2011-02-06T11:17:08Z</time>
      </trkpt>
      <trkpt lat="43.59146" lon="3.70188">
        <ele>129.9</ele>
        <time>2011-02-06T11:17:10Z</time>
      </trkpt>
      <trkpt lat="43.59152" lon="3.70194">
        <ele>130.4</ele>
        <time>2011-02-06T11:17:12Z</time>
      </trkpt>
      <trkpt lat="43.59158" lon="3.70201">
        <ele>130.8</ele>
        <time>2011-02-06T11:17:14Z</time>
      </trkpt>
      <trkpt lat="43.59164" lon="3.70206">
        <ele>130.7</ele>
        <time>2011-02-06T11:17:16Z</time>
      </trkpt>
      <trkpt lat="43.59171" lon="3.70213">
        <ele>130.5</ele>
        <time>2011-02-06T11:17:18Z</time>
      </trkpt>
      <trkpt lat="43.59179" lon="3.70218">
        <ele>130.5</ele>
        <time>2011-02-06T11:17:20Z</time>
      </trkpt>
      <trkpt lat="43.59186" lon="3.70224">
        <ele>130.3</ele>
        <time>2011-02-06T11:17:22Z</time>
      </trkpt>
      <trkpt lat="43.59193" lon="3.70229">
        <ele>130.2</ele>
        <time>2011-02-06T11:17:24Z</time>
      </trkpt>
      <trkpt lat="43.592" lon="3.70234">
        <ele>130.9</ele>
        <time>2011-02-06T11:17:26Z</time>
      </trkpt>
      <trkpt lat="43.59208" lon="3.70238">
        <ele>131</ele>
        <time>2011-02-06T11:17:28Z</time>
      </trkpt>
      <trkpt lat="43.59216" lon="3.70242">
        <ele>130.9</ele>
        <time>2011-02-06T11:17:30Z</time>
      </trkpt>
      <trkpt lat="43.59224" lon="3.70244">
        <ele>131</ele>
        <time>2011-02-06T11:17:32Z</time>
      </trkpt>
      <trkpt lat="43.59232" lon="3.70245">
        <ele>131.2</ele>
        <time>2011-02-06T11:17:34Z</time>
      </trkpt>
      <trkpt lat="43.5924" lon="3.70246">
        <ele>131.2</ele>
        <time>2011-02-06T11:17:36Z</time>
      </trkpt>
      <trkpt lat="43.59248" lon="3.70246">
        <ele>131.2</ele>
        <time>2011-02-06T11:17:38Z</time>
      </trkpt>
      <trkpt lat="43.59256" lon="3.70248">
        <ele>131.2</ele>
        <time>2011-02-06T11:17:40Z</time>
      </trkpt>
      <trkpt lat="43.59263" lon="3.70252">
        <ele>132.4</ele>
        <time>2011-02-06T11:17:42Z</time>
      </trkpt>
      <trkpt lat="43.5927" lon="3.70257">
        <ele>132.5</ele>
        <time>2011-02-06T11:17:44Z</time>
      </trkpt>
      <trkpt lat="43.59276" lon="3.70265">
        <ele>132.2</ele>
        <time>2011-02-06T11:17:46Z</time>
      </trkpt>
      <trkpt lat="43.59282" lon="3.70273">
        <ele>132.3</ele>
        <time>2011-02-06T11:17:48Z</time>
      </trkpt>
      <trkpt lat="43.59289" lon="3.70279">
        <ele>132.4</ele>
        <time>2011-02-06T11:17:50Z</time>
      </trkpt>
      <trkpt lat="43.59296" lon="3.70285">
        <ele>132.5</ele>
        <time>2011-02-06T11:17:52Z</time>
      </trkpt>
      <trkpt lat="43.59303" lon="3.70292">
        <ele>132.5</ele>
        <time>2011-02-06T11:17:54Z</time>
      </trkpt>
      <trkpt lat="43.59309" lon="3.70298">
        <ele>132.4</ele>
        <time>2011-02-06T11:17:56Z</time>
      </trkpt>
      <trkpt lat="43.59316" lon="3.70303">
        <ele>133</ele>
        <time>2011-02-06T11:17:58Z</time>
      </trkpt>
      <trkpt lat="43.5932" lon="3.70305">
        <ele>133.2</ele>
        <time>2011-02-06T11:17:59Z</time>
      </trkpt>
      <trkpt lat="43.59328" lon="3.70309">
        <ele>133.1</ele>
        <time>2011-02-06T11:18:01Z</time>
      </trkpt>
      <trkpt lat="43.59333" lon="3.70311">
        <ele>133.1</ele>
        <time>2011-02-06T11:18:02Z</time>
      </trkpt>
      <trkpt lat="43.59341" lon="3.70315">
        <ele>133.5</ele>
        <time>2011-02-06T11:18:04Z</time>
      </trkpt>
      <trkpt lat="43.59349" lon="3.70318">
        <ele>133.7</ele>
        <time>2011-02-06T11:18:06Z</time>
      </trkpt>
      <trkpt lat="43.59354" lon="3.7032">
        <ele>133.6</ele>
        <time>2011-02-06T11:18:07Z</time>
      </trkpt>
      <trkpt lat="43.59358" lon="3.70322">
        <ele>133.6</ele>
        <time>2011-02-06T11:18:08Z</time>
      </trkpt>
      <trkpt lat="43.59363" lon="3.70324">
        <ele>133.5</ele>
        <time>2011-02-06T11:18:09Z</time>
      </trkpt>
      <trkpt lat="43.59367" lon="3.70325">
        <ele>133.6</ele>
        <time>2011-02-06T11:18:10Z</time>
      </trkpt>
      <trkpt lat="43.59372" lon="3.70327">
        <ele>133.6</ele>
        <time>2011-02-06T11:18:11Z</time>
      </trkpt>
      <trkpt lat="43.59376" lon="3.70329">
        <ele>133.6</ele>
        <time>2011-02-06T11:18:12Z</time>
      </trkpt>
      <trkpt lat="43.5938" lon="3.70331">
        <ele>133.9</ele>
        <time>2011-02-06T11:18:13Z</time>
      </trkpt>
      <trkpt lat="43.59385" lon="3.70333">
        <ele>134.1</ele>
        <time>2011-02-06T11:18:14Z</time>
      </trkpt>
      <trkpt lat="43.59389" lon="3.70335">
        <ele>134.3</ele>
        <time>2011-02-06T11:18:15Z</time>
      </trkpt>
      <trkpt lat="43.59394" lon="3.70337">
        <ele>134.1</ele>
        <time>2011-02-06T11:18:16Z</time>
      </trkpt>
      <trkpt lat="43.59398" lon="3.70339">
        <ele>133.9</ele>
        <time>2011-02-06T11:18:17Z</time>
      </trkpt>
      <trkpt lat="43.59402" lon="3.70341">
        <ele>133.8</ele>
        <time>2011-02-06T11:18:18Z</time>
      </trkpt>
      <trkpt lat="43.59407" lon="3.70343">
        <ele>133.8</ele>
        <time>2011-02-06T11:18:19Z</time>
      </trkpt>
      <trkpt lat="43.59411" lon="3.70344">
        <ele>133.7</ele>
        <time>2011-02-06T11:18:20Z</time>
      </trkpt>
      <trkpt lat="43.59416" lon="3.70346">
        <ele>133.7</ele>
        <time>2011-02-06T11:18:21Z</time>
      </trkpt>
      <trkpt lat="43.5942" lon="3.70348">
        <ele>133.7</ele>
        <time>2011-02-06T11:18:22Z</time>
      </trkpt>
      <trkpt lat="43.59429" lon="3.70351">
        <ele>134.1</ele>
        <time>2011-02-06T11:18:24Z</time>
      </trkpt>
      <trkpt lat="43.59437" lon="3.70354">
        <ele>134</ele>
        <time>2011-02-06T11:18:26Z</time>
      </trkpt>
      <trkpt lat="43.59445" lon="3.70357">
        <ele>133.7</ele>
        <time>2011-02-06T11:18:28Z</time>
      </trkpt>
      <trkpt lat="43.59453" lon="3.70361">
        <ele>133.9</ele>
        <time>2011-02-06T11:18:30Z</time>
      </trkpt>
      <trkpt lat="43.59458" lon="3.70365">
        <ele>134</ele>
        <time>2011-02-06T11:18:31Z</time>
      </trkpt>
      <trkpt lat="43.59462" lon="3.70369">
        <ele>133.7</ele>
        <time>2011-02-06T11:18:32Z</time>
      </trkpt>
      <trkpt lat="43.59465" lon="3.70374">
        <ele>133.4</ele>
        <time>2011-02-06T11:18:33Z</time>
      </trkpt>
      <trkpt lat="43.59468" lon="3.7038">
        <ele>133.3</ele>
        <time>2011-02-06T11:18:34Z</time>
      </trkpt>
      <trkpt lat="43.5947" lon="3.70392">
        <ele>132.8</ele>
        <time>2011-02-06T11:18:36Z</time>
      </trkpt>
      <trkpt lat="43.59469" lon="3.70403">
        <ele>132.5</ele>
        <time>2011-02-06T11:18:38Z</time>
      </trkpt>
      <trkpt lat="43.59468" lon="3.70414">
        <ele>133.3</ele>
        <time>2011-02-06T11:18:40Z</time>
      </trkpt>
      <trkpt lat="43.59467" lon="3.70424">
        <ele>133.8</ele>
        <time>2011-02-06T11:18:42Z</time>
      </trkpt>
      <trkpt lat="43.59466" lon="3.70434">
        <ele>134.2</ele>
        <time>2011-02-06T11:18:44Z</time>
      </trkpt>
      <trkpt lat="43.59465" lon="3.70443">
        <ele>135.2</ele>
        <time>2011-02-06T11:18:46Z</time>
      </trkpt>
      <trkpt lat="43.59464" lon="3.70453">
        <ele>135.6</ele>
        <time>2011-02-06T11:18:48Z</time>
      </trkpt>
      <trkpt lat="43.59463" lon="3.70464">
        <ele>135.7</ele>
        <time>2011-02-06T11:18:50Z</time>
      </trkpt>
      <trkpt lat="43.59461" lon="3.70474">
        <ele>135.8</ele>
        <time>2011-02-06T11:18:52Z</time>
      </trkpt>
      <trkpt lat="43.5946" lon="3.70484">
        <ele>135.9</ele>
        <time>2011-02-06T11:18:54Z</time>
      </trkpt>
      <trkpt lat="43.59458" lon="3.70495">
        <ele>136.1</ele>
        <time>2011-02-06T11:18:56Z</time>
      </trkpt>
      <trkpt lat="43.59456" lon="3.70506">
        <ele>136</ele>
        <time>2011-02-06T11:18:58Z</time>
      </trkpt>
      <trkpt lat="43.59454" lon="3.70518">
        <ele>135.8</ele>
        <time>2011-02-06T11:19:00Z</time>
      </trkpt>
      <trkpt lat="43.59453" lon="3.70524">
        <ele>135.6</ele>
        <time>2011-02-06T11:19:01Z</time>
      </trkpt>
      <trkpt lat="43.59452" lon="3.70541">
        <ele>135.2</ele>
        <time>2011-02-06T11:19:04Z</time>
      </trkpt>
      <trkpt lat="43.59447" lon="3.70552">
        <ele>135</ele>
        <time>2011-02-06T11:19:45Z</time>
      </trkpt>
      <trkpt lat="43.59443" lon="3.70561">
        <ele>136.1</ele>
        <time>2011-02-06T11:21:11Z</time>
      </trkpt>
      <trkpt lat="43.5944" lon="3.70564">
        <ele>135.8</ele>
        <time>2011-02-06T11:21:12Z</time>
      </trkpt>
      <trkpt lat="43.5943" lon="3.70573">
        <ele>134.8</ele>
        <time>2011-02-06T11:21:15Z</time>
      </trkpt>
      <trkpt lat="43.59427" lon="3.70577">
        <ele>134.4</ele>
        <time>2011-02-06T11:21:16Z</time>
      </trkpt>
      <trkpt lat="43.59423" lon="3.70582">
        <ele>134.1</ele>
        <time>2011-02-06T11:21:17Z</time>
      </trkpt>
      <trkpt lat="43.5942" lon="3.70588">
        <ele>133.6</ele>
        <time>2011-02-06T11:21:18Z</time>
      </trkpt>
      <trkpt lat="43.59417" lon="3.70594">
        <ele>133.3</ele>
        <time>2011-02-06T11:21:19Z</time>
      </trkpt>
      <trkpt lat="43.59415" lon="3.70601">
        <ele>133.1</ele>
        <time>2011-02-06T11:21:20Z</time>
      </trkpt>
      <trkpt lat="43.59413" lon="3.70609">
        <ele>132.5</ele>
        <time>2011-02-06T11:21:21Z</time>
      </trkpt>
      <trkpt lat="43.59411" lon="3.70617">
        <ele>132.2</ele>
        <time>2011-02-06T11:21:22Z</time>
      </trkpt>
      <trkpt lat="43.59409" lon="3.70625">
        <ele>131.9</ele>
        <time>2011-02-06T11:21:23Z</time>
      </trkpt>
      <trkpt lat="43.59407" lon="3.70634">
        <ele>131.7</ele>
        <time>2011-02-06T11:21:24Z</time>
      </trkpt>
      <trkpt lat="43.59404" lon="3.70642">
        <ele>131.1</ele>
        <time>2011-02-06T11:21:25Z</time>
      </trkpt>
      <trkpt lat="43.59402" lon="3.7065">
        <ele>130.7</ele>
        <time>2011-02-06T11:21:26Z</time>
      </trkpt>
      <trkpt lat="43.59399" lon="3.70657">
        <ele>130.4</ele>
        <time>2011-02-06T11:21:27Z</time>
      </trkpt>
      <trkpt lat="43.59395" lon="3.70664">
        <ele>130</ele>
        <time>2011-02-06T11:21:28Z</time>
      </trkpt>
      <trkpt lat="43.5939" lon="3.70669">
        <ele>129.7</ele>
        <time>2011-02-06T11:21:29Z</time>
      </trkpt>
      <trkpt lat="43.59385" lon="3.70672">
        <ele>129.5</ele>
        <time>2011-02-06T11:21:30Z</time>
      </trkpt>
      <trkpt lat="43.59379" lon="3.70672">
        <ele>129.4</ele>
        <time>2011-02-06T11:21:31Z</time>
      </trkpt>
      <trkpt lat="43.59374" lon="3.7067">
        <ele>129.3</ele>
        <time>2011-02-06T11:21:32Z</time>
      </trkpt>
      <trkpt lat="43.59369" lon="3.70667">
        <ele>129.2</ele>
        <time>2011-02-06T11:21:33Z</time>
      </trkpt>
      <trkpt lat="43.59364" lon="3.70663">
        <ele>129.3</ele>
        <time>2011-02-06T11:21:34Z</time>
      </trkpt>
      <trkpt lat="43.59359" lon="3.7066">
        <ele>129.3</ele>
        <time>2011-02-06T11:21:35Z</time>
      </trkpt>
      <trkpt lat="43.59354" lon="3.70657">
        <ele>129.3</ele>
        <time>2011-02-06T11:21:36Z</time>
      </trkpt>
      <trkpt lat="43.59349" lon="3.70653">
        <ele>128.8</ele>
        <time>2011-02-06T11:21:37Z</time>
      </trkpt>
      <trkpt lat="43.59344" lon="3.70649">
        <ele>128.5</ele>
        <time>2011-02-06T11:21:38Z</time>
      </trkpt>
      <trkpt lat="43.59339" lon="3.70645">
        <ele>128.2</ele>
        <time>2011-02-06T11:21:39Z</time>
      </trkpt>
      <trkpt lat="43.59334" lon="3.70642">
        <ele>128.6</ele>
        <time>2011-02-06T11:21:40Z</time>
      </trkpt>
      <trkpt lat="43.59329" lon="3.70638">
        <ele>129</ele>
        <time>2011-02-06T11:21:41Z</time>
      </trkpt>
      <trkpt lat="43.59323" lon="3.70634">
        <ele>129.2</ele>
        <time>2011-02-06T11:21:42Z</time>
      </trkpt>
      <trkpt lat="43.59318" lon="3.7063">
        <ele>129.4</ele>
        <time>2011-02-06T11:21:43Z</time>
      </trkpt>
      <trkpt lat="43.59313" lon="3.70625">
        <ele>129.3</ele>
        <time>2011-02-06T11:21:44Z</time>
      </trkpt>
      <trkpt lat="43.59308" lon="3.70621">
        <ele>129.3</ele>
        <time>2011-02-06T11:21:45Z</time>
      </trkpt>
      <trkpt lat="43.59303" lon="3.70617">
        <ele>129.2</ele>
        <time>2011-02-06T11:21:46Z</time>
      </trkpt>
      <trkpt lat="43.59298" lon="3.70613">
        <ele>129.5</ele>
        <time>2011-02-06T11:21:47Z</time>
      </trkpt>
      <trkpt lat="43.59293" lon="3.70608">
        <ele>129.8</ele>
        <time>2011-02-06T11:21:48Z</time>
      </trkpt>
      <trkpt lat="43.59287" lon="3.70604">
        <ele>129.9</ele>
        <time>2011-02-06T11:21:49Z</time>
      </trkpt>
      <trkpt lat="43.59282" lon="3.706">
        <ele>130</ele>
        <time>2011-02-06T11:21:50Z</time>
      </trkpt>
      <trkpt lat="43.59277" lon="3.70596">
        <ele>130</ele>
        <time>2011-02-06T11:21:51Z</time>
      </trkpt>
      <trkpt lat="43.59273" lon="3.70592">
        <ele>130</ele>
        <time>2011-02-06T11:21:52Z</time>
      </trkpt>
      <trkpt lat="43.59267" lon="3.70588">
        <ele>130.4</ele>
        <time>2011-02-06T11:21:53Z</time>
      </trkpt>
      <trkpt lat="43.59262" lon="3.70584">
        <ele>130.6</ele>
        <time>2011-02-06T11:21:54Z</time>
      </trkpt>
      <trkpt lat="43.59257" lon="3.7058">
        <ele>130.8</ele>
        <time>2011-02-06T11:21:55Z</time>
      </trkpt>
      <trkpt lat="43.59252" lon="3.70577">
        <ele>131.3</ele>
        <time>2011-02-06T11:21:56Z</time>
      </trkpt>
      <trkpt lat="43.59246" lon="3.70573">
        <ele>131.7</ele>
        <time>2011-02-06T11:21:57Z</time>
      </trkpt>
      <trkpt lat="43.5924" lon="3.70569">
        <ele>132</ele>
        <time>2011-02-06T11:21:58Z</time>
      </trkpt>
      <trkpt lat="43.59235" lon="3.70565">
        <ele>132.2</ele>
        <time>2011-02-06T11:21:59Z</time>
      </trkpt>
      <trkpt lat="43.59229" lon="3.7056">
        <ele>131.4</ele>
        <time>2011-02-06T11:22:00Z</time>
      </trkpt>
      <trkpt lat="43.59224" lon="3.70556">
        <ele>130.8</ele>
        <time>2011-02-06T11:22:01Z</time>
      </trkpt>
      <trkpt lat="43.59218" lon="3.70553">
        <ele>130.4</ele>
        <time>2011-02-06T11:22:02Z</time>
      </trkpt>
      <trkpt lat="43.59212" lon="3.70549">
        <ele>130.4</ele>
        <time>2011-02-06T11:22:03Z</time>
      </trkpt>
      <trkpt lat="43.59206" lon="3.70545">
        <ele>130.3</ele>
        <time>2011-02-06T11:22:04Z</time>
      </trkpt>
      <trkpt lat="43.592" lon="3.70541">
        <ele>130.3</ele>
        <time>2011-02-06T11:22:05Z</time>
      </trkpt>
      <trkpt lat="43.59194" lon="3.70537">
        <ele>130.3</ele>
        <time>2011-02-06T11:22:06Z</time>
      </trkpt>
      <trkpt lat="43.59188" lon="3.70534">
        <ele>130.2</ele>
        <time>2011-02-06T11:22:07Z</time>
      </trkpt>
      <trkpt lat="43.59182" lon="3.70531">
        <ele>130.2</ele>
        <time>2011-02-06T11:22:08Z</time>
      </trkpt>
      <trkpt lat="43.59176" lon="3.70529">
        <ele>129.5</ele>
        <time>2011-02-06T11:22:09Z</time>
      </trkpt>
      <trkpt lat="43.59169" lon="3.70528">
        <ele>129</ele>
        <time>2011-02-06T11:22:10Z</time>
      </trkpt>
      <trkpt lat="43.59162" lon="3.70529">
        <ele>128.7</ele>
        <time>2011-02-06T11:22:11Z</time>
      </trkpt>
      <trkpt lat="43.59156" lon="3.7053">
        <ele>128.4</ele>
        <time>2011-02-06T11:22:12Z</time>
      </trkpt>
      <trkpt lat="43.59149" lon="3.70533">
        <ele>128.2</ele>
        <time>2011-02-06T11:22:13Z</time>
      </trkpt>
      <trkpt lat="43.59143" lon="3.70537">
        <ele>128.1</ele>
        <time>2011-02-06T11:22:14Z</time>
      </trkpt>
      <trkpt lat="43.59137" lon="3.7054">
        <ele>128</ele>
        <time>2011-02-06T11:22:15Z</time>
      </trkpt>
      <trkpt lat="43.59131" lon="3.70544">
        <ele>128.5</ele>
        <time>2011-02-06T11:22:16Z</time>
      </trkpt>
      <trkpt lat="43.59126" lon="3.70548">
        <ele>129</ele>
        <time>2011-02-06T11:22:17Z</time>
      </trkpt>
      <trkpt lat="43.5912" lon="3.70552">
        <ele>129.3</ele>
        <time>2011-02-06T11:22:18Z</time>
      </trkpt>
      <trkpt lat="43.59115" lon="3.70557">
        <ele>129.2</ele>
        <time>2011-02-06T11:22:19Z</time>
      </trkpt>
      <trkpt lat="43.59111" lon="3.70561">
        <ele>129.2</ele>
        <time>2011-02-06T11:22:20Z</time>
      </trkpt>
      <trkpt lat="43.59106" lon="3.70567">
        <ele>129.2</ele>
        <time>2011-02-06T11:22:21Z</time>
      </trkpt>
      <trkpt lat="43.59102" lon="3.70573">
        <ele>128.8</ele>
        <time>2011-02-06T11:22:22Z</time>
      </trkpt>
      <trkpt lat="43.59098" lon="3.70579">
        <ele>128.5</ele>
        <time>2011-02-06T11:22:23Z</time>
      </trkpt>
      <trkpt lat="43.59094" lon="3.70586">
        <ele>128.3</ele>
        <time>2011-02-06T11:22:24Z</time>
      </trkpt>
      <trkpt lat="43.59092" lon="3.70593">
        <ele>128.1</ele>
        <time>2011-02-06T11:22:25Z</time>
      </trkpt>
      <trkpt lat="43.59089" lon="3.706">
        <ele>127.9</ele>
        <time>2011-02-06T11:22:26Z</time>
      </trkpt>
      <trkpt lat="43.59087" lon="3.70608">
        <ele>127.8</ele>
        <time>2011-02-06T11:22:27Z</time>
      </trkpt>
      <trkpt lat="43.59086" lon="3.70616">
        <ele>128.2</ele>
        <time>2011-02-06T11:22:28Z</time>
      </trkpt>
      <trkpt lat="43.59085" lon="3.70625">
        <ele>128.5</ele>
        <time>2011-02-06T11:22:29Z</time>
      </trkpt>
      <trkpt lat="43.59086" lon="3.70633">
        <ele>128.8</ele>
        <time>2011-02-06T11:22:30Z</time>
      </trkpt>
      <trkpt lat="43.59086" lon="3.70642">
        <ele>128.9</ele>
        <time>2011-02-06T11:22:31Z</time>
      </trkpt>
      <trkpt lat="43.59087" lon="3.70651">
        <ele>128.3</ele>
        <time>2011-02-06T11:22:32Z</time>
      </trkpt>
      <trkpt lat="43.59089" lon="3.7066">
        <ele>127.7</ele>
        <time>2011-02-06T11:22:33Z</time>
      </trkpt>
      <trkpt lat="43.59091" lon="3.70669">
        <ele>127.3</ele>
        <time>2011-02-06T11:22:34Z</time>
      </trkpt>
      <trkpt lat="43.59093" lon="3.70679">
        <ele>127.1</ele>
        <time>2011-02-06T11:22:35Z</time>
      </trkpt>
      <trkpt lat="43.59094" lon="3.70689">
        <ele>126.9</ele>
        <time>2011-02-06T11:22:36Z</time>
      </trkpt>
      <trkpt lat="43.59095" lon="3.707">
        <ele>126.7</ele>
        <time>2011-02-06T11:22:37Z</time>
      </trkpt>
      <trkpt lat="43.59096" lon="3.70711">
        <ele>126</ele>
        <time>2011-02-06T11:22:38Z</time>
      </trkpt>
      <trkpt lat="43.59096" lon="3.70723">
        <ele>125.5</ele>
        <time>2011-02-06T11:22:39Z</time>
      </trkpt>
      <trkpt lat="43.59097" lon="3.70735">
        <ele>125.1</ele>
        <time>2011-02-06T11:22:40Z</time>
      </trkpt>
      <trkpt lat="43.59098" lon="3.70747">
        <ele>124</ele>
        <time>2011-02-06T11:22:41Z</time>
      </trkpt>
      <trkpt lat="43.59101" lon="3.70759">
        <ele>123.1</ele>
        <time>2011-02-06T11:22:42Z</time>
      </trkpt>
      <trkpt lat="43.59105" lon="3.7077">
        <ele>122.5</ele>
        <time>2011-02-06T11:22:43Z</time>
      </trkpt>
      <trkpt lat="43.5911" lon="3.70782">
        <ele>121.6</ele>
        <time>2011-02-06T11:22:44Z</time>
      </trkpt>
      <trkpt lat="43.59115" lon="3.70793">
        <ele>121</ele>
        <time>2011-02-06T11:22:45Z</time>
      </trkpt>
      <trkpt lat="43.5912" lon="3.70803">
        <ele>120.5</ele>
        <time>2011-02-06T11:22:46Z</time>
      </trkpt>
      <trkpt lat="43.59125" lon="3.70814">
        <ele>120.1</ele>
        <time>2011-02-06T11:22:47Z</time>
      </trkpt>
      <trkpt lat="43.59131" lon="3.70824">
        <ele>118.8</ele>
        <time>2011-02-06T11:22:48Z</time>
      </trkpt>
      <trkpt lat="43.59137" lon="3.70833">
        <ele>117.8</ele>
        <time>2011-02-06T11:22:49Z</time>
      </trkpt>
      <trkpt lat="43.59143" lon="3.70839">
        <ele>117</ele>
        <time>2011-02-06T11:22:50Z</time>
      </trkpt>
      <trkpt lat="43.5915" lon="3.70844">
        <ele>116.7</ele>
        <time>2011-02-06T11:22:51Z</time>
      </trkpt>
      <trkpt lat="43.59158" lon="3.70845">
        <ele>116.4</ele>
        <time>2011-02-06T11:22:52Z</time>
      </trkpt>
      <trkpt lat="43.59166" lon="3.70845">
        <ele>116.1</ele>
        <time>2011-02-06T11:22:53Z</time>
      </trkpt>
      <trkpt lat="43.59175" lon="3.70844">
        <ele>115.1</ele>
        <time>2011-02-06T11:22:54Z</time>
      </trkpt>
      <trkpt lat="43.59183" lon="3.70842">
        <ele>114.3</ele>
        <time>2011-02-06T11:22:55Z</time>
      </trkpt>
      <trkpt lat="43.59192" lon="3.7084">
        <ele>113.7</ele>
        <time>2011-02-06T11:22:56Z</time>
      </trkpt>
      <trkpt lat="43.59201" lon="3.70838">
        <ele>112.5</ele>
        <time>2011-02-06T11:22:57Z</time>
      </trkpt>
      <trkpt lat="43.5921" lon="3.70836">
        <ele>111.6</ele>
        <time>2011-02-06T11:22:58Z</time>
      </trkpt>
      <trkpt lat="43.59217" lon="3.70835">
        <ele>110.9</ele>
        <time>2011-02-06T11:22:59Z</time>
      </trkpt>
      <trkpt lat="43.59223" lon="3.70836">
        <ele>109.9</ele>
        <time>2011-02-06T11:23:00Z</time>
      </trkpt>
      <trkpt lat="43.59229" lon="3.70845">
        <ele>108.5</ele>
        <time>2011-02-06T11:23:02Z</time>
      </trkpt>
      <trkpt lat="43.59226" lon="3.70857">
        <ele>107.4</ele>
        <time>2011-02-06T11:23:04Z</time>
      </trkpt>
      <trkpt lat="43.5922" lon="3.70866">
        <ele>106.8</ele>
        <time>2011-02-06T11:23:06Z</time>
      </trkpt>
      <trkpt lat="43.59214" lon="3.70874">
        <ele>106.4</ele>
        <time>2011-02-06T11:23:08Z</time>
      </trkpt>
      <trkpt lat="43.59208" lon="3.70882">
        <ele>106.7</ele>
        <time>2011-02-06T11:23:10Z</time>
      </trkpt>
      <trkpt lat="43.59202" lon="3.7089">
        <ele>107.5</ele>
        <time>2011-02-06T11:23:12Z</time>
      </trkpt>
      <trkpt lat="43.59196" lon="3.70898">
        <ele>107.2</ele>
        <time>2011-02-06T11:23:14Z</time>
      </trkpt>
      <trkpt lat="43.59194" lon="3.70902">
        <ele>107.2</ele>
        <time>2011-02-06T11:23:15Z</time>
      </trkpt>
      <trkpt lat="43.59186" lon="3.70913">
        <ele>107</ele>
        <time>2011-02-06T11:23:18Z</time>
      </trkpt>
      <trkpt lat="43.5918" lon="3.7092">
        <ele>108</ele>
        <time>2011-02-06T11:23:20Z</time>
      </trkpt>
      <trkpt lat="43.59174" lon="3.70927">
        <ele>108.6</ele>
        <time>2011-02-06T11:23:22Z</time>
      </trkpt>
      <trkpt lat="43.59169" lon="3.70933">
        <ele>108.4</ele>
        <time>2011-02-06T11:23:24Z</time>
      </trkpt>
      <trkpt lat="43.59163" lon="3.70939">
        <ele>108.4</ele>
        <time>2011-02-06T11:23:26Z</time>
      </trkpt>
      <trkpt lat="43.59157" lon="3.70944">
        <ele>108.4</ele>
        <time>2011-02-06T11:23:28Z</time>
      </trkpt>
      <trkpt lat="43.59152" lon="3.70949">
        <ele>109.6</ele>
        <time>2011-02-06T11:23:30Z</time>
      </trkpt>
      <trkpt lat="43.59146" lon="3.70952">
        <ele>110.3</ele>
        <time>2011-02-06T11:23:32Z</time>
      </trkpt>
      <trkpt lat="43.59141" lon="3.70956">
        <ele>110.7</ele>
        <time>2011-02-06T11:23:34Z</time>
      </trkpt>
      <trkpt lat="43.59134" lon="3.70958">
        <ele>111.7</ele>
        <time>2011-02-06T11:23:36Z</time>
      </trkpt>
      <trkpt lat="43.59128" lon="3.70962">
        <ele>112.2</ele>
        <time>2011-02-06T11:23:38Z</time>
      </trkpt>
      <trkpt lat="43.59123" lon="3.70967">
        <ele>113</ele>
        <time>2011-02-06T11:23:40Z</time>
      </trkpt>
      <trkpt lat="43.59118" lon="3.70973">
        <ele>113.2</ele>
        <time>2011-02-06T11:23:42Z</time>
      </trkpt>
      <trkpt lat="43.59114" lon="3.70979">
        <ele>113.2</ele>
        <time>2011-02-06T11:23:44Z</time>
      </trkpt>
      <trkpt lat="43.59109" lon="3.70989">
        <ele>113</ele>
        <time>2011-02-06T11:23:47Z</time>
      </trkpt>
      <trkpt lat="43.59105" lon="3.70996">
        <ele>113.6</ele>
        <time>2011-02-06T11:23:49Z</time>
      </trkpt>
      <trkpt lat="43.59101" lon="3.71003">
        <ele>114</ele>
        <time>2011-02-06T11:23:51Z</time>
      </trkpt>
      <trkpt lat="43.59096" lon="3.71008">
        <ele>114.2</ele>
        <time>2011-02-06T11:23:53Z</time>
      </trkpt>
      <trkpt lat="43.59089" lon="3.7101">
        <ele>114.7</ele>
        <time>2011-02-06T11:23:55Z</time>
      </trkpt>
      <trkpt lat="43.59081" lon="3.71009">
        <ele>115.3</ele>
        <time>2011-02-06T11:23:58Z</time>
      </trkpt>
      <trkpt lat="43.59074" lon="3.71004">
        <ele>116.3</ele>
        <time>2011-02-06T11:24:01Z</time>
      </trkpt>
      <trkpt lat="43.59068" lon="3.71002">
        <ele>117.3</ele>
        <time>2011-02-06T11:24:03Z</time>
      </trkpt>
      <trkpt lat="43.59062" lon="3.71">
        <ele>117.4</ele>
        <time>2011-02-06T11:24:05Z</time>
      </trkpt>
      <trkpt lat="43.59053" lon="3.70998">
        <ele>117.9</ele>
        <time>2011-02-06T11:24:08Z</time>
      </trkpt>
      <trkpt lat="43.59045" lon="3.70997">
        <ele>118.8</ele>
        <time>2011-02-06T11:24:11Z</time>
      </trkpt>
      <trkpt lat="43.59036" lon="3.70996">
        <ele>119.6</ele>
        <time>2011-02-06T11:24:14Z</time>
      </trkpt>
      <trkpt lat="43.5903" lon="3.70995">
        <ele>119.4</ele>
        <time>2011-02-06T11:24:16Z</time>
      </trkpt>
      <trkpt lat="43.59027" lon="3.70995">
        <ele>119.8</ele>
        <time>2011-02-06T11:24:17Z</time>
      </trkpt>
      <trkpt lat="43.59017" lon="3.70994">
        <ele>120.5</ele>
        <time>2011-02-06T11:24:20Z</time>
      </trkpt>
      <trkpt lat="43.5901" lon="3.70992">
        <ele>120.7</ele>
        <time>2011-02-06T11:24:22Z</time>
      </trkpt>
      <trkpt lat="43.59004" lon="3.70988">
        <ele>121.7</ele>
        <time>2011-02-06T11:24:24Z</time>
      </trkpt>
      <trkpt lat="43.58997" lon="3.70983">
        <ele>121.9</ele>
        <time>2011-02-06T11:24:26Z</time>
      </trkpt>
      <trkpt lat="43.58992" lon="3.70977">
        <ele>121.9</ele>
        <time>2011-02-06T11:24:28Z</time>
      </trkpt>
      <trkpt lat="43.58989" lon="3.70965">
        <ele>122.5</ele>
        <time>2011-02-06T11:24:31Z</time>
      </trkpt>
      <trkpt lat="43.58987" lon="3.70957">
        <ele>122.9</ele>
        <time>2011-02-06T11:24:33Z</time>
      </trkpt>
      <trkpt lat="43.58985" lon="3.70949">
        <ele>123</ele>
        <time>2011-02-06T11:24:35Z</time>
      </trkpt>
      <trkpt lat="43.58983" lon="3.7094">
        <ele>123.8</ele>
        <time>2011-02-06T11:24:37Z</time>
      </trkpt>
      <trkpt lat="43.5898" lon="3.70933">
        <ele>124.1</ele>
        <time>2011-02-06T11:24:39Z</time>
      </trkpt>
      <trkpt lat="43.58977" lon="3.70925">
        <ele>124.3</ele>
        <time>2011-02-06T11:24:41Z</time>
      </trkpt>
      <trkpt lat="43.58974" lon="3.70918">
        <ele>124.8</ele>
        <time>2011-02-06T11:24:43Z</time>
      </trkpt>
      <trkpt lat="43.58971" lon="3.7091">
        <ele>125.1</ele>
        <time>2011-02-06T11:24:45Z</time>
      </trkpt>
      <trkpt lat="43.58968" lon="3.70901">
        <ele>125.1</ele>
        <time>2011-02-06T11:24:47Z</time>
      </trkpt>
      <trkpt lat="43.58965" lon="3.70892">
        <ele>125.1</ele>
        <time>2011-02-06T11:24:49Z</time>
      </trkpt>
      <trkpt lat="43.58963" lon="3.70884">
        <ele>125</ele>
        <time>2011-02-06T11:24:51Z</time>
      </trkpt>
      <trkpt lat="43.5896" lon="3.70875">
        <ele>125.7</ele>
        <time>2011-02-06T11:24:53Z</time>
      </trkpt>
      <trkpt lat="43.58956" lon="3.70867">
        <ele>125.8</ele>
        <time>2011-02-06T11:24:55Z</time>
      </trkpt>
      <trkpt lat="43.58953" lon="3.70858">
        <ele>125.7</ele>
        <time>2011-02-06T11:24:57Z</time>
      </trkpt>
      <trkpt lat="43.58949" lon="3.7085">
        <ele>125.8</ele>
        <time>2011-02-06T11:24:59Z</time>
      </trkpt>
      <trkpt lat="43.58946" lon="3.70841">
        <ele>125.9</ele>
        <time>2011-02-06T11:25:01Z</time>
      </trkpt>
      <trkpt lat="43.58943" lon="3.70832">
        <ele>127.1</ele>
        <time>2011-02-06T11:25:03Z</time>
      </trkpt>
      <trkpt lat="43.5894" lon="3.70824">
        <ele>127.6</ele>
        <time>2011-02-06T11:25:05Z</time>
      </trkpt>
      <trkpt lat="43.58939" lon="3.70815">
        <ele>127.8</ele>
        <time>2011-02-06T11:25:07Z</time>
      </trkpt>
      <trkpt lat="43.58937" lon="3.70807">
        <ele>128</ele>
        <time>2011-02-06T11:25:09Z</time>
      </trkpt>
      <trkpt lat="43.58936" lon="3.70798">
        <ele>128.4</ele>
        <time>2011-02-06T11:25:11Z</time>
      </trkpt>
      <trkpt lat="43.58936" lon="3.70789">
        <ele>128.7</ele>
        <time>2011-02-06T11:25:13Z</time>
      </trkpt>
      <trkpt lat="43.58935" lon="3.7078">
        <ele>129.4</ele>
        <time>2011-02-06T11:25:15Z</time>
      </trkpt>
      <trkpt lat="43.58934" lon="3.70771">
        <ele>129.9</ele>
        <time>2011-02-06T11:25:17Z</time>
      </trkpt>
      <trkpt lat="43.58933" lon="3.70767">
        <ele>130.3</ele>
        <time>2011-02-06T11:25:18Z</time>
      </trkpt>
      <trkpt lat="43.58929" lon="3.70752">
        <ele>130.9</ele>
        <time>2011-02-06T11:25:21Z</time>
      </trkpt>
      <trkpt lat="43.58924" lon="3.70742">
        <ele>131</ele>
        <time>2011-02-06T11:25:23Z</time>
      </trkpt>
      <trkpt lat="43.58918" lon="3.70733">
        <ele>130.6</ele>
        <time>2011-02-06T11:25:25Z</time>
      </trkpt>
      <trkpt lat="43.58914" lon="3.70729">
        <ele>130.4</ele>
        <time>2011-02-06T11:25:26Z</time>
      </trkpt>
      <trkpt lat="43.5891" lon="3.70725">
        <ele>130.2</ele>
        <time>2011-02-06T11:25:27Z</time>
      </trkpt>
      <trkpt lat="43.58906" lon="3.7072">
        <ele>130</ele>
        <time>2011-02-06T11:25:28Z</time>
      </trkpt>
      <trkpt lat="43.58902" lon="3.70715">
        <ele>129.9</ele>
        <time>2011-02-06T11:25:29Z</time>
      </trkpt>
      <trkpt lat="43.58898" lon="3.70709">
        <ele>129.6</ele>
        <time>2011-02-06T11:25:30Z</time>
      </trkpt>
      <trkpt lat="43.58894" lon="3.70704">
        <ele>129.4</ele>
        <time>2011-02-06T11:25:31Z</time>
      </trkpt>
      <trkpt lat="43.58891" lon="3.70698">
        <ele>129.3</ele>
        <time>2011-02-06T11:25:32Z</time>
      </trkpt>
      <trkpt lat="43.58886" lon="3.70693">
        <ele>129.1</ele>
        <time>2011-02-06T11:25:33Z</time>
      </trkpt>
      <trkpt lat="43.58882" lon="3.70687">
        <ele>129.1</ele>
        <time>2011-02-06T11:25:34Z</time>
      </trkpt>
      <trkpt lat="43.58878" lon="3.70682">
        <ele>129</ele>
        <time>2011-02-06T11:25:35Z</time>
      </trkpt>
      <trkpt lat="43.58874" lon="3.70677">
        <ele>129</ele>
        <time>2011-02-06T11:25:36Z</time>
      </trkpt>
      <trkpt lat="43.58869" lon="3.70673">
        <ele>129.1</ele>
        <time>2011-02-06T11:25:37Z</time>
      </trkpt>
      <trkpt lat="43.58865" lon="3.70669">
        <ele>129.2</ele>
        <time>2011-02-06T11:25:38Z</time>
      </trkpt>
      <trkpt lat="43.5886" lon="3.70666">
        <ele>129.3</ele>
        <time>2011-02-06T11:25:39Z</time>
      </trkpt>
      <trkpt lat="43.58855" lon="3.70664">
        <ele>129.6</ele>
        <time>2011-02-06T11:25:40Z</time>
      </trkpt>
      <trkpt lat="43.58849" lon="3.70661">
        <ele>129.9</ele>
        <time>2011-02-06T11:25:41Z</time>
      </trkpt>
      <trkpt lat="43.58844" lon="3.70659">
        <ele>130.1</ele>
        <time>2011-02-06T11:25:42Z</time>
      </trkpt>
      <trkpt lat="43.58838" lon="3.70656">
        <ele>130.1</ele>
        <time>2011-02-06T11:25:43Z</time>
      </trkpt>
      <trkpt lat="43.58833" lon="3.70652">
        <ele>130.2</ele>
        <time>2011-02-06T11:25:44Z</time>
      </trkpt>
      <trkpt lat="43.58828" lon="3.70649">
        <ele>130.2</ele>
        <time>2011-02-06T11:25:45Z</time>
      </trkpt>
      <trkpt lat="43.58822" lon="3.70646">
        <ele>129.8</ele>
        <time>2011-02-06T11:25:46Z</time>
      </trkpt>
      <trkpt lat="43.58818" lon="3.70642">
        <ele>129.6</ele>
        <time>2011-02-06T11:25:47Z</time>
      </trkpt>
      <trkpt lat="43.58813" lon="3.70638">
        <ele>129.4</ele>
        <time>2011-02-06T11:25:48Z</time>
      </trkpt>
      <trkpt lat="43.58809" lon="3.70635">
        <ele>129.8</ele>
        <time>2011-02-06T11:25:49Z</time>
      </trkpt>
      <trkpt lat="43.58802" lon="3.70627">
        <ele>130.4</ele>
        <time>2011-02-06T11:25:51Z</time>
      </trkpt>
      <trkpt lat="43.58799" lon="3.70623">
        <ele>130.6</ele>
        <time>2011-02-06T11:25:52Z</time>
      </trkpt>
      <trkpt lat="43.58795" lon="3.7062">
        <ele>130.5</ele>
        <time>2011-02-06T11:25:53Z</time>
      </trkpt>
      <trkpt lat="43.58791" lon="3.70615">
        <ele>130.5</ele>
        <time>2011-02-06T11:25:54Z</time>
      </trkpt>
      <trkpt lat="43.58787" lon="3.70611">
        <ele>130.5</ele>
        <time>2011-02-06T11:25:55Z</time>
      </trkpt>
      <trkpt lat="43.58783" lon="3.70607">
        <ele>130.8</ele>
        <time>2011-02-06T11:25:56Z</time>
      </trkpt>
      <trkpt lat="43.58779" lon="3.70603">
        <ele>131</ele>
        <time>2011-02-06T11:25:57Z</time>
      </trkpt>
      <trkpt lat="43.58776" lon="3.70598">
        <ele>131.1</ele>
        <time>2011-02-06T11:25:58Z</time>
      </trkpt>
      <trkpt lat="43.58772" lon="3.70594">
        <ele>131.5</ele>
        <time>2011-02-06T11:25:59Z</time>
      </trkpt>
      <trkpt lat="43.58768" lon="3.7059">
        <ele>131.7</ele>
        <time>2011-02-06T11:26:00Z</time>
      </trkpt>
      <trkpt lat="43.58764" lon="3.70586">
        <ele>131.9</ele>
        <time>2011-02-06T11:26:01Z</time>
      </trkpt>
      <trkpt lat="43.5876" lon="3.70582">
        <ele>131.9</ele>
        <time>2011-02-06T11:26:02Z</time>
      </trkpt>
      <trkpt lat="43.58756" lon="3.70578">
        <ele>131.9</ele>
        <time>2011-02-06T11:26:03Z</time>
      </trkpt>
      <trkpt lat="43.58752" lon="3.70574">
        <ele>131.9</ele>
        <time>2011-02-06T11:26:04Z</time>
      </trkpt>
      <trkpt lat="43.58747" lon="3.7057">
        <ele>131.8</ele>
        <time>2011-02-06T11:26:05Z</time>
      </trkpt>
      <trkpt lat="43.58743" lon="3.70566">
        <ele>131.7</ele>
        <time>2011-02-06T11:26:06Z</time>
      </trkpt>
      <trkpt lat="43.58738" lon="3.70563">
        <ele>131.6</ele>
        <time>2011-02-06T11:26:07Z</time>
      </trkpt>
      <trkpt lat="43.58733" lon="3.7056">
        <ele>131.5</ele>
        <time>2011-02-06T11:26:08Z</time>
      </trkpt>
      <trkpt lat="43.58728" lon="3.70557">
        <ele>131.5</ele>
        <time>2011-02-06T11:26:09Z</time>
      </trkpt>
      <trkpt lat="43.58723" lon="3.70553">
        <ele>131.4</ele>
        <time>2011-02-06T11:26:10Z</time>
      </trkpt>
      <trkpt lat="43.58718" lon="3.7055">
        <ele>131.4</ele>
        <time>2011-02-06T11:26:11Z</time>
      </trkpt>
      <trkpt lat="43.58713" lon="3.70546">
        <ele>131.1</ele>
        <time>2011-02-06T11:26:12Z</time>
      </trkpt>
      <trkpt lat="43.58708" lon="3.70543">
        <ele>130.9</ele>
        <time>2011-02-06T11:26:13Z</time>
      </trkpt>
      <trkpt lat="43.58703" lon="3.70539">
        <ele>130.8</ele>
        <time>2011-02-06T11:26:14Z</time>
      </trkpt>
      <trkpt lat="43.58698" lon="3.70535">
        <ele>130.6</ele>
        <time>2011-02-06T11:26:15Z</time>
      </trkpt>
      <trkpt lat="43.58693" lon="3.70531">
        <ele>130.5</ele>
        <time>2011-02-06T11:26:16Z</time>
      </trkpt>
      <trkpt lat="43.58688" lon="3.70527">
        <ele>130.5</ele>
        <time>2011-02-06T11:26:17Z</time>
      </trkpt>
      <trkpt lat="43.58683" lon="3.70523">
        <ele>130.4</ele>
        <time>2011-02-06T11:26:18Z</time>
      </trkpt>
      <trkpt lat="43.58677" lon="3.70519">
        <ele>130.3</ele>
        <time>2011-02-06T11:26:19Z</time>
      </trkpt>
      <trkpt lat="43.58672" lon="3.70515">
        <ele>130.2</ele>
        <time>2011-02-06T11:26:20Z</time>
      </trkpt>
      <trkpt lat="43.58668" lon="3.70511">
        <ele>130</ele>
        <time>2011-02-06T11:26:21Z</time>
      </trkpt>
      <trkpt lat="43.58663" lon="3.70506">
        <ele>129.9</ele>
        <time>2011-02-06T11:26:22Z</time>
      </trkpt>
      <trkpt lat="43.58658" lon="3.70502">
        <ele>129.7</ele>
        <time>2011-02-06T11:26:23Z</time>
      </trkpt>
      <trkpt lat="43.58653" lon="3.70499">
        <ele>129.7</ele>
        <time>2011-02-06T11:26:24Z</time>
      </trkpt>
      <trkpt lat="43.58647" lon="3.70497">
        <ele>129.5</ele>
        <time>2011-02-06T11:26:25Z</time>
      </trkpt>
      <trkpt lat="43.58642" lon="3.70498">
        <ele>129.4</ele>
        <time>2011-02-06T11:26:26Z</time>
      </trkpt>
      <trkpt lat="43.58638" lon="3.70501">
        <ele>129.3</ele>
        <time>2011-02-06T11:26:27Z</time>
      </trkpt>
      <trkpt lat="43.58634" lon="3.70505">
        <ele>129.7</ele>
        <time>2011-02-06T11:26:28Z</time>
      </trkpt>
      <trkpt lat="43.58631" lon="3.70516">
        <ele>130.3</ele>
        <time>2011-02-06T11:26:30Z</time>
      </trkpt>
      <trkpt lat="43.5863" lon="3.70523">
        <ele>130.4</ele>
        <time>2011-02-06T11:26:31Z</time>
      </trkpt>
      <trkpt lat="43.5863" lon="3.70529">
        <ele>130.5</ele>
        <time>2011-02-06T11:26:32Z</time>
      </trkpt>
      <trkpt lat="43.58629" lon="3.70536">
        <ele>130.5</ele>
        <time>2011-02-06T11:26:33Z</time>
      </trkpt>
      <trkpt lat="43.58628" lon="3.70544">
        <ele>130.5</ele>
        <time>2011-02-06T11:26:34Z</time>
      </trkpt>
      <trkpt lat="43.58626" lon="3.70552">
        <ele>130.4</ele>
        <time>2011-02-06T11:26:35Z</time>
      </trkpt>
      <trkpt lat="43.58625" lon="3.70559">
        <ele>130.4</ele>
        <time>2011-02-06T11:26:36Z</time>
      </trkpt>
      <trkpt lat="43.58623" lon="3.70567">
        <ele>130.8</ele>
        <time>2011-02-06T11:26:37Z</time>
      </trkpt>
      <trkpt lat="43.58621" lon="3.70575">
        <ele>131.1</ele>
        <time>2011-02-06T11:26:38Z</time>
      </trkpt>
      <trkpt lat="43.58619" lon="3.70582">
        <ele>131.4</ele>
        <time>2011-02-06T11:26:39Z</time>
      </trkpt>
      <trkpt lat="43.58617" lon="3.70589">
        <ele>131.5</ele>
        <time>2011-02-06T11:26:40Z</time>
      </trkpt>
      <trkpt lat="43.58615" lon="3.70597">
        <ele>131.8</ele>
        <time>2011-02-06T11:26:41Z</time>
      </trkpt>
      <trkpt lat="43.58613" lon="3.70604">
        <ele>132.1</ele>
        <time>2011-02-06T11:26:42Z</time>
      </trkpt>
      <trkpt lat="43.58612" lon="3.70612">
        <ele>132.2</ele>
        <time>2011-02-06T11:26:43Z</time>
      </trkpt>
      <trkpt lat="43.5861" lon="3.7062">
        <ele>132.3</ele>
        <time>2011-02-06T11:26:44Z</time>
      </trkpt>
      <trkpt lat="43.5861" lon="3.70628">
        <ele>132.4</ele>
        <time>2011-02-06T11:26:45Z</time>
      </trkpt>
      <trkpt lat="43.58609" lon="3.70636">
        <ele>132.5</ele>
        <time>2011-02-06T11:26:46Z</time>
      </trkpt>
      <trkpt lat="43.58609" lon="3.70644">
        <ele>132.1</ele>
        <time>2011-02-06T11:26:47Z</time>
      </trkpt>
      <trkpt lat="43.58609" lon="3.70651">
        <ele>131.9</ele>
        <time>2011-02-06T11:26:48Z</time>
      </trkpt>
      <trkpt lat="43.58609" lon="3.70659">
        <ele>131.7</ele>
        <time>2011-02-06T11:26:49Z</time>
      </trkpt>
      <trkpt lat="43.58609" lon="3.70666">
        <ele>131.9</ele>
        <time>2011-02-06T11:26:50Z</time>
      </trkpt>
      <trkpt lat="43.5861" lon="3.70673">
        <ele>132</ele>
        <time>2011-02-06T11:26:51Z</time>
      </trkpt>
      <trkpt lat="43.5861" lon="3.7068">
        <ele>132.2</ele>
        <time>2011-02-06T11:26:52Z</time>
      </trkpt>
      <trkpt lat="43.58611" lon="3.70686">
        <ele>132.3</ele>
        <time>2011-02-06T11:26:53Z</time>
      </trkpt>
      <trkpt lat="43.58611" lon="3.70693">
        <ele>132.4</ele>
        <time>2011-02-06T11:26:54Z</time>
      </trkpt>
      <trkpt lat="43.5861" lon="3.70705">
        <ele>132.3</ele>
        <time>2011-02-06T11:26:56Z</time>
      </trkpt>
      <trkpt lat="43.5861" lon="3.70717">
        <ele>131.9</ele>
        <time>2011-02-06T11:26:58Z</time>
      </trkpt>
      <trkpt lat="43.58609" lon="3.70727">
        <ele>131.9</ele>
        <time>2011-02-06T11:27:00Z</time>
      </trkpt>
      <trkpt lat="43.58608" lon="3.70737">
        <ele>132.1</ele>
        <time>2011-02-06T11:27:02Z</time>
      </trkpt>
      <trkpt lat="43.58608" lon="3.70748">
        <ele>131.5</ele>
        <time>2011-02-06T11:27:04Z</time>
      </trkpt>
      <trkpt lat="43.58607" lon="3.70758">
        <ele>131.5</ele>
        <time>2011-02-06T11:27:06Z</time>
      </trkpt>
      <trkpt lat="43.58606" lon="3.70769">
        <ele>131.7</ele>
        <time>2011-02-06T11:27:08Z</time>
      </trkpt>
      <trkpt lat="43.58605" lon="3.7078">
        <ele>131.4</ele>
        <time>2011-02-06T11:27:10Z</time>
      </trkpt>
      <trkpt lat="43.58604" lon="3.70791">
        <ele>131.3</ele>
        <time>2011-02-06T11:27:12Z</time>
      </trkpt>
      <trkpt lat="43.58603" lon="3.70802">
        <ele>131.3</ele>
        <time>2011-02-06T11:27:14Z</time>
      </trkpt>
      <trkpt lat="43.58602" lon="3.70814">
        <ele>131.4</ele>
        <time>2011-02-06T11:27:16Z</time>
      </trkpt>
      <trkpt lat="43.58601" lon="3.70826">
        <ele>131.5</ele>
        <time>2011-02-06T11:27:18Z</time>
      </trkpt>
      <trkpt lat="43.586" lon="3.70832">
        <ele>131.2</ele>
        <time>2011-02-06T11:27:19Z</time>
      </trkpt>
      <trkpt lat="43.586" lon="3.70839">
        <ele>130.9</ele>
        <time>2011-02-06T11:27:20Z</time>
      </trkpt>
      <trkpt lat="43.586" lon="3.70846">
        <ele>130.8</ele>
        <time>2011-02-06T11:27:21Z</time>
      </trkpt>
      <trkpt lat="43.586" lon="3.70853">
        <ele>130.5</ele>
        <time>2011-02-06T11:27:22Z</time>
      </trkpt>
      <trkpt lat="43.586" lon="3.7086">
        <ele>130.4</ele>
        <time>2011-02-06T11:27:23Z</time>
      </trkpt>
      <trkpt lat="43.586" lon="3.70867">
        <ele>130.2</ele>
        <time>2011-02-06T11:27:24Z</time>
      </trkpt>
      <trkpt lat="43.58601" lon="3.70875">
        <ele>130</ele>
        <time>2011-02-06T11:27:25Z</time>
      </trkpt>
      <trkpt lat="43.58601" lon="3.70882">
        <ele>129.8</ele>
        <time>2011-02-06T11:27:26Z</time>
      </trkpt>
      <trkpt lat="43.58601" lon="3.7089">
        <ele>129.6</ele>
        <time>2011-02-06T11:27:27Z</time>
      </trkpt>
      <trkpt lat="43.58601" lon="3.70899">
        <ele>129.1</ele>
        <time>2011-02-06T11:27:28Z</time>
      </trkpt>
      <trkpt lat="43.58601" lon="3.70908">
        <ele>128.7</ele>
        <time>2011-02-06T11:27:29Z</time>
      </trkpt>
      <trkpt lat="43.58601" lon="3.70917">
        <ele>128.4</ele>
        <time>2011-02-06T11:27:30Z</time>
      </trkpt>
      <trkpt lat="43.58601" lon="3.70926">
        <ele>128.1</ele>
        <time>2011-02-06T11:27:31Z</time>
      </trkpt>
      <trkpt lat="43.586" lon="3.70936">
        <ele>127.9</ele>
        <time>2011-02-06T11:27:32Z</time>
      </trkpt>
      <trkpt lat="43.586" lon="3.70946">
        <ele>127.8</ele>
        <time>2011-02-06T11:27:33Z</time>
      </trkpt>
      <trkpt lat="43.58599" lon="3.70956">
        <ele>127.7</ele>
        <time>2011-02-06T11:27:34Z</time>
      </trkpt>
      <trkpt lat="43.58599" lon="3.70966">
        <ele>126.7</ele>
        <time>2011-02-06T11:27:35Z</time>
      </trkpt>
      <trkpt lat="43.58599" lon="3.70976">
        <ele>126.1</ele>
        <time>2011-02-06T11:27:36Z</time>
      </trkpt>
      <trkpt lat="43.58599" lon="3.70986">
        <ele>125.6</ele>
        <time>2011-02-06T11:27:37Z</time>
      </trkpt>
      <trkpt lat="43.586" lon="3.70996">
        <ele>124.8</ele>
        <time>2011-02-06T11:27:38Z</time>
      </trkpt>
      <trkpt lat="43.586" lon="3.71006">
        <ele>124.2</ele>
        <time>2011-02-06T11:27:39Z</time>
      </trkpt>
      <trkpt lat="43.58601" lon="3.71016">
        <ele>123.7</ele>
        <time>2011-02-06T11:27:40Z</time>
      </trkpt>
      <trkpt lat="43.58602" lon="3.71025">
        <ele>123</ele>
        <time>2011-02-06T11:27:41Z</time>
      </trkpt>
      <trkpt lat="43.58602" lon="3.71035">
        <ele>122.5</ele>
        <time>2011-02-06T11:27:42Z</time>
      </trkpt>
      <trkpt lat="43.58602" lon="3.71044">
        <ele>122.2</ele>
        <time>2011-02-06T11:27:43Z</time>
      </trkpt>
      <trkpt lat="43.58601" lon="3.71053">
        <ele>121.8</ele>
        <time>2011-02-06T11:27:44Z</time>
      </trkpt>
      <trkpt lat="43.586" lon="3.71063">
        <ele>121.6</ele>
        <time>2011-02-06T11:27:45Z</time>
      </trkpt>
      <trkpt lat="43.58599" lon="3.71072">
        <ele>121.4</ele>
        <time>2011-02-06T11:27:46Z</time>
      </trkpt>
      <trkpt lat="43.58598" lon="3.71081">
        <ele>121.3</ele>
        <time>2011-02-06T11:27:47Z</time>
      </trkpt>
      <trkpt lat="43.58598" lon="3.7109">
        <ele>120.9</ele>
        <time>2011-02-06T11:27:48Z</time>
      </trkpt>
      <trkpt lat="43.58597" lon="3.711">
        <ele>120.6</ele>
        <time>2011-02-06T11:27:49Z</time>
      </trkpt>
      <trkpt lat="43.58597" lon="3.71109">
        <ele>120.3</ele>
        <time>2011-02-06T11:27:50Z</time>
      </trkpt>
      <trkpt lat="43.58597" lon="3.71119">
        <ele>120.1</ele>
        <time>2011-02-06T11:27:51Z</time>
      </trkpt>
      <trkpt lat="43.58596" lon="3.71128">
        <ele>119.9</ele>
        <time>2011-02-06T11:27:52Z</time>
      </trkpt>
      <trkpt lat="43.58596" lon="3.71137">
        <ele>119.8</ele>
        <time>2011-02-06T11:27:53Z</time>
      </trkpt>
      <trkpt lat="43.58597" lon="3.71146">
        <ele>119.7</ele>
        <time>2011-02-06T11:27:54Z</time>
      </trkpt>
      <trkpt lat="43.58597" lon="3.71155">
        <ele>119.6</ele>
        <time>2011-02-06T11:27:55Z</time>
      </trkpt>
      <trkpt lat="43.58597" lon="3.71164">
        <ele>119.6</ele>
        <time>2011-02-06T11:27:56Z</time>
      </trkpt>
      <trkpt lat="43.58598" lon="3.71172">
        <ele>120</ele>
        <time>2011-02-06T11:27:57Z</time>
      </trkpt>
      <trkpt lat="43.58598" lon="3.7118">
        <ele>120.3</ele>
        <time>2011-02-06T11:27:58Z</time>
      </trkpt>
      <trkpt lat="43.58598" lon="3.71188">
        <ele>120.6</ele>
        <time>2011-02-06T11:27:59Z</time>
      </trkpt>
      <trkpt lat="43.58598" lon="3.71196">
        <ele>120.8</ele>
        <time>2011-02-06T11:28:00Z</time>
      </trkpt>
      <trkpt lat="43.58599" lon="3.71204">
        <ele>121</ele>
        <time>2011-02-06T11:28:01Z</time>
      </trkpt>
      <trkpt lat="43.58598" lon="3.71212">
        <ele>121.2</ele>
        <time>2011-02-06T11:28:02Z</time>
      </trkpt>
      <trkpt lat="43.58597" lon="3.71219">
        <ele>121.3</ele>
        <time>2011-02-06T11:28:03Z</time>
      </trkpt>
      <trkpt lat="43.58595" lon="3.71226">
        <ele>121.4</ele>
        <time>2011-02-06T11:28:04Z</time>
      </trkpt>
      <trkpt lat="43.58593" lon="3.71232">
        <ele>121.5</ele>
        <time>2011-02-06T11:28:05Z</time>
      </trkpt>
      <trkpt lat="43.58585" lon="3.71238">
        <ele>121.5</ele>
        <time>2011-02-06T11:28:07Z</time>
      </trkpt>
      <trkpt lat="43.58578" lon="3.71238">
        <ele>121.3</ele>
        <time>2011-02-06T11:28:10Z</time>
      </trkpt>
      <trkpt lat="43.5857" lon="3.71233">
        <ele>120.8</ele>
        <time>2011-02-06T11:30:43Z</time>
      </trkpt>
      <trkpt lat="43.58569" lon="3.71233">
        <ele>121.1</ele>
        <time>2011-02-06T11:30:44Z</time>
      </trkpt>
      <trkpt lat="43.58556" lon="3.71236">
        <ele>121</ele>
        <time>2011-02-06T11:30:48Z</time>
      </trkpt>
      <trkpt lat="43.58548" lon="3.71239">
        <ele>121.1</ele>
        <time>2011-02-06T11:30:50Z</time>
      </trkpt>
      <trkpt lat="43.58543" lon="3.71241">
        <ele>121.1</ele>
        <time>2011-02-06T11:30:51Z</time>
      </trkpt>
      <trkpt lat="43.58538" lon="3.71242">
        <ele>121.2</ele>
        <time>2011-02-06T11:30:52Z</time>
      </trkpt>
      <trkpt lat="43.58532" lon="3.71244">
        <ele>120.6</ele>
        <time>2011-02-06T11:30:53Z</time>
      </trkpt>
      <trkpt lat="43.58527" lon="3.71246">
        <ele>120.1</ele>
        <time>2011-02-06T11:30:54Z</time>
      </trkpt>
      <trkpt lat="43.58521" lon="3.71248">
        <ele>119.8</ele>
        <time>2011-02-06T11:30:55Z</time>
      </trkpt>
      <trkpt lat="43.58515" lon="3.7125">
        <ele>119.3</ele>
        <time>2011-02-06T11:30:56Z</time>
      </trkpt>
      <trkpt lat="43.58509" lon="3.71252">
        <ele>119</ele>
        <time>2011-02-06T11:30:57Z</time>
      </trkpt>
      <trkpt lat="43.58503" lon="3.71255">
        <ele>118.7</ele>
        <time>2011-02-06T11:30:58Z</time>
      </trkpt>
      <trkpt lat="43.58498" lon="3.71259">
        <ele>118.6</ele>
        <time>2011-02-06T11:30:59Z</time>
      </trkpt>
      <trkpt lat="43.58493" lon="3.71263">
        <ele>118.6</ele>
        <time>2011-02-06T11:31:00Z</time>
      </trkpt>
      <trkpt lat="43.58488" lon="3.71268">
        <ele>118.6</ele>
        <time>2011-02-06T11:31:01Z</time>
      </trkpt>
      <trkpt lat="43.58482" lon="3.71275">
        <ele>118.3</ele>
        <time>2011-02-06T11:31:03Z</time>
      </trkpt>
      <trkpt lat="43.58475" lon="3.71279">
        <ele>118.6</ele>
        <time>2011-02-06T11:31:06Z</time>
      </trkpt>
      <trkpt lat="43.58467" lon="3.71278">
        <ele>118.9</ele>
        <time>2011-02-06T11:31:11Z</time>
      </trkpt>
      <trkpt lat="43.58459" lon="3.71281">
        <ele>117.5</ele>
        <time>2011-02-06T11:31:14Z</time>
      </trkpt>
      <trkpt lat="43.58453" lon="3.71283">
        <ele>117.3</ele>
        <time>2011-02-06T11:31:16Z</time>
      </trkpt>
      <trkpt lat="43.58447" lon="3.71286">
        <ele>117.4</ele>
        <time>2011-02-06T11:31:18Z</time>
      </trkpt>
      <trkpt lat="43.58439" lon="3.71287">
        <ele>117.6</ele>
        <time>2011-02-06T11:31:20Z</time>
      </trkpt>
      <trkpt lat="43.58435" lon="3.71288">
        <ele>117.7</ele>
        <time>2011-02-06T11:31:21Z</time>
      </trkpt>
      <trkpt lat="43.5843" lon="3.71287">
        <ele>117.1</ele>
        <time>2011-02-06T11:31:22Z</time>
      </trkpt>
      <trkpt lat="43.58425" lon="3.71287">
        <ele>116.6</ele>
        <time>2011-02-06T11:31:23Z</time>
      </trkpt>
      <trkpt lat="43.5842" lon="3.71288">
        <ele>116.3</ele>
        <time>2011-02-06T11:31:24Z</time>
      </trkpt>
      <trkpt lat="43.58415" lon="3.71288">
        <ele>116.1</ele>
        <time>2011-02-06T11:31:25Z</time>
      </trkpt>
      <trkpt lat="43.5841" lon="3.71289">
        <ele>115.9</ele>
        <time>2011-02-06T11:31:26Z</time>
      </trkpt>
      <trkpt lat="43.58405" lon="3.7129">
        <ele>115.8</ele>
        <time>2011-02-06T11:31:27Z</time>
      </trkpt>
      <trkpt lat="43.58399" lon="3.71291">
        <ele>115.5</ele>
        <time>2011-02-06T11:31:28Z</time>
      </trkpt>
      <trkpt lat="43.58394" lon="3.71291">
        <ele>115.3</ele>
        <time>2011-02-06T11:31:29Z</time>
      </trkpt>
      <trkpt lat="43.58389" lon="3.71292">
        <ele>115.2</ele>
        <time>2011-02-06T11:31:30Z</time>
      </trkpt>
      <trkpt lat="43.58383" lon="3.71293">
        <ele>115.1</ele>
        <time>2011-02-06T11:31:31Z</time>
      </trkpt>
      <trkpt lat="43.58378" lon="3.71294">
        <ele>115</ele>
        <time>2011-02-06T11:31:32Z</time>
      </trkpt>
      <trkpt lat="43.58372" lon="3.71294">
        <ele>114.9</ele>
        <time>2011-02-06T11:31:33Z</time>
      </trkpt>
      <trkpt lat="43.58367" lon="3.71295">
        <ele>114.8</ele>
        <time>2011-02-06T11:31:34Z</time>
      </trkpt>
      <trkpt lat="43.58361" lon="3.71297">
        <ele>114.7</ele>
        <time>2011-02-06T11:31:35Z</time>
      </trkpt>
      <trkpt lat="43.58357" lon="3.713">
        <ele>114.7</ele>
        <time>2011-02-06T11:31:36Z</time>
      </trkpt>
      <trkpt lat="43.58353" lon="3.71306">
        <ele>114.4</ele>
        <time>2011-02-06T11:31:37Z</time>
      </trkpt>
      <trkpt lat="43.58351" lon="3.71313">
        <ele>114.2</ele>
        <time>2011-02-06T11:31:38Z</time>
      </trkpt>
      <trkpt lat="43.58349" lon="3.7132">
        <ele>114.1</ele>
        <time>2011-02-06T11:31:39Z</time>
      </trkpt>
      <trkpt lat="43.58347" lon="3.71327">
        <ele>114</ele>
        <time>2011-02-06T11:31:40Z</time>
      </trkpt>
      <trkpt lat="43.58345" lon="3.71334">
        <ele>113.5</ele>
        <time>2011-02-06T11:31:41Z</time>
      </trkpt>
      <trkpt lat="43.58342" lon="3.7134">
        <ele>113.1</ele>
        <time>2011-02-06T11:31:42Z</time>
      </trkpt>
      <trkpt lat="43.5834" lon="3.71347">
        <ele>112.8</ele>
        <time>2011-02-06T11:31:43Z</time>
      </trkpt>
      <trkpt lat="43.58337" lon="3.71354">
        <ele>113.1</ele>
        <time>2011-02-06T11:31:44Z</time>
      </trkpt>
      <trkpt lat="43.58335" lon="3.71361">
        <ele>113.3</ele>
        <time>2011-02-06T11:31:45Z</time>
      </trkpt>
      <trkpt lat="43.58333" lon="3.71368">
        <ele>113.4</ele>
        <time>2011-02-06T11:31:46Z</time>
      </trkpt>
      <trkpt lat="43.5833" lon="3.71374">
        <ele>113.3</ele>
        <time>2011-02-06T11:31:47Z</time>
      </trkpt>
      <trkpt lat="43.58328" lon="3.71381">
        <ele>113.1</ele>
        <time>2011-02-06T11:31:48Z</time>
      </trkpt>
      <trkpt lat="43.58326" lon="3.71388">
        <ele>113</ele>
        <time>2011-02-06T11:31:49Z</time>
      </trkpt>
      <trkpt lat="43.58324" lon="3.71394">
        <ele>113.2</ele>
        <time>2011-02-06T11:31:50Z</time>
      </trkpt>
      <trkpt lat="43.58322" lon="3.71401">
        <ele>113.4</ele>
        <time>2011-02-06T11:31:51Z</time>
      </trkpt>
      <trkpt lat="43.58321" lon="3.71408">
        <ele>113.5</ele>
        <time>2011-02-06T11:31:52Z</time>
      </trkpt>
      <trkpt lat="43.5832" lon="3.71415">
        <ele>112.9</ele>
        <time>2011-02-06T11:31:53Z</time>
      </trkpt>
      <trkpt lat="43.58318" lon="3.71422">
        <ele>112.5</ele>
        <time>2011-02-06T11:31:54Z</time>
      </trkpt>
      <trkpt lat="43.58316" lon="3.71429">
        <ele>112.2</ele>
        <time>2011-02-06T11:31:55Z</time>
      </trkpt>
      <trkpt lat="43.58314" lon="3.71436">
        <ele>111.9</ele>
        <time>2011-02-06T11:31:56Z</time>
      </trkpt>
      <trkpt lat="43.58313" lon="3.71444">
        <ele>111.9</ele>
        <time>2011-02-06T11:31:57Z</time>
      </trkpt>
      <trkpt lat="43.5831" lon="3.71451">
        <ele>112</ele>
        <time>2011-02-06T11:31:58Z</time>
      </trkpt>
      <trkpt lat="43.58308" lon="3.71458">
        <ele>112</ele>
        <time>2011-02-06T11:31:59Z</time>
      </trkpt>
      <trkpt lat="43.58304" lon="3.71465">
        <ele>112</ele>
        <time>2011-02-06T11:32:00Z</time>
      </trkpt>
      <trkpt lat="43.58301" lon="3.71471">
        <ele>112.1</ele>
        <time>2011-02-06T11:32:01Z</time>
      </trkpt>
      <trkpt lat="43.58298" lon="3.71477">
        <ele>112.1</ele>
        <time>2011-02-06T11:32:02Z</time>
      </trkpt>
      <trkpt lat="43.58295" lon="3.71484">
        <ele>112.1</ele>
        <time>2011-02-06T11:32:03Z</time>
      </trkpt>
      <trkpt lat="43.58292" lon="3.71492">
        <ele>112.2</ele>
        <time>2011-02-06T11:32:04Z</time>
      </trkpt>
      <trkpt lat="43.5829" lon="3.71499">
        <ele>112.2</ele>
        <time>2011-02-06T11:32:05Z</time>
      </trkpt>
      <trkpt lat="43.58287" lon="3.71506">
        <ele>112</ele>
        <time>2011-02-06T11:32:06Z</time>
      </trkpt>
      <trkpt lat="43.58284" lon="3.71512">
        <ele>111.9</ele>
        <time>2011-02-06T11:32:07Z</time>
      </trkpt>
      <trkpt lat="43.58281" lon="3.71518">
        <ele>111.9</ele>
        <time>2011-02-06T11:32:08Z</time>
      </trkpt>
      <trkpt lat="43.58278" lon="3.71525">
        <ele>111.9</ele>
        <time>2011-02-06T11:32:09Z</time>
      </trkpt>
      <trkpt lat="43.58275" lon="3.71531">
        <ele>111.9</ele>
        <time>2011-02-06T11:32:10Z</time>
      </trkpt>
      <trkpt lat="43.58272" lon="3.71537">
        <ele>111.9</ele>
        <time>2011-02-06T11:32:11Z</time>
      </trkpt>
      <trkpt lat="43.5827" lon="3.71542">
        <ele>111.9</ele>
        <time>2011-02-06T11:32:12Z</time>
      </trkpt>
      <trkpt lat="43.58268" lon="3.71548">
        <ele>111.3</ele>
        <time>2011-02-06T11:32:13Z</time>
      </trkpt>
      <trkpt lat="43.58265" lon="3.7156">
        <ele>110.5</ele>
        <time>2011-02-06T11:32:15Z</time>
      </trkpt>
      <trkpt lat="43.58262" lon="3.71571">
        <ele>110.9</ele>
        <time>2011-02-06T11:32:17Z</time>
      </trkpt>
      <trkpt lat="43.58259" lon="3.71577">
        <ele>111.1</ele>
        <time>2011-02-06T11:32:18Z</time>
      </trkpt>
      <trkpt lat="43.58256" lon="3.71581">
        <ele>111.4</ele>
        <time>2011-02-06T11:32:19Z</time>
      </trkpt>
      <trkpt lat="43.58253" lon="3.71586">
        <ele>111.6</ele>
        <time>2011-02-06T11:32:20Z</time>
      </trkpt>
      <trkpt lat="43.58249" lon="3.71591">
        <ele>111.8</ele>
        <time>2011-02-06T11:32:21Z</time>
      </trkpt>
      <trkpt lat="43.58246" lon="3.71596">
        <ele>111.4</ele>
        <time>2011-02-06T11:32:22Z</time>
      </trkpt>
      <trkpt lat="43.58243" lon="3.71601">
        <ele>111.1</ele>
        <time>2011-02-06T11:32:23Z</time>
      </trkpt>
      <trkpt lat="43.58239" lon="3.71606">
        <ele>110.9</ele>
        <time>2011-02-06T11:32:24Z</time>
      </trkpt>
      <trkpt lat="43.58236" lon="3.71611">
        <ele>111</ele>
        <time>2011-02-06T11:32:25Z</time>
      </trkpt>
      <trkpt lat="43.58233" lon="3.71616">
        <ele>111.1</ele>
        <time>2011-02-06T11:32:26Z</time>
      </trkpt>
      <trkpt lat="43.58229" lon="3.71621">
        <ele>111.1</ele>
        <time>2011-02-06T11:32:27Z</time>
      </trkpt>
      <trkpt lat="43.58225" lon="3.71625">
        <ele>111.2</ele>
        <time>2011-02-06T11:32:28Z</time>
      </trkpt>
      <trkpt lat="43.58222" lon="3.7163">
        <ele>111</ele>
        <time>2011-02-06T11:32:29Z</time>
      </trkpt>
      <trkpt lat="43.58218" lon="3.71635">
        <ele>110.8</ele>
        <time>2011-02-06T11:32:30Z</time>
      </trkpt>
      <trkpt lat="43.58214" lon="3.71639">
        <ele>110.6</ele>
        <time>2011-02-06T11:32:31Z</time>
      </trkpt>
      <trkpt lat="43.58211" lon="3.71645">
        <ele>110.5</ele>
        <time>2011-02-06T11:32:32Z</time>
      </trkpt>
      <trkpt lat="43.58208" lon="3.7165">
        <ele>110.4</ele>
        <time>2011-02-06T11:32:33Z</time>
      </trkpt>
      <trkpt lat="43.58205" lon="3.71656">
        <ele>110.4</ele>
        <time>2011-02-06T11:32:34Z</time>
      </trkpt>
      <trkpt lat="43.58201" lon="3.71661">
        <ele>110.3</ele>
        <time>2011-02-06T11:32:35Z</time>
      </trkpt>
      <trkpt lat="43.58197" lon="3.71666">
        <ele>110.3</ele>
        <time>2011-02-06T11:32:36Z</time>
      </trkpt>
      <trkpt lat="43.58194" lon="3.71671">
        <ele>110.3</ele>
        <time>2011-02-06T11:32:37Z</time>
      </trkpt>
      <trkpt lat="43.5819" lon="3.71675">
        <ele>110.6</ele>
        <time>2011-02-06T11:32:38Z</time>
      </trkpt>
      <trkpt lat="43.58187" lon="3.7168">
        <ele>110.8</ele>
        <time>2011-02-06T11:32:39Z</time>
      </trkpt>
      <trkpt lat="43.58182" lon="3.7169">
        <ele>110.8</ele>
        <time>2011-02-06T11:32:41Z</time>
      </trkpt>
      <trkpt lat="43.58177" lon="3.717">
        <ele>110.5</ele>
        <time>2011-02-06T11:32:43Z</time>
      </trkpt>
      <trkpt lat="43.58173" lon="3.7171">
        <ele>111.1</ele>
        <time>2011-02-06T11:32:45Z</time>
      </trkpt>
      <trkpt lat="43.58172" lon="3.71715">
        <ele>111.3</ele>
        <time>2011-02-06T11:32:46Z</time>
      </trkpt>
      <trkpt lat="43.58165" lon="3.71728">
        <ele>111.1</ele>
        <time>2011-02-06T11:32:49Z</time>
      </trkpt>
      <trkpt lat="43.5816" lon="3.71735">
        <ele>111.3</ele>
        <time>2011-02-06T11:32:51Z</time>
      </trkpt>
      <trkpt lat="43.58155" lon="3.71743">
        <ele>111.5</ele>
        <time>2011-02-06T11:32:53Z</time>
      </trkpt>
      <trkpt lat="43.58151" lon="3.71751">
        <ele>112.3</ele>
        <time>2011-02-06T11:32:55Z</time>
      </trkpt>
      <trkpt lat="43.58149" lon="3.71759">
        <ele>112.6</ele>
        <time>2011-02-06T11:32:57Z</time>
      </trkpt>
      <trkpt lat="43.58146" lon="3.71766">
        <ele>112.7</ele>
        <time>2011-02-06T11:32:59Z</time>
      </trkpt>
      <trkpt lat="43.58142" lon="3.71773">
        <ele>113.6</ele>
        <time>2011-02-06T11:33:01Z</time>
      </trkpt>
      <trkpt lat="43.58135" lon="3.7178">
        <ele>114</ele>
        <time>2011-02-06T11:33:04Z</time>
      </trkpt>
      <trkpt lat="43.58131" lon="3.71789">
        <ele>114.6</ele>
        <time>2011-02-06T11:33:07Z</time>
      </trkpt>
      <trkpt lat="43.58126" lon="3.71797">
        <ele>116</ele>
        <time>2011-02-06T11:33:10Z</time>
      </trkpt>
      <trkpt lat="43.58123" lon="3.71805">
        <ele>116.5</ele>
        <time>2011-02-06T11:33:13Z</time>
      </trkpt>
      <trkpt lat="43.5812" lon="3.71815">
        <ele>117.5</ele>
        <time>2011-02-06T11:33:16Z</time>
      </trkpt>
      <trkpt lat="43.58115" lon="3.71825">
        <ele>118.7</ele>
        <time>2011-02-06T11:33:20Z</time>
      </trkpt>
      <trkpt lat="43.58111" lon="3.71834">
        <ele>118.8</ele>
        <time>2011-02-06T11:33:23Z</time>
      </trkpt>
      <trkpt lat="43.58106" lon="3.71843">
        <ele>118.6</ele>
        <time>2011-02-06T11:33:26Z</time>
      </trkpt>
      <trkpt lat="43.58099" lon="3.71852">
        <ele>119.2</ele>
        <time>2011-02-06T11:33:29Z</time>
      </trkpt>
      <trkpt lat="43.58094" lon="3.71861">
        <ele>119.4</ele>
        <time>2011-02-06T11:33:32Z</time>
      </trkpt>
      <trkpt lat="43.58089" lon="3.71871">
        <ele>119.4</ele>
        <time>2011-02-06T11:33:35Z</time>
      </trkpt>
      <trkpt lat="43.58086" lon="3.71882">
        <ele>119.6</ele>
        <time>2011-02-06T11:33:38Z</time>
      </trkpt>
      <trkpt lat="43.58081" lon="3.71892">
        <ele>120.5</ele>
        <time>2011-02-06T11:33:41Z</time>
      </trkpt>
      <trkpt lat="43.58076" lon="3.71902">
        <ele>121.1</ele>
        <time>2011-02-06T11:33:44Z</time>
      </trkpt>
      <trkpt lat="43.58073" lon="3.71912">
        <ele>120.4</ele>
        <time>2011-02-06T11:33:47Z</time>
      </trkpt>
      <trkpt lat="43.58072" lon="3.71916">
        <ele>120.2</ele>
        <time>2011-02-06T11:33:48Z</time>
      </trkpt>
      <trkpt lat="43.58067" lon="3.71929">
        <ele>119.8</ele>
        <time>2011-02-06T11:33:51Z</time>
      </trkpt>
      <trkpt lat="43.58064" lon="3.71939">
        <ele>120.2</ele>
        <time>2011-02-06T11:33:53Z</time>
      </trkpt>
      <trkpt lat="43.5806" lon="3.71949">
        <ele>120.1</ele>
        <time>2011-02-06T11:33:55Z</time>
      </trkpt>
      <trkpt lat="43.58057" lon="3.71959">
        <ele>119.7</ele>
        <time>2011-02-06T11:33:57Z</time>
      </trkpt>
      <trkpt lat="43.58054" lon="3.7197">
        <ele>119.8</ele>
        <time>2011-02-06T11:33:59Z</time>
      </trkpt>
      <trkpt lat="43.5805" lon="3.71981">
        <ele>119.5</ele>
        <time>2011-02-06T11:34:01Z</time>
      </trkpt>
      <trkpt lat="43.58045" lon="3.71991">
        <ele>119.1</ele>
        <time>2011-02-06T11:34:03Z</time>
      </trkpt>
      <trkpt lat="43.58041" lon="3.71996">
        <ele>118.9</ele>
        <time>2011-02-06T11:34:04Z</time>
      </trkpt>
      <trkpt lat="43.58038" lon="3.72">
        <ele>118.8</ele>
        <time>2011-02-06T11:34:05Z</time>
      </trkpt>
      <trkpt lat="43.58033" lon="3.7201">
        <ele>119</ele>
        <time>2011-02-06T11:34:07Z</time>
      </trkpt>
      <trkpt lat="43.5803" lon="3.72015">
        <ele>119.1</ele>
        <time>2011-02-06T11:34:08Z</time>
      </trkpt>
      <trkpt lat="43.58025" lon="3.72025">
        <ele>119.3</ele>
        <time>2011-02-06T11:34:10Z</time>
      </trkpt>
      <trkpt lat="43.5802" lon="3.72036">
        <ele>118.5</ele>
        <time>2011-02-06T11:34:12Z</time>
      </trkpt>
      <trkpt lat="43.58017" lon="3.72047">
        <ele>118.2</ele>
        <time>2011-02-06T11:34:14Z</time>
      </trkpt>
      <trkpt lat="43.58016" lon="3.72058">
        <ele>118.2</ele>
        <time>2011-02-06T11:34:16Z</time>
      </trkpt>
      <trkpt lat="43.58015" lon="3.7207">
        <ele>117.2</ele>
        <time>2011-02-06T11:34:18Z</time>
      </trkpt>
      <trkpt lat="43.58011" lon="3.72079">
        <ele>116.6</ele>
        <time>2011-02-06T11:34:20Z</time>
      </trkpt>
      <trkpt lat="43.58003" lon="3.72085">
        <ele>116.3</ele>
        <time>2011-02-06T11:34:22Z</time>
      </trkpt>
      <trkpt lat="43.57999" lon="3.72088">
        <ele>116.2</ele>
        <time>2011-02-06T11:34:23Z</time>
      </trkpt>
      <trkpt lat="43.57995" lon="3.72092">
        <ele>116.2</ele>
        <time>2011-02-06T11:34:24Z</time>
      </trkpt>
      <trkpt lat="43.57992" lon="3.72097">
        <ele>116.1</ele>
        <time>2011-02-06T11:34:25Z</time>
      </trkpt>
      <trkpt lat="43.57989" lon="3.72103">
        <ele>116.1</ele>
        <time>2011-02-06T11:34:26Z</time>
      </trkpt>
      <trkpt lat="43.57987" lon="3.72109">
        <ele>115.7</ele>
        <time>2011-02-06T11:34:27Z</time>
      </trkpt>
      <trkpt lat="43.57985" lon="3.72115">
        <ele>115.4</ele>
        <time>2011-02-06T11:34:28Z</time>
      </trkpt>
      <trkpt lat="43.57983" lon="3.72121">
        <ele>115.1</ele>
        <time>2011-02-06T11:34:29Z</time>
      </trkpt>
      <trkpt lat="43.57981" lon="3.72127">
        <ele>114.8</ele>
        <time>2011-02-06T11:34:30Z</time>
      </trkpt>
      <trkpt lat="43.57979" lon="3.72133">
        <ele>114.5</ele>
        <time>2011-02-06T11:34:31Z</time>
      </trkpt>
      <trkpt lat="43.57978" lon="3.72139">
        <ele>114.3</ele>
        <time>2011-02-06T11:34:32Z</time>
      </trkpt>
      <trkpt lat="43.57977" lon="3.72146">
        <ele>114.6</ele>
        <time>2011-02-06T11:34:33Z</time>
      </trkpt>
      <trkpt lat="43.57974" lon="3.72152">
        <ele>114.8</ele>
        <time>2011-02-06T11:34:34Z</time>
      </trkpt>
      <trkpt lat="43.57971" lon="3.72158">
        <ele>115</ele>
        <time>2011-02-06T11:34:35Z</time>
      </trkpt>
      <trkpt lat="43.57966" lon="3.72162">
        <ele>114.3</ele>
        <time>2011-02-06T11:34:36Z</time>
      </trkpt>
      <trkpt lat="43.57961" lon="3.72165">
        <ele>113.8</ele>
        <time>2011-02-06T11:34:37Z</time>
      </trkpt>
      <trkpt lat="43.57956" lon="3.7217">
        <ele>113.4</ele>
        <time>2011-02-06T11:34:38Z</time>
      </trkpt>
      <trkpt lat="43.57954" lon="3.72178">
        <ele>112.9</ele>
        <time>2011-02-06T11:34:39Z</time>
      </trkpt>
      <trkpt lat="43.57955" lon="3.72185">
        <ele>112.6</ele>
        <time>2011-02-06T11:34:40Z</time>
      </trkpt>
      <trkpt lat="43.57957" lon="3.72191">
        <ele>112.4</ele>
        <time>2011-02-06T11:34:41Z</time>
      </trkpt>
      <trkpt lat="43.57958" lon="3.72198">
        <ele>112.2</ele>
        <time>2011-02-06T11:34:42Z</time>
      </trkpt>
      <trkpt lat="43.57959" lon="3.72206">
        <ele>112.3</ele>
        <time>2011-02-06T11:34:43Z</time>
      </trkpt>
      <trkpt lat="43.57958" lon="3.72213">
        <ele>112.4</ele>
        <time>2011-02-06T11:34:44Z</time>
      </trkpt>
      <trkpt lat="43.57958" lon="3.72221">
        <ele>112.4</ele>
        <time>2011-02-06T11:34:45Z</time>
      </trkpt>
      <trkpt lat="43.57958" lon="3.72228">
        <ele>112.3</ele>
        <time>2011-02-06T11:34:46Z</time>
      </trkpt>
      <trkpt lat="43.57957" lon="3.72235">
        <ele>112.2</ele>
        <time>2011-02-06T11:34:47Z</time>
      </trkpt>
      <trkpt lat="43.57956" lon="3.72242">
        <ele>112.2</ele>
        <time>2011-02-06T11:34:48Z</time>
      </trkpt>
      <trkpt lat="43.57954" lon="3.72249">
        <ele>112.4</ele>
        <time>2011-02-06T11:34:49Z</time>
      </trkpt>
      <trkpt lat="43.57952" lon="3.72256">
        <ele>112.6</ele>
        <time>2011-02-06T11:34:50Z</time>
      </trkpt>
      <trkpt lat="43.57949" lon="3.72262">
        <ele>112.8</ele>
        <time>2011-02-06T11:34:51Z</time>
      </trkpt>
      <trkpt lat="43.57946" lon="3.72268">
        <ele>112</ele>
        <time>2011-02-06T11:34:52Z</time>
      </trkpt>
      <trkpt lat="43.57943" lon="3.72275">
        <ele>111.5</ele>
        <time>2011-02-06T11:34:53Z</time>
      </trkpt>
      <trkpt lat="43.5794" lon="3.72282">
        <ele>111.1</ele>
        <time>2011-02-06T11:34:54Z</time>
      </trkpt>
      <trkpt lat="43.57938" lon="3.72289">
        <ele>111.2</ele>
        <time>2011-02-06T11:34:55Z</time>
      </trkpt>
      <trkpt lat="43.57936" lon="3.72297">
        <ele>111.3</ele>
        <time>2011-02-06T11:34:56Z</time>
      </trkpt>
      <trkpt lat="43.57935" lon="3.72305">
        <ele>111.3</ele>
        <time>2011-02-06T11:34:57Z</time>
      </trkpt>
      <trkpt lat="43.57934" lon="3.72313">
        <ele>111.4</ele>
        <time>2011-02-06T11:34:58Z</time>
      </trkpt>
      <trkpt lat="43.57932" lon="3.72321">
        <ele>110.9</ele>
        <time>2011-02-06T11:34:59Z</time>
      </trkpt>
      <trkpt lat="43.57929" lon="3.72329">
        <ele>110.6</ele>
        <time>2011-02-06T11:35:00Z</time>
      </trkpt>
      <trkpt lat="43.57926" lon="3.72337">
        <ele>110.4</ele>
        <time>2011-02-06T11:35:01Z</time>
      </trkpt>
      <trkpt lat="43.57923" lon="3.72345">
        <ele>109.8</ele>
        <time>2011-02-06T11:35:02Z</time>
      </trkpt>
      <trkpt lat="43.57919" lon="3.72352">
        <ele>109.4</ele>
        <time>2011-02-06T11:35:03Z</time>
      </trkpt>
      <trkpt lat="43.57914" lon="3.7236">
        <ele>109</ele>
        <time>2011-02-06T11:35:04Z</time>
      </trkpt>
      <trkpt lat="43.5791" lon="3.72367">
        <ele>108.7</ele>
        <time>2011-02-06T11:35:05Z</time>
      </trkpt>
      <trkpt lat="43.57906" lon="3.72375">
        <ele>108.4</ele>
        <time>2011-02-06T11:35:06Z</time>
      </trkpt>
      <trkpt lat="43.57903" lon="3.72382">
        <ele>108.2</ele>
        <time>2011-02-06T11:35:07Z</time>
      </trkpt>
      <trkpt lat="43.57899" lon="3.7239">
        <ele>107.8</ele>
        <time>2011-02-06T11:35:08Z</time>
      </trkpt>
      <trkpt lat="43.57895" lon="3.72397">
        <ele>107.5</ele>
        <time>2011-02-06T11:35:09Z</time>
      </trkpt>
      <trkpt lat="43.57891" lon="3.72404">
        <ele>107.2</ele>
        <time>2011-02-06T11:35:10Z</time>
      </trkpt>
      <trkpt lat="43.57887" lon="3.72411">
        <ele>106.8</ele>
        <time>2011-02-06T11:35:11Z</time>
      </trkpt>
      <trkpt lat="43.57884" lon="3.72419">
        <ele>106.4</ele>
        <time>2011-02-06T11:35:12Z</time>
      </trkpt>
      <trkpt lat="43.57881" lon="3.72427">
        <ele>106.1</ele>
        <time>2011-02-06T11:35:13Z</time>
      </trkpt>
      <trkpt lat="43.57877" lon="3.72434">
        <ele>105.9</ele>
        <time>2011-02-06T11:35:14Z</time>
      </trkpt>
      <trkpt lat="43.57874" lon="3.72441">
        <ele>105.9</ele>
        <time>2011-02-06T11:35:15Z</time>
      </trkpt>
      <trkpt lat="43.57871" lon="3.72447">
        <ele>105.9</ele>
        <time>2011-02-06T11:35:16Z</time>
      </trkpt>
      <trkpt lat="43.57868" lon="3.72454">
        <ele>105.9</ele>
        <time>2011-02-06T11:35:17Z</time>
      </trkpt>
      <trkpt lat="43.57865" lon="3.72461">
        <ele>105.8</ele>
        <time>2011-02-06T11:35:18Z</time>
      </trkpt>
      <trkpt lat="43.57863" lon="3.72469">
        <ele>105.6</ele>
        <time>2011-02-06T11:35:19Z</time>
      </trkpt>
      <trkpt lat="43.57861" lon="3.72477">
        <ele>105.5</ele>
        <time>2011-02-06T11:35:20Z</time>
      </trkpt>
      <trkpt lat="43.5786" lon="3.72485">
        <ele>105.2</ele>
        <time>2011-02-06T11:35:21Z</time>
      </trkpt>
      <trkpt lat="43.5786" lon="3.72493">
        <ele>104.9</ele>
        <time>2011-02-06T11:35:22Z</time>
      </trkpt>
      <trkpt lat="43.5786" lon="3.72501">
        <ele>104.8</ele>
        <time>2011-02-06T11:35:23Z</time>
      </trkpt>
      <trkpt lat="43.5786" lon="3.7251">
        <ele>105.1</ele>
        <time>2011-02-06T11:35:24Z</time>
      </trkpt>
      <trkpt lat="43.5786" lon="3.72518">
        <ele>105.4</ele>
        <time>2011-02-06T11:35:25Z</time>
      </trkpt>
      <trkpt lat="43.5786" lon="3.72526">
        <ele>105.7</ele>
        <time>2011-02-06T11:35:26Z</time>
      </trkpt>
      <trkpt lat="43.57859" lon="3.72535">
        <ele>105.3</ele>
        <time>2011-02-06T11:35:27Z</time>
      </trkpt>
      <trkpt lat="43.57857" lon="3.72542">
        <ele>105.1</ele>
        <time>2011-02-06T11:35:28Z</time>
      </trkpt>
      <trkpt lat="43.57855" lon="3.7255">
        <ele>104.9</ele>
        <time>2011-02-06T11:35:29Z</time>
      </trkpt>
      <trkpt lat="43.57854" lon="3.72558">
        <ele>104.7</ele>
        <time>2011-02-06T11:35:30Z</time>
      </trkpt>
      <trkpt lat="43.57853" lon="3.72567">
        <ele>104.6</ele>
        <time>2011-02-06T11:35:31Z</time>
      </trkpt>
      <trkpt lat="43.57852" lon="3.72575">
        <ele>104.6</ele>
        <time>2011-02-06T11:35:32Z</time>
      </trkpt>
      <trkpt lat="43.57853" lon="3.72583">
        <ele>104.5</ele>
        <time>2011-02-06T11:35:33Z</time>
      </trkpt>
      <trkpt lat="43.57853" lon="3.72592">
        <ele>104.3</ele>
        <time>2011-02-06T11:35:34Z</time>
      </trkpt>
      <trkpt lat="43.57853" lon="3.726">
        <ele>104.1</ele>
        <time>2011-02-06T11:35:35Z</time>
      </trkpt>
      <trkpt lat="43.57853" lon="3.72608">
        <ele>103.9</ele>
        <time>2011-02-06T11:35:36Z</time>
      </trkpt>
      <trkpt lat="43.57853" lon="3.72617">
        <ele>103.4</ele>
        <time>2011-02-06T11:35:37Z</time>
      </trkpt>
      <trkpt lat="43.57851" lon="3.72626">
        <ele>103</ele>
        <time>2011-02-06T11:35:38Z</time>
      </trkpt>
      <trkpt lat="43.57849" lon="3.72635">
        <ele>102.7</ele>
        <time>2011-02-06T11:35:39Z</time>
      </trkpt>
      <trkpt lat="43.57848" lon="3.72644">
        <ele>102.5</ele>
        <time>2011-02-06T11:35:40Z</time>
      </trkpt>
      <trkpt lat="43.57846" lon="3.72653">
        <ele>102.3</ele>
        <time>2011-02-06T11:35:41Z</time>
      </trkpt>
      <trkpt lat="43.57845" lon="3.72662">
        <ele>102.2</ele>
        <time>2011-02-06T11:35:42Z</time>
      </trkpt>
      <trkpt lat="43.57843" lon="3.72671">
        <ele>102</ele>
        <time>2011-02-06T11:35:43Z</time>
      </trkpt>
      <trkpt lat="43.57842" lon="3.7268">
        <ele>101.8</ele>
        <time>2011-02-06T11:35:44Z</time>
      </trkpt>
      <trkpt lat="43.57842" lon="3.72689">
        <ele>101.7</ele>
        <time>2011-02-06T11:35:45Z</time>
      </trkpt>
      <trkpt lat="43.57842" lon="3.72699">
        <ele>101.3</ele>
        <time>2011-02-06T11:35:46Z</time>
      </trkpt>
      <trkpt lat="43.57842" lon="3.72708">
        <ele>101.1</ele>
        <time>2011-02-06T11:35:47Z</time>
      </trkpt>
      <trkpt lat="43.57842" lon="3.72718">
        <ele>100.9</ele>
        <time>2011-02-06T11:35:48Z</time>
      </trkpt>
      <trkpt lat="43.57841" lon="3.72727">
        <ele>100.7</ele>
        <time>2011-02-06T11:35:49Z</time>
      </trkpt>
      <trkpt lat="43.5784" lon="3.72736">
        <ele>100.5</ele>
        <time>2011-02-06T11:35:50Z</time>
      </trkpt>
      <trkpt lat="43.57839" lon="3.72745">
        <ele>100.3</ele>
        <time>2011-02-06T11:35:51Z</time>
      </trkpt>
      <trkpt lat="43.57838" lon="3.72754">
        <ele>100.2</ele>
        <time>2011-02-06T11:35:52Z</time>
      </trkpt>
      <trkpt lat="43.57836" lon="3.72765">
        <ele>99.4</ele>
        <time>2011-02-06T11:35:54Z</time>
      </trkpt>
      <trkpt lat="43.57832" lon="3.72771">
        <ele>98.7</ele>
        <time>2011-02-06T11:35:57Z</time>
      </trkpt>
      <trkpt lat="43.57828" lon="3.7278">
        <ele>98.5</ele>
        <time>2011-02-06T11:35:59Z</time>
      </trkpt>
      <trkpt lat="43.57825" lon="3.72785">
        <ele>98.5</ele>
        <time>2011-02-06T11:36:00Z</time>
      </trkpt>
      <trkpt lat="43.57823" lon="3.72791">
        <ele>98.5</ele>
        <time>2011-02-06T11:36:01Z</time>
      </trkpt>
      <trkpt lat="43.57822" lon="3.72802">
        <ele>98.1</ele>
        <time>2011-02-06T11:36:03Z</time>
      </trkpt>
      <trkpt lat="43.57823" lon="3.72811">
        <ele>97.9</ele>
        <time>2011-02-06T11:36:06Z</time>
      </trkpt>
      <trkpt lat="43.57823" lon="3.72821">
        <ele>98.4</ele>
        <time>2011-02-06T11:36:09Z</time>
      </trkpt>
      <trkpt lat="43.57821" lon="3.72832">
        <ele>99</ele>
        <time>2011-02-06T11:36:12Z</time>
      </trkpt>
      <trkpt lat="43.57822" lon="3.72843">
        <ele>98.9</ele>
        <time>2011-02-06T11:36:15Z</time>
      </trkpt>
      <trkpt lat="43.57824" lon="3.72854">
        <ele>99.4</ele>
        <time>2011-02-06T11:36:18Z</time>
      </trkpt>
      <trkpt lat="43.57824" lon="3.72865">
        <ele>100.6</ele>
        <time>2011-02-06T11:36:21Z</time>
      </trkpt>
      <trkpt lat="43.57823" lon="3.72876">
        <ele>100.6</ele>
        <time>2011-02-06T11:36:24Z</time>
      </trkpt>
      <trkpt lat="43.57819" lon="3.72887">
        <ele>101.9</ele>
        <time>2011-02-06T11:36:27Z</time>
      </trkpt>
      <trkpt lat="43.57817" lon="3.72895">
        <ele>102.1</ele>
        <time>2011-02-06T11:36:29Z</time>
      </trkpt>
      <trkpt lat="43.57815" lon="3.72903">
        <ele>102.2</ele>
        <time>2011-02-06T11:36:31Z</time>
      </trkpt>
      <trkpt lat="43.57813" lon="3.72912">
        <ele>102.2</ele>
        <time>2011-02-06T11:36:33Z</time>
      </trkpt>
      <trkpt lat="43.57812" lon="3.7292">
        <ele>102.1</ele>
        <time>2011-02-06T11:36:35Z</time>
      </trkpt>
      <trkpt lat="43.5781" lon="3.72929">
        <ele>102</ele>
        <time>2011-02-06T11:36:37Z</time>
      </trkpt>
      <trkpt lat="43.57808" lon="3.72938">
        <ele>102.3</ele>
        <time>2011-02-06T11:36:39Z</time>
      </trkpt>
      <trkpt lat="43.57809" lon="3.72949">
        <ele>102.3</ele>
        <time>2011-02-06T11:36:41Z</time>
      </trkpt>
      <trkpt lat="43.57811" lon="3.7296">
        <ele>102.2</ele>
        <time>2011-02-06T11:36:43Z</time>
      </trkpt>
      <trkpt lat="43.57813" lon="3.72972">
        <ele>102.1</ele>
        <time>2011-02-06T11:36:45Z</time>
      </trkpt>
      <trkpt lat="43.57814" lon="3.72978">
        <ele>102.1</ele>
        <time>2011-02-06T11:36:46Z</time>
      </trkpt>
      <trkpt lat="43.57814" lon="3.72984">
        <ele>102.2</ele>
        <time>2011-02-06T11:36:47Z</time>
      </trkpt>
      <trkpt lat="43.57814" lon="3.7299">
        <ele>102.2</ele>
        <time>2011-02-06T11:36:48Z</time>
      </trkpt>
      <trkpt lat="43.57815" lon="3.72997">
        <ele>102.3</ele>
        <time>2011-02-06T11:36:49Z</time>
      </trkpt>
      <trkpt lat="43.57816" lon="3.73003">
        <ele>102.4</ele>
        <time>2011-02-06T11:36:50Z</time>
      </trkpt>
      <trkpt lat="43.57818" lon="3.73009">
        <ele>102.5</ele>
        <time>2011-02-06T11:36:51Z</time>
      </trkpt>
      <trkpt lat="43.57819" lon="3.73016">
        <ele>102.6</ele>
        <time>2011-02-06T11:36:52Z</time>
      </trkpt>
      <trkpt lat="43.5782" lon="3.73022">
        <ele>102.2</ele>
        <time>2011-02-06T11:36:53Z</time>
      </trkpt>
      <trkpt lat="43.57821" lon="3.73029">
        <ele>102</ele>
        <time>2011-02-06T11:36:54Z</time>
      </trkpt>
      <trkpt lat="43.57822" lon="3.73036">
        <ele>101.8</ele>
        <time>2011-02-06T11:36:55Z</time>
      </trkpt>
      <trkpt lat="43.57823" lon="3.73042">
        <ele>101.6</ele>
        <time>2011-02-06T11:36:56Z</time>
      </trkpt>
      <trkpt lat="43.57824" lon="3.73049">
        <ele>102.2</ele>
        <time>2011-02-06T11:36:57Z</time>
      </trkpt>
      <trkpt lat="43.57825" lon="3.73056">
        <ele>102.6</ele>
        <time>2011-02-06T11:36:58Z</time>
      </trkpt>
      <trkpt lat="43.57826" lon="3.73063">
        <ele>102.9</ele>
        <time>2011-02-06T11:36:59Z</time>
      </trkpt>
      <trkpt lat="43.57827" lon="3.73069">
        <ele>102.8</ele>
        <time>2011-02-06T11:37:00Z</time>
      </trkpt>
      <trkpt lat="43.57828" lon="3.73076">
        <ele>102.7</ele>
        <time>2011-02-06T11:37:01Z</time>
      </trkpt>
      <trkpt lat="43.57828" lon="3.73082">
        <ele>102.7</ele>
        <time>2011-02-06T11:37:02Z</time>
      </trkpt>
      <trkpt lat="43.57828" lon="3.73088">
        <ele>102.7</ele>
        <time>2011-02-06T11:37:03Z</time>
      </trkpt>
      <trkpt lat="43.57826" lon="3.73095">
        <ele>102.7</ele>
        <time>2011-02-06T11:37:04Z</time>
      </trkpt>
      <trkpt lat="43.57824" lon="3.73101">
        <ele>102.8</ele>
        <time>2011-02-06T11:37:05Z</time>
      </trkpt>
      <trkpt lat="43.57822" lon="3.73107">
        <ele>102.9</ele>
        <time>2011-02-06T11:37:06Z</time>
      </trkpt>
      <trkpt lat="43.57819" lon="3.73112">
        <ele>103</ele>
        <time>2011-02-06T11:37:07Z</time>
      </trkpt>
      <trkpt lat="43.57816" lon="3.73118">
        <ele>103.1</ele>
        <time>2011-02-06T11:37:08Z</time>
      </trkpt>
      <trkpt lat="43.57813" lon="3.73123">
        <ele>102.8</ele>
        <time>2011-02-06T11:37:09Z</time>
      </trkpt>
      <trkpt lat="43.5781" lon="3.73128">
        <ele>102.6</ele>
        <time>2011-02-06T11:37:10Z</time>
      </trkpt>
      <trkpt lat="43.57805" lon="3.73138">
        <ele>102.3</ele>
        <time>2011-02-06T11:37:12Z</time>
      </trkpt>
      <trkpt lat="43.57801" lon="3.73148">
        <ele>102.4</ele>
        <time>2011-02-06T11:37:15Z</time>
      </trkpt>
      <trkpt lat="43.57797" lon="3.73156">
        <ele>103.3</ele>
        <time>2011-02-06T11:37:18Z</time>
      </trkpt>
      <trkpt lat="43.57793" lon="3.73165">
        <ele>104.3</ele>
        <time>2011-02-06T11:37:21Z</time>
      </trkpt>
      <trkpt lat="43.57789" lon="3.73176">
        <ele>104.2</ele>
        <time>2011-02-06T11:37:24Z</time>
      </trkpt>
      <trkpt lat="43.57784" lon="3.73186">
        <ele>104.8</ele>
        <time>2011-02-06T11:37:27Z</time>
      </trkpt>
      <trkpt lat="43.57778" lon="3.73195">
        <ele>104.6</ele>
        <time>2011-02-06T11:37:30Z</time>
      </trkpt>
      <trkpt lat="43.57772" lon="3.732">
        <ele>105.2</ele>
        <time>2011-02-06T11:37:33Z</time>
      </trkpt>
      <trkpt lat="43.57766" lon="3.73206">
        <ele>106.2</ele>
        <time>2011-02-06T11:37:36Z</time>
      </trkpt>
      <trkpt lat="43.5776" lon="3.73213">
        <ele>106.5</ele>
        <time>2011-02-06T11:37:39Z</time>
      </trkpt>
      <trkpt lat="43.57755" lon="3.7322">
        <ele>106.3</ele>
        <time>2011-02-06T11:37:42Z</time>
      </trkpt>
      <trkpt lat="43.57748" lon="3.73228">
        <ele>106.7</ele>
        <time>2011-02-06T11:37:46Z</time>
      </trkpt>
      <trkpt lat="43.57741" lon="3.73235">
        <ele>107.7</ele>
        <time>2011-02-06T11:38:06Z</time>
      </trkpt>
      <trkpt lat="43.5774" lon="3.73237">
        <ele>107.6</ele>
        <time>2011-02-06T11:38:07Z</time>
      </trkpt>
      <trkpt lat="43.57728" lon="3.73249">
        <ele>107.4</ele>
        <time>2011-02-06T11:38:13Z</time>
      </trkpt>
      <trkpt lat="43.57722" lon="3.73257">
        <ele>107.5</ele>
        <time>2011-02-06T11:38:16Z</time>
      </trkpt>
      <trkpt lat="43.57716" lon="3.73265">
        <ele>107.8</ele>
        <time>2011-02-06T11:38:19Z</time>
      </trkpt>
      <trkpt lat="43.57711" lon="3.73274">
        <ele>107.6</ele>
        <time>2011-02-06T11:38:22Z</time>
      </trkpt>
      <trkpt lat="43.57707" lon="3.73281">
        <ele>108</ele>
        <time>2011-02-06T11:38:24Z</time>
      </trkpt>
      <trkpt lat="43.57703" lon="3.73287">
        <ele>108.4</ele>
        <time>2011-02-06T11:38:26Z</time>
      </trkpt>
      <trkpt lat="43.57699" lon="3.73294">
        <ele>108.6</ele>
        <time>2011-02-06T11:38:28Z</time>
      </trkpt>
      <trkpt lat="43.57694" lon="3.73301">
        <ele>109.4</ele>
        <time>2011-02-06T11:38:30Z</time>
      </trkpt>
      <trkpt lat="43.57689" lon="3.73308">
        <ele>109.4</ele>
        <time>2011-02-06T11:38:32Z</time>
      </trkpt>
      <trkpt lat="43.57685" lon="3.73317">
        <ele>109.2</ele>
        <time>2011-02-06T11:38:34Z</time>
      </trkpt>
      <trkpt lat="43.57683" lon="3.73327">
        <ele>108.6</ele>
        <time>2011-02-06T11:38:36Z</time>
      </trkpt>
      <trkpt lat="43.57684" lon="3.73338">
        <ele>107.9</ele>
        <time>2011-02-06T11:38:38Z</time>
      </trkpt>
      <trkpt lat="43.57687" lon="3.73349">
        <ele>108.8</ele>
        <time>2011-02-06T11:38:40Z</time>
      </trkpt>
      <trkpt lat="43.57689" lon="3.7336">
        <ele>108.9</ele>
        <time>2011-02-06T11:38:42Z</time>
      </trkpt>
      <trkpt lat="43.57693" lon="3.73371">
        <ele>108.7</ele>
        <time>2011-02-06T11:38:44Z</time>
      </trkpt>
      <trkpt lat="43.57696" lon="3.73382">
        <ele>108</ele>
        <time>2011-02-06T11:38:46Z</time>
      </trkpt>
      <trkpt lat="43.57698" lon="3.73392">
        <ele>107.8</ele>
        <time>2011-02-06T11:38:48Z</time>
      </trkpt>
      <trkpt lat="43.57697" lon="3.73402">
        <ele>107.8</ele>
        <time>2011-02-06T11:38:50Z</time>
      </trkpt>
      <trkpt lat="43.57695" lon="3.73413">
        <ele>107.5</ele>
        <time>2011-02-06T11:38:52Z</time>
      </trkpt>
      <trkpt lat="43.57693" lon="3.73425">
        <ele>107.1</ele>
        <time>2011-02-06T11:38:54Z</time>
      </trkpt>
      <trkpt lat="43.57692" lon="3.73431">
        <ele>106.7</ele>
        <time>2011-02-06T11:38:55Z</time>
      </trkpt>
      <trkpt lat="43.5769" lon="3.73437">
        <ele>106.4</ele>
        <time>2011-02-06T11:38:56Z</time>
      </trkpt>
      <trkpt lat="43.57689" lon="3.73443">
        <ele>106.1</ele>
        <time>2011-02-06T11:38:57Z</time>
      </trkpt>
      <trkpt lat="43.57688" lon="3.7345">
        <ele>105.9</ele>
        <time>2011-02-06T11:38:58Z</time>
      </trkpt>
      <trkpt lat="43.57687" lon="3.73457">
        <ele>105.8</ele>
        <time>2011-02-06T11:38:59Z</time>
      </trkpt>
      <trkpt lat="43.57688" lon="3.73465">
        <ele>105.6</ele>
        <time>2011-02-06T11:39:00Z</time>
      </trkpt>
      <trkpt lat="43.57689" lon="3.73472">
        <ele>105.2</ele>
        <time>2011-02-06T11:39:01Z</time>
      </trkpt>
      <trkpt lat="43.57692" lon="3.73479">
        <ele>104.8</ele>
        <time>2011-02-06T11:39:02Z</time>
      </trkpt>
      <trkpt lat="43.57695" lon="3.73486">
        <ele>104.5</ele>
        <time>2011-02-06T11:39:03Z</time>
      </trkpt>
      <trkpt lat="43.57698" lon="3.73492">
        <ele>103.7</ele>
        <time>2011-02-06T11:39:04Z</time>
      </trkpt>
      <trkpt lat="43.57703" lon="3.73497">
        <ele>103.2</ele>
        <time>2011-02-06T11:39:05Z</time>
      </trkpt>
      <trkpt lat="43.57708" lon="3.73499">
        <ele>102.7</ele>
        <time>2011-02-06T11:39:06Z</time>
      </trkpt>
      <trkpt lat="43.57714" lon="3.73502">
        <ele>102.5</ele>
        <time>2011-02-06T11:39:07Z</time>
      </trkpt>
      <trkpt lat="43.5772" lon="3.73505">
        <ele>102.2</ele>
        <time>2011-02-06T11:39:08Z</time>
      </trkpt>
      <trkpt lat="43.57725" lon="3.73507">
        <ele>102.1</ele>
        <time>2011-02-06T11:39:09Z</time>
      </trkpt>
      <trkpt lat="43.57731" lon="3.73509">
        <ele>102</ele>
        <time>2011-02-06T11:39:10Z</time>
      </trkpt>
      <trkpt lat="43.57737" lon="3.73512">
        <ele>101.7</ele>
        <time>2011-02-06T11:39:11Z</time>
      </trkpt>
      <trkpt lat="43.57743" lon="3.73516">
        <ele>101.5</ele>
        <time>2011-02-06T11:39:12Z</time>
      </trkpt>
      <trkpt lat="43.57748" lon="3.73521">
        <ele>101.3</ele>
        <time>2011-02-06T11:39:13Z</time>
      </trkpt>
      <trkpt lat="43.57753" lon="3.73528">
        <ele>100.5</ele>
        <time>2011-02-06T11:39:14Z</time>
      </trkpt>
      <trkpt lat="43.57757" lon="3.73535">
        <ele>99.8</ele>
        <time>2011-02-06T11:39:15Z</time>
      </trkpt>
      <trkpt lat="43.57762" lon="3.73542">
        <ele>99.3</ele>
        <time>2011-02-06T11:39:16Z</time>
      </trkpt>
      <trkpt lat="43.57766" lon="3.73549">
        <ele>99.3</ele>
        <time>2011-02-06T11:39:17Z</time>
      </trkpt>
      <trkpt lat="43.5777" lon="3.73555">
        <ele>99.2</ele>
        <time>2011-02-06T11:39:18Z</time>
      </trkpt>
      <trkpt lat="43.57775" lon="3.7356">
        <ele>99.1</ele>
        <time>2011-02-06T11:39:19Z</time>
      </trkpt>
      <trkpt lat="43.5778" lon="3.73569">
        <ele>99.6</ele>
        <time>2011-02-06T11:39:21Z</time>
      </trkpt>
      <trkpt lat="43.57784" lon="3.73579">
        <ele>99.8</ele>
        <time>2011-02-06T11:39:23Z</time>
      </trkpt>
      <trkpt lat="43.57787" lon="3.73589">
        <ele>100.3</ele>
        <time>2011-02-06T11:39:25Z</time>
      </trkpt>
      <trkpt lat="43.57791" lon="3.73598">
        <ele>100.8</ele>
        <time>2011-02-06T11:39:27Z</time>
      </trkpt>
      <trkpt lat="43.57796" lon="3.73605">
        <ele>101.2</ele>
        <time>2011-02-06T11:39:29Z</time>
      </trkpt>
      <trkpt lat="43.57801" lon="3.7361">
        <ele>101.4</ele>
        <time>2011-02-06T11:39:31Z</time>
      </trkpt>
      <trkpt lat="43.57808" lon="3.73616">
        <ele>101.7</ele>
        <time>2011-02-06T11:39:34Z</time>
      </trkpt>
      <trkpt lat="43.57814" lon="3.7362">
        <ele>102</ele>
        <time>2011-02-06T11:39:37Z</time>
      </trkpt>
      <trkpt lat="43.57821" lon="3.73628">
        <ele>102.1</ele>
        <time>2011-02-06T11:39:41Z</time>
      </trkpt>
      <trkpt lat="43.57826" lon="3.73637">
        <ele>102.7</ele>
        <time>2011-02-06T11:39:44Z</time>
      </trkpt>
      <trkpt lat="43.57829" lon="3.73645">
        <ele>102.9</ele>
        <time>2011-02-06T11:39:46Z</time>
      </trkpt>
      <trkpt lat="43.57831" lon="3.73657">
        <ele>103.1</ele>
        <time>2011-02-06T11:39:48Z</time>
      </trkpt>
      <trkpt lat="43.57831" lon="3.73664">
        <ele>103</ele>
        <time>2011-02-06T11:39:49Z</time>
      </trkpt>
      <trkpt lat="43.57832" lon="3.73671">
        <ele>102.9</ele>
        <time>2011-02-06T11:39:50Z</time>
      </trkpt>
      <trkpt lat="43.57833" lon="3.73679">
        <ele>102.8</ele>
        <time>2011-02-06T11:39:51Z</time>
      </trkpt>
      <trkpt lat="43.57836" lon="3.73686">
        <ele>102.4</ele>
        <time>2011-02-06T11:39:52Z</time>
      </trkpt>
      <trkpt lat="43.57839" lon="3.73693">
        <ele>102.1</ele>
        <time>2011-02-06T11:39:53Z</time>
      </trkpt>
      <trkpt lat="43.57843" lon="3.737">
        <ele>101.9</ele>
        <time>2011-02-06T11:39:54Z</time>
      </trkpt>
      <trkpt lat="43.57846" lon="3.73708">
        <ele>101.6</ele>
        <time>2011-02-06T11:39:55Z</time>
      </trkpt>
      <trkpt lat="43.57848" lon="3.73716">
        <ele>101.3</ele>
        <time>2011-02-06T11:39:56Z</time>
      </trkpt>
      <trkpt lat="43.57851" lon="3.73725">
        <ele>101.2</ele>
        <time>2011-02-06T11:39:57Z</time>
      </trkpt>
      <trkpt lat="43.57853" lon="3.73733">
        <ele>101</ele>
        <time>2011-02-06T11:39:58Z</time>
      </trkpt>
      <trkpt lat="43.57856" lon="3.73742">
        <ele>100</ele>
        <time>2011-02-06T11:39:59Z</time>
      </trkpt>
      <trkpt lat="43.57859" lon="3.73749">
        <ele>99.2</ele>
        <time>2011-02-06T11:40:00Z</time>
      </trkpt>
      <trkpt lat="43.57862" lon="3.73756">
        <ele>98.6</ele>
        <time>2011-02-06T11:40:01Z</time>
      </trkpt>
      <trkpt lat="43.57864" lon="3.73763">
        <ele>97.3</ele>
        <time>2011-02-06T11:40:02Z</time>
      </trkpt>
      <trkpt lat="43.57865" lon="3.73769">
        <ele>96.4</ele>
        <time>2011-02-06T11:40:03Z</time>
      </trkpt>
      <trkpt lat="43.57867" lon="3.73774">
        <ele>95.7</ele>
        <time>2011-02-06T11:40:04Z</time>
      </trkpt>
      <trkpt lat="43.57871" lon="3.7378">
        <ele>94.6</ele>
        <time>2011-02-06T11:40:05Z</time>
      </trkpt>
      <trkpt lat="43.57875" lon="3.73785">
        <ele>93.7</ele>
        <time>2011-02-06T11:40:06Z</time>
      </trkpt>
      <trkpt lat="43.57877" lon="3.73792">
        <ele>93.1</ele>
        <time>2011-02-06T11:40:07Z</time>
      </trkpt>
      <trkpt lat="43.57878" lon="3.73799">
        <ele>92.3</ele>
        <time>2011-02-06T11:40:08Z</time>
      </trkpt>
      <trkpt lat="43.57879" lon="3.73806">
        <ele>91.7</ele>
        <time>2011-02-06T11:40:09Z</time>
      </trkpt>
      <trkpt lat="43.5788" lon="3.73813">
        <ele>91.3</ele>
        <time>2011-02-06T11:40:10Z</time>
      </trkpt>
      <trkpt lat="43.57883" lon="3.73819">
        <ele>90.3</ele>
        <time>2011-02-06T11:40:11Z</time>
      </trkpt>
      <trkpt lat="43.57887" lon="3.73825">
        <ele>89.5</ele>
        <time>2011-02-06T11:40:12Z</time>
      </trkpt>
      <trkpt lat="43.57891" lon="3.73831">
        <ele>88.9</ele>
        <time>2011-02-06T11:40:13Z</time>
      </trkpt>
      <trkpt lat="43.57895" lon="3.73839">
        <ele>88.5</ele>
        <time>2011-02-06T11:40:14Z</time>
      </trkpt>
      <trkpt lat="43.57899" lon="3.73847">
        <ele>87.4</ele>
        <time>2011-02-06T11:40:15Z</time>
      </trkpt>
      <trkpt lat="43.57902" lon="3.73855">
        <ele>86.6</ele>
        <time>2011-02-06T11:40:16Z</time>
      </trkpt>
      <trkpt lat="43.57905" lon="3.73864">
        <ele>86</ele>
        <time>2011-02-06T11:40:17Z</time>
      </trkpt>
      <trkpt lat="43.57907" lon="3.73873">
        <ele>84.7</ele>
        <time>2011-02-06T11:40:18Z</time>
      </trkpt>
      <trkpt lat="43.5791" lon="3.73882">
        <ele>83.7</ele>
        <time>2011-02-06T11:40:19Z</time>
      </trkpt>
      <trkpt lat="43.57912" lon="3.73892">
        <ele>82.9</ele>
        <time>2011-02-06T11:40:20Z</time>
      </trkpt>
      <trkpt lat="43.57914" lon="3.73902">
        <ele>80.9</ele>
        <time>2011-02-06T11:40:21Z</time>
      </trkpt>
      <trkpt lat="43.57915" lon="3.73914">
        <ele>79.3</ele>
        <time>2011-02-06T11:40:22Z</time>
      </trkpt>
      <trkpt lat="43.57916" lon="3.73925">
        <ele>78.1</ele>
        <time>2011-02-06T11:40:23Z</time>
      </trkpt>
      <trkpt lat="43.57916" lon="3.73934">
        <ele>76.6</ele>
        <time>2011-02-06T11:40:24Z</time>
      </trkpt>
      <trkpt lat="43.57913" lon="3.73943">
        <ele>74.5</ele>
        <time>2011-02-06T11:40:26Z</time>
      </trkpt>
      <trkpt lat="43.57911" lon="3.73954">
        <ele>72.8</ele>
        <time>2011-02-06T11:40:29Z</time>
      </trkpt>
      <trkpt lat="43.57908" lon="3.73965">
        <ele>71.3</ele>
        <time>2011-02-06T11:40:31Z</time>
      </trkpt>
      <trkpt lat="43.57902" lon="3.73972">
        <ele>70.5</ele>
        <time>2011-02-06T11:40:33Z</time>
      </trkpt>
      <trkpt lat="43.57899" lon="3.73982">
        <ele>69.7</ele>
        <time>2011-02-06T11:40:35Z</time>
      </trkpt>
      <trkpt lat="43.57898" lon="3.73988">
        <ele>69.4</ele>
        <time>2011-02-06T11:40:36Z</time>
      </trkpt>
      <trkpt lat="43.57897" lon="3.73996">
        <ele>68.4</ele>
        <time>2011-02-06T11:40:37Z</time>
      </trkpt>
      <trkpt lat="43.57895" lon="3.74004">
        <ele>67.7</ele>
        <time>2011-02-06T11:40:38Z</time>
      </trkpt>
      <trkpt lat="43.57891" lon="3.74011">
        <ele>67.2</ele>
        <time>2011-02-06T11:40:39Z</time>
      </trkpt>
      <trkpt lat="43.57887" lon="3.74018">
        <ele>66</ele>
        <time>2011-02-06T11:40:40Z</time>
      </trkpt>
      <trkpt lat="43.57881" lon="3.74024">
        <ele>65.2</ele>
        <time>2011-02-06T11:40:41Z</time>
      </trkpt>
      <trkpt lat="43.57875" lon="3.74027">
        <ele>64.5</ele>
        <time>2011-02-06T11:40:42Z</time>
      </trkpt>
      <trkpt lat="43.5787" lon="3.74028">
        <ele>64.3</ele>
        <time>2011-02-06T11:40:43Z</time>
      </trkpt>
      <trkpt lat="43.57865" lon="3.7403">
        <ele>64.1</ele>
        <time>2011-02-06T11:40:44Z</time>
      </trkpt>
      <trkpt lat="43.5786" lon="3.74032">
        <ele>64</ele>
        <time>2011-02-06T11:40:45Z</time>
      </trkpt>
      <trkpt lat="43.57855" lon="3.74035">
        <ele>64</ele>
        <time>2011-02-06T11:40:46Z</time>
      </trkpt>
      <trkpt lat="43.5785" lon="3.74039">
        <ele>63.9</ele>
        <time>2011-02-06T11:40:47Z</time>
      </trkpt>
      <trkpt lat="43.57845" lon="3.74044">
        <ele>63.9</ele>
        <time>2011-02-06T11:40:48Z</time>
      </trkpt>
      <trkpt lat="43.57841" lon="3.74048">
        <ele>63.9</ele>
        <time>2011-02-06T11:40:49Z</time>
      </trkpt>
      <trkpt lat="43.57836" lon="3.74053">
        <ele>63.3</ele>
        <time>2011-02-06T11:40:50Z</time>
      </trkpt>
      <trkpt lat="43.57831" lon="3.74057">
        <ele>62.9</ele>
        <time>2011-02-06T11:40:51Z</time>
      </trkpt>
      <trkpt lat="43.57826" lon="3.74062">
        <ele>62.6</ele>
        <time>2011-02-06T11:40:52Z</time>
      </trkpt>
      <trkpt lat="43.57821" lon="3.74067">
        <ele>62.6</ele>
        <time>2011-02-06T11:40:53Z</time>
      </trkpt>
      <trkpt lat="43.57817" lon="3.74072">
        <ele>62.6</ele>
        <time>2011-02-06T11:40:54Z</time>
      </trkpt>
      <trkpt lat="43.57812" lon="3.74078">
        <ele>62.6</ele>
        <time>2011-02-06T11:40:55Z</time>
      </trkpt>
      <trkpt lat="43.57807" lon="3.74083">
        <ele>62</ele>
        <time>2011-02-06T11:40:56Z</time>
      </trkpt>
      <trkpt lat="43.57803" lon="3.74089">
        <ele>61.7</ele>
        <time>2011-02-06T11:40:57Z</time>
      </trkpt>
      <trkpt lat="43.57798" lon="3.74094">
        <ele>61.4</ele>
        <time>2011-02-06T11:40:58Z</time>
      </trkpt>
      <trkpt lat="43.57793" lon="3.741">
        <ele>60.7</ele>
        <time>2011-02-06T11:40:59Z</time>
      </trkpt>
      <trkpt lat="43.57789" lon="3.74105">
        <ele>60.2</ele>
        <time>2011-02-06T11:41:00Z</time>
      </trkpt>
      <trkpt lat="43.57785" lon="3.74111">
        <ele>59.9</ele>
        <time>2011-02-06T11:41:01Z</time>
      </trkpt>
      <trkpt lat="43.57781" lon="3.74117">
        <ele>59.8</ele>
        <time>2011-02-06T11:41:02Z</time>
      </trkpt>
      <trkpt lat="43.57779" lon="3.74124">
        <ele>59.7</ele>
        <time>2011-02-06T11:41:03Z</time>
      </trkpt>
      <trkpt lat="43.57776" lon="3.7413">
        <ele>59.7</ele>
        <time>2011-02-06T11:41:04Z</time>
      </trkpt>
      <trkpt lat="43.57774" lon="3.74136">
        <ele>59.6</ele>
        <time>2011-02-06T11:41:05Z</time>
      </trkpt>
      <trkpt lat="43.57771" lon="3.74147">
        <ele>58.8</ele>
        <time>2011-02-06T11:41:07Z</time>
      </trkpt>
      <trkpt lat="43.57769" lon="3.74157">
        <ele>59.1</ele>
        <time>2011-02-06T11:41:09Z</time>
      </trkpt>
      <trkpt lat="43.57768" lon="3.74162">
        <ele>59.6</ele>
        <time>2011-02-06T11:41:10Z</time>
      </trkpt>
      <trkpt lat="43.57766" lon="3.74178">
        <ele>60.5</ele>
        <time>2011-02-06T11:41:13Z</time>
      </trkpt>
      <trkpt lat="43.57766" lon="3.7419">
        <ele>60.7</ele>
        <time>2011-02-06T11:41:15Z</time>
      </trkpt>
      <trkpt lat="43.57766" lon="3.74196">
        <ele>60.6</ele>
        <time>2011-02-06T11:41:16Z</time>
      </trkpt>
      <trkpt lat="43.57766" lon="3.74203">
        <ele>60.6</ele>
        <time>2011-02-06T11:41:17Z</time>
      </trkpt>
      <trkpt lat="43.57766" lon="3.7421">
        <ele>60.4</ele>
        <time>2011-02-06T11:41:18Z</time>
      </trkpt>
      <trkpt lat="43.57767" lon="3.74216">
        <ele>60.2</ele>
        <time>2011-02-06T11:41:19Z</time>
      </trkpt>
      <trkpt lat="43.57768" lon="3.74223">
        <ele>60.1</ele>
        <time>2011-02-06T11:41:20Z</time>
      </trkpt>
      <trkpt lat="43.57769" lon="3.7423">
        <ele>60</ele>
        <time>2011-02-06T11:41:21Z</time>
      </trkpt>
      <trkpt lat="43.57769" lon="3.74237">
        <ele>60</ele>
        <time>2011-02-06T11:41:22Z</time>
      </trkpt>
      <trkpt lat="43.5777" lon="3.74243">
        <ele>60.1</ele>
        <time>2011-02-06T11:41:23Z</time>
      </trkpt>
      <trkpt lat="43.57772" lon="3.74249">
        <ele>60.1</ele>
        <time>2011-02-06T11:41:24Z</time>
      </trkpt>
      <trkpt lat="43.57776" lon="3.7426">
        <ele>59.2</ele>
        <time>2011-02-06T11:41:26Z</time>
      </trkpt>
      <trkpt lat="43.5778" lon="3.74269">
        <ele>59.2</ele>
        <time>2011-02-06T11:41:28Z</time>
      </trkpt>
      <trkpt lat="43.57785" lon="3.74278">
        <ele>59.5</ele>
        <time>2011-02-06T11:41:30Z</time>
      </trkpt>
      <trkpt lat="43.5779" lon="3.74286">
        <ele>60.4</ele>
        <time>2011-02-06T11:41:32Z</time>
      </trkpt>
      <trkpt lat="43.57795" lon="3.74296">
        <ele>61.1</ele>
        <time>2011-02-06T11:41:34Z</time>
      </trkpt>
      <trkpt lat="43.578" lon="3.74304">
        <ele>61.7</ele>
        <time>2011-02-06T11:41:36Z</time>
      </trkpt>
      <trkpt lat="43.57802" lon="3.74314">
        <ele>62.5</ele>
        <time>2011-02-06T11:41:38Z</time>
      </trkpt>
      <trkpt lat="43.578" lon="3.74324">
        <ele>63.4</ele>
        <time>2011-02-06T11:41:40Z</time>
      </trkpt>
      <trkpt lat="43.57796" lon="3.74334">
        <ele>64</ele>
        <time>2011-02-06T11:41:42Z</time>
      </trkpt>
      <trkpt lat="43.57799" lon="3.74342">
        <ele>64.5</ele>
        <time>2011-02-06T11:41:44Z</time>
      </trkpt>
      <trkpt lat="43.57803" lon="3.74349">
        <ele>64.9</ele>
        <time>2011-02-06T11:41:46Z</time>
      </trkpt>
      <trkpt lat="43.57808" lon="3.74356">
        <ele>64.5</ele>
        <time>2011-02-06T11:41:48Z</time>
      </trkpt>
      <trkpt lat="43.57813" lon="3.74362">
        <ele>64.1</ele>
        <time>2011-02-06T11:41:50Z</time>
      </trkpt>
      <trkpt lat="43.57818" lon="3.74369">
        <ele>63.8</ele>
        <time>2011-02-06T11:41:52Z</time>
      </trkpt>
      <trkpt lat="43.57822" lon="3.74375">
        <ele>64.2</ele>
        <time>2011-02-06T11:41:54Z</time>
      </trkpt>
      <trkpt lat="43.57827" lon="3.74384">
        <ele>64.9</ele>
        <time>2011-02-06T11:41:57Z</time>
      </trkpt>
      <trkpt lat="43.57833" lon="3.74393">
        <ele>64.6</ele>
        <time>2011-02-06T11:42:00Z</time>
      </trkpt>
      <trkpt lat="43.57836" lon="3.744">
        <ele>64.2</ele>
        <time>2011-02-06T11:42:02Z</time>
      </trkpt>
      <trkpt lat="43.5784" lon="3.74407">
        <ele>64.3</ele>
        <time>2011-02-06T11:42:04Z</time>
      </trkpt>
      <trkpt lat="43.57844" lon="3.74415">
        <ele>64.5</ele>
        <time>2011-02-06T11:42:06Z</time>
      </trkpt>
      <trkpt lat="43.57848" lon="3.74423">
        <ele>64.7</ele>
        <time>2011-02-06T11:42:08Z</time>
      </trkpt>
      <trkpt lat="43.57853" lon="3.74432">
        <ele>64.6</ele>
        <time>2011-02-06T11:42:10Z</time>
      </trkpt>
      <trkpt lat="43.57855" lon="3.74436">
        <ele>64.5</ele>
        <time>2011-02-06T11:42:11Z</time>
      </trkpt>
      <trkpt lat="43.57862" lon="3.7445">
        <ele>64.3</ele>
        <time>2011-02-06T11:42:14Z</time>
      </trkpt>
      <trkpt lat="43.57867" lon="3.7446">
        <ele>64.1</ele>
        <time>2011-02-06T11:42:16Z</time>
      </trkpt>
      <trkpt lat="43.57872" lon="3.7447">
        <ele>64</ele>
        <time>2011-02-06T11:42:18Z</time>
      </trkpt>
      <trkpt lat="43.57877" lon="3.7448">
        <ele>64</ele>
        <time>2011-02-06T11:42:20Z</time>
      </trkpt>
      <trkpt lat="43.57882" lon="3.7449">
        <ele>64</ele>
        <time>2011-02-06T11:42:22Z</time>
      </trkpt>
      <trkpt lat="43.57886" lon="3.745">
        <ele>63.9</ele>
        <time>2011-02-06T11:42:24Z</time>
      </trkpt>
      <trkpt lat="43.57891" lon="3.7451">
        <ele>63.6</ele>
        <time>2011-02-06T11:42:26Z</time>
      </trkpt>
      <trkpt lat="43.57894" lon="3.74516">
        <ele>63.5</ele>
        <time>2011-02-06T11:42:27Z</time>
      </trkpt>
      <trkpt lat="43.57897" lon="3.74521">
        <ele>63.4</ele>
        <time>2011-02-06T11:42:28Z</time>
      </trkpt>
      <trkpt lat="43.57899" lon="3.74527">
        <ele>63.3</ele>
        <time>2011-02-06T11:42:29Z</time>
      </trkpt>
      <trkpt lat="43.57902" lon="3.74532">
        <ele>63.2</ele>
        <time>2011-02-06T11:42:30Z</time>
      </trkpt>
      <trkpt lat="43.57905" lon="3.74538">
        <ele>63.1</ele>
        <time>2011-02-06T11:42:31Z</time>
      </trkpt>
      <trkpt lat="43.57907" lon="3.74543">
        <ele>63.4</ele>
        <time>2011-02-06T11:42:32Z</time>
      </trkpt>
      <trkpt lat="43.5791" lon="3.74549">
        <ele>63.6</ele>
        <time>2011-02-06T11:42:33Z</time>
      </trkpt>
      <trkpt lat="43.57913" lon="3.74554">
        <ele>63.8</ele>
        <time>2011-02-06T11:42:34Z</time>
      </trkpt>
      <trkpt lat="43.57915" lon="3.7456">
        <ele>63.4</ele>
        <time>2011-02-06T11:42:35Z</time>
      </trkpt>
      <trkpt lat="43.57918" lon="3.74565">
        <ele>63.2</ele>
        <time>2011-02-06T11:42:36Z</time>
      </trkpt>
      <trkpt lat="43.57921" lon="3.74571">
        <ele>63</ele>
        <time>2011-02-06T11:42:37Z</time>
      </trkpt>
      <trkpt lat="43.57924" lon="3.74576">
        <ele>63.2</ele>
        <time>2011-02-06T11:42:38Z</time>
      </trkpt>
      <trkpt lat="43.57926" lon="3.74582">
        <ele>63.3</ele>
        <time>2011-02-06T11:42:39Z</time>
      </trkpt>
      <trkpt lat="43.57929" lon="3.74587">
        <ele>63.4</ele>
        <time>2011-02-06T11:42:40Z</time>
      </trkpt>
      <trkpt lat="43.57932" lon="3.74593">
        <ele>63.6</ele>
        <time>2011-02-06T11:42:41Z</time>
      </trkpt>
      <trkpt lat="43.57935" lon="3.74599">
        <ele>63.8</ele>
        <time>2011-02-06T11:42:42Z</time>
      </trkpt>
      <trkpt lat="43.57937" lon="3.74605">
        <ele>63.9</ele>
        <time>2011-02-06T11:42:43Z</time>
      </trkpt>
      <trkpt lat="43.5794" lon="3.74611">
        <ele>64</ele>
        <time>2011-02-06T11:42:44Z</time>
      </trkpt>
      <trkpt lat="43.57943" lon="3.74617">
        <ele>63.9</ele>
        <time>2011-02-06T11:42:45Z</time>
      </trkpt>
      <trkpt lat="43.57946" lon="3.74623">
        <ele>63.9</ele>
        <time>2011-02-06T11:42:46Z</time>
      </trkpt>
      <trkpt lat="43.57949" lon="3.74629">
        <ele>63.8</ele>
        <time>2011-02-06T11:42:47Z</time>
      </trkpt>
      <trkpt lat="43.57952" lon="3.74634">
        <ele>63.5</ele>
        <time>2011-02-06T11:42:48Z</time>
      </trkpt>
      <trkpt lat="43.57954" lon="3.7464">
        <ele>63.2</ele>
        <time>2011-02-06T11:42:49Z</time>
      </trkpt>
      <trkpt lat="43.57957" lon="3.74646">
        <ele>63</ele>
        <time>2011-02-06T11:42:50Z</time>
      </trkpt>
      <trkpt lat="43.5796" lon="3.74652">
        <ele>63</ele>
        <time>2011-02-06T11:42:51Z</time>
      </trkpt>
      <trkpt lat="43.57962" lon="3.74657">
        <ele>62.9</ele>
        <time>2011-02-06T11:42:52Z</time>
      </trkpt>
      <trkpt lat="43.57965" lon="3.74663">
        <ele>62.9</ele>
        <time>2011-02-06T11:42:53Z</time>
      </trkpt>
      <trkpt lat="43.57968" lon="3.74669">
        <ele>62.6</ele>
        <time>2011-02-06T11:42:54Z</time>
      </trkpt>
      <trkpt lat="43.57971" lon="3.74676">
        <ele>62.3</ele>
        <time>2011-02-06T11:42:55Z</time>
      </trkpt>
      <trkpt lat="43.57974" lon="3.74682">
        <ele>62.1</ele>
        <time>2011-02-06T11:42:56Z</time>
      </trkpt>
      <trkpt lat="43.57977" lon="3.74689">
        <ele>62</ele>
        <time>2011-02-06T11:42:57Z</time>
      </trkpt>
      <trkpt lat="43.5798" lon="3.74695">
        <ele>61.9</ele>
        <time>2011-02-06T11:42:58Z</time>
      </trkpt>
      <trkpt lat="43.57983" lon="3.74702">
        <ele>61.9</ele>
        <time>2011-02-06T11:42:59Z</time>
      </trkpt>
      <trkpt lat="43.57986" lon="3.74708">
        <ele>61.8</ele>
        <time>2011-02-06T11:43:00Z</time>
      </trkpt>
      <trkpt lat="43.57989" lon="3.74714">
        <ele>61.9</ele>
        <time>2011-02-06T11:43:01Z</time>
      </trkpt>
      <trkpt lat="43.57992" lon="3.74719">
        <ele>62</ele>
        <time>2011-02-06T11:43:02Z</time>
      </trkpt>
      <trkpt lat="43.57995" lon="3.74725">
        <ele>62.1</ele>
        <time>2011-02-06T11:43:03Z</time>
      </trkpt>
      <trkpt lat="43.57997" lon="3.7473">
        <ele>62.1</ele>
        <time>2011-02-06T11:43:04Z</time>
      </trkpt>
      <trkpt lat="43.58002" lon="3.7474">
        <ele>62.1</ele>
        <time>2011-02-06T11:43:06Z</time>
      </trkpt>
      <trkpt lat="43.58007" lon="3.74749">
        <ele>62.1</ele>
        <time>2011-02-06T11:43:08Z</time>
      </trkpt>
      <trkpt lat="43.5801" lon="3.74758">
        <ele>62.5</ele>
        <time>2011-02-06T11:43:10Z</time>
      </trkpt>
      <trkpt lat="43.58015" lon="3.74768">
        <ele>63.1</ele>
        <time>2011-02-06T11:43:13Z</time>
      </trkpt>
      <trkpt lat="43.58016" lon="3.74769">
        <ele>63.1</ele>
        <time>2011-02-06T11:43:14Z</time>
      </trkpt>
      <trkpt lat="43.58021" lon="3.7475">
        <ele>62.7</ele>
        <time>2011-02-06T11:43:22Z</time>
      </trkpt>
      <trkpt lat="43.58026" lon="3.74745">
        <ele>62.8</ele>
        <time>2011-02-06T11:43:24Z</time>
      </trkpt>
      <trkpt lat="43.58031" lon="3.74741">
        <ele>63.3</ele>
        <time>2011-02-06T11:43:26Z</time>
      </trkpt>
      <trkpt lat="43.58036" lon="3.74737">
        <ele>63.8</ele>
        <time>2011-02-06T11:43:28Z</time>
      </trkpt>
      <trkpt lat="43.58042" lon="3.74732">
        <ele>64.2</ele>
        <time>2011-02-06T11:43:30Z</time>
      </trkpt>
      <trkpt lat="43.58049" lon="3.74725">
        <ele>64.8</ele>
        <time>2011-02-06T11:43:33Z</time>
      </trkpt>
      <trkpt lat="43.58049" lon="3.74714">
        <ele>65.3</ele>
        <time>2011-02-06T11:43:36Z</time>
      </trkpt>
      <trkpt lat="43.5805" lon="3.74706">
        <ele>65.6</ele>
        <time>2011-02-06T11:43:38Z</time>
      </trkpt>
      <trkpt lat="43.58054" lon="3.74698">
        <ele>65.8</ele>
        <time>2011-02-06T11:43:40Z</time>
      </trkpt>
      <trkpt lat="43.58059" lon="3.74688">
        <ele>67.7</ele>
        <time>2011-02-06T11:44:04Z</time>
      </trkpt>
      <trkpt lat="43.58064" lon="3.7468">
        <ele>69.2</ele>
        <time>2011-02-06T11:44:13Z</time>
      </trkpt>
      <trkpt lat="43.58071" lon="3.74671">
        <ele>71.6</ele>
        <time>2011-02-06T11:44:23Z</time>
      </trkpt>
      <trkpt lat="43.58071" lon="3.7467">
        <ele>71.9</ele>
        <time>2011-02-06T11:44:24Z</time>
      </trkpt>
      <trkpt lat="43.58085" lon="3.74675">
        <ele>73.1</ele>
        <time>2011-02-06T11:44:41Z</time>
      </trkpt>
      <trkpt lat="43.58091" lon="3.74682">
        <ele>74.9</ele>
        <time>2011-02-06T11:44:51Z</time>
      </trkpt>
      <trkpt lat="43.58098" lon="3.7469">
        <ele>75.8</ele>
        <time>2011-02-06T11:44:58Z</time>
      </trkpt>
      <trkpt lat="43.58103" lon="3.74699">
        <ele>76.3</ele>
        <time>2011-02-06T11:45:06Z</time>
      </trkpt>
      <trkpt lat="43.58104" lon="3.74699">
        <ele>75.8</ele>
        <time>2011-02-06T11:47:11Z</time>
      </trkpt>
    </trkseg>
  </trk>
</gpx>